<?xml version="1.0" encoding="UTF-8" standalone="no" ?>
<gpx xmlns="http://www.topografix.com/GPX/1/1" xmlns:xsi="http://www.w3.org/2001/XMLSchema-instance" xsi:schemaLocation="http://www.topografix.com/GPX/1/1 http://www.topografix.com/GPX/1/1/gpx.xsd" version="1.1" creator="VisuGPX - https://www.visugpx.com">
  <metadata>
    <name>Chamonix/Zermatt - Etape6 - Cabane des Vignettes / Zermatt</name>
    <desc><![CDATA[Chamonix/Zermatt - Etape6 - Cabane des Vignettes / Zermatt]]></desc>
  </metadata>
  <trk>
    <name><![CDATA[ETAPE6-10 15:14:59]]></name>
    <trkseg>
      <trkpt lat="45.98557" lon="7.47258">
        <ele>3149.42</ele>
        <time>2010-04-16T04:32:01Z</time>
      </trkpt>
      <trkpt lat="45.98559" lon="7.47254">
        <ele>3150.86</ele>
        <time>2010-04-16T04:32:10Z</time>
      </trkpt>
      <trkpt lat="45.98559" lon="7.47254">
        <ele>3146.53</ele>
        <time>2010-04-16T04:32:14Z</time>
      </trkpt>
      <trkpt lat="45.98559" lon="7.47254">
        <ele>3151.34</ele>
        <time>2010-04-16T04:32:15Z</time>
      </trkpt>
      <trkpt lat="45.98559" lon="7.47254">
        <ele>3151.34</ele>
        <time>2010-04-16T04:32:16Z</time>
      </trkpt>
      <trkpt lat="45.9856" lon="7.47256">
        <ele>3151.34</ele>
        <time>2010-04-16T04:32:26Z</time>
      </trkpt>
      <trkpt lat="45.98559" lon="7.47256">
        <ele>3149.9</ele>
        <time>2010-04-16T04:32:28Z</time>
      </trkpt>
      <trkpt lat="45.98558" lon="7.47255">
        <ele>3146.05</ele>
        <time>2010-04-16T04:32:38Z</time>
      </trkpt>
      <trkpt lat="45.98558" lon="7.47255">
        <ele>3149.9</ele>
        <time>2010-04-16T04:32:39Z</time>
      </trkpt>
      <trkpt lat="45.98556" lon="7.47259">
        <ele>3149.9</ele>
        <time>2010-04-16T04:32:55Z</time>
      </trkpt>
      <trkpt lat="45.98553" lon="7.47258">
        <ele>3148.94</ele>
        <time>2010-04-16T04:32:57Z</time>
      </trkpt>
      <trkpt lat="45.98546" lon="7.47255">
        <ele>3147.01</ele>
        <time>2010-04-16T04:33:02Z</time>
      </trkpt>
      <trkpt lat="45.98542" lon="7.47252">
        <ele>3146.53</ele>
        <time>2010-04-16T04:33:06Z</time>
      </trkpt>
      <trkpt lat="45.98537" lon="7.47241">
        <ele>3144.13</ele>
        <time>2010-04-16T04:33:12Z</time>
      </trkpt>
      <trkpt lat="45.98529" lon="7.47239">
        <ele>3141.25</ele>
        <time>2010-04-16T04:33:22Z</time>
      </trkpt>
      <trkpt lat="45.98528" lon="7.47226">
        <ele>3138.84</ele>
        <time>2010-04-16T04:33:26Z</time>
      </trkpt>
      <trkpt lat="45.98527" lon="7.47207">
        <ele>3135.48</ele>
        <time>2010-04-16T04:33:30Z</time>
      </trkpt>
      <trkpt lat="45.98526" lon="7.47201">
        <ele>3134.52</ele>
        <time>2010-04-16T04:33:31Z</time>
      </trkpt>
      <trkpt lat="45.98521" lon="7.47184">
        <ele>3132.11</ele>
        <time>2010-04-16T04:33:34Z</time>
      </trkpt>
      <trkpt lat="45.98519" lon="7.47178">
        <ele>3130.19</ele>
        <time>2010-04-16T04:33:35Z</time>
      </trkpt>
      <trkpt lat="45.98507" lon="7.47155">
        <ele>3126.34</ele>
        <time>2010-04-16T04:33:40Z</time>
      </trkpt>
      <trkpt lat="45.98504" lon="7.4715">
        <ele>3126.34</ele>
        <time>2010-04-16T04:33:41Z</time>
      </trkpt>
      <trkpt lat="45.98489" lon="7.4713">
        <ele>3122.02</ele>
        <time>2010-04-16T04:33:46Z</time>
      </trkpt>
      <trkpt lat="45.98487" lon="7.47127">
        <ele>3122.5</ele>
        <time>2010-04-16T04:33:47Z</time>
      </trkpt>
      <trkpt lat="45.98485" lon="7.47123">
        <ele>3122.02</ele>
        <time>2010-04-16T04:33:48Z</time>
      </trkpt>
      <trkpt lat="45.98472" lon="7.4711">
        <ele>3121.54</ele>
        <time>2010-04-16T04:33:52Z</time>
      </trkpt>
      <trkpt lat="45.98459" lon="7.47105">
        <ele>3119.13</ele>
        <time>2010-04-16T04:33:55Z</time>
      </trkpt>
      <trkpt lat="45.98449" lon="7.47101">
        <ele>3116.25</ele>
        <time>2010-04-16T04:33:57Z</time>
      </trkpt>
      <trkpt lat="45.98416" lon="7.47089">
        <ele>3112.41</ele>
        <time>2010-04-16T04:34:03Z</time>
      </trkpt>
      <trkpt lat="45.98385" lon="7.47085">
        <ele>3109.04</ele>
        <time>2010-04-16T04:34:08Z</time>
      </trkpt>
      <trkpt lat="45.98378" lon="7.47085">
        <ele>3108.56</ele>
        <time>2010-04-16T04:34:09Z</time>
      </trkpt>
      <trkpt lat="45.98363" lon="7.47085">
        <ele>3105.68</ele>
        <time>2010-04-16T04:34:11Z</time>
      </trkpt>
      <trkpt lat="45.98349" lon="7.47084">
        <ele>3103.75</ele>
        <time>2010-04-16T04:34:13Z</time>
      </trkpt>
      <trkpt lat="45.98326" lon="7.47082">
        <ele>3100.87</ele>
        <time>2010-04-16T04:34:16Z</time>
      </trkpt>
      <trkpt lat="45.98299" lon="7.47076">
        <ele>3097.02</ele>
        <time>2010-04-16T04:34:20Z</time>
      </trkpt>
      <trkpt lat="45.98293" lon="7.47075">
        <ele>3096.54</ele>
        <time>2010-04-16T04:34:21Z</time>
      </trkpt>
      <trkpt lat="45.9828" lon="7.47072">
        <ele>3095.1</ele>
        <time>2010-04-16T04:34:23Z</time>
      </trkpt>
      <trkpt lat="45.98269" lon="7.47067">
        <ele>3094.14</ele>
        <time>2010-04-16T04:34:25Z</time>
      </trkpt>
      <trkpt lat="45.9826" lon="7.47068">
        <ele>3092.22</ele>
        <time>2010-04-16T04:34:27Z</time>
      </trkpt>
      <trkpt lat="45.98244" lon="7.47069">
        <ele>3087.89</ele>
        <time>2010-04-16T04:34:30Z</time>
      </trkpt>
      <trkpt lat="45.98222" lon="7.4709">
        <ele>3082.6</ele>
        <time>2010-04-16T04:34:34Z</time>
      </trkpt>
      <trkpt lat="45.9821" lon="7.471">
        <ele>3077.8</ele>
        <time>2010-04-16T04:34:36Z</time>
      </trkpt>
      <trkpt lat="45.98204" lon="7.47106">
        <ele>3076.36</ele>
        <time>2010-04-16T04:34:37Z</time>
      </trkpt>
      <trkpt lat="45.98174" lon="7.47136">
        <ele>3065.3</ele>
        <time>2010-04-16T04:34:41Z</time>
      </trkpt>
      <trkpt lat="45.98165" lon="7.47145">
        <ele>3061.46</ele>
        <time>2010-04-16T04:34:42Z</time>
      </trkpt>
      <trkpt lat="45.98158" lon="7.47157">
        <ele>3058.57</ele>
        <time>2010-04-16T04:34:43Z</time>
      </trkpt>
      <trkpt lat="45.98134" lon="7.472">
        <ele>3046.56</ele>
        <time>2010-04-16T04:34:46Z</time>
      </trkpt>
      <trkpt lat="45.98112" lon="7.47226">
        <ele>3042.71</ele>
        <time>2010-04-16T04:34:48Z</time>
      </trkpt>
      <trkpt lat="45.9809" lon="7.47251">
        <ele>3038.38</ele>
        <time>2010-04-16T04:34:50Z</time>
      </trkpt>
      <trkpt lat="45.98079" lon="7.47262">
        <ele>3039.35</ele>
        <time>2010-04-16T04:34:51Z</time>
      </trkpt>
      <trkpt lat="45.98068" lon="7.47272">
        <ele>3033.1</ele>
        <time>2010-04-16T04:34:52Z</time>
      </trkpt>
      <trkpt lat="45.98058" lon="7.47282">
        <ele>3033.1</ele>
        <time>2010-04-16T04:34:53Z</time>
      </trkpt>
      <trkpt lat="45.98007" lon="7.47339">
        <ele>3029.73</ele>
        <time>2010-04-16T04:34:59Z</time>
      </trkpt>
      <trkpt lat="45.98001" lon="7.47348">
        <ele>3034.54</ele>
        <time>2010-04-16T04:35:00Z</time>
      </trkpt>
      <trkpt lat="45.97995" lon="7.47356">
        <ele>3033.58</ele>
        <time>2010-04-16T04:35:01Z</time>
      </trkpt>
      <trkpt lat="45.97989" lon="7.47364">
        <ele>3032.14</ele>
        <time>2010-04-16T04:35:02Z</time>
      </trkpt>
      <trkpt lat="45.97977" lon="7.4738">
        <ele>3034.06</ele>
        <time>2010-04-16T04:35:08Z</time>
      </trkpt>
      <trkpt lat="45.97977" lon="7.4738">
        <ele>3034.06</ele>
        <time>2010-04-16T04:35:12Z</time>
      </trkpt>
      <trkpt lat="45.97977" lon="7.4738">
        <ele>3029.25</ele>
        <time>2010-04-16T04:35:28Z</time>
      </trkpt>
      <trkpt lat="45.97977" lon="7.4738">
        <ele>3036.46</ele>
        <time>2010-04-16T04:35:29Z</time>
      </trkpt>
      <trkpt lat="45.97977" lon="7.4738">
        <ele>3034.54</ele>
        <time>2010-04-16T04:35:30Z</time>
      </trkpt>
      <trkpt lat="45.97978" lon="7.47379">
        <ele>3028.29</ele>
        <time>2010-04-16T04:35:40Z</time>
      </trkpt>
      <trkpt lat="45.97978" lon="7.47379">
        <ele>3035.5</ele>
        <time>2010-04-16T04:35:41Z</time>
      </trkpt>
      <trkpt lat="45.97978" lon="7.47379">
        <ele>3032.14</ele>
        <time>2010-04-16T04:36:00Z</time>
      </trkpt>
      <trkpt lat="45.97977" lon="7.47379">
        <ele>3036.94</ele>
        <time>2010-04-16T04:36:08Z</time>
      </trkpt>
      <trkpt lat="45.97975" lon="7.4738">
        <ele>3028.29</ele>
        <time>2010-04-16T04:36:12Z</time>
      </trkpt>
      <trkpt lat="45.97975" lon="7.47381">
        <ele>3033.1</ele>
        <time>2010-04-16T04:36:13Z</time>
      </trkpt>
      <trkpt lat="45.97975" lon="7.47383">
        <ele>3039.35</ele>
        <time>2010-04-16T04:36:16Z</time>
      </trkpt>
      <trkpt lat="45.97975" lon="7.47383">
        <ele>3034.54</ele>
        <time>2010-04-16T04:36:17Z</time>
      </trkpt>
      <trkpt lat="45.97975" lon="7.47383">
        <ele>3031.17</ele>
        <time>2010-04-16T04:36:20Z</time>
      </trkpt>
      <trkpt lat="45.97976" lon="7.47381">
        <ele>3033.1</ele>
        <time>2010-04-16T04:36:51Z</time>
      </trkpt>
      <trkpt lat="45.97976" lon="7.47381">
        <ele>3035.02</ele>
        <time>2010-04-16T04:37:01Z</time>
      </trkpt>
      <trkpt lat="45.97976" lon="7.47381">
        <ele>3033.1</ele>
        <time>2010-04-16T04:37:03Z</time>
      </trkpt>
      <trkpt lat="45.97977" lon="7.47381">
        <ele>3034.06</ele>
        <time>2010-04-16T04:37:46Z</time>
      </trkpt>
      <trkpt lat="45.97976" lon="7.4738">
        <ele>3034.54</ele>
        <time>2010-04-16T04:38:11Z</time>
      </trkpt>
      <trkpt lat="45.97976" lon="7.4738">
        <ele>3034.06</ele>
        <time>2010-04-16T04:38:36Z</time>
      </trkpt>
      <trkpt lat="45.97977" lon="7.47379">
        <ele>3032.14</ele>
        <time>2010-04-16T04:39:27Z</time>
      </trkpt>
      <trkpt lat="45.97977" lon="7.47379">
        <ele>3031.66</ele>
        <time>2010-04-16T04:39:45Z</time>
      </trkpt>
      <trkpt lat="45.97977" lon="7.47379">
        <ele>3035.02</ele>
        <time>2010-04-16T04:39:49Z</time>
      </trkpt>
      <trkpt lat="45.97977" lon="7.47379">
        <ele>3027.81</ele>
        <time>2010-04-16T04:39:58Z</time>
      </trkpt>
      <trkpt lat="45.97977" lon="7.47379">
        <ele>3038.38</ele>
        <time>2010-04-16T04:39:59Z</time>
      </trkpt>
      <trkpt lat="45.97977" lon="7.47379">
        <ele>3035.5</ele>
        <time>2010-04-16T04:40:00Z</time>
      </trkpt>
      <trkpt lat="45.97977" lon="7.47378">
        <ele>3032.62</ele>
        <time>2010-04-16T04:40:02Z</time>
      </trkpt>
      <trkpt lat="45.97979" lon="7.47375">
        <ele>3033.58</ele>
        <time>2010-04-16T04:40:26Z</time>
      </trkpt>
      <trkpt lat="45.97979" lon="7.47371">
        <ele>3033.1</ele>
        <time>2010-04-16T04:41:22Z</time>
      </trkpt>
      <trkpt lat="45.97979" lon="7.47371">
        <ele>3034.54</ele>
        <time>2010-04-16T04:42:39Z</time>
      </trkpt>
      <trkpt lat="45.97979" lon="7.47371">
        <ele>3034.06</ele>
        <time>2010-04-16T04:43:04Z</time>
      </trkpt>
      <trkpt lat="45.9798" lon="7.47371">
        <ele>3034.54</ele>
        <time>2010-04-16T04:43:45Z</time>
      </trkpt>
      <trkpt lat="45.9798" lon="7.47371">
        <ele>3034.06</ele>
        <time>2010-04-16T04:43:53Z</time>
      </trkpt>
      <trkpt lat="45.9798" lon="7.47372">
        <ele>3033.58</ele>
        <time>2010-04-16T04:45:11Z</time>
      </trkpt>
      <trkpt lat="45.9798" lon="7.47374">
        <ele>3033.58</ele>
        <time>2010-04-16T04:45:37Z</time>
      </trkpt>
      <trkpt lat="45.9798" lon="7.47374">
        <ele>3034.54</ele>
        <time>2010-04-16T04:45:57Z</time>
      </trkpt>
      <trkpt lat="45.97979" lon="7.47372">
        <ele>3034.06</ele>
        <time>2010-04-16T04:45:58Z</time>
      </trkpt>
      <trkpt lat="45.97978" lon="7.4737">
        <ele>3034.54</ele>
        <time>2010-04-16T04:46:00Z</time>
      </trkpt>
      <trkpt lat="45.97979" lon="7.47371">
        <ele>3033.1</ele>
        <time>2010-04-16T04:46:14Z</time>
      </trkpt>
      <trkpt lat="45.97979" lon="7.47371">
        <ele>3021.56</ele>
        <time>2010-04-16T04:46:31Z</time>
      </trkpt>
      <trkpt lat="45.97979" lon="7.47371">
        <ele>3022.04</ele>
        <time>2010-04-16T04:46:32Z</time>
      </trkpt>
      <trkpt lat="45.97979" lon="7.47371">
        <ele>3032.62</ele>
        <time>2010-04-16T04:46:33Z</time>
      </trkpt>
      <trkpt lat="45.97979" lon="7.47371">
        <ele>3030.21</ele>
        <time>2010-04-16T04:46:34Z</time>
      </trkpt>
      <trkpt lat="45.97979" lon="7.47371">
        <ele>3038.38</ele>
        <time>2010-04-16T04:46:35Z</time>
      </trkpt>
      <trkpt lat="45.9798" lon="7.47371">
        <ele>3034.06</ele>
        <time>2010-04-16T04:46:36Z</time>
      </trkpt>
      <trkpt lat="45.97979" lon="7.47373">
        <ele>3034.06</ele>
        <time>2010-04-16T04:46:58Z</time>
      </trkpt>
      <trkpt lat="45.97979" lon="7.47373">
        <ele>3033.1</ele>
        <time>2010-04-16T04:47:06Z</time>
      </trkpt>
      <trkpt lat="45.97979" lon="7.47372">
        <ele>3035.02</ele>
        <time>2010-04-16T04:47:24Z</time>
      </trkpt>
      <trkpt lat="45.97979" lon="7.47372">
        <ele>3034.54</ele>
        <time>2010-04-16T04:47:29Z</time>
      </trkpt>
      <trkpt lat="45.97979" lon="7.47372">
        <ele>3033.1</ele>
        <time>2010-04-16T04:47:31Z</time>
      </trkpt>
      <trkpt lat="45.97979" lon="7.47372">
        <ele>3023</ele>
        <time>2010-04-16T04:47:45Z</time>
      </trkpt>
      <trkpt lat="45.97979" lon="7.47372">
        <ele>3038.38</ele>
        <time>2010-04-16T04:47:46Z</time>
      </trkpt>
      <trkpt lat="45.9798" lon="7.47372">
        <ele>3037.9</ele>
        <time>2010-04-16T04:47:47Z</time>
      </trkpt>
      <trkpt lat="45.97981" lon="7.47372">
        <ele>3032.62</ele>
        <time>2010-04-16T04:47:49Z</time>
      </trkpt>
      <trkpt lat="45.97982" lon="7.47372">
        <ele>3033.1</ele>
        <time>2010-04-16T04:47:50Z</time>
      </trkpt>
      <trkpt lat="45.9797" lon="7.47392">
        <ele>3033.1</ele>
        <time>2010-04-16T04:48:05Z</time>
      </trkpt>
      <trkpt lat="45.97962" lon="7.47418">
        <ele>3032.14</ele>
        <time>2010-04-16T04:48:21Z</time>
      </trkpt>
      <trkpt lat="45.97953" lon="7.47434">
        <ele>3032.14</ele>
        <time>2010-04-16T04:48:36Z</time>
      </trkpt>
      <trkpt lat="45.97945" lon="7.47449">
        <ele>3032.14</ele>
        <time>2010-04-16T04:48:52Z</time>
      </trkpt>
      <trkpt lat="45.97934" lon="7.47467">
        <ele>3031.66</ele>
        <time>2010-04-16T04:49:08Z</time>
      </trkpt>
      <trkpt lat="45.97932" lon="7.47468">
        <ele>3032.14</ele>
        <time>2010-04-16T04:49:12Z</time>
      </trkpt>
      <trkpt lat="45.9792" lon="7.47484">
        <ele>3032.62</ele>
        <time>2010-04-16T04:49:29Z</time>
      </trkpt>
      <trkpt lat="45.97916" lon="7.47494">
        <ele>3031.66</ele>
        <time>2010-04-16T04:49:42Z</time>
      </trkpt>
      <trkpt lat="45.97913" lon="7.47499">
        <ele>3031.66</ele>
        <time>2010-04-16T04:49:47Z</time>
      </trkpt>
      <trkpt lat="45.97907" lon="7.47506">
        <ele>3031.66</ele>
        <time>2010-04-16T04:49:54Z</time>
      </trkpt>
      <trkpt lat="45.97894" lon="7.47524">
        <ele>3029.73</ele>
        <time>2010-04-16T04:50:10Z</time>
      </trkpt>
      <trkpt lat="45.97889" lon="7.4753">
        <ele>3033.1</ele>
        <time>2010-04-16T04:50:17Z</time>
      </trkpt>
      <trkpt lat="45.97889" lon="7.4753">
        <ele>3033.1</ele>
        <time>2010-04-16T04:50:18Z</time>
      </trkpt>
      <trkpt lat="45.97886" lon="7.47534">
        <ele>3031.66</ele>
        <time>2010-04-16T04:50:21Z</time>
      </trkpt>
      <trkpt lat="45.97876" lon="7.47547">
        <ele>3032.14</ele>
        <time>2010-04-16T04:50:36Z</time>
      </trkpt>
      <trkpt lat="45.97869" lon="7.47556">
        <ele>3032.14</ele>
        <time>2010-04-16T04:50:46Z</time>
      </trkpt>
      <trkpt lat="45.97855" lon="7.47573">
        <ele>3033.58</ele>
        <time>2010-04-16T04:51:06Z</time>
      </trkpt>
      <trkpt lat="45.97846" lon="7.47587">
        <ele>3034.06</ele>
        <time>2010-04-16T04:51:28Z</time>
      </trkpt>
      <trkpt lat="45.97845" lon="7.47589">
        <ele>3033.1</ele>
        <time>2010-04-16T04:51:50Z</time>
      </trkpt>
      <trkpt lat="45.97839" lon="7.47597">
        <ele>3033.1</ele>
        <time>2010-04-16T04:52:29Z</time>
      </trkpt>
      <trkpt lat="45.9783" lon="7.47615">
        <ele>3033.58</ele>
        <time>2010-04-16T04:52:46Z</time>
      </trkpt>
      <trkpt lat="45.97826" lon="7.4762">
        <ele>3035.5</ele>
        <time>2010-04-16T04:52:52Z</time>
      </trkpt>
      <trkpt lat="45.97816" lon="7.47635">
        <ele>3035.5</ele>
        <time>2010-04-16T04:53:06Z</time>
      </trkpt>
      <trkpt lat="45.97805" lon="7.4765">
        <ele>3035.02</ele>
        <time>2010-04-16T04:53:21Z</time>
      </trkpt>
      <trkpt lat="45.97794" lon="7.47666">
        <ele>3035.02</ele>
        <time>2010-04-16T04:53:37Z</time>
      </trkpt>
      <trkpt lat="45.97792" lon="7.47667">
        <ele>3037.42</ele>
        <time>2010-04-16T04:53:39Z</time>
      </trkpt>
      <trkpt lat="45.9778" lon="7.47683">
        <ele>3036.94</ele>
        <time>2010-04-16T04:53:56Z</time>
      </trkpt>
      <trkpt lat="45.97768" lon="7.47698">
        <ele>3037.9</ele>
        <time>2010-04-16T04:54:13Z</time>
      </trkpt>
      <trkpt lat="45.97754" lon="7.47716">
        <ele>3038.86</ele>
        <time>2010-04-16T04:54:31Z</time>
      </trkpt>
      <trkpt lat="45.97742" lon="7.47734">
        <ele>3042.23</ele>
        <time>2010-04-16T04:54:48Z</time>
      </trkpt>
      <trkpt lat="45.97741" lon="7.47736">
        <ele>3038.86</ele>
        <time>2010-04-16T04:54:50Z</time>
      </trkpt>
      <trkpt lat="45.97741" lon="7.47737">
        <ele>3039.35</ele>
        <time>2010-04-16T04:54:51Z</time>
      </trkpt>
      <trkpt lat="45.97728" lon="7.47754">
        <ele>3040.31</ele>
        <time>2010-04-16T04:55:09Z</time>
      </trkpt>
      <trkpt lat="45.97718" lon="7.47769">
        <ele>3039.83</ele>
        <time>2010-04-16T04:55:23Z</time>
      </trkpt>
      <trkpt lat="45.97712" lon="7.47778">
        <ele>3041.75</ele>
        <time>2010-04-16T04:55:32Z</time>
      </trkpt>
      <trkpt lat="45.97701" lon="7.47793">
        <ele>3040.79</ele>
        <time>2010-04-16T04:55:46Z</time>
      </trkpt>
      <trkpt lat="45.97694" lon="7.47804">
        <ele>3043.67</ele>
        <time>2010-04-16T04:55:57Z</time>
      </trkpt>
      <trkpt lat="45.97689" lon="7.47813">
        <ele>3041.27</ele>
        <time>2010-04-16T04:56:05Z</time>
      </trkpt>
      <trkpt lat="45.97685" lon="7.47818">
        <ele>3042.23</ele>
        <time>2010-04-16T04:56:11Z</time>
      </trkpt>
      <trkpt lat="45.97673" lon="7.47834">
        <ele>3043.19</ele>
        <time>2010-04-16T04:56:27Z</time>
      </trkpt>
      <trkpt lat="45.97664" lon="7.47851">
        <ele>3041.75</ele>
        <time>2010-04-16T04:56:44Z</time>
      </trkpt>
      <trkpt lat="45.97653" lon="7.47867">
        <ele>3042.71</ele>
        <time>2010-04-16T04:57:01Z</time>
      </trkpt>
      <trkpt lat="45.97645" lon="7.4788">
        <ele>3043.19</ele>
        <time>2010-04-16T04:57:18Z</time>
      </trkpt>
      <trkpt lat="45.97634" lon="7.47897">
        <ele>3043.19</ele>
        <time>2010-04-16T04:57:36Z</time>
      </trkpt>
      <trkpt lat="45.97629" lon="7.47903">
        <ele>3044.63</ele>
        <time>2010-04-16T04:57:44Z</time>
      </trkpt>
      <trkpt lat="45.97619" lon="7.47917">
        <ele>3045.11</ele>
        <time>2010-04-16T04:57:59Z</time>
      </trkpt>
      <trkpt lat="45.97612" lon="7.47928">
        <ele>3044.15</ele>
        <time>2010-04-16T04:58:12Z</time>
      </trkpt>
      <trkpt lat="45.9761" lon="7.4793">
        <ele>3044.63</ele>
        <time>2010-04-16T04:58:14Z</time>
      </trkpt>
      <trkpt lat="45.976" lon="7.47945">
        <ele>3043.67</ele>
        <time>2010-04-16T04:58:29Z</time>
      </trkpt>
      <trkpt lat="45.9759" lon="7.4796">
        <ele>3043.19</ele>
        <time>2010-04-16T04:58:46Z</time>
      </trkpt>
      <trkpt lat="45.97585" lon="7.47967">
        <ele>3042.23</ele>
        <time>2010-04-16T04:58:54Z</time>
      </trkpt>
      <trkpt lat="45.97583" lon="7.47971">
        <ele>3041.27</ele>
        <time>2010-04-16T04:58:58Z</time>
      </trkpt>
      <trkpt lat="45.97577" lon="7.4798">
        <ele>3042.23</ele>
        <time>2010-04-16T04:59:12Z</time>
      </trkpt>
      <trkpt lat="45.9757" lon="7.47991">
        <ele>3045.11</ele>
        <time>2010-04-16T04:59:23Z</time>
      </trkpt>
      <trkpt lat="45.97566" lon="7.47996">
        <ele>3043.67</ele>
        <time>2010-04-16T04:59:36Z</time>
      </trkpt>
      <trkpt lat="45.97558" lon="7.48006">
        <ele>3043.19</ele>
        <time>2010-04-16T04:59:49Z</time>
      </trkpt>
      <trkpt lat="45.97556" lon="7.48008">
        <ele>3044.63</ele>
        <time>2010-04-16T04:59:52Z</time>
      </trkpt>
      <trkpt lat="45.97545" lon="7.48024">
        <ele>3044.15</ele>
        <time>2010-04-16T05:00:07Z</time>
      </trkpt>
      <trkpt lat="45.97534" lon="7.48039">
        <ele>3043.67</ele>
        <time>2010-04-16T05:00:23Z</time>
      </trkpt>
      <trkpt lat="45.97523" lon="7.48053">
        <ele>3043.67</ele>
        <time>2010-04-16T05:00:37Z</time>
      </trkpt>
      <trkpt lat="45.97516" lon="7.4806">
        <ele>3044.15</ele>
        <time>2010-04-16T05:00:50Z</time>
      </trkpt>
      <trkpt lat="45.97508" lon="7.48069">
        <ele>3044.15</ele>
        <time>2010-04-16T05:01:06Z</time>
      </trkpt>
      <trkpt lat="45.97501" lon="7.48078">
        <ele>3046.56</ele>
        <time>2010-04-16T05:01:20Z</time>
      </trkpt>
      <trkpt lat="45.97493" lon="7.48091">
        <ele>3047.52</ele>
        <time>2010-04-16T05:01:36Z</time>
      </trkpt>
      <trkpt lat="45.97486" lon="7.48102">
        <ele>3048</ele>
        <time>2010-04-16T05:01:51Z</time>
      </trkpt>
      <trkpt lat="45.9748" lon="7.48113">
        <ele>3048.96</ele>
        <time>2010-04-16T05:02:07Z</time>
      </trkpt>
      <trkpt lat="45.97474" lon="7.4812">
        <ele>3049.92</ele>
        <time>2010-04-16T05:02:17Z</time>
      </trkpt>
      <trkpt lat="45.97468" lon="7.4813">
        <ele>3050.4</ele>
        <time>2010-04-16T05:02:30Z</time>
      </trkpt>
      <trkpt lat="45.9746" lon="7.48144">
        <ele>3049.44</ele>
        <time>2010-04-16T05:02:45Z</time>
      </trkpt>
      <trkpt lat="45.97452" lon="7.48158">
        <ele>3050.4</ele>
        <time>2010-04-16T05:02:59Z</time>
      </trkpt>
      <trkpt lat="45.97443" lon="7.48173">
        <ele>3049.92</ele>
        <time>2010-04-16T05:03:15Z</time>
      </trkpt>
      <trkpt lat="45.97436" lon="7.48189">
        <ele>3049.92</ele>
        <time>2010-04-16T05:03:31Z</time>
      </trkpt>
      <trkpt lat="45.97426" lon="7.48203">
        <ele>3050.4</ele>
        <time>2010-04-16T05:03:49Z</time>
      </trkpt>
      <trkpt lat="45.9742" lon="7.48217">
        <ele>3050.88</ele>
        <time>2010-04-16T05:04:05Z</time>
      </trkpt>
      <trkpt lat="45.97415" lon="7.4823">
        <ele>3051.84</ele>
        <time>2010-04-16T05:04:19Z</time>
      </trkpt>
      <trkpt lat="45.97405" lon="7.48246">
        <ele>3051.36</ele>
        <time>2010-04-16T05:04:37Z</time>
      </trkpt>
      <trkpt lat="45.974" lon="7.48256">
        <ele>3054.25</ele>
        <time>2010-04-16T05:04:47Z</time>
      </trkpt>
      <trkpt lat="45.97392" lon="7.4827">
        <ele>3054.25</ele>
        <time>2010-04-16T05:05:03Z</time>
      </trkpt>
      <trkpt lat="45.97387" lon="7.48282">
        <ele>3053.77</ele>
        <time>2010-04-16T05:05:17Z</time>
      </trkpt>
      <trkpt lat="45.97386" lon="7.48285">
        <ele>3055.69</ele>
        <time>2010-04-16T05:05:20Z</time>
      </trkpt>
      <trkpt lat="45.97382" lon="7.48292">
        <ele>3055.69</ele>
        <time>2010-04-16T05:05:31Z</time>
      </trkpt>
      <trkpt lat="45.97375" lon="7.48302">
        <ele>3057.13</ele>
        <time>2010-04-16T05:05:47Z</time>
      </trkpt>
      <trkpt lat="45.9737" lon="7.48312">
        <ele>3059.05</ele>
        <time>2010-04-16T05:06:02Z</time>
      </trkpt>
      <trkpt lat="45.97367" lon="7.48317">
        <ele>3058.57</ele>
        <time>2010-04-16T05:06:21Z</time>
      </trkpt>
      <trkpt lat="45.97359" lon="7.48329">
        <ele>3059.53</ele>
        <time>2010-04-16T05:06:37Z</time>
      </trkpt>
      <trkpt lat="45.97357" lon="7.48331">
        <ele>3059.53</ele>
        <time>2010-04-16T05:06:42Z</time>
      </trkpt>
      <trkpt lat="45.97354" lon="7.48337">
        <ele>3062.42</ele>
        <time>2010-04-16T05:06:48Z</time>
      </trkpt>
      <trkpt lat="45.97348" lon="7.48348">
        <ele>3062.9</ele>
        <time>2010-04-16T05:07:04Z</time>
      </trkpt>
      <trkpt lat="45.9734" lon="7.48357">
        <ele>3064.82</ele>
        <time>2010-04-16T05:07:18Z</time>
      </trkpt>
      <trkpt lat="45.97332" lon="7.48367">
        <ele>3064.34</ele>
        <time>2010-04-16T05:07:34Z</time>
      </trkpt>
      <trkpt lat="45.97327" lon="7.48373">
        <ele>3065.3</ele>
        <time>2010-04-16T05:07:46Z</time>
      </trkpt>
      <trkpt lat="45.97326" lon="7.48372">
        <ele>3058.09</ele>
        <time>2010-04-16T05:07:51Z</time>
      </trkpt>
      <trkpt lat="45.97327" lon="7.48372">
        <ele>3071.07</ele>
        <time>2010-04-16T05:07:52Z</time>
      </trkpt>
      <trkpt lat="45.97327" lon="7.48373">
        <ele>3067.22</ele>
        <time>2010-04-16T05:07:54Z</time>
      </trkpt>
      <trkpt lat="45.97326" lon="7.48373">
        <ele>3066.74</ele>
        <time>2010-04-16T05:07:55Z</time>
      </trkpt>
      <trkpt lat="45.97316" lon="7.48381">
        <ele>3068.19</ele>
        <time>2010-04-16T05:08:12Z</time>
      </trkpt>
      <trkpt lat="45.97309" lon="7.48387">
        <ele>3069.15</ele>
        <time>2010-04-16T05:08:28Z</time>
      </trkpt>
      <trkpt lat="45.973" lon="7.48392">
        <ele>3071.07</ele>
        <time>2010-04-16T05:08:42Z</time>
      </trkpt>
      <trkpt lat="45.97291" lon="7.48398">
        <ele>3071.55</ele>
        <time>2010-04-16T05:08:58Z</time>
      </trkpt>
      <trkpt lat="45.9729" lon="7.48398">
        <ele>3064.34</ele>
        <time>2010-04-16T05:09:00Z</time>
      </trkpt>
      <trkpt lat="45.97289" lon="7.48399">
        <ele>3077.8</ele>
        <time>2010-04-16T05:09:02Z</time>
      </trkpt>
      <trkpt lat="45.9729" lon="7.48399">
        <ele>3072.03</ele>
        <time>2010-04-16T05:09:03Z</time>
      </trkpt>
      <trkpt lat="45.9729" lon="7.484">
        <ele>3074.91</ele>
        <time>2010-04-16T05:09:04Z</time>
      </trkpt>
      <trkpt lat="45.97286" lon="7.48401">
        <ele>3074.43</ele>
        <time>2010-04-16T05:09:21Z</time>
      </trkpt>
      <trkpt lat="45.97276" lon="7.48407">
        <ele>3075.88</ele>
        <time>2010-04-16T05:09:34Z</time>
      </trkpt>
      <trkpt lat="45.97266" lon="7.48416">
        <ele>3078.28</ele>
        <time>2010-04-16T05:09:52Z</time>
      </trkpt>
      <trkpt lat="45.97259" lon="7.48422">
        <ele>3079.24</ele>
        <time>2010-04-16T05:10:04Z</time>
      </trkpt>
      <trkpt lat="45.97253" lon="7.48426">
        <ele>3080.68</ele>
        <time>2010-04-16T05:10:17Z</time>
      </trkpt>
      <trkpt lat="45.9725" lon="7.48428">
        <ele>3081.64</ele>
        <time>2010-04-16T05:10:22Z</time>
      </trkpt>
      <trkpt lat="45.97243" lon="7.48435">
        <ele>3081.16</ele>
        <time>2010-04-16T05:10:35Z</time>
      </trkpt>
      <trkpt lat="45.97238" lon="7.48444">
        <ele>3083.57</ele>
        <time>2010-04-16T05:10:52Z</time>
      </trkpt>
      <trkpt lat="45.97233" lon="7.48448">
        <ele>3084.53</ele>
        <time>2010-04-16T05:11:04Z</time>
      </trkpt>
      <trkpt lat="45.97229" lon="7.48453">
        <ele>3085.01</ele>
        <time>2010-04-16T05:11:19Z</time>
      </trkpt>
      <trkpt lat="45.97223" lon="7.48458">
        <ele>3085.97</ele>
        <time>2010-04-16T05:11:43Z</time>
      </trkpt>
      <trkpt lat="45.97214" lon="7.48465">
        <ele>3086.93</ele>
        <time>2010-04-16T05:11:56Z</time>
      </trkpt>
      <trkpt lat="45.97203" lon="7.48476">
        <ele>3088.37</ele>
        <time>2010-04-16T05:12:13Z</time>
      </trkpt>
      <trkpt lat="45.97202" lon="7.48477">
        <ele>3089.33</ele>
        <time>2010-04-16T05:12:15Z</time>
      </trkpt>
      <trkpt lat="45.97192" lon="7.48488">
        <ele>3090.29</ele>
        <time>2010-04-16T05:12:31Z</time>
      </trkpt>
      <trkpt lat="45.97181" lon="7.485">
        <ele>3091.74</ele>
        <time>2010-04-16T05:12:49Z</time>
      </trkpt>
      <trkpt lat="45.97177" lon="7.48506">
        <ele>3091.26</ele>
        <time>2010-04-16T05:12:58Z</time>
      </trkpt>
      <trkpt lat="45.97177" lon="7.48503">
        <ele>3097.02</ele>
        <time>2010-04-16T05:13:00Z</time>
      </trkpt>
      <trkpt lat="45.97176" lon="7.48508">
        <ele>3092.22</ele>
        <time>2010-04-16T05:13:05Z</time>
      </trkpt>
      <trkpt lat="45.97165" lon="7.48517">
        <ele>3093.18</ele>
        <time>2010-04-16T05:13:18Z</time>
      </trkpt>
      <trkpt lat="45.97156" lon="7.48526">
        <ele>3093.66</ele>
        <time>2010-04-16T05:13:31Z</time>
      </trkpt>
      <trkpt lat="45.97147" lon="7.48535">
        <ele>3095.1</ele>
        <time>2010-04-16T05:13:46Z</time>
      </trkpt>
      <trkpt lat="45.97138" lon="7.48543">
        <ele>3096.06</ele>
        <time>2010-04-16T05:14:00Z</time>
      </trkpt>
      <trkpt lat="45.97135" lon="7.48548">
        <ele>3097.02</ele>
        <time>2010-04-16T05:14:10Z</time>
      </trkpt>
      <trkpt lat="45.97126" lon="7.48554">
        <ele>3097.51</ele>
        <time>2010-04-16T05:14:24Z</time>
      </trkpt>
      <trkpt lat="45.97117" lon="7.48562">
        <ele>3098.47</ele>
        <time>2010-04-16T05:14:40Z</time>
      </trkpt>
      <trkpt lat="45.97111" lon="7.48564">
        <ele>3098.95</ele>
        <time>2010-04-16T05:14:52Z</time>
      </trkpt>
      <trkpt lat="45.97103" lon="7.48571">
        <ele>3099.91</ele>
        <time>2010-04-16T05:15:08Z</time>
      </trkpt>
      <trkpt lat="45.97097" lon="7.48577">
        <ele>3100.87</ele>
        <time>2010-04-16T05:15:22Z</time>
      </trkpt>
      <trkpt lat="45.97093" lon="7.48579">
        <ele>3102.31</ele>
        <time>2010-04-16T05:15:51Z</time>
      </trkpt>
      <trkpt lat="45.9709" lon="7.48579">
        <ele>3101.83</ele>
        <time>2010-04-16T05:16:08Z</time>
      </trkpt>
      <trkpt lat="45.97089" lon="7.48579">
        <ele>3103.75</ele>
        <time>2010-04-16T05:16:24Z</time>
      </trkpt>
      <trkpt lat="45.97089" lon="7.48579">
        <ele>3101.83</ele>
        <time>2010-04-16T05:16:26Z</time>
      </trkpt>
      <trkpt lat="45.97089" lon="7.48579">
        <ele>3100.87</ele>
        <time>2010-04-16T05:17:19Z</time>
      </trkpt>
      <trkpt lat="45.97089" lon="7.48579">
        <ele>3101.83</ele>
        <time>2010-04-16T05:18:03Z</time>
      </trkpt>
      <trkpt lat="45.97089" lon="7.48579">
        <ele>3100.87</ele>
        <time>2010-04-16T05:18:30Z</time>
      </trkpt>
      <trkpt lat="45.97089" lon="7.48584">
        <ele>3101.35</ele>
        <time>2010-04-16T05:19:59Z</time>
      </trkpt>
      <trkpt lat="45.97084" lon="7.48594">
        <ele>3101.35</ele>
        <time>2010-04-16T05:20:26Z</time>
      </trkpt>
      <trkpt lat="45.97075" lon="7.48603">
        <ele>3102.79</ele>
        <time>2010-04-16T05:20:39Z</time>
      </trkpt>
      <trkpt lat="45.97064" lon="7.48613">
        <ele>3105.2</ele>
        <time>2010-04-16T05:20:54Z</time>
      </trkpt>
      <trkpt lat="45.97053" lon="7.48623">
        <ele>3105.2</ele>
        <time>2010-04-16T05:21:09Z</time>
      </trkpt>
      <trkpt lat="45.97052" lon="7.48624">
        <ele>3106.64</ele>
        <time>2010-04-16T05:21:11Z</time>
      </trkpt>
      <trkpt lat="45.97041" lon="7.4863">
        <ele>3107.12</ele>
        <time>2010-04-16T05:21:25Z</time>
      </trkpt>
      <trkpt lat="45.9703" lon="7.48638">
        <ele>3108.56</ele>
        <time>2010-04-16T05:21:41Z</time>
      </trkpt>
      <trkpt lat="45.97018" lon="7.48643">
        <ele>3109.04</ele>
        <time>2010-04-16T05:22:01Z</time>
      </trkpt>
      <trkpt lat="45.97009" lon="7.48649">
        <ele>3109.52</ele>
        <time>2010-04-16T05:22:17Z</time>
      </trkpt>
      <trkpt lat="45.96997" lon="7.48652">
        <ele>3110.48</ele>
        <time>2010-04-16T05:22:34Z</time>
      </trkpt>
      <trkpt lat="45.96989" lon="7.48653">
        <ele>3111.44</ele>
        <time>2010-04-16T05:22:46Z</time>
      </trkpt>
      <trkpt lat="45.96978" lon="7.48656">
        <ele>3112.41</ele>
        <time>2010-04-16T05:23:02Z</time>
      </trkpt>
      <trkpt lat="45.96968" lon="7.48657">
        <ele>3113.85</ele>
        <time>2010-04-16T05:23:22Z</time>
      </trkpt>
      <trkpt lat="45.96965" lon="7.48658">
        <ele>3113.37</ele>
        <time>2010-04-16T05:23:40Z</time>
      </trkpt>
      <trkpt lat="45.96948" lon="7.48662">
        <ele>3114.81</ele>
        <time>2010-04-16T05:23:59Z</time>
      </trkpt>
      <trkpt lat="45.96933" lon="7.48664">
        <ele>3114.81</ele>
        <time>2010-04-16T05:24:15Z</time>
      </trkpt>
      <trkpt lat="45.96922" lon="7.48673">
        <ele>3116.25</ele>
        <time>2010-04-16T05:24:32Z</time>
      </trkpt>
      <trkpt lat="45.96915" lon="7.4868">
        <ele>3117.21</ele>
        <time>2010-04-16T05:24:49Z</time>
      </trkpt>
      <trkpt lat="45.96907" lon="7.4869">
        <ele>3118.17</ele>
        <time>2010-04-16T05:25:05Z</time>
      </trkpt>
      <trkpt lat="45.96901" lon="7.48699">
        <ele>3119.62</ele>
        <time>2010-04-16T05:25:18Z</time>
      </trkpt>
      <trkpt lat="45.96891" lon="7.4871">
        <ele>3121.06</ele>
        <time>2010-04-16T05:25:37Z</time>
      </trkpt>
      <trkpt lat="45.96886" lon="7.4872">
        <ele>3121.54</ele>
        <time>2010-04-16T05:25:50Z</time>
      </trkpt>
      <trkpt lat="45.96881" lon="7.48725">
        <ele>3122.02</ele>
        <time>2010-04-16T05:26:02Z</time>
      </trkpt>
      <trkpt lat="45.96874" lon="7.48735">
        <ele>3122.5</ele>
        <time>2010-04-16T05:26:16Z</time>
      </trkpt>
      <trkpt lat="45.96867" lon="7.48742">
        <ele>3124.42</ele>
        <time>2010-04-16T05:26:31Z</time>
      </trkpt>
      <trkpt lat="45.96863" lon="7.48749">
        <ele>3125.38</ele>
        <time>2010-04-16T05:26:42Z</time>
      </trkpt>
      <trkpt lat="45.96859" lon="7.48757">
        <ele>3125.86</ele>
        <time>2010-04-16T05:26:55Z</time>
      </trkpt>
      <trkpt lat="45.96858" lon="7.48763">
        <ele>3127.31</ele>
        <time>2010-04-16T05:27:07Z</time>
      </trkpt>
      <trkpt lat="45.96852" lon="7.48772">
        <ele>3128.27</ele>
        <time>2010-04-16T05:27:21Z</time>
      </trkpt>
      <trkpt lat="45.96849" lon="7.48784">
        <ele>3129.71</ele>
        <time>2010-04-16T05:27:41Z</time>
      </trkpt>
      <trkpt lat="45.96845" lon="7.48798">
        <ele>3131.15</ele>
        <time>2010-04-16T05:27:58Z</time>
      </trkpt>
      <trkpt lat="45.9684" lon="7.48812">
        <ele>3133.07</ele>
        <time>2010-04-16T05:28:16Z</time>
      </trkpt>
      <trkpt lat="45.96836" lon="7.48822">
        <ele>3133.55</ele>
        <time>2010-04-16T05:28:30Z</time>
      </trkpt>
      <trkpt lat="45.96832" lon="7.48834">
        <ele>3135.48</ele>
        <time>2010-04-16T05:28:49Z</time>
      </trkpt>
      <trkpt lat="45.9683" lon="7.48844">
        <ele>3136.92</ele>
        <time>2010-04-16T05:29:03Z</time>
      </trkpt>
      <trkpt lat="45.96827" lon="7.48851">
        <ele>3137.4</ele>
        <time>2010-04-16T05:29:15Z</time>
      </trkpt>
      <trkpt lat="45.96824" lon="7.48863">
        <ele>3138.84</ele>
        <time>2010-04-16T05:29:29Z</time>
      </trkpt>
      <trkpt lat="45.96821" lon="7.48872">
        <ele>3140.28</ele>
        <time>2010-04-16T05:29:45Z</time>
      </trkpt>
      <trkpt lat="45.96819" lon="7.48882">
        <ele>3141.25</ele>
        <time>2010-04-16T05:29:58Z</time>
      </trkpt>
      <trkpt lat="45.96814" lon="7.48889">
        <ele>3142.69</ele>
        <time>2010-04-16T05:30:11Z</time>
      </trkpt>
      <trkpt lat="45.96811" lon="7.48896">
        <ele>3144.61</ele>
        <time>2010-04-16T05:30:26Z</time>
      </trkpt>
      <trkpt lat="45.96801" lon="7.48906">
        <ele>3146.05</ele>
        <time>2010-04-16T05:30:45Z</time>
      </trkpt>
      <trkpt lat="45.96794" lon="7.48911">
        <ele>3147.49</ele>
        <time>2010-04-16T05:31:00Z</time>
      </trkpt>
      <trkpt lat="45.96785" lon="7.48917">
        <ele>3147.49</ele>
        <time>2010-04-16T05:31:15Z</time>
      </trkpt>
      <trkpt lat="45.96776" lon="7.48924">
        <ele>3149.9</ele>
        <time>2010-04-16T05:31:31Z</time>
      </trkpt>
      <trkpt lat="45.96768" lon="7.48929">
        <ele>3150.86</ele>
        <time>2010-04-16T05:31:44Z</time>
      </trkpt>
      <trkpt lat="45.9676" lon="7.48937">
        <ele>3150.86</ele>
        <time>2010-04-16T05:31:59Z</time>
      </trkpt>
      <trkpt lat="45.96746" lon="7.48942">
        <ele>3151.82</ele>
        <time>2010-04-16T05:32:17Z</time>
      </trkpt>
      <trkpt lat="45.96737" lon="7.48952">
        <ele>3152.78</ele>
        <time>2010-04-16T05:32:35Z</time>
      </trkpt>
      <trkpt lat="45.96727" lon="7.48959">
        <ele>3153.26</ele>
        <time>2010-04-16T05:32:54Z</time>
      </trkpt>
      <trkpt lat="45.96719" lon="7.48966">
        <ele>3152.78</ele>
        <time>2010-04-16T05:33:05Z</time>
      </trkpt>
      <trkpt lat="45.96709" lon="7.48974">
        <ele>3153.26</ele>
        <time>2010-04-16T05:33:22Z</time>
      </trkpt>
      <trkpt lat="45.96698" lon="7.48983">
        <ele>3152.78</ele>
        <time>2010-04-16T05:33:39Z</time>
      </trkpt>
      <trkpt lat="45.96689" lon="7.48993">
        <ele>3154.7</ele>
        <time>2010-04-16T05:33:55Z</time>
      </trkpt>
      <trkpt lat="45.96687" lon="7.48994">
        <ele>3152.3</ele>
        <time>2010-04-16T05:33:58Z</time>
      </trkpt>
      <trkpt lat="45.96681" lon="7.49004">
        <ele>3153.74</ele>
        <time>2010-04-16T05:34:13Z</time>
      </trkpt>
      <trkpt lat="45.96674" lon="7.49014">
        <ele>3152.78</ele>
        <time>2010-04-16T05:34:26Z</time>
      </trkpt>
      <trkpt lat="45.96666" lon="7.49027">
        <ele>3153.26</ele>
        <time>2010-04-16T05:34:42Z</time>
      </trkpt>
      <trkpt lat="45.96659" lon="7.49039">
        <ele>3152.78</ele>
        <time>2010-04-16T05:34:59Z</time>
      </trkpt>
      <trkpt lat="45.96654" lon="7.49048">
        <ele>3152.78</ele>
        <time>2010-04-16T05:35:13Z</time>
      </trkpt>
      <trkpt lat="45.96648" lon="7.49061">
        <ele>3154.22</ele>
        <time>2010-04-16T05:35:27Z</time>
      </trkpt>
      <trkpt lat="45.96644" lon="7.49076">
        <ele>3154.22</ele>
        <time>2010-04-16T05:35:45Z</time>
      </trkpt>
      <trkpt lat="45.96639" lon="7.49088">
        <ele>3155.18</ele>
        <time>2010-04-16T05:36:00Z</time>
      </trkpt>
      <trkpt lat="45.96632" lon="7.49087">
        <ele>3155.66</ele>
        <time>2010-04-16T05:36:12Z</time>
      </trkpt>
      <trkpt lat="45.96625" lon="7.49085">
        <ele>3157.59</ele>
        <time>2010-04-16T05:36:25Z</time>
      </trkpt>
      <trkpt lat="45.96621" lon="7.4909">
        <ele>3158.07</ele>
        <time>2010-04-16T05:36:39Z</time>
      </trkpt>
      <trkpt lat="45.96617" lon="7.49097">
        <ele>3159.51</ele>
        <time>2010-04-16T05:36:57Z</time>
      </trkpt>
      <trkpt lat="45.96612" lon="7.49108">
        <ele>3161.43</ele>
        <time>2010-04-16T05:37:13Z</time>
      </trkpt>
      <trkpt lat="45.96609" lon="7.49121">
        <ele>3163.36</ele>
        <time>2010-04-16T05:37:29Z</time>
      </trkpt>
      <trkpt lat="45.96605" lon="7.49131">
        <ele>3163.84</ele>
        <time>2010-04-16T05:37:42Z</time>
      </trkpt>
      <trkpt lat="45.96603" lon="7.4914">
        <ele>3164.32</ele>
        <time>2010-04-16T05:37:54Z</time>
      </trkpt>
      <trkpt lat="45.966" lon="7.49148">
        <ele>3165.28</ele>
        <time>2010-04-16T05:38:08Z</time>
      </trkpt>
      <trkpt lat="45.96596" lon="7.49156">
        <ele>3165.76</ele>
        <time>2010-04-16T05:38:21Z</time>
      </trkpt>
      <trkpt lat="45.96588" lon="7.4915">
        <ele>3168.16</ele>
        <time>2010-04-16T05:38:35Z</time>
      </trkpt>
      <trkpt lat="45.96582" lon="7.49147">
        <ele>3168.16</ele>
        <time>2010-04-16T05:38:50Z</time>
      </trkpt>
      <trkpt lat="45.9658" lon="7.4915">
        <ele>3169.6</ele>
        <time>2010-04-16T05:38:54Z</time>
      </trkpt>
      <trkpt lat="45.96578" lon="7.49159">
        <ele>3171.05</ele>
        <time>2010-04-16T05:39:09Z</time>
      </trkpt>
      <trkpt lat="45.96577" lon="7.49164">
        <ele>3171.53</ele>
        <time>2010-04-16T05:39:16Z</time>
      </trkpt>
      <trkpt lat="45.96575" lon="7.4917">
        <ele>3171.53</ele>
        <time>2010-04-16T05:39:31Z</time>
      </trkpt>
      <trkpt lat="45.96573" lon="7.49179">
        <ele>3174.41</ele>
        <time>2010-04-16T05:39:47Z</time>
      </trkpt>
      <trkpt lat="45.96571" lon="7.4919">
        <ele>3174.89</ele>
        <time>2010-04-16T05:40:02Z</time>
      </trkpt>
      <trkpt lat="45.96571" lon="7.4919">
        <ele>3175.85</ele>
        <time>2010-04-16T05:40:05Z</time>
      </trkpt>
      <trkpt lat="45.96569" lon="7.49197">
        <ele>3177.29</ele>
        <time>2010-04-16T05:40:18Z</time>
      </trkpt>
      <trkpt lat="45.96567" lon="7.49207">
        <ele>3178.74</ele>
        <time>2010-04-16T05:40:32Z</time>
      </trkpt>
      <trkpt lat="45.96566" lon="7.49214">
        <ele>3180.18</ele>
        <time>2010-04-16T05:40:45Z</time>
      </trkpt>
      <trkpt lat="45.96563" lon="7.49222">
        <ele>3181.14</ele>
        <time>2010-04-16T05:40:59Z</time>
      </trkpt>
      <trkpt lat="45.9656" lon="7.4923">
        <ele>3182.58</ele>
        <time>2010-04-16T05:41:13Z</time>
      </trkpt>
      <trkpt lat="45.96554" lon="7.49238">
        <ele>3183.54</ele>
        <time>2010-04-16T05:41:26Z</time>
      </trkpt>
      <trkpt lat="45.96549" lon="7.49244">
        <ele>3184.98</ele>
        <time>2010-04-16T05:41:41Z</time>
      </trkpt>
      <trkpt lat="45.96546" lon="7.49249">
        <ele>3187.39</ele>
        <time>2010-04-16T05:41:57Z</time>
      </trkpt>
      <trkpt lat="45.96546" lon="7.49249">
        <ele>3182.58</ele>
        <time>2010-04-16T05:41:58Z</time>
      </trkpt>
      <trkpt lat="45.96546" lon="7.49249">
        <ele>3188.83</ele>
        <time>2010-04-16T05:41:59Z</time>
      </trkpt>
      <trkpt lat="45.96546" lon="7.49249">
        <ele>3185.47</ele>
        <time>2010-04-16T05:42:00Z</time>
      </trkpt>
      <trkpt lat="45.96546" lon="7.49249">
        <ele>3182.58</ele>
        <time>2010-04-16T05:42:01Z</time>
      </trkpt>
      <trkpt lat="45.96546" lon="7.49249">
        <ele>3187.87</ele>
        <time>2010-04-16T05:42:04Z</time>
      </trkpt>
      <trkpt lat="45.96547" lon="7.49249">
        <ele>3188.83</ele>
        <time>2010-04-16T05:42:06Z</time>
      </trkpt>
      <trkpt lat="45.96547" lon="7.49249">
        <ele>3186.43</ele>
        <time>2010-04-16T05:42:08Z</time>
      </trkpt>
      <trkpt lat="45.96539" lon="7.49254">
        <ele>3186.91</ele>
        <time>2010-04-16T05:42:20Z</time>
      </trkpt>
      <trkpt lat="45.96532" lon="7.49252">
        <ele>3189.79</ele>
        <time>2010-04-16T05:42:33Z</time>
      </trkpt>
      <trkpt lat="45.96525" lon="7.49256">
        <ele>3191.23</ele>
        <time>2010-04-16T05:42:50Z</time>
      </trkpt>
      <trkpt lat="45.96519" lon="7.49259">
        <ele>3192.68</ele>
        <time>2010-04-16T05:43:02Z</time>
      </trkpt>
      <trkpt lat="45.96514" lon="7.49264">
        <ele>3194.12</ele>
        <time>2010-04-16T05:43:17Z</time>
      </trkpt>
      <trkpt lat="45.96509" lon="7.49268">
        <ele>3195.56</ele>
        <time>2010-04-16T05:43:29Z</time>
      </trkpt>
      <trkpt lat="45.96508" lon="7.49268">
        <ele>3196.04</ele>
        <time>2010-04-16T05:43:48Z</time>
      </trkpt>
      <trkpt lat="45.96502" lon="7.49272">
        <ele>3197.48</ele>
        <time>2010-04-16T05:44:02Z</time>
      </trkpt>
      <trkpt lat="45.96497" lon="7.49275">
        <ele>3197.96</ele>
        <time>2010-04-16T05:44:13Z</time>
      </trkpt>
      <trkpt lat="45.96495" lon="7.49275">
        <ele>3199.4</ele>
        <time>2010-04-16T05:44:16Z</time>
      </trkpt>
      <trkpt lat="45.96491" lon="7.49275">
        <ele>3200.37</ele>
        <time>2010-04-16T05:44:27Z</time>
      </trkpt>
      <trkpt lat="45.96486" lon="7.49273">
        <ele>3201.33</ele>
        <time>2010-04-16T05:44:42Z</time>
      </trkpt>
      <trkpt lat="45.96485" lon="7.49272">
        <ele>3203.25</ele>
        <time>2010-04-16T05:44:45Z</time>
      </trkpt>
      <trkpt lat="45.96481" lon="7.49267">
        <ele>3204.21</ele>
        <time>2010-04-16T05:45:00Z</time>
      </trkpt>
      <trkpt lat="45.96481" lon="7.49267">
        <ele>3205.65</ele>
        <time>2010-04-16T05:45:13Z</time>
      </trkpt>
      <trkpt lat="45.9648" lon="7.49265">
        <ele>3207.1</ele>
        <time>2010-04-16T05:45:26Z</time>
      </trkpt>
      <trkpt lat="45.96476" lon="7.49254">
        <ele>3209.5</ele>
        <time>2010-04-16T05:45:42Z</time>
      </trkpt>
      <trkpt lat="45.96469" lon="7.49236">
        <ele>3210.94</ele>
        <time>2010-04-16T05:46:00Z</time>
      </trkpt>
      <trkpt lat="45.96464" lon="7.49221">
        <ele>3212.86</ele>
        <time>2010-04-16T05:46:18Z</time>
      </trkpt>
      <trkpt lat="45.9646" lon="7.49211">
        <ele>3213.82</ele>
        <time>2010-04-16T05:46:33Z</time>
      </trkpt>
      <trkpt lat="45.96457" lon="7.49213">
        <ele>3214.79</ele>
        <time>2010-04-16T05:46:45Z</time>
      </trkpt>
      <trkpt lat="45.96454" lon="7.49218">
        <ele>3215.75</ele>
        <time>2010-04-16T05:46:55Z</time>
      </trkpt>
      <trkpt lat="45.96452" lon="7.49222">
        <ele>3216.71</ele>
        <time>2010-04-16T05:47:05Z</time>
      </trkpt>
      <trkpt lat="45.96449" lon="7.49227">
        <ele>3218.15</ele>
        <time>2010-04-16T05:47:18Z</time>
      </trkpt>
      <trkpt lat="45.96445" lon="7.49233">
        <ele>3219.59</ele>
        <time>2010-04-16T05:47:31Z</time>
      </trkpt>
      <trkpt lat="45.96439" lon="7.49239">
        <ele>3221.03</ele>
        <time>2010-04-16T05:47:42Z</time>
      </trkpt>
      <trkpt lat="45.96435" lon="7.49244">
        <ele>3222.48</ele>
        <time>2010-04-16T05:47:58Z</time>
      </trkpt>
      <trkpt lat="45.96429" lon="7.49251">
        <ele>3224.88</ele>
        <time>2010-04-16T05:48:12Z</time>
      </trkpt>
      <trkpt lat="45.96423" lon="7.49257">
        <ele>3225.36</ele>
        <time>2010-04-16T05:48:32Z</time>
      </trkpt>
      <trkpt lat="45.96418" lon="7.4926">
        <ele>3227.76</ele>
        <time>2010-04-16T05:48:45Z</time>
      </trkpt>
      <trkpt lat="45.96414" lon="7.49266">
        <ele>3227.28</ele>
        <time>2010-04-16T05:49:00Z</time>
      </trkpt>
      <trkpt lat="45.96412" lon="7.49271">
        <ele>3229.69</ele>
        <time>2010-04-16T05:49:13Z</time>
      </trkpt>
      <trkpt lat="45.96408" lon="7.49275">
        <ele>3231.13</ele>
        <time>2010-04-16T05:49:26Z</time>
      </trkpt>
      <trkpt lat="45.96406" lon="7.49279">
        <ele>3232.09</ele>
        <time>2010-04-16T05:49:33Z</time>
      </trkpt>
      <trkpt lat="45.96402" lon="7.49285">
        <ele>3233.05</ele>
        <time>2010-04-16T05:49:46Z</time>
      </trkpt>
      <trkpt lat="45.96398" lon="7.49288">
        <ele>3234.49</ele>
        <time>2010-04-16T05:49:57Z</time>
      </trkpt>
      <trkpt lat="45.96391" lon="7.49278">
        <ele>3236.42</ele>
        <time>2010-04-16T05:50:11Z</time>
      </trkpt>
      <trkpt lat="45.96384" lon="7.49272">
        <ele>3237.86</ele>
        <time>2010-04-16T05:50:29Z</time>
      </trkpt>
      <trkpt lat="45.96383" lon="7.49271">
        <ele>3239.3</ele>
        <time>2010-04-16T05:50:42Z</time>
      </trkpt>
      <trkpt lat="45.96381" lon="7.49276">
        <ele>3239.78</ele>
        <time>2010-04-16T05:50:55Z</time>
      </trkpt>
      <trkpt lat="45.96376" lon="7.49283">
        <ele>3242.66</ele>
        <time>2010-04-16T05:51:10Z</time>
      </trkpt>
      <trkpt lat="45.96371" lon="7.49285">
        <ele>3243.14</ele>
        <time>2010-04-16T05:51:27Z</time>
      </trkpt>
      <trkpt lat="45.96367" lon="7.49292">
        <ele>3245.55</ele>
        <time>2010-04-16T05:51:41Z</time>
      </trkpt>
      <trkpt lat="45.96362" lon="7.49295">
        <ele>3246.51</ele>
        <time>2010-04-16T05:51:55Z</time>
      </trkpt>
      <trkpt lat="45.96356" lon="7.493">
        <ele>3248.43</ele>
        <time>2010-04-16T05:52:10Z</time>
      </trkpt>
      <trkpt lat="45.9635" lon="7.49304">
        <ele>3250.35</ele>
        <time>2010-04-16T05:52:24Z</time>
      </trkpt>
      <trkpt lat="45.96348" lon="7.49313">
        <ele>3250.83</ele>
        <time>2010-04-16T05:52:40Z</time>
      </trkpt>
      <trkpt lat="45.96344" lon="7.49319">
        <ele>3251.32</ele>
        <time>2010-04-16T05:52:54Z</time>
      </trkpt>
      <trkpt lat="45.96337" lon="7.49327">
        <ele>3252.76</ele>
        <time>2010-04-16T05:53:07Z</time>
      </trkpt>
      <trkpt lat="45.96333" lon="7.49331">
        <ele>3254.68</ele>
        <time>2010-04-16T05:53:21Z</time>
      </trkpt>
      <trkpt lat="45.96322" lon="7.49326">
        <ele>3256.12</ele>
        <time>2010-04-16T05:53:37Z</time>
      </trkpt>
      <trkpt lat="45.96322" lon="7.49326">
        <ele>3257.08</ele>
        <time>2010-04-16T05:53:39Z</time>
      </trkpt>
      <trkpt lat="45.96314" lon="7.49327">
        <ele>3258.53</ele>
        <time>2010-04-16T05:54:00Z</time>
      </trkpt>
      <trkpt lat="45.96311" lon="7.49332">
        <ele>3259.97</ele>
        <time>2010-04-16T05:54:16Z</time>
      </trkpt>
      <trkpt lat="45.96304" lon="7.49339">
        <ele>3261.41</ele>
        <time>2010-04-16T05:54:32Z</time>
      </trkpt>
      <trkpt lat="45.96299" lon="7.49342">
        <ele>3261.89</ele>
        <time>2010-04-16T05:54:43Z</time>
      </trkpt>
      <trkpt lat="45.96297" lon="7.49342">
        <ele>3263.33</ele>
        <time>2010-04-16T05:55:00Z</time>
      </trkpt>
      <trkpt lat="45.96294" lon="7.49341">
        <ele>3263.33</ele>
        <time>2010-04-16T05:55:15Z</time>
      </trkpt>
      <trkpt lat="45.96292" lon="7.49339">
        <ele>3263.81</ele>
        <time>2010-04-16T05:55:36Z</time>
      </trkpt>
      <trkpt lat="45.9629" lon="7.49334">
        <ele>3264.77</ele>
        <time>2010-04-16T05:55:51Z</time>
      </trkpt>
      <trkpt lat="45.96291" lon="7.49328">
        <ele>3263.33</ele>
        <time>2010-04-16T05:56:14Z</time>
      </trkpt>
      <trkpt lat="45.96291" lon="7.49328">
        <ele>3268.62</ele>
        <time>2010-04-16T05:56:52Z</time>
      </trkpt>
      <trkpt lat="45.96291" lon="7.49328">
        <ele>3268.62</ele>
        <time>2010-04-16T05:56:53Z</time>
      </trkpt>
      <trkpt lat="45.96291" lon="7.49328">
        <ele>3265.26</ele>
        <time>2010-04-16T05:56:54Z</time>
      </trkpt>
      <trkpt lat="45.96291" lon="7.49328">
        <ele>3264.77</ele>
        <time>2010-04-16T05:57:09Z</time>
      </trkpt>
      <trkpt lat="45.96291" lon="7.49327">
        <ele>3260.93</ele>
        <time>2010-04-16T05:58:18Z</time>
      </trkpt>
      <trkpt lat="45.96291" lon="7.49327">
        <ele>3264.29</ele>
        <time>2010-04-16T05:58:19Z</time>
      </trkpt>
      <trkpt lat="45.96291" lon="7.49327">
        <ele>3265.26</ele>
        <time>2010-04-16T05:58:21Z</time>
      </trkpt>
      <trkpt lat="45.96291" lon="7.49327">
        <ele>3266.7</ele>
        <time>2010-04-16T05:58:23Z</time>
      </trkpt>
      <trkpt lat="45.96291" lon="7.49327">
        <ele>3263.33</ele>
        <time>2010-04-16T05:58:25Z</time>
      </trkpt>
      <trkpt lat="45.9629" lon="7.49328">
        <ele>3264.29</ele>
        <time>2010-04-16T06:00:28Z</time>
      </trkpt>
      <trkpt lat="45.9629" lon="7.49328">
        <ele>3263.81</ele>
        <time>2010-04-16T06:01:15Z</time>
      </trkpt>
      <trkpt lat="45.9629" lon="7.49328">
        <ele>3264.29</ele>
        <time>2010-04-16T06:03:02Z</time>
      </trkpt>
      <trkpt lat="45.96286" lon="7.49331">
        <ele>3265.74</ele>
        <time>2010-04-16T06:03:20Z</time>
      </trkpt>
      <trkpt lat="45.96279" lon="7.49339">
        <ele>3267.66</ele>
        <time>2010-04-16T06:03:31Z</time>
      </trkpt>
      <trkpt lat="45.96275" lon="7.49343">
        <ele>3269.1</ele>
        <time>2010-04-16T06:03:47Z</time>
      </trkpt>
      <trkpt lat="45.96275" lon="7.49343">
        <ele>3270.54</ele>
        <time>2010-04-16T06:04:02Z</time>
      </trkpt>
      <trkpt lat="45.96275" lon="7.49343">
        <ele>3271.5</ele>
        <time>2010-04-16T06:04:14Z</time>
      </trkpt>
      <trkpt lat="45.96275" lon="7.49343">
        <ele>3273.43</ele>
        <time>2010-04-16T06:04:35Z</time>
      </trkpt>
      <trkpt lat="45.96275" lon="7.49343">
        <ele>3274.87</ele>
        <time>2010-04-16T06:04:49Z</time>
      </trkpt>
      <trkpt lat="45.96274" lon="7.49344">
        <ele>3276.79</ele>
        <time>2010-04-16T06:05:05Z</time>
      </trkpt>
      <trkpt lat="45.96274" lon="7.49344">
        <ele>3276.79</ele>
        <time>2010-04-16T06:05:14Z</time>
      </trkpt>
      <trkpt lat="45.96274" lon="7.49344">
        <ele>3278.71</ele>
        <time>2010-04-16T06:05:35Z</time>
      </trkpt>
      <trkpt lat="45.9627" lon="7.49351">
        <ele>3280.64</ele>
        <time>2010-04-16T06:05:54Z</time>
      </trkpt>
      <trkpt lat="45.96269" lon="7.49354">
        <ele>3283.04</ele>
        <time>2010-04-16T06:06:10Z</time>
      </trkpt>
      <trkpt lat="45.96257" lon="7.49365">
        <ele>3284.48</ele>
        <time>2010-04-16T06:06:20Z</time>
      </trkpt>
      <trkpt lat="45.96257" lon="7.49365">
        <ele>3285.44</ele>
        <time>2010-04-16T06:06:29Z</time>
      </trkpt>
      <trkpt lat="45.96257" lon="7.49365">
        <ele>3285.92</ele>
        <time>2010-04-16T06:06:37Z</time>
      </trkpt>
      <trkpt lat="45.96227" lon="7.49387">
        <ele>3287.37</ele>
        <time>2010-04-16T06:06:56Z</time>
      </trkpt>
      <trkpt lat="45.96211" lon="7.49394">
        <ele>3289.29</ele>
        <time>2010-04-16T06:07:10Z</time>
      </trkpt>
      <trkpt lat="45.96201" lon="7.49398">
        <ele>3290.73</ele>
        <time>2010-04-16T06:07:21Z</time>
      </trkpt>
      <trkpt lat="45.9619" lon="7.49392">
        <ele>3291.69</ele>
        <time>2010-04-16T06:07:34Z</time>
      </trkpt>
      <trkpt lat="45.96183" lon="7.49388">
        <ele>3292.65</ele>
        <time>2010-04-16T06:07:41Z</time>
      </trkpt>
      <trkpt lat="45.96174" lon="7.49385">
        <ele>3293.61</ele>
        <time>2010-04-16T06:07:53Z</time>
      </trkpt>
      <trkpt lat="45.96171" lon="7.49384">
        <ele>3296.02</ele>
        <time>2010-04-16T06:08:06Z</time>
      </trkpt>
      <trkpt lat="45.96171" lon="7.49384">
        <ele>3297.46</ele>
        <time>2010-04-16T06:08:22Z</time>
      </trkpt>
      <trkpt lat="45.96171" lon="7.49384">
        <ele>3297.94</ele>
        <time>2010-04-16T06:08:34Z</time>
      </trkpt>
      <trkpt lat="45.9617" lon="7.49384">
        <ele>3299.38</ele>
        <time>2010-04-16T06:08:47Z</time>
      </trkpt>
      <trkpt lat="45.9617" lon="7.49384">
        <ele>3301.3</ele>
        <time>2010-04-16T06:09:01Z</time>
      </trkpt>
      <trkpt lat="45.9617" lon="7.49384">
        <ele>3302.27</ele>
        <time>2010-04-16T06:09:02Z</time>
      </trkpt>
      <trkpt lat="45.96167" lon="7.49386">
        <ele>3302.75</ele>
        <time>2010-04-16T06:09:13Z</time>
      </trkpt>
      <trkpt lat="45.96167" lon="7.49386">
        <ele>3303.71</ele>
        <time>2010-04-16T06:09:27Z</time>
      </trkpt>
      <trkpt lat="45.96148" lon="7.4941">
        <ele>3307.07</ele>
        <time>2010-04-16T06:09:54Z</time>
      </trkpt>
      <trkpt lat="45.96125" lon="7.49407">
        <ele>3308.03</ele>
        <time>2010-04-16T06:10:14Z</time>
      </trkpt>
      <trkpt lat="45.9611" lon="7.49399">
        <ele>3309.96</ele>
        <time>2010-04-16T06:10:29Z</time>
      </trkpt>
      <trkpt lat="45.96105" lon="7.49394">
        <ele>3311.88</ele>
        <time>2010-04-16T06:10:43Z</time>
      </trkpt>
      <trkpt lat="45.96101" lon="7.49394">
        <ele>3312.84</ele>
        <time>2010-04-16T06:10:58Z</time>
      </trkpt>
      <trkpt lat="45.96096" lon="7.49388">
        <ele>3314.76</ele>
        <time>2010-04-16T06:11:14Z</time>
      </trkpt>
      <trkpt lat="45.96091" lon="7.49387">
        <ele>3315.72</ele>
        <time>2010-04-16T06:11:27Z</time>
      </trkpt>
      <trkpt lat="45.96091" lon="7.49388">
        <ele>3315.72</ele>
        <time>2010-04-16T06:11:28Z</time>
      </trkpt>
      <trkpt lat="45.96089" lon="7.49396">
        <ele>3316.21</ele>
        <time>2010-04-16T06:11:40Z</time>
      </trkpt>
      <trkpt lat="45.96088" lon="7.49404">
        <ele>3318.61</ele>
        <time>2010-04-16T06:11:53Z</time>
      </trkpt>
      <trkpt lat="45.96087" lon="7.49414">
        <ele>3318.61</ele>
        <time>2010-04-16T06:12:07Z</time>
      </trkpt>
      <trkpt lat="45.96085" lon="7.4942">
        <ele>3320.53</ele>
        <time>2010-04-16T06:12:23Z</time>
      </trkpt>
      <trkpt lat="45.96085" lon="7.49431">
        <ele>3321.97</ele>
        <time>2010-04-16T06:12:33Z</time>
      </trkpt>
      <trkpt lat="45.96074" lon="7.49428">
        <ele>3323.42</ele>
        <time>2010-04-16T06:12:47Z</time>
      </trkpt>
      <trkpt lat="45.96066" lon="7.49422">
        <ele>3325.34</ele>
        <time>2010-04-16T06:13:04Z</time>
      </trkpt>
      <trkpt lat="45.96061" lon="7.49418">
        <ele>3326.78</ele>
        <time>2010-04-16T06:13:18Z</time>
      </trkpt>
      <trkpt lat="45.96054" lon="7.49412">
        <ele>3327.74</ele>
        <time>2010-04-16T06:13:30Z</time>
      </trkpt>
      <trkpt lat="45.96046" lon="7.49403">
        <ele>3329.18</ele>
        <time>2010-04-16T06:13:47Z</time>
      </trkpt>
      <trkpt lat="45.96041" lon="7.49396">
        <ele>3331.11</ele>
        <time>2010-04-16T06:14:04Z</time>
      </trkpt>
      <trkpt lat="45.96036" lon="7.4939">
        <ele>3332.07</ele>
        <time>2010-04-16T06:14:17Z</time>
      </trkpt>
      <trkpt lat="45.96033" lon="7.49396">
        <ele>3334.47</ele>
        <time>2010-04-16T06:14:28Z</time>
      </trkpt>
      <trkpt lat="45.96031" lon="7.49408">
        <ele>3334.95</ele>
        <time>2010-04-16T06:14:44Z</time>
      </trkpt>
      <trkpt lat="45.96029" lon="7.49411">
        <ele>3335.91</ele>
        <time>2010-04-16T06:14:51Z</time>
      </trkpt>
      <trkpt lat="45.96027" lon="7.49419">
        <ele>3337.35</ele>
        <time>2010-04-16T06:15:07Z</time>
      </trkpt>
      <trkpt lat="45.96024" lon="7.49426">
        <ele>3339.28</ele>
        <time>2010-04-16T06:15:22Z</time>
      </trkpt>
      <trkpt lat="45.96023" lon="7.49433">
        <ele>3341.2</ele>
        <time>2010-04-16T06:15:38Z</time>
      </trkpt>
      <trkpt lat="45.9602" lon="7.49441">
        <ele>3342.16</ele>
        <time>2010-04-16T06:15:54Z</time>
      </trkpt>
      <trkpt lat="45.96014" lon="7.49449">
        <ele>3344.08</ele>
        <time>2010-04-16T06:16:07Z</time>
      </trkpt>
      <trkpt lat="45.96007" lon="7.49462">
        <ele>3346.49</ele>
        <time>2010-04-16T06:16:26Z</time>
      </trkpt>
      <trkpt lat="45.96005" lon="7.49472">
        <ele>3347.45</ele>
        <time>2010-04-16T06:16:39Z</time>
      </trkpt>
      <trkpt lat="45.96002" lon="7.49477">
        <ele>3350.81</ele>
        <time>2010-04-16T06:17:06Z</time>
      </trkpt>
      <trkpt lat="45.95996" lon="7.49483">
        <ele>3351.29</ele>
        <time>2010-04-16T06:17:23Z</time>
      </trkpt>
      <trkpt lat="45.95996" lon="7.49483">
        <ele>3353.7</ele>
        <time>2010-04-16T06:17:35Z</time>
      </trkpt>
      <trkpt lat="45.95996" lon="7.49483">
        <ele>3355.62</ele>
        <time>2010-04-16T06:17:54Z</time>
      </trkpt>
      <trkpt lat="45.95978" lon="7.49481">
        <ele>3356.58</ele>
        <time>2010-04-16T06:18:09Z</time>
      </trkpt>
      <trkpt lat="45.95969" lon="7.49489">
        <ele>3358.02</ele>
        <time>2010-04-16T06:18:23Z</time>
      </trkpt>
      <trkpt lat="45.95967" lon="7.49499">
        <ele>3359.46</ele>
        <time>2010-04-16T06:18:34Z</time>
      </trkpt>
      <trkpt lat="45.95964" lon="7.49507">
        <ele>3360.43</ele>
        <time>2010-04-16T06:18:46Z</time>
      </trkpt>
      <trkpt lat="45.95959" lon="7.49518">
        <ele>3362.83</ele>
        <time>2010-04-16T06:19:08Z</time>
      </trkpt>
      <trkpt lat="45.95955" lon="7.49528">
        <ele>3363.79</ele>
        <time>2010-04-16T06:19:20Z</time>
      </trkpt>
      <trkpt lat="45.95954" lon="7.49539">
        <ele>3365.71</ele>
        <time>2010-04-16T06:19:36Z</time>
      </trkpt>
      <trkpt lat="45.9595" lon="7.49549">
        <ele>3366.19</ele>
        <time>2010-04-16T06:19:52Z</time>
      </trkpt>
      <trkpt lat="45.95948" lon="7.49561">
        <ele>3368.12</ele>
        <time>2010-04-16T06:20:08Z</time>
      </trkpt>
      <trkpt lat="45.95946" lon="7.49573">
        <ele>3368.12</ele>
        <time>2010-04-16T06:20:21Z</time>
      </trkpt>
      <trkpt lat="45.95942" lon="7.49585">
        <ele>3367.64</ele>
        <time>2010-04-16T06:20:35Z</time>
      </trkpt>
      <trkpt lat="45.95942" lon="7.49585">
        <ele>3371</ele>
        <time>2010-04-16T06:20:37Z</time>
      </trkpt>
      <trkpt lat="45.95942" lon="7.49585">
        <ele>3370.52</ele>
        <time>2010-04-16T06:20:38Z</time>
      </trkpt>
      <trkpt lat="45.95942" lon="7.49585">
        <ele>3369.56</ele>
        <time>2010-04-16T06:20:40Z</time>
      </trkpt>
      <trkpt lat="45.95942" lon="7.49603">
        <ele>3370.04</ele>
        <time>2010-04-16T06:20:54Z</time>
      </trkpt>
      <trkpt lat="45.95944" lon="7.49626">
        <ele>3369.08</ele>
        <time>2010-04-16T06:21:12Z</time>
      </trkpt>
      <trkpt lat="45.95944" lon="7.49629">
        <ele>3368.12</ele>
        <time>2010-04-16T06:21:15Z</time>
      </trkpt>
      <trkpt lat="45.95944" lon="7.49657">
        <ele>3367.15</ele>
        <time>2010-04-16T06:21:30Z</time>
      </trkpt>
      <trkpt lat="45.95942" lon="7.49674">
        <ele>3365.71</ele>
        <time>2010-04-16T06:21:38Z</time>
      </trkpt>
      <trkpt lat="45.95936" lon="7.49696">
        <ele>3365.71</ele>
        <time>2010-04-16T06:21:53Z</time>
      </trkpt>
      <trkpt lat="45.95929" lon="7.49713">
        <ele>3365.23</ele>
        <time>2010-04-16T06:22:08Z</time>
      </trkpt>
      <trkpt lat="45.95926" lon="7.49725">
        <ele>3366.67</ele>
        <time>2010-04-16T06:22:20Z</time>
      </trkpt>
      <trkpt lat="45.95923" lon="7.49733">
        <ele>3365.71</ele>
        <time>2010-04-16T06:22:26Z</time>
      </trkpt>
      <trkpt lat="45.95907" lon="7.49743">
        <ele>3366.67</ele>
        <time>2010-04-16T06:22:41Z</time>
      </trkpt>
      <trkpt lat="45.95904" lon="7.49744">
        <ele>3365.71</ele>
        <time>2010-04-16T06:22:44Z</time>
      </trkpt>
      <trkpt lat="45.95902" lon="7.49746">
        <ele>3366.19</ele>
        <time>2010-04-16T06:23:06Z</time>
      </trkpt>
      <trkpt lat="45.95902" lon="7.49745">
        <ele>3367.64</ele>
        <time>2010-04-16T06:23:58Z</time>
      </trkpt>
      <trkpt lat="45.95902" lon="7.49745">
        <ele>3366.19</ele>
        <time>2010-04-16T06:24:00Z</time>
      </trkpt>
      <trkpt lat="45.95902" lon="7.49745">
        <ele>3365.23</ele>
        <time>2010-04-16T06:24:05Z</time>
      </trkpt>
      <trkpt lat="45.95902" lon="7.49744">
        <ele>3364.75</ele>
        <time>2010-04-16T06:25:18Z</time>
      </trkpt>
      <trkpt lat="45.95902" lon="7.49744">
        <ele>3363.79</ele>
        <time>2010-04-16T06:26:23Z</time>
      </trkpt>
      <trkpt lat="45.95902" lon="7.49744">
        <ele>3369.08</ele>
        <time>2010-04-16T06:26:25Z</time>
      </trkpt>
      <trkpt lat="45.95902" lon="7.49744">
        <ele>3366.67</ele>
        <time>2010-04-16T06:26:26Z</time>
      </trkpt>
      <trkpt lat="45.95902" lon="7.49744">
        <ele>3364.27</ele>
        <time>2010-04-16T06:26:28Z</time>
      </trkpt>
      <trkpt lat="45.95902" lon="7.49744">
        <ele>3366.19</ele>
        <time>2010-04-16T06:27:57Z</time>
      </trkpt>
      <trkpt lat="45.95902" lon="7.49743">
        <ele>3363.31</ele>
        <time>2010-04-16T06:28:40Z</time>
      </trkpt>
      <trkpt lat="45.95902" lon="7.49743">
        <ele>3367.15</ele>
        <time>2010-04-16T06:29:05Z</time>
      </trkpt>
      <trkpt lat="45.95902" lon="7.49743">
        <ele>3360.43</ele>
        <time>2010-04-16T06:29:10Z</time>
      </trkpt>
      <trkpt lat="45.95902" lon="7.49743">
        <ele>3361.39</ele>
        <time>2010-04-16T06:29:11Z</time>
      </trkpt>
      <trkpt lat="45.95902" lon="7.49744">
        <ele>3366.67</ele>
        <time>2010-04-16T06:29:12Z</time>
      </trkpt>
      <trkpt lat="45.95902" lon="7.49744">
        <ele>3365.23</ele>
        <time>2010-04-16T06:29:13Z</time>
      </trkpt>
      <trkpt lat="45.95902" lon="7.49744">
        <ele>3361.87</ele>
        <time>2010-04-16T06:29:28Z</time>
      </trkpt>
      <trkpt lat="45.95902" lon="7.49744">
        <ele>3365.23</ele>
        <time>2010-04-16T06:29:29Z</time>
      </trkpt>
      <trkpt lat="45.95902" lon="7.49744">
        <ele>3361.87</ele>
        <time>2010-04-16T06:30:28Z</time>
      </trkpt>
      <trkpt lat="45.95902" lon="7.49744">
        <ele>3357.54</ele>
        <time>2010-04-16T06:30:30Z</time>
      </trkpt>
      <trkpt lat="45.95902" lon="7.49744">
        <ele>3362.35</ele>
        <time>2010-04-16T06:30:31Z</time>
      </trkpt>
      <trkpt lat="45.95902" lon="7.49745">
        <ele>3375.81</ele>
        <time>2010-04-16T06:30:34Z</time>
      </trkpt>
      <trkpt lat="45.95901" lon="7.49746">
        <ele>3367.15</ele>
        <time>2010-04-16T06:30:35Z</time>
      </trkpt>
      <trkpt lat="45.95901" lon="7.49746">
        <ele>3365.71</ele>
        <time>2010-04-16T06:31:15Z</time>
      </trkpt>
      <trkpt lat="45.95902" lon="7.49745">
        <ele>3365.23</ele>
        <time>2010-04-16T06:32:07Z</time>
      </trkpt>
      <trkpt lat="45.95901" lon="7.49745">
        <ele>3364.75</ele>
        <time>2010-04-16T06:32:37Z</time>
      </trkpt>
      <trkpt lat="45.95902" lon="7.49745">
        <ele>3365.23</ele>
        <time>2010-04-16T06:33:33Z</time>
      </trkpt>
      <trkpt lat="45.95907" lon="7.49749">
        <ele>3359.95</ele>
        <time>2010-04-16T06:33:53Z</time>
      </trkpt>
      <trkpt lat="45.95907" lon="7.49749">
        <ele>3366.67</ele>
        <time>2010-04-16T06:33:54Z</time>
      </trkpt>
      <trkpt lat="45.95908" lon="7.4975">
        <ele>3363.79</ele>
        <time>2010-04-16T06:33:56Z</time>
      </trkpt>
      <trkpt lat="45.95911" lon="7.49751">
        <ele>3366.67</ele>
        <time>2010-04-16T06:34:01Z</time>
      </trkpt>
      <trkpt lat="45.95911" lon="7.49752">
        <ele>3364.75</ele>
        <time>2010-04-16T06:34:03Z</time>
      </trkpt>
      <trkpt lat="45.95912" lon="7.49752">
        <ele>3369.08</ele>
        <time>2010-04-16T06:34:04Z</time>
      </trkpt>
      <trkpt lat="45.95912" lon="7.49753">
        <ele>3362.35</ele>
        <time>2010-04-16T06:34:05Z</time>
      </trkpt>
      <trkpt lat="45.95913" lon="7.49753">
        <ele>3357.06</ele>
        <time>2010-04-16T06:34:06Z</time>
      </trkpt>
      <trkpt lat="45.95913" lon="7.49753">
        <ele>3366.67</ele>
        <time>2010-04-16T06:34:07Z</time>
      </trkpt>
      <trkpt lat="45.95914" lon="7.49754">
        <ele>3366.67</ele>
        <time>2010-04-16T06:34:08Z</time>
      </trkpt>
      <trkpt lat="45.95915" lon="7.49755">
        <ele>3362.35</ele>
        <time>2010-04-16T06:34:11Z</time>
      </trkpt>
      <trkpt lat="45.95915" lon="7.49755">
        <ele>3367.64</ele>
        <time>2010-04-16T06:34:12Z</time>
      </trkpt>
      <trkpt lat="45.95915" lon="7.49755">
        <ele>3369.08</ele>
        <time>2010-04-16T06:34:13Z</time>
      </trkpt>
      <trkpt lat="45.95915" lon="7.49755">
        <ele>3366.19</ele>
        <time>2010-04-16T06:34:14Z</time>
      </trkpt>
      <trkpt lat="45.95903" lon="7.49754">
        <ele>3365.71</ele>
        <time>2010-04-16T06:34:18Z</time>
      </trkpt>
      <trkpt lat="45.95901" lon="7.49751">
        <ele>3359.46</ele>
        <time>2010-04-16T06:35:03Z</time>
      </trkpt>
      <trkpt lat="45.959" lon="7.49751">
        <ele>3360.43</ele>
        <time>2010-04-16T06:35:04Z</time>
      </trkpt>
      <trkpt lat="45.959" lon="7.49751">
        <ele>3376.29</ele>
        <time>2010-04-16T06:35:05Z</time>
      </trkpt>
      <trkpt lat="45.959" lon="7.49751">
        <ele>3368.12</ele>
        <time>2010-04-16T06:35:06Z</time>
      </trkpt>
      <trkpt lat="45.959" lon="7.49751">
        <ele>3365.71</ele>
        <time>2010-04-16T06:35:08Z</time>
      </trkpt>
      <trkpt lat="45.959" lon="7.49751">
        <ele>3358.5</ele>
        <time>2010-04-16T06:35:14Z</time>
      </trkpt>
      <trkpt lat="45.959" lon="7.49751">
        <ele>3366.19</ele>
        <time>2010-04-16T06:35:15Z</time>
      </trkpt>
      <trkpt lat="45.959" lon="7.49751">
        <ele>3362.83</ele>
        <time>2010-04-16T06:35:22Z</time>
      </trkpt>
      <trkpt lat="45.95902" lon="7.49752">
        <ele>3366.67</ele>
        <time>2010-04-16T06:35:27Z</time>
      </trkpt>
      <trkpt lat="45.95904" lon="7.49749">
        <ele>3365.71</ele>
        <time>2010-04-16T06:36:23Z</time>
      </trkpt>
      <trkpt lat="45.95903" lon="7.49744">
        <ele>3366.19</ele>
        <time>2010-04-16T06:37:12Z</time>
      </trkpt>
      <trkpt lat="45.95901" lon="7.49745">
        <ele>3365.71</ele>
        <time>2010-04-16T06:38:07Z</time>
      </trkpt>
      <trkpt lat="45.95901" lon="7.49744">
        <ele>3366.19</ele>
        <time>2010-04-16T06:41:07Z</time>
      </trkpt>
      <trkpt lat="45.95901" lon="7.49745">
        <ele>3366.67</ele>
        <time>2010-04-16T06:41:33Z</time>
      </trkpt>
      <trkpt lat="45.95892" lon="7.49755">
        <ele>3365.23</ele>
        <time>2010-04-16T06:44:03Z</time>
      </trkpt>
      <trkpt lat="45.9589" lon="7.49758">
        <ele>3365.23</ele>
        <time>2010-04-16T06:44:04Z</time>
      </trkpt>
      <trkpt lat="45.95886" lon="7.49765">
        <ele>3364.75</ele>
        <time>2010-04-16T06:44:06Z</time>
      </trkpt>
      <trkpt lat="45.95883" lon="7.49782">
        <ele>3359.46</ele>
        <time>2010-04-16T06:44:09Z</time>
      </trkpt>
      <trkpt lat="45.95884" lon="7.49788">
        <ele>3358.02</ele>
        <time>2010-04-16T06:44:10Z</time>
      </trkpt>
      <trkpt lat="45.95884" lon="7.49805">
        <ele>3352.74</ele>
        <time>2010-04-16T06:44:13Z</time>
      </trkpt>
      <trkpt lat="45.95886" lon="7.49821">
        <ele>3348.41</ele>
        <time>2010-04-16T06:44:16Z</time>
      </trkpt>
      <trkpt lat="45.95888" lon="7.49838">
        <ele>3343.6</ele>
        <time>2010-04-16T06:44:19Z</time>
      </trkpt>
      <trkpt lat="45.95893" lon="7.49866">
        <ele>3340.24</ele>
        <time>2010-04-16T06:44:23Z</time>
      </trkpt>
      <trkpt lat="45.95895" lon="7.49879">
        <ele>3336.39</ele>
        <time>2010-04-16T06:44:25Z</time>
      </trkpt>
      <trkpt lat="45.95898" lon="7.49886">
        <ele>3336.39</ele>
        <time>2010-04-16T06:44:26Z</time>
      </trkpt>
      <trkpt lat="45.95903" lon="7.49904">
        <ele>3331.59</ele>
        <time>2010-04-16T06:44:29Z</time>
      </trkpt>
      <trkpt lat="45.95909" lon="7.49903">
        <ele>3331.59</ele>
        <time>2010-04-16T06:44:35Z</time>
      </trkpt>
      <trkpt lat="45.95909" lon="7.49903">
        <ele>3332.55</ele>
        <time>2010-04-16T06:44:51Z</time>
      </trkpt>
      <trkpt lat="45.95913" lon="7.49914">
        <ele>3330.14</ele>
        <time>2010-04-16T06:44:55Z</time>
      </trkpt>
      <trkpt lat="45.95916" lon="7.49926">
        <ele>3325.82</ele>
        <time>2010-04-16T06:44:57Z</time>
      </trkpt>
      <trkpt lat="45.95916" lon="7.49944">
        <ele>3322.93</ele>
        <time>2010-04-16T06:44:59Z</time>
      </trkpt>
      <trkpt lat="45.95922" lon="7.49982">
        <ele>3318.13</ele>
        <time>2010-04-16T06:45:03Z</time>
      </trkpt>
      <trkpt lat="45.95937" lon="7.50002">
        <ele>3312.36</ele>
        <time>2010-04-16T06:45:06Z</time>
      </trkpt>
      <trkpt lat="45.95949" lon="7.50018">
        <ele>3305.15</ele>
        <time>2010-04-16T06:45:08Z</time>
      </trkpt>
      <trkpt lat="45.95954" lon="7.50026">
        <ele>3301.79</ele>
        <time>2010-04-16T06:45:09Z</time>
      </trkpt>
      <trkpt lat="45.9596" lon="7.50035">
        <ele>3308.03</ele>
        <time>2010-04-16T06:45:10Z</time>
      </trkpt>
      <trkpt lat="45.95971" lon="7.50069">
        <ele>3305.63</ele>
        <time>2010-04-16T06:45:13Z</time>
      </trkpt>
      <trkpt lat="45.95977" lon="7.50094">
        <ele>3303.23</ele>
        <time>2010-04-16T06:45:15Z</time>
      </trkpt>
      <trkpt lat="45.95982" lon="7.50119">
        <ele>3301.79</ele>
        <time>2010-04-16T06:45:17Z</time>
      </trkpt>
      <trkpt lat="45.95989" lon="7.50171">
        <ele>3298.42</ele>
        <time>2010-04-16T06:45:22Z</time>
      </trkpt>
      <trkpt lat="45.95987" lon="7.50222">
        <ele>3299.38</ele>
        <time>2010-04-16T06:45:32Z</time>
      </trkpt>
      <trkpt lat="45.95986" lon="7.50238">
        <ele>3298.42</ele>
        <time>2010-04-16T06:45:40Z</time>
      </trkpt>
      <trkpt lat="45.95988" lon="7.50246">
        <ele>3298.42</ele>
        <time>2010-04-16T06:46:23Z</time>
      </trkpt>
      <trkpt lat="45.95986" lon="7.50256">
        <ele>3296.02</ele>
        <time>2010-04-16T06:46:25Z</time>
      </trkpt>
      <trkpt lat="45.95983" lon="7.50269">
        <ele>3292.65</ele>
        <time>2010-04-16T06:46:27Z</time>
      </trkpt>
      <trkpt lat="45.95987" lon="7.50297">
        <ele>3289.77</ele>
        <time>2010-04-16T06:46:31Z</time>
      </trkpt>
      <trkpt lat="45.95988" lon="7.5031">
        <ele>3286.4</ele>
        <time>2010-04-16T06:46:33Z</time>
      </trkpt>
      <trkpt lat="45.95979" lon="7.50321">
        <ele>3283.04</ele>
        <time>2010-04-16T06:46:36Z</time>
      </trkpt>
      <trkpt lat="45.95978" lon="7.50325">
        <ele>3283.52</ele>
        <time>2010-04-16T06:46:37Z</time>
      </trkpt>
      <trkpt lat="45.95977" lon="7.50332">
        <ele>3281.12</ele>
        <time>2010-04-16T06:46:38Z</time>
      </trkpt>
      <trkpt lat="45.95977" lon="7.50346">
        <ele>3279.19</ele>
        <time>2010-04-16T06:46:40Z</time>
      </trkpt>
      <trkpt lat="45.95976" lon="7.50365">
        <ele>3273.43</ele>
        <time>2010-04-16T06:46:43Z</time>
      </trkpt>
      <trkpt lat="45.95971" lon="7.50386">
        <ele>3270.06</ele>
        <time>2010-04-16T06:46:46Z</time>
      </trkpt>
      <trkpt lat="45.95967" lon="7.504">
        <ele>3268.14</ele>
        <time>2010-04-16T06:46:48Z</time>
      </trkpt>
      <trkpt lat="45.95967" lon="7.50428">
        <ele>3262.85</ele>
        <time>2010-04-16T06:46:53Z</time>
      </trkpt>
      <trkpt lat="45.95968" lon="7.50445">
        <ele>3256.6</ele>
        <time>2010-04-16T06:46:56Z</time>
      </trkpt>
      <trkpt lat="45.95969" lon="7.5045">
        <ele>3257.08</ele>
        <time>2010-04-16T06:46:57Z</time>
      </trkpt>
      <trkpt lat="45.9597" lon="7.50458">
        <ele>3255.16</ele>
        <time>2010-04-16T06:47:00Z</time>
      </trkpt>
      <trkpt lat="45.95976" lon="7.50463">
        <ele>3253.72</ele>
        <time>2010-04-16T06:47:03Z</time>
      </trkpt>
      <trkpt lat="45.95979" lon="7.50466">
        <ele>3252.76</ele>
        <time>2010-04-16T06:47:20Z</time>
      </trkpt>
      <trkpt lat="45.95979" lon="7.50466">
        <ele>3251.8</ele>
        <time>2010-04-16T06:47:35Z</time>
      </trkpt>
      <trkpt lat="45.95982" lon="7.5047">
        <ele>3251.8</ele>
        <time>2010-04-16T06:47:37Z</time>
      </trkpt>
      <trkpt lat="45.95984" lon="7.50479">
        <ele>3249.39</ele>
        <time>2010-04-16T06:47:39Z</time>
      </trkpt>
      <trkpt lat="45.95987" lon="7.5049">
        <ele>3246.99</ele>
        <time>2010-04-16T06:47:41Z</time>
      </trkpt>
      <trkpt lat="45.95989" lon="7.50494">
        <ele>3243.63</ele>
        <time>2010-04-16T06:47:42Z</time>
      </trkpt>
      <trkpt lat="45.95987" lon="7.50498">
        <ele>3244.11</ele>
        <time>2010-04-16T06:47:43Z</time>
      </trkpt>
      <trkpt lat="45.95987" lon="7.5051">
        <ele>3237.38</ele>
        <time>2010-04-16T06:47:45Z</time>
      </trkpt>
      <trkpt lat="45.95987" lon="7.50517">
        <ele>3238.82</ele>
        <time>2010-04-16T06:47:46Z</time>
      </trkpt>
      <trkpt lat="45.9599" lon="7.50523">
        <ele>3236.42</ele>
        <time>2010-04-16T06:47:49Z</time>
      </trkpt>
      <trkpt lat="45.95996" lon="7.50531">
        <ele>3233.53</ele>
        <time>2010-04-16T06:47:53Z</time>
      </trkpt>
      <trkpt lat="45.95999" lon="7.50535">
        <ele>3232.57</ele>
        <time>2010-04-16T06:47:54Z</time>
      </trkpt>
      <trkpt lat="45.96" lon="7.50544">
        <ele>3226.8</ele>
        <time>2010-04-16T06:47:57Z</time>
      </trkpt>
      <trkpt lat="45.95995" lon="7.50547">
        <ele>3226.32</ele>
        <time>2010-04-16T06:47:59Z</time>
      </trkpt>
      <trkpt lat="45.95994" lon="7.50549">
        <ele>3225.36</ele>
        <time>2010-04-16T06:48:05Z</time>
      </trkpt>
      <trkpt lat="45.95981" lon="7.50553">
        <ele>3220.07</ele>
        <time>2010-04-16T06:48:09Z</time>
      </trkpt>
      <trkpt lat="45.95967" lon="7.50553">
        <ele>3217.67</ele>
        <time>2010-04-16T06:48:12Z</time>
      </trkpt>
      <trkpt lat="45.95959" lon="7.50551">
        <ele>3216.23</ele>
        <time>2010-04-16T06:48:14Z</time>
      </trkpt>
      <trkpt lat="45.95957" lon="7.5055">
        <ele>3215.75</ele>
        <time>2010-04-16T06:48:15Z</time>
      </trkpt>
      <trkpt lat="45.95949" lon="7.50554">
        <ele>3207.1</ele>
        <time>2010-04-16T06:48:18Z</time>
      </trkpt>
      <trkpt lat="45.95941" lon="7.50566">
        <ele>3205.65</ele>
        <time>2010-04-16T06:48:20Z</time>
      </trkpt>
      <trkpt lat="45.95935" lon="7.50584">
        <ele>3202.77</ele>
        <time>2010-04-16T06:48:22Z</time>
      </trkpt>
      <trkpt lat="45.95924" lon="7.50626">
        <ele>3198.92</ele>
        <time>2010-04-16T06:48:26Z</time>
      </trkpt>
      <trkpt lat="45.9592" lon="7.50644">
        <ele>3197.48</ele>
        <time>2010-04-16T06:48:28Z</time>
      </trkpt>
      <trkpt lat="45.95908" lon="7.50684">
        <ele>3196.52</ele>
        <time>2010-04-16T06:48:37Z</time>
      </trkpt>
      <trkpt lat="45.95908" lon="7.50683">
        <ele>3196.04</ele>
        <time>2010-04-16T06:50:34Z</time>
      </trkpt>
      <trkpt lat="45.9591" lon="7.50701">
        <ele>3189.79</ele>
        <time>2010-04-16T06:50:38Z</time>
      </trkpt>
      <trkpt lat="45.95908" lon="7.50707">
        <ele>3190.75</ele>
        <time>2010-04-16T06:50:39Z</time>
      </trkpt>
      <trkpt lat="45.95908" lon="7.50711">
        <ele>3189.79</ele>
        <time>2010-04-16T06:50:40Z</time>
      </trkpt>
      <trkpt lat="45.95911" lon="7.50718">
        <ele>3184.98</ele>
        <time>2010-04-16T06:50:42Z</time>
      </trkpt>
      <trkpt lat="45.95916" lon="7.50724">
        <ele>3182.1</ele>
        <time>2010-04-16T06:50:44Z</time>
      </trkpt>
      <trkpt lat="45.95923" lon="7.50731">
        <ele>3177.78</ele>
        <time>2010-04-16T06:50:46Z</time>
      </trkpt>
      <trkpt lat="45.95927" lon="7.50735">
        <ele>3175.85</ele>
        <time>2010-04-16T06:50:47Z</time>
      </trkpt>
      <trkpt lat="45.95935" lon="7.50743">
        <ele>3170.08</ele>
        <time>2010-04-16T06:50:49Z</time>
      </trkpt>
      <trkpt lat="45.9594" lon="7.50745">
        <ele>3167.68</ele>
        <time>2010-04-16T06:50:50Z</time>
      </trkpt>
      <trkpt lat="45.95954" lon="7.50756">
        <ele>3162.39</ele>
        <time>2010-04-16T06:50:53Z</time>
      </trkpt>
      <trkpt lat="45.95963" lon="7.50765">
        <ele>3157.11</ele>
        <time>2010-04-16T06:50:55Z</time>
      </trkpt>
      <trkpt lat="45.95968" lon="7.50771">
        <ele>3156.63</ele>
        <time>2010-04-16T06:50:56Z</time>
      </trkpt>
      <trkpt lat="45.95973" lon="7.50776">
        <ele>3154.7</ele>
        <time>2010-04-16T06:50:57Z</time>
      </trkpt>
      <trkpt lat="45.95977" lon="7.50781">
        <ele>3151.34</ele>
        <time>2010-04-16T06:50:58Z</time>
      </trkpt>
      <trkpt lat="45.95982" lon="7.50787">
        <ele>3151.34</ele>
        <time>2010-04-16T06:50:59Z</time>
      </trkpt>
      <trkpt lat="45.95992" lon="7.50799">
        <ele>3147.01</ele>
        <time>2010-04-16T06:51:01Z</time>
      </trkpt>
      <trkpt lat="45.96008" lon="7.50817">
        <ele>3141.25</ele>
        <time>2010-04-16T06:51:04Z</time>
      </trkpt>
      <trkpt lat="45.96013" lon="7.50823">
        <ele>3141.25</ele>
        <time>2010-04-16T06:51:05Z</time>
      </trkpt>
      <trkpt lat="45.96023" lon="7.50837">
        <ele>3135.96</ele>
        <time>2010-04-16T06:51:07Z</time>
      </trkpt>
      <trkpt lat="45.96028" lon="7.50844">
        <ele>3133.55</ele>
        <time>2010-04-16T06:51:08Z</time>
      </trkpt>
      <trkpt lat="45.96038" lon="7.50866">
        <ele>3130.67</ele>
        <time>2010-04-16T06:51:11Z</time>
      </trkpt>
      <trkpt lat="45.9604" lon="7.50873">
        <ele>3127.79</ele>
        <time>2010-04-16T06:51:12Z</time>
      </trkpt>
      <trkpt lat="45.96043" lon="7.50889">
        <ele>3124.9</ele>
        <time>2010-04-16T06:51:14Z</time>
      </trkpt>
      <trkpt lat="45.96051" lon="7.50908">
        <ele>3119.13</ele>
        <time>2010-04-16T06:51:17Z</time>
      </trkpt>
      <trkpt lat="45.96055" lon="7.50914">
        <ele>3119.62</ele>
        <time>2010-04-16T06:51:18Z</time>
      </trkpt>
      <trkpt lat="45.96063" lon="7.5093">
        <ele>3113.85</ele>
        <time>2010-04-16T06:51:20Z</time>
      </trkpt>
      <trkpt lat="45.96074" lon="7.50955">
        <ele>3110</ele>
        <time>2010-04-16T06:51:23Z</time>
      </trkpt>
      <trkpt lat="45.96082" lon="7.50971">
        <ele>3106.16</ele>
        <time>2010-04-16T06:51:25Z</time>
      </trkpt>
      <trkpt lat="45.9609" lon="7.50987">
        <ele>3102.31</ele>
        <time>2010-04-16T06:51:27Z</time>
      </trkpt>
      <trkpt lat="45.96103" lon="7.51017">
        <ele>3097.02</ele>
        <time>2010-04-16T06:51:30Z</time>
      </trkpt>
      <trkpt lat="45.96108" lon="7.51028">
        <ele>3093.66</ele>
        <time>2010-04-16T06:51:31Z</time>
      </trkpt>
      <trkpt lat="45.96123" lon="7.51056">
        <ele>3090.78</ele>
        <time>2010-04-16T06:51:34Z</time>
      </trkpt>
      <trkpt lat="45.96135" lon="7.51097">
        <ele>3085.49</ele>
        <time>2010-04-16T06:51:38Z</time>
      </trkpt>
      <trkpt lat="45.96142" lon="7.51118">
        <ele>3082.12</ele>
        <time>2010-04-16T06:51:40Z</time>
      </trkpt>
      <trkpt lat="45.96147" lon="7.5114">
        <ele>3080.2</ele>
        <time>2010-04-16T06:51:42Z</time>
      </trkpt>
      <trkpt lat="45.96151" lon="7.51187">
        <ele>3075.4</ele>
        <time>2010-04-16T06:51:46Z</time>
      </trkpt>
      <trkpt lat="45.96161" lon="7.5122">
        <ele>3071.07</ele>
        <time>2010-04-16T06:51:49Z</time>
      </trkpt>
      <trkpt lat="45.96164" lon="7.5123">
        <ele>3071.07</ele>
        <time>2010-04-16T06:51:50Z</time>
      </trkpt>
      <trkpt lat="45.96173" lon="7.51252">
        <ele>3067.22</ele>
        <time>2010-04-16T06:51:52Z</time>
      </trkpt>
      <trkpt lat="45.96185" lon="7.51285">
        <ele>3063.38</ele>
        <time>2010-04-16T06:51:55Z</time>
      </trkpt>
      <trkpt lat="45.96189" lon="7.51296">
        <ele>3061.94</ele>
        <time>2010-04-16T06:51:56Z</time>
      </trkpt>
      <trkpt lat="45.96192" lon="7.51308">
        <ele>3057.13</ele>
        <time>2010-04-16T06:51:57Z</time>
      </trkpt>
      <trkpt lat="45.96197" lon="7.51356">
        <ele>3053.77</ele>
        <time>2010-04-16T06:52:01Z</time>
      </trkpt>
      <trkpt lat="45.962" lon="7.5138">
        <ele>3052.32</ele>
        <time>2010-04-16T06:52:03Z</time>
      </trkpt>
      <trkpt lat="45.9621" lon="7.51406">
        <ele>3048.48</ele>
        <time>2010-04-16T06:52:07Z</time>
      </trkpt>
      <trkpt lat="45.96214" lon="7.51413">
        <ele>3048.48</ele>
        <time>2010-04-16T06:52:08Z</time>
      </trkpt>
      <trkpt lat="45.96231" lon="7.51446">
        <ele>3043.67</ele>
        <time>2010-04-16T06:52:12Z</time>
      </trkpt>
      <trkpt lat="45.96235" lon="7.51454">
        <ele>3044.15</ele>
        <time>2010-04-16T06:52:13Z</time>
      </trkpt>
      <trkpt lat="45.96251" lon="7.51477">
        <ele>3042.23</ele>
        <time>2010-04-16T06:52:19Z</time>
      </trkpt>
      <trkpt lat="45.96269" lon="7.51457">
        <ele>3045.59</ele>
        <time>2010-04-16T06:53:10Z</time>
      </trkpt>
      <trkpt lat="45.96269" lon="7.51457">
        <ele>3045.11</ele>
        <time>2010-04-16T06:53:11Z</time>
      </trkpt>
      <trkpt lat="45.96293" lon="7.51472">
        <ele>3042.23</ele>
        <time>2010-04-16T06:53:42Z</time>
      </trkpt>
      <trkpt lat="45.96312" lon="7.51497">
        <ele>3039.83</ele>
        <time>2010-04-16T06:53:47Z</time>
      </trkpt>
      <trkpt lat="45.96332" lon="7.51529">
        <ele>3035.5</ele>
        <time>2010-04-16T06:53:52Z</time>
      </trkpt>
      <trkpt lat="45.96338" lon="7.51545">
        <ele>3033.58</ele>
        <time>2010-04-16T06:53:54Z</time>
      </trkpt>
      <trkpt lat="45.96345" lon="7.51566">
        <ele>3032.14</ele>
        <time>2010-04-16T06:53:57Z</time>
      </trkpt>
      <trkpt lat="45.96358" lon="7.51586">
        <ele>3030.69</ele>
        <time>2010-04-16T06:54:02Z</time>
      </trkpt>
      <trkpt lat="45.96366" lon="7.51602">
        <ele>3027.33</ele>
        <time>2010-04-16T06:54:05Z</time>
      </trkpt>
      <trkpt lat="45.96369" lon="7.51609">
        <ele>3027.33</ele>
        <time>2010-04-16T06:54:06Z</time>
      </trkpt>
      <trkpt lat="45.96384" lon="7.51648">
        <ele>3023.48</ele>
        <time>2010-04-16T06:54:13Z</time>
      </trkpt>
      <trkpt lat="45.96401" lon="7.51677">
        <ele>3021.08</ele>
        <time>2010-04-16T06:54:20Z</time>
      </trkpt>
      <trkpt lat="45.9641" lon="7.51686">
        <ele>3017.72</ele>
        <time>2010-04-16T06:54:23Z</time>
      </trkpt>
      <trkpt lat="45.96414" lon="7.51689">
        <ele>3017.23</ele>
        <time>2010-04-16T06:54:24Z</time>
      </trkpt>
      <trkpt lat="45.96418" lon="7.51693">
        <ele>3015.79</ele>
        <time>2010-04-16T06:54:25Z</time>
      </trkpt>
      <trkpt lat="45.96433" lon="7.51715">
        <ele>3012.91</ele>
        <time>2010-04-16T06:54:29Z</time>
      </trkpt>
      <trkpt lat="45.96453" lon="7.51772">
        <ele>3009.54</ele>
        <time>2010-04-16T06:54:37Z</time>
      </trkpt>
      <trkpt lat="45.96451" lon="7.51819">
        <ele>3006.18</ele>
        <time>2010-04-16T06:54:45Z</time>
      </trkpt>
      <trkpt lat="45.9645" lon="7.51859">
        <ele>3004.74</ele>
        <time>2010-04-16T06:54:52Z</time>
      </trkpt>
      <trkpt lat="45.96448" lon="7.51879">
        <ele>3004.26</ele>
        <time>2010-04-16T06:55:12Z</time>
      </trkpt>
      <trkpt lat="45.96446" lon="7.51892">
        <ele>3004.26</ele>
        <time>2010-04-16T06:56:20Z</time>
      </trkpt>
      <trkpt lat="45.96445" lon="7.51901">
        <ele>3002.82</ele>
        <time>2010-04-16T06:56:24Z</time>
      </trkpt>
      <trkpt lat="45.9644" lon="7.51914">
        <ele>2999.45</ele>
        <time>2010-04-16T06:56:31Z</time>
      </trkpt>
      <trkpt lat="45.96439" lon="7.51914">
        <ele>2999.45</ele>
        <time>2010-04-16T06:56:32Z</time>
      </trkpt>
      <trkpt lat="45.96439" lon="7.51915">
        <ele>2995.12</ele>
        <time>2010-04-16T06:56:34Z</time>
      </trkpt>
      <trkpt lat="45.9644" lon="7.51911">
        <ele>2990.8</ele>
        <time>2010-04-16T06:56:37Z</time>
      </trkpt>
      <trkpt lat="45.96445" lon="7.5191">
        <ele>2985.03</ele>
        <time>2010-04-16T06:56:40Z</time>
      </trkpt>
      <trkpt lat="45.96447" lon="7.5191">
        <ele>2984.55</ele>
        <time>2010-04-16T06:56:41Z</time>
      </trkpt>
      <trkpt lat="45.9645" lon="7.51911">
        <ele>2945.62</ele>
        <time>2010-04-16T06:56:43Z</time>
      </trkpt>
      <trkpt lat="45.96452" lon="7.5191">
        <ele>2988.4</ele>
        <time>2010-04-16T06:56:44Z</time>
      </trkpt>
      <trkpt lat="45.96453" lon="7.51909">
        <ele>2983.59</ele>
        <time>2010-04-16T06:56:45Z</time>
      </trkpt>
      <trkpt lat="45.96454" lon="7.51906">
        <ele>2980.71</ele>
        <time>2010-04-16T06:56:47Z</time>
      </trkpt>
      <trkpt lat="45.96457" lon="7.51904">
        <ele>2975.9</ele>
        <time>2010-04-16T06:56:51Z</time>
      </trkpt>
      <trkpt lat="45.96458" lon="7.51902">
        <ele>2972.05</ele>
        <time>2010-04-16T06:56:54Z</time>
      </trkpt>
      <trkpt lat="45.9646" lon="7.51903">
        <ele>2970.61</ele>
        <time>2010-04-16T06:56:55Z</time>
      </trkpt>
      <trkpt lat="45.96463" lon="7.51906">
        <ele>2969.65</ele>
        <time>2010-04-16T06:56:57Z</time>
      </trkpt>
      <trkpt lat="45.96471" lon="7.51907">
        <ele>2967.73</ele>
        <time>2010-04-16T06:57:05Z</time>
      </trkpt>
      <trkpt lat="45.96474" lon="7.5191">
        <ele>2966.29</ele>
        <time>2010-04-16T06:57:07Z</time>
      </trkpt>
      <trkpt lat="45.96484" lon="7.51911">
        <ele>2961</ele>
        <time>2010-04-16T06:57:09Z</time>
      </trkpt>
      <trkpt lat="45.9649" lon="7.5191">
        <ele>2960.52</ele>
        <time>2010-04-16T06:57:10Z</time>
      </trkpt>
      <trkpt lat="45.96495" lon="7.51909">
        <ele>2960.04</ele>
        <time>2010-04-16T06:57:11Z</time>
      </trkpt>
      <trkpt lat="45.96495" lon="7.51911">
        <ele>2957.15</ele>
        <time>2010-04-16T06:57:14Z</time>
      </trkpt>
      <trkpt lat="45.96513" lon="7.51902">
        <ele>2953.31</ele>
        <time>2010-04-16T06:57:18Z</time>
      </trkpt>
      <trkpt lat="45.96516" lon="7.51901">
        <ele>2953.31</ele>
        <time>2010-04-16T06:57:29Z</time>
      </trkpt>
      <trkpt lat="45.96521" lon="7.51904">
        <ele>2950.42</ele>
        <time>2010-04-16T06:57:32Z</time>
      </trkpt>
      <trkpt lat="45.96524" lon="7.51907">
        <ele>2947.06</ele>
        <time>2010-04-16T06:57:34Z</time>
      </trkpt>
      <trkpt lat="45.96523" lon="7.5191">
        <ele>2947.06</ele>
        <time>2010-04-16T06:57:35Z</time>
      </trkpt>
      <trkpt lat="45.96524" lon="7.5191">
        <ele>2943.69</ele>
        <time>2010-04-16T06:57:36Z</time>
      </trkpt>
      <trkpt lat="45.96527" lon="7.51915">
        <ele>2940.33</ele>
        <time>2010-04-16T06:57:38Z</time>
      </trkpt>
      <trkpt lat="45.96528" lon="7.51925">
        <ele>2938.89</ele>
        <time>2010-04-16T06:57:41Z</time>
      </trkpt>
      <trkpt lat="45.96533" lon="7.51929">
        <ele>2934.56</ele>
        <time>2010-04-16T06:57:43Z</time>
      </trkpt>
      <trkpt lat="45.96533" lon="7.51933">
        <ele>2932.64</ele>
        <time>2010-04-16T06:57:45Z</time>
      </trkpt>
      <trkpt lat="45.96533" lon="7.51933">
        <ele>2933.6</ele>
        <time>2010-04-16T06:57:46Z</time>
      </trkpt>
      <trkpt lat="45.96535" lon="7.51935">
        <ele>2933.6</ele>
        <time>2010-04-16T06:58:51Z</time>
      </trkpt>
      <trkpt lat="45.96536" lon="7.51939">
        <ele>2932.16</ele>
        <time>2010-04-16T06:58:53Z</time>
      </trkpt>
      <trkpt lat="45.96534" lon="7.51947">
        <ele>2928.79</ele>
        <time>2010-04-16T06:58:56Z</time>
      </trkpt>
      <trkpt lat="45.96533" lon="7.5195">
        <ele>2928.79</ele>
        <time>2010-04-16T06:58:57Z</time>
      </trkpt>
      <trkpt lat="45.96531" lon="7.51957">
        <ele>2927.35</ele>
        <time>2010-04-16T06:58:59Z</time>
      </trkpt>
      <trkpt lat="45.96526" lon="7.51976">
        <ele>2924.47</ele>
        <time>2010-04-16T06:59:04Z</time>
      </trkpt>
      <trkpt lat="45.96523" lon="7.51992">
        <ele>2922.06</ele>
        <time>2010-04-16T06:59:07Z</time>
      </trkpt>
      <trkpt lat="45.96514" lon="7.52012">
        <ele>2918.7</ele>
        <time>2010-04-16T06:59:13Z</time>
      </trkpt>
      <trkpt lat="45.96512" lon="7.52018">
        <ele>2918.7</ele>
        <time>2010-04-16T06:59:14Z</time>
      </trkpt>
      <trkpt lat="45.96501" lon="7.52038">
        <ele>2917.26</ele>
        <time>2010-04-16T06:59:19Z</time>
      </trkpt>
      <trkpt lat="45.96492" lon="7.52048">
        <ele>2914.37</ele>
        <time>2010-04-16T06:59:22Z</time>
      </trkpt>
      <trkpt lat="45.9649" lon="7.52052">
        <ele>2911.97</ele>
        <time>2010-04-16T06:59:23Z</time>
      </trkpt>
      <trkpt lat="45.96489" lon="7.52055">
        <ele>2911.49</ele>
        <time>2010-04-16T06:59:24Z</time>
      </trkpt>
      <trkpt lat="45.96501" lon="7.52088">
        <ele>2908.13</ele>
        <time>2010-04-16T06:59:32Z</time>
      </trkpt>
      <trkpt lat="45.96505" lon="7.52091">
        <ele>2908.13</ele>
        <time>2010-04-16T06:59:33Z</time>
      </trkpt>
      <trkpt lat="45.96516" lon="7.52115">
        <ele>2904.76</ele>
        <time>2010-04-16T06:59:38Z</time>
      </trkpt>
      <trkpt lat="45.96517" lon="7.52122">
        <ele>2903.32</ele>
        <time>2010-04-16T06:59:39Z</time>
      </trkpt>
      <trkpt lat="45.96515" lon="7.52145">
        <ele>2899.47</ele>
        <time>2010-04-16T06:59:42Z</time>
      </trkpt>
      <trkpt lat="45.96515" lon="7.52145">
        <ele>2898.99</ele>
        <time>2010-04-16T06:59:43Z</time>
      </trkpt>
      <trkpt lat="45.96515" lon="7.52145">
        <ele>2894.67</ele>
        <time>2010-04-16T06:59:45Z</time>
      </trkpt>
      <trkpt lat="45.96515" lon="7.52145">
        <ele>2894.67</ele>
        <time>2010-04-16T06:59:46Z</time>
      </trkpt>
      <trkpt lat="45.965" lon="7.5239">
        <ele>2890.34</ele>
        <time>2010-04-16T06:59:52Z</time>
      </trkpt>
      <trkpt lat="45.96506" lon="7.52454">
        <ele>2888.42</ele>
        <time>2010-04-16T06:59:57Z</time>
      </trkpt>
      <trkpt lat="45.96516" lon="7.52488">
        <ele>2885.05</ele>
        <time>2010-04-16T07:00:03Z</time>
      </trkpt>
      <trkpt lat="45.96517" lon="7.52494">
        <ele>2885.05</ele>
        <time>2010-04-16T07:00:04Z</time>
      </trkpt>
      <trkpt lat="45.96519" lon="7.525">
        <ele>2884.09</ele>
        <time>2010-04-16T07:00:05Z</time>
      </trkpt>
      <trkpt lat="45.96524" lon="7.52529">
        <ele>2883.13</ele>
        <time>2010-04-16T07:00:10Z</time>
      </trkpt>
      <trkpt lat="45.96526" lon="7.52551">
        <ele>2884.57</ele>
        <time>2010-04-16T07:00:16Z</time>
      </trkpt>
      <trkpt lat="45.96529" lon="7.52537">
        <ele>2885.05</ele>
        <time>2010-04-16T07:00:32Z</time>
      </trkpt>
      <trkpt lat="45.96532" lon="7.5253">
        <ele>2886.02</ele>
        <time>2010-04-16T07:01:00Z</time>
      </trkpt>
      <trkpt lat="45.96532" lon="7.5253">
        <ele>2886.5</ele>
        <time>2010-04-16T07:01:12Z</time>
      </trkpt>
      <trkpt lat="45.96534" lon="7.52528">
        <ele>2882.17</ele>
        <time>2010-04-16T07:02:29Z</time>
      </trkpt>
      <trkpt lat="45.96534" lon="7.52528">
        <ele>2894.67</ele>
        <time>2010-04-16T07:02:30Z</time>
      </trkpt>
      <trkpt lat="45.96534" lon="7.52528">
        <ele>2888.9</ele>
        <time>2010-04-16T07:02:31Z</time>
      </trkpt>
      <trkpt lat="45.96534" lon="7.52528">
        <ele>2885.05</ele>
        <time>2010-04-16T07:02:33Z</time>
      </trkpt>
      <trkpt lat="45.96534" lon="7.52528">
        <ele>2886.02</ele>
        <time>2010-04-16T07:02:34Z</time>
      </trkpt>
      <trkpt lat="45.96534" lon="7.52528">
        <ele>2889.86</ele>
        <time>2010-04-16T07:02:35Z</time>
      </trkpt>
      <trkpt lat="45.96534" lon="7.52528">
        <ele>2885.05</ele>
        <time>2010-04-16T07:02:36Z</time>
      </trkpt>
      <trkpt lat="45.96534" lon="7.52528">
        <ele>2888.9</ele>
        <time>2010-04-16T07:02:39Z</time>
      </trkpt>
      <trkpt lat="45.96534" lon="7.52528">
        <ele>2882.65</ele>
        <time>2010-04-16T07:02:40Z</time>
      </trkpt>
      <trkpt lat="45.96534" lon="7.52528">
        <ele>2886.98</ele>
        <time>2010-04-16T07:02:41Z</time>
      </trkpt>
      <trkpt lat="45.96534" lon="7.52528">
        <ele>2883.61</ele>
        <time>2010-04-16T07:02:45Z</time>
      </trkpt>
      <trkpt lat="45.96534" lon="7.52528">
        <ele>2885.05</ele>
        <time>2010-04-16T07:02:46Z</time>
      </trkpt>
      <trkpt lat="45.96534" lon="7.52528">
        <ele>2897.55</ele>
        <time>2010-04-16T07:02:49Z</time>
      </trkpt>
      <trkpt lat="45.96534" lon="7.52528">
        <ele>2889.86</ele>
        <time>2010-04-16T07:02:50Z</time>
      </trkpt>
      <trkpt lat="45.96532" lon="7.52526">
        <ele>2886.98</ele>
        <time>2010-04-16T07:03:31Z</time>
      </trkpt>
      <trkpt lat="45.96532" lon="7.52526">
        <ele>2889.86</ele>
        <time>2010-04-16T07:03:32Z</time>
      </trkpt>
      <trkpt lat="45.96533" lon="7.52526">
        <ele>2888.42</ele>
        <time>2010-04-16T07:04:00Z</time>
      </trkpt>
      <trkpt lat="45.96534" lon="7.52526">
        <ele>2896.11</ele>
        <time>2010-04-16T07:05:41Z</time>
      </trkpt>
      <trkpt lat="45.96534" lon="7.52526">
        <ele>2889.38</ele>
        <time>2010-04-16T07:05:42Z</time>
      </trkpt>
      <trkpt lat="45.96534" lon="7.52526">
        <ele>2888.42</ele>
        <time>2010-04-16T07:05:44Z</time>
      </trkpt>
      <trkpt lat="45.96534" lon="7.52526">
        <ele>2890.34</ele>
        <time>2010-04-16T07:05:46Z</time>
      </trkpt>
      <trkpt lat="45.96534" lon="7.52525">
        <ele>2889.38</ele>
        <time>2010-04-16T07:05:48Z</time>
      </trkpt>
      <trkpt lat="45.96533" lon="7.52524">
        <ele>2890.34</ele>
        <time>2010-04-16T07:06:28Z</time>
      </trkpt>
      <trkpt lat="45.96531" lon="7.52523">
        <ele>2890.82</ele>
        <time>2010-04-16T07:08:24Z</time>
      </trkpt>
      <trkpt lat="45.96532" lon="7.52523">
        <ele>2878.81</ele>
        <time>2010-04-16T07:09:13Z</time>
      </trkpt>
      <trkpt lat="45.96532" lon="7.52523">
        <ele>2890.34</ele>
        <time>2010-04-16T07:09:14Z</time>
      </trkpt>
      <trkpt lat="45.96532" lon="7.52523">
        <ele>2886.02</ele>
        <time>2010-04-16T07:09:15Z</time>
      </trkpt>
      <trkpt lat="45.96532" lon="7.52523">
        <ele>2897.07</ele>
        <time>2010-04-16T07:09:16Z</time>
      </trkpt>
      <trkpt lat="45.96532" lon="7.52523">
        <ele>2891.78</ele>
        <time>2010-04-16T07:09:17Z</time>
      </trkpt>
      <trkpt lat="45.96532" lon="7.52523">
        <ele>2886.5</ele>
        <time>2010-04-16T07:09:30Z</time>
      </trkpt>
      <trkpt lat="45.96532" lon="7.52523">
        <ele>2891.3</ele>
        <time>2010-04-16T07:09:31Z</time>
      </trkpt>
      <trkpt lat="45.96532" lon="7.52524">
        <ele>2871.6</ele>
        <time>2010-04-16T07:09:57Z</time>
      </trkpt>
      <trkpt lat="45.96532" lon="7.52524">
        <ele>2915.34</ele>
        <time>2010-04-16T07:09:58Z</time>
      </trkpt>
      <trkpt lat="45.96532" lon="7.52524">
        <ele>2906.68</ele>
        <time>2010-04-16T07:09:59Z</time>
      </trkpt>
      <trkpt lat="45.96532" lon="7.52524">
        <ele>2892.74</ele>
        <time>2010-04-16T07:10:00Z</time>
      </trkpt>
      <trkpt lat="45.96532" lon="7.52524">
        <ele>2890.82</ele>
        <time>2010-04-16T07:10:02Z</time>
      </trkpt>
      <trkpt lat="45.96532" lon="7.52524">
        <ele>2886.98</ele>
        <time>2010-04-16T07:10:06Z</time>
      </trkpt>
      <trkpt lat="45.96532" lon="7.52524">
        <ele>2887.46</ele>
        <time>2010-04-16T07:10:07Z</time>
      </trkpt>
      <trkpt lat="45.96532" lon="7.52524">
        <ele>2891.3</ele>
        <time>2010-04-16T07:10:11Z</time>
      </trkpt>
      <trkpt lat="45.96532" lon="7.52524">
        <ele>2886.98</ele>
        <time>2010-04-16T07:10:13Z</time>
      </trkpt>
      <trkpt lat="45.96532" lon="7.52524">
        <ele>2902.36</ele>
        <time>2010-04-16T07:10:14Z</time>
      </trkpt>
      <trkpt lat="45.96532" lon="7.52525">
        <ele>2892.74</ele>
        <time>2010-04-16T07:10:15Z</time>
      </trkpt>
      <trkpt lat="45.96532" lon="7.52525">
        <ele>2890.82</ele>
        <time>2010-04-16T07:10:18Z</time>
      </trkpt>
      <trkpt lat="45.96534" lon="7.52523">
        <ele>2891.3</ele>
        <time>2010-04-16T07:12:54Z</time>
      </trkpt>
      <trkpt lat="45.96534" lon="7.52523">
        <ele>2900.44</ele>
        <time>2010-04-16T07:14:07Z</time>
      </trkpt>
      <trkpt lat="45.96534" lon="7.52523">
        <ele>2876.88</ele>
        <time>2010-04-16T07:14:08Z</time>
      </trkpt>
      <trkpt lat="45.96534" lon="7.52523">
        <ele>2876.4</ele>
        <time>2010-04-16T07:14:09Z</time>
      </trkpt>
      <trkpt lat="45.96534" lon="7.52523">
        <ele>2891.78</ele>
        <time>2010-04-16T07:14:10Z</time>
      </trkpt>
      <trkpt lat="45.96534" lon="7.52523">
        <ele>2891.78</ele>
        <time>2010-04-16T07:14:11Z</time>
      </trkpt>
      <trkpt lat="45.96533" lon="7.52524">
        <ele>2887.46</ele>
        <time>2010-04-16T07:14:22Z</time>
      </trkpt>
      <trkpt lat="45.96533" lon="7.52525">
        <ele>2891.78</ele>
        <time>2010-04-16T07:14:23Z</time>
      </trkpt>
      <trkpt lat="45.96533" lon="7.52526">
        <ele>2891.3</ele>
        <time>2010-04-16T07:14:26Z</time>
      </trkpt>
      <trkpt lat="45.96533" lon="7.52526">
        <ele>2893.71</ele>
        <time>2010-04-16T07:14:28Z</time>
      </trkpt>
      <trkpt lat="45.96533" lon="7.52526">
        <ele>2891.78</ele>
        <time>2010-04-16T07:14:38Z</time>
      </trkpt>
      <trkpt lat="45.96531" lon="7.52554">
        <ele>2893.23</ele>
        <time>2010-04-16T07:15:05Z</time>
      </trkpt>
      <trkpt lat="45.96524" lon="7.52583">
        <ele>2894.67</ele>
        <time>2010-04-16T07:15:25Z</time>
      </trkpt>
      <trkpt lat="45.96515" lon="7.52602">
        <ele>2893.71</ele>
        <time>2010-04-16T07:15:37Z</time>
      </trkpt>
      <trkpt lat="45.96509" lon="7.52636">
        <ele>2895.15</ele>
        <time>2010-04-16T07:15:51Z</time>
      </trkpt>
      <trkpt lat="45.96504" lon="7.52698">
        <ele>2896.11</ele>
        <time>2010-04-16T07:16:18Z</time>
      </trkpt>
      <trkpt lat="45.96504" lon="7.52698">
        <ele>2896.59</ele>
        <time>2010-04-16T07:16:26Z</time>
      </trkpt>
      <trkpt lat="45.96504" lon="7.52698">
        <ele>2899.95</ele>
        <time>2010-04-16T07:16:37Z</time>
      </trkpt>
      <trkpt lat="45.96504" lon="7.52698">
        <ele>2900.92</ele>
        <time>2010-04-16T07:16:48Z</time>
      </trkpt>
      <trkpt lat="45.96504" lon="7.52698">
        <ele>2899.95</ele>
        <time>2010-04-16T07:16:51Z</time>
      </trkpt>
      <trkpt lat="45.96504" lon="7.52698">
        <ele>2902.36</ele>
        <time>2010-04-16T07:16:55Z</time>
      </trkpt>
      <trkpt lat="45.96504" lon="7.52698">
        <ele>2902.36</ele>
        <time>2010-04-16T07:16:59Z</time>
      </trkpt>
      <trkpt lat="45.96504" lon="7.52698">
        <ele>2904.28</ele>
        <time>2010-04-16T07:17:30Z</time>
      </trkpt>
      <trkpt lat="45.96504" lon="7.52698">
        <ele>2904.76</ele>
        <time>2010-04-16T07:17:37Z</time>
      </trkpt>
      <trkpt lat="45.96504" lon="7.52698">
        <ele>2903.32</ele>
        <time>2010-04-16T07:17:43Z</time>
      </trkpt>
      <trkpt lat="45.96504" lon="7.52698">
        <ele>2907.16</ele>
        <time>2010-04-16T07:18:03Z</time>
      </trkpt>
      <trkpt lat="45.96504" lon="7.52698">
        <ele>2909.09</ele>
        <time>2010-04-16T07:18:28Z</time>
      </trkpt>
      <trkpt lat="45.96504" lon="7.52698">
        <ele>2907.65</ele>
        <time>2010-04-16T07:18:29Z</time>
      </trkpt>
      <trkpt lat="45.96504" lon="7.52698">
        <ele>2910.05</ele>
        <time>2010-04-16T07:18:36Z</time>
      </trkpt>
      <trkpt lat="45.96504" lon="7.52698">
        <ele>2912.93</ele>
        <time>2010-04-16T07:19:13Z</time>
      </trkpt>
      <trkpt lat="45.96504" lon="7.52698">
        <ele>2911.49</ele>
        <time>2010-04-16T07:19:16Z</time>
      </trkpt>
      <trkpt lat="45.96504" lon="7.52698">
        <ele>2912.45</ele>
        <time>2010-04-16T07:19:17Z</time>
      </trkpt>
      <trkpt lat="45.96504" lon="7.52698">
        <ele>2912.93</ele>
        <time>2010-04-16T07:19:33Z</time>
      </trkpt>
      <trkpt lat="45.96504" lon="7.52698">
        <ele>2914.85</ele>
        <time>2010-04-16T07:19:35Z</time>
      </trkpt>
      <trkpt lat="45.96504" lon="7.52698">
        <ele>2913.89</ele>
        <time>2010-04-16T07:19:38Z</time>
      </trkpt>
      <trkpt lat="45.96504" lon="7.52698">
        <ele>2913.41</ele>
        <time>2010-04-16T07:19:43Z</time>
      </trkpt>
      <trkpt lat="45.96504" lon="7.52698">
        <ele>2915.82</ele>
        <time>2010-04-16T07:19:44Z</time>
      </trkpt>
      <trkpt lat="45.96504" lon="7.52698">
        <ele>2915.34</ele>
        <time>2010-04-16T07:19:54Z</time>
      </trkpt>
      <trkpt lat="45.96504" lon="7.52698">
        <ele>2916.78</ele>
        <time>2010-04-16T07:19:55Z</time>
      </trkpt>
      <trkpt lat="45.96504" lon="7.52698">
        <ele>2917.74</ele>
        <time>2010-04-16T07:20:02Z</time>
      </trkpt>
      <trkpt lat="45.96504" lon="7.52698">
        <ele>2915.82</ele>
        <time>2010-04-16T07:20:04Z</time>
      </trkpt>
      <trkpt lat="45.96504" lon="7.52698">
        <ele>2917.74</ele>
        <time>2010-04-16T07:20:05Z</time>
      </trkpt>
      <trkpt lat="45.96504" lon="7.52698">
        <ele>2918.7</ele>
        <time>2010-04-16T07:20:12Z</time>
      </trkpt>
      <trkpt lat="45.96504" lon="7.52698">
        <ele>2919.66</ele>
        <time>2010-04-16T07:20:29Z</time>
      </trkpt>
      <trkpt lat="45.96504" lon="7.52698">
        <ele>2921.1</ele>
        <time>2010-04-16T07:20:40Z</time>
      </trkpt>
      <trkpt lat="45.96504" lon="7.52698">
        <ele>2924.47</ele>
        <time>2010-04-16T07:21:11Z</time>
      </trkpt>
      <trkpt lat="45.96504" lon="7.52698">
        <ele>2927.35</ele>
        <time>2010-04-16T07:21:41Z</time>
      </trkpt>
      <trkpt lat="45.96504" lon="7.52698">
        <ele>2927.35</ele>
        <time>2010-04-16T07:21:43Z</time>
      </trkpt>
      <trkpt lat="45.96504" lon="7.52698">
        <ele>2930.72</ele>
        <time>2010-04-16T07:22:07Z</time>
      </trkpt>
      <trkpt lat="45.96504" lon="7.52698">
        <ele>2931.68</ele>
        <time>2010-04-16T07:22:18Z</time>
      </trkpt>
      <trkpt lat="45.96504" lon="7.52698">
        <ele>2933.6</ele>
        <time>2010-04-16T07:22:33Z</time>
      </trkpt>
      <trkpt lat="45.96504" lon="7.52698">
        <ele>2936.48</ele>
        <time>2010-04-16T07:23:05Z</time>
      </trkpt>
      <trkpt lat="45.96504" lon="7.52698">
        <ele>2937.45</ele>
        <time>2010-04-16T07:23:07Z</time>
      </trkpt>
      <trkpt lat="45.96504" lon="7.52698">
        <ele>2940.81</ele>
        <time>2010-04-16T07:23:36Z</time>
      </trkpt>
      <trkpt lat="45.96504" lon="7.52698">
        <ele>2938.89</ele>
        <time>2010-04-16T07:23:38Z</time>
      </trkpt>
      <trkpt lat="45.96504" lon="7.52698">
        <ele>2941.29</ele>
        <time>2010-04-16T07:23:39Z</time>
      </trkpt>
      <trkpt lat="45.96504" lon="7.52698">
        <ele>2939.85</ele>
        <time>2010-04-16T07:23:40Z</time>
      </trkpt>
      <trkpt lat="45.96504" lon="7.52698">
        <ele>2943.21</ele>
        <time>2010-04-16T07:24:02Z</time>
      </trkpt>
      <trkpt lat="45.96504" lon="7.52698">
        <ele>2944.66</ele>
        <time>2010-04-16T07:24:21Z</time>
      </trkpt>
      <trkpt lat="45.96504" lon="7.52698">
        <ele>2948.02</ele>
        <time>2010-04-16T07:27:11Z</time>
      </trkpt>
      <trkpt lat="45.96504" lon="7.52698">
        <ele>2950.9</ele>
        <time>2010-04-16T07:27:32Z</time>
      </trkpt>
      <trkpt lat="45.96504" lon="7.52698">
        <ele>2954.27</ele>
        <time>2010-04-16T07:28:02Z</time>
      </trkpt>
      <trkpt lat="45.96504" lon="7.52698">
        <ele>2956.67</ele>
        <time>2010-04-16T07:28:30Z</time>
      </trkpt>
      <trkpt lat="45.96504" lon="7.52698">
        <ele>2957.15</ele>
        <time>2010-04-16T07:28:51Z</time>
      </trkpt>
      <trkpt lat="45.96504" lon="7.52698">
        <ele>2960.04</ele>
        <time>2010-04-16T07:29:09Z</time>
      </trkpt>
      <trkpt lat="45.96504" lon="7.52698">
        <ele>2963.4</ele>
        <time>2010-04-16T07:29:34Z</time>
      </trkpt>
      <trkpt lat="45.96504" lon="7.52698">
        <ele>2966.29</ele>
        <time>2010-04-16T07:30:12Z</time>
      </trkpt>
      <trkpt lat="45.96504" lon="7.52698">
        <ele>2965.8</ele>
        <time>2010-04-16T07:30:14Z</time>
      </trkpt>
      <trkpt lat="45.96504" lon="7.52698">
        <ele>2969.17</ele>
        <time>2010-04-16T07:30:35Z</time>
      </trkpt>
      <trkpt lat="45.96504" lon="7.52698">
        <ele>2972.05</ele>
        <time>2010-04-16T07:31:03Z</time>
      </trkpt>
      <trkpt lat="45.96504" lon="7.52698">
        <ele>2973.5</ele>
        <time>2010-04-16T07:31:05Z</time>
      </trkpt>
      <trkpt lat="45.96504" lon="7.52698">
        <ele>2976.86</ele>
        <time>2010-04-16T07:31:41Z</time>
      </trkpt>
      <trkpt lat="45.96504" lon="7.52698">
        <ele>2976.86</ele>
        <time>2010-04-16T07:31:42Z</time>
      </trkpt>
      <trkpt lat="45.96504" lon="7.52698">
        <ele>2979.26</ele>
        <time>2010-04-16T07:32:09Z</time>
      </trkpt>
      <trkpt lat="45.96504" lon="7.52698">
        <ele>2982.63</ele>
        <time>2010-04-16T07:32:45Z</time>
      </trkpt>
      <trkpt lat="45.96504" lon="7.52698">
        <ele>2985.99</ele>
        <time>2010-04-16T07:33:19Z</time>
      </trkpt>
      <trkpt lat="45.96504" lon="7.52698">
        <ele>2984.55</ele>
        <time>2010-04-16T07:33:21Z</time>
      </trkpt>
      <trkpt lat="45.96504" lon="7.52698">
        <ele>2984.07</ele>
        <time>2010-04-16T07:33:24Z</time>
      </trkpt>
      <trkpt lat="45.96504" lon="7.52698">
        <ele>2987.43</ele>
        <time>2010-04-16T07:33:45Z</time>
      </trkpt>
      <trkpt lat="45.96504" lon="7.52698">
        <ele>2990.8</ele>
        <time>2010-04-16T07:34:09Z</time>
      </trkpt>
      <trkpt lat="45.96504" lon="7.52698">
        <ele>2993.68</ele>
        <time>2010-04-16T07:34:38Z</time>
      </trkpt>
      <trkpt lat="45.96504" lon="7.52698">
        <ele>2996.57</ele>
        <time>2010-04-16T07:35:04Z</time>
      </trkpt>
      <trkpt lat="45.96504" lon="7.52698">
        <ele>2996.57</ele>
        <time>2010-04-16T07:35:05Z</time>
      </trkpt>
      <trkpt lat="45.96504" lon="7.52698">
        <ele>2999.93</ele>
        <time>2010-04-16T07:35:33Z</time>
      </trkpt>
      <trkpt lat="45.96504" lon="7.52698">
        <ele>3002.82</ele>
        <time>2010-04-16T07:36:15Z</time>
      </trkpt>
      <trkpt lat="45.96504" lon="7.52698">
        <ele>3000.41</ele>
        <time>2010-04-16T07:36:32Z</time>
      </trkpt>
      <trkpt lat="45.96504" lon="7.52698">
        <ele>3003.3</ele>
        <time>2010-04-16T07:37:01Z</time>
      </trkpt>
      <trkpt lat="45.96504" lon="7.52698">
        <ele>3002.82</ele>
        <time>2010-04-16T07:37:14Z</time>
      </trkpt>
      <trkpt lat="45.96504" lon="7.52698">
        <ele>3003.3</ele>
        <time>2010-04-16T07:37:25Z</time>
      </trkpt>
      <trkpt lat="45.96504" lon="7.52698">
        <ele>3006.66</ele>
        <time>2010-04-16T07:37:38Z</time>
      </trkpt>
      <trkpt lat="45.96504" lon="7.52698">
        <ele>3010.03</ele>
        <time>2010-04-16T07:38:12Z</time>
      </trkpt>
      <trkpt lat="45.96504" lon="7.52698">
        <ele>3011.95</ele>
        <time>2010-04-16T07:38:26Z</time>
      </trkpt>
      <trkpt lat="45.96504" lon="7.52698">
        <ele>3013.39</ele>
        <time>2010-04-16T07:38:39Z</time>
      </trkpt>
      <trkpt lat="45.96504" lon="7.52698">
        <ele>3013.87</ele>
        <time>2010-04-16T07:38:41Z</time>
      </trkpt>
      <trkpt lat="45.96504" lon="7.52698">
        <ele>3012.43</ele>
        <time>2010-04-16T07:38:43Z</time>
      </trkpt>
      <trkpt lat="45.96504" lon="7.52698">
        <ele>3012.91</ele>
        <time>2010-04-16T07:38:45Z</time>
      </trkpt>
      <trkpt lat="45.96504" lon="7.52698">
        <ele>3014.35</ele>
        <time>2010-04-16T07:38:48Z</time>
      </trkpt>
      <trkpt lat="45.96504" lon="7.52698">
        <ele>3014.83</ele>
        <time>2010-04-16T07:38:52Z</time>
      </trkpt>
      <trkpt lat="45.96504" lon="7.52698">
        <ele>3012.91</ele>
        <time>2010-04-16T07:38:59Z</time>
      </trkpt>
      <trkpt lat="45.96504" lon="7.52698">
        <ele>3016.75</ele>
        <time>2010-04-16T07:39:00Z</time>
      </trkpt>
      <trkpt lat="45.96504" lon="7.52698">
        <ele>3017.23</ele>
        <time>2010-04-16T07:39:07Z</time>
      </trkpt>
      <trkpt lat="45.96504" lon="7.52698">
        <ele>3021.08</ele>
        <time>2010-04-16T07:39:33Z</time>
      </trkpt>
      <trkpt lat="45.96504" lon="7.52698">
        <ele>3020.6</ele>
        <time>2010-04-16T07:39:42Z</time>
      </trkpt>
      <trkpt lat="45.96504" lon="7.52698">
        <ele>3019.64</ele>
        <time>2010-04-16T07:39:45Z</time>
      </trkpt>
      <trkpt lat="45.96504" lon="7.52698">
        <ele>3022.52</ele>
        <time>2010-04-16T07:39:56Z</time>
      </trkpt>
      <trkpt lat="45.96504" lon="7.52698">
        <ele>3025.89</ele>
        <time>2010-04-16T07:40:26Z</time>
      </trkpt>
      <trkpt lat="45.96504" lon="7.52698">
        <ele>3027.33</ele>
        <time>2010-04-16T07:40:36Z</time>
      </trkpt>
      <trkpt lat="45.96504" lon="7.52698">
        <ele>3026.37</ele>
        <time>2010-04-16T07:40:46Z</time>
      </trkpt>
      <trkpt lat="45.96504" lon="7.52698">
        <ele>3028.29</ele>
        <time>2010-04-16T07:40:49Z</time>
      </trkpt>
      <trkpt lat="45.96504" lon="7.52698">
        <ele>3026.85</ele>
        <time>2010-04-16T07:40:50Z</time>
      </trkpt>
      <trkpt lat="45.96504" lon="7.52698">
        <ele>3029.73</ele>
        <time>2010-04-16T07:41:01Z</time>
      </trkpt>
      <trkpt lat="45.96504" lon="7.52698">
        <ele>3029.25</ele>
        <time>2010-04-16T07:41:12Z</time>
      </trkpt>
      <trkpt lat="45.96504" lon="7.52698">
        <ele>3032.62</ele>
        <time>2010-04-16T07:41:24Z</time>
      </trkpt>
      <trkpt lat="45.96504" lon="7.52698">
        <ele>3035.98</ele>
        <time>2010-04-16T07:41:54Z</time>
      </trkpt>
      <trkpt lat="45.96504" lon="7.52698">
        <ele>3039.35</ele>
        <time>2010-04-16T07:42:22Z</time>
      </trkpt>
      <trkpt lat="45.96504" lon="7.52698">
        <ele>3038.38</ele>
        <time>2010-04-16T07:42:30Z</time>
      </trkpt>
      <trkpt lat="45.96504" lon="7.52698">
        <ele>3041.75</ele>
        <time>2010-04-16T07:42:45Z</time>
      </trkpt>
      <trkpt lat="45.96504" lon="7.52698">
        <ele>3045.11</ele>
        <time>2010-04-16T07:43:13Z</time>
      </trkpt>
      <trkpt lat="45.96504" lon="7.52698">
        <ele>3046.56</ele>
        <time>2010-04-16T07:43:24Z</time>
      </trkpt>
      <trkpt lat="45.96504" lon="7.52698">
        <ele>3044.63</ele>
        <time>2010-04-16T07:43:25Z</time>
      </trkpt>
      <trkpt lat="45.96504" lon="7.52698">
        <ele>3047.52</ele>
        <time>2010-04-16T07:43:43Z</time>
      </trkpt>
      <trkpt lat="45.96504" lon="7.52698">
        <ele>3048.96</ele>
        <time>2010-04-16T07:43:52Z</time>
      </trkpt>
      <trkpt lat="45.96504" lon="7.52698">
        <ele>3052.32</ele>
        <time>2010-04-16T07:44:37Z</time>
      </trkpt>
      <trkpt lat="45.96504" lon="7.52698">
        <ele>3052.32</ele>
        <time>2010-04-16T07:44:38Z</time>
      </trkpt>
      <trkpt lat="45.96504" lon="7.52698">
        <ele>3051.84</ele>
        <time>2010-04-16T07:44:50Z</time>
      </trkpt>
      <trkpt lat="45.96504" lon="7.52698">
        <ele>3054.73</ele>
        <time>2010-04-16T07:45:09Z</time>
      </trkpt>
      <trkpt lat="45.96504" lon="7.52698">
        <ele>3054.73</ele>
        <time>2010-04-16T07:45:16Z</time>
      </trkpt>
      <trkpt lat="45.96504" lon="7.52698">
        <ele>3056.17</ele>
        <time>2010-04-16T07:45:19Z</time>
      </trkpt>
      <trkpt lat="45.95863" lon="7.54217">
        <ele>3056.17</ele>
        <time>2010-04-16T07:45:26Z</time>
      </trkpt>
      <trkpt lat="45.96023" lon="7.54107">
        <ele>3058.57</ele>
        <time>2010-04-16T07:45:50Z</time>
      </trkpt>
      <trkpt lat="45.96155" lon="7.54033">
        <ele>3060.98</ele>
        <time>2010-04-16T07:46:24Z</time>
      </trkpt>
      <trkpt lat="45.96158" lon="7.54031">
        <ele>3060.98</ele>
        <time>2010-04-16T07:46:25Z</time>
      </trkpt>
      <trkpt lat="45.96176" lon="7.5403">
        <ele>3061.94</ele>
        <time>2010-04-16T07:46:37Z</time>
      </trkpt>
      <trkpt lat="45.96176" lon="7.5405">
        <ele>3063.86</ele>
        <time>2010-04-16T07:47:05Z</time>
      </trkpt>
      <trkpt lat="45.96181" lon="7.54053">
        <ele>3064.34</ele>
        <time>2010-04-16T07:47:13Z</time>
      </trkpt>
      <trkpt lat="45.96195" lon="7.54067">
        <ele>3067.7</ele>
        <time>2010-04-16T07:47:40Z</time>
      </trkpt>
      <trkpt lat="45.96196" lon="7.54086">
        <ele>3071.07</ele>
        <time>2010-04-16T07:48:03Z</time>
      </trkpt>
      <trkpt lat="45.96196" lon="7.54087">
        <ele>3071.07</ele>
        <time>2010-04-16T07:48:04Z</time>
      </trkpt>
      <trkpt lat="45.96196" lon="7.54096">
        <ele>3072.03</ele>
        <time>2010-04-16T07:48:15Z</time>
      </trkpt>
      <trkpt lat="45.96196" lon="7.54139">
        <ele>3075.4</ele>
        <time>2010-04-16T07:49:10Z</time>
      </trkpt>
      <trkpt lat="45.96194" lon="7.54158">
        <ele>3078.76</ele>
        <time>2010-04-16T07:49:41Z</time>
      </trkpt>
      <trkpt lat="45.96184" lon="7.54208">
        <ele>3082.12</ele>
        <time>2010-04-16T07:50:29Z</time>
      </trkpt>
      <trkpt lat="45.96202" lon="7.54214">
        <ele>3082.6</ele>
        <time>2010-04-16T07:50:43Z</time>
      </trkpt>
      <trkpt lat="45.96205" lon="7.54233">
        <ele>3084.53</ele>
        <time>2010-04-16T07:51:04Z</time>
      </trkpt>
      <trkpt lat="45.96205" lon="7.54239">
        <ele>3085.97</ele>
        <time>2010-04-16T07:51:13Z</time>
      </trkpt>
      <trkpt lat="45.96205" lon="7.54249">
        <ele>3086.45</ele>
        <time>2010-04-16T07:51:25Z</time>
      </trkpt>
      <trkpt lat="45.96233" lon="7.54251">
        <ele>3086.93</ele>
        <time>2010-04-16T07:51:37Z</time>
      </trkpt>
      <trkpt lat="45.96259" lon="7.54261">
        <ele>3088.85</ele>
        <time>2010-04-16T07:51:53Z</time>
      </trkpt>
      <trkpt lat="45.96261" lon="7.54262">
        <ele>3090.29</ele>
        <time>2010-04-16T07:51:54Z</time>
      </trkpt>
      <trkpt lat="45.96293" lon="7.54291">
        <ele>3090.78</ele>
        <time>2010-04-16T07:52:10Z</time>
      </trkpt>
      <trkpt lat="45.96297" lon="7.54295">
        <ele>3089.33</ele>
        <time>2010-04-16T07:52:12Z</time>
      </trkpt>
      <trkpt lat="45.96299" lon="7.54297">
        <ele>3091.26</ele>
        <time>2010-04-16T07:52:13Z</time>
      </trkpt>
      <trkpt lat="45.96324" lon="7.54351">
        <ele>3092.22</ele>
        <time>2010-04-16T07:52:33Z</time>
      </trkpt>
      <trkpt lat="45.96275" lon="7.54368">
        <ele>3088.37</ele>
        <time>2010-04-16T07:52:38Z</time>
      </trkpt>
      <trkpt lat="45.96273" lon="7.54372">
        <ele>3093.66</ele>
        <time>2010-04-16T07:52:39Z</time>
      </trkpt>
      <trkpt lat="45.96261" lon="7.54402">
        <ele>3093.18</ele>
        <time>2010-04-16T07:52:45Z</time>
      </trkpt>
      <trkpt lat="45.9626" lon="7.54414">
        <ele>3092.7</ele>
        <time>2010-04-16T07:52:47Z</time>
      </trkpt>
      <trkpt lat="45.96181" lon="7.54407">
        <ele>3093.66</ele>
        <time>2010-04-16T07:52:59Z</time>
      </trkpt>
      <trkpt lat="45.96178" lon="7.54399">
        <ele>3095.58</ele>
        <time>2010-04-16T07:53:06Z</time>
      </trkpt>
      <trkpt lat="45.96188" lon="7.54382">
        <ele>3097.02</ele>
        <time>2010-04-16T07:53:18Z</time>
      </trkpt>
      <trkpt lat="45.962" lon="7.54384">
        <ele>3098.95</ele>
        <time>2010-04-16T07:53:41Z</time>
      </trkpt>
      <trkpt lat="45.96202" lon="7.54389">
        <ele>3101.35</ele>
        <time>2010-04-16T07:53:54Z</time>
      </trkpt>
      <trkpt lat="45.96207" lon="7.54404">
        <ele>3103.27</ele>
        <time>2010-04-16T07:54:21Z</time>
      </trkpt>
      <trkpt lat="45.96212" lon="7.54415">
        <ele>3106.16</ele>
        <time>2010-04-16T07:54:42Z</time>
      </trkpt>
      <trkpt lat="45.9618" lon="7.54462">
        <ele>3107.12</ele>
        <time>2010-04-16T07:54:55Z</time>
      </trkpt>
      <trkpt lat="45.96171" lon="7.545">
        <ele>3108.56</ele>
        <time>2010-04-16T07:55:05Z</time>
      </trkpt>
      <trkpt lat="45.96192" lon="7.54473">
        <ele>3111.92</ele>
        <time>2010-04-16T07:55:27Z</time>
      </trkpt>
      <trkpt lat="45.96225" lon="7.5448">
        <ele>3114.33</ele>
        <time>2010-04-16T07:55:55Z</time>
      </trkpt>
      <trkpt lat="45.96235" lon="7.54482">
        <ele>3116.73</ele>
        <time>2010-04-16T07:56:07Z</time>
      </trkpt>
      <trkpt lat="45.9624" lon="7.54494">
        <ele>3117.69</ele>
        <time>2010-04-16T07:56:22Z</time>
      </trkpt>
      <trkpt lat="45.96242" lon="7.54492">
        <ele>3118.17</ele>
        <time>2010-04-16T07:56:35Z</time>
      </trkpt>
      <trkpt lat="45.96244" lon="7.54495">
        <ele>3119.62</ele>
        <time>2010-04-16T07:56:40Z</time>
      </trkpt>
      <trkpt lat="45.96248" lon="7.54501">
        <ele>3119.62</ele>
        <time>2010-04-16T07:56:43Z</time>
      </trkpt>
      <trkpt lat="45.96249" lon="7.54504">
        <ele>3119.13</ele>
        <time>2010-04-16T07:56:44Z</time>
      </trkpt>
      <trkpt lat="45.96251" lon="7.54506">
        <ele>3120.1</ele>
        <time>2010-04-16T07:56:46Z</time>
      </trkpt>
      <trkpt lat="45.96252" lon="7.54505">
        <ele>3119.13</ele>
        <time>2010-04-16T07:57:02Z</time>
      </trkpt>
      <trkpt lat="45.96252" lon="7.54505">
        <ele>3119.13</ele>
        <time>2010-04-16T07:57:04Z</time>
      </trkpt>
      <trkpt lat="45.96252" lon="7.54505">
        <ele>3115.77</ele>
        <time>2010-04-16T07:57:05Z</time>
      </trkpt>
      <trkpt lat="45.96253" lon="7.54504">
        <ele>3115.77</ele>
        <time>2010-04-16T07:57:06Z</time>
      </trkpt>
      <trkpt lat="45.96254" lon="7.54502">
        <ele>3120.1</ele>
        <time>2010-04-16T07:57:07Z</time>
      </trkpt>
      <trkpt lat="45.96255" lon="7.54501">
        <ele>3120.1</ele>
        <time>2010-04-16T07:57:08Z</time>
      </trkpt>
      <trkpt lat="45.96256" lon="7.54499">
        <ele>3119.62</ele>
        <time>2010-04-16T07:57:11Z</time>
      </trkpt>
      <trkpt lat="45.96255" lon="7.54494">
        <ele>3119.13</ele>
        <time>2010-04-16T07:57:35Z</time>
      </trkpt>
      <trkpt lat="45.96255" lon="7.54493">
        <ele>3116.73</ele>
        <time>2010-04-16T07:58:17Z</time>
      </trkpt>
      <trkpt lat="45.96255" lon="7.54491">
        <ele>3113.37</ele>
        <time>2010-04-16T07:59:10Z</time>
      </trkpt>
      <trkpt lat="45.96255" lon="7.54491">
        <ele>3119.62</ele>
        <time>2010-04-16T07:59:11Z</time>
      </trkpt>
      <trkpt lat="45.96255" lon="7.54491">
        <ele>3118.17</ele>
        <time>2010-04-16T07:59:12Z</time>
      </trkpt>
      <trkpt lat="45.96255" lon="7.54491">
        <ele>3117.21</ele>
        <time>2010-04-16T07:59:13Z</time>
      </trkpt>
      <trkpt lat="45.96255" lon="7.5449">
        <ele>3112.89</ele>
        <time>2010-04-16T08:00:08Z</time>
      </trkpt>
      <trkpt lat="45.96255" lon="7.5449">
        <ele>3112.89</ele>
        <time>2010-04-16T08:00:09Z</time>
      </trkpt>
      <trkpt lat="45.96255" lon="7.5449">
        <ele>3118.17</ele>
        <time>2010-04-16T08:00:10Z</time>
      </trkpt>
      <trkpt lat="45.96255" lon="7.5449">
        <ele>3116.73</ele>
        <time>2010-04-16T08:00:11Z</time>
      </trkpt>
      <trkpt lat="45.96251" lon="7.54483">
        <ele>3115.77</ele>
        <time>2010-04-16T08:01:14Z</time>
      </trkpt>
      <trkpt lat="45.96252" lon="7.54483">
        <ele>3115.29</ele>
        <time>2010-04-16T08:01:16Z</time>
      </trkpt>
      <trkpt lat="45.96259" lon="7.54488">
        <ele>3114.33</ele>
        <time>2010-04-16T08:01:25Z</time>
      </trkpt>
      <trkpt lat="45.96259" lon="7.54488">
        <ele>3116.25</ele>
        <time>2010-04-16T08:01:32Z</time>
      </trkpt>
      <trkpt lat="45.96255" lon="7.54481">
        <ele>3119.13</ele>
        <time>2010-04-16T08:01:39Z</time>
      </trkpt>
      <trkpt lat="45.96255" lon="7.54481">
        <ele>3107.6</ele>
        <time>2010-04-16T08:01:40Z</time>
      </trkpt>
      <trkpt lat="45.96255" lon="7.54481">
        <ele>3109.04</ele>
        <time>2010-04-16T08:01:41Z</time>
      </trkpt>
      <trkpt lat="45.96255" lon="7.54481">
        <ele>3113.37</ele>
        <time>2010-04-16T08:01:42Z</time>
      </trkpt>
      <trkpt lat="45.96255" lon="7.54481">
        <ele>3111.44</ele>
        <time>2010-04-16T08:01:43Z</time>
      </trkpt>
      <trkpt lat="45.96255" lon="7.54481">
        <ele>3116.73</ele>
        <time>2010-04-16T08:01:44Z</time>
      </trkpt>
      <trkpt lat="45.96254" lon="7.54481">
        <ele>3129.23</ele>
        <time>2010-04-16T08:01:47Z</time>
      </trkpt>
      <trkpt lat="45.96254" lon="7.54481">
        <ele>3111.92</ele>
        <time>2010-04-16T08:01:48Z</time>
      </trkpt>
      <trkpt lat="45.96254" lon="7.54481">
        <ele>3121.54</ele>
        <time>2010-04-16T08:01:49Z</time>
      </trkpt>
      <trkpt lat="45.96254" lon="7.54481">
        <ele>3118.17</ele>
        <time>2010-04-16T08:01:50Z</time>
      </trkpt>
      <trkpt lat="45.96254" lon="7.54481">
        <ele>3115.29</ele>
        <time>2010-04-16T08:01:52Z</time>
      </trkpt>
      <trkpt lat="45.96254" lon="7.54481">
        <ele>3121.06</ele>
        <time>2010-04-16T08:01:58Z</time>
      </trkpt>
      <trkpt lat="45.96254" lon="7.54481">
        <ele>3118.17</ele>
        <time>2010-04-16T08:01:59Z</time>
      </trkpt>
      <trkpt lat="45.96253" lon="7.54478">
        <ele>3115.29</ele>
        <time>2010-04-16T08:02:01Z</time>
      </trkpt>
      <trkpt lat="45.9625" lon="7.54473">
        <ele>3114.33</ele>
        <time>2010-04-16T08:02:12Z</time>
      </trkpt>
      <trkpt lat="45.96248" lon="7.54454">
        <ele>3114.81</ele>
        <time>2010-04-16T08:02:18Z</time>
      </trkpt>
      <trkpt lat="45.96246" lon="7.54446">
        <ele>3114.33</ele>
        <time>2010-04-16T08:02:27Z</time>
      </trkpt>
      <trkpt lat="45.96239" lon="7.54453">
        <ele>3113.85</ele>
        <time>2010-04-16T08:03:25Z</time>
      </trkpt>
      <trkpt lat="45.96241" lon="7.54457">
        <ele>3113.85</ele>
        <time>2010-04-16T08:04:43Z</time>
      </trkpt>
      <trkpt lat="45.96245" lon="7.54463">
        <ele>3117.21</ele>
        <time>2010-04-16T08:05:12Z</time>
      </trkpt>
      <trkpt lat="45.96251" lon="7.54476">
        <ele>3120.1</ele>
        <time>2010-04-16T08:05:50Z</time>
      </trkpt>
      <trkpt lat="45.96257" lon="7.54476">
        <ele>3122.02</ele>
        <time>2010-04-16T08:06:08Z</time>
      </trkpt>
      <trkpt lat="45.96264" lon="7.54476">
        <ele>3124.9</ele>
        <time>2010-04-16T08:06:39Z</time>
      </trkpt>
      <trkpt lat="45.96272" lon="7.54479">
        <ele>3127.79</ele>
        <time>2010-04-16T08:07:53Z</time>
      </trkpt>
      <trkpt lat="45.96277" lon="7.54486">
        <ele>3131.15</ele>
        <time>2010-04-16T08:10:08Z</time>
      </trkpt>
      <trkpt lat="45.96278" lon="7.54486">
        <ele>3131.15</ele>
        <time>2010-04-16T08:10:09Z</time>
      </trkpt>
      <trkpt lat="45.96274" lon="7.54497">
        <ele>3135</ele>
        <time>2010-04-16T08:10:33Z</time>
      </trkpt>
      <trkpt lat="45.96273" lon="7.54501">
        <ele>3136.92</ele>
        <time>2010-04-16T08:10:48Z</time>
      </trkpt>
      <trkpt lat="45.96273" lon="7.54501">
        <ele>3135.48</ele>
        <time>2010-04-16T08:10:50Z</time>
      </trkpt>
      <trkpt lat="45.96269" lon="7.54506">
        <ele>3138.36</ele>
        <time>2010-04-16T08:11:14Z</time>
      </trkpt>
      <trkpt lat="45.96267" lon="7.54512">
        <ele>3140.28</ele>
        <time>2010-04-16T08:15:27Z</time>
      </trkpt>
      <trkpt lat="45.96271" lon="7.54514">
        <ele>3143.17</ele>
        <time>2010-04-16T08:15:43Z</time>
      </trkpt>
      <trkpt lat="45.96277" lon="7.54514">
        <ele>3146.53</ele>
        <time>2010-04-16T08:16:24Z</time>
      </trkpt>
      <trkpt lat="45.96282" lon="7.54516">
        <ele>3149.42</ele>
        <time>2010-04-16T08:16:53Z</time>
      </trkpt>
      <trkpt lat="45.96301" lon="7.54515">
        <ele>3152.78</ele>
        <time>2010-04-16T08:17:32Z</time>
      </trkpt>
      <trkpt lat="45.96308" lon="7.54514">
        <ele>3155.66</ele>
        <time>2010-04-16T08:17:48Z</time>
      </trkpt>
      <trkpt lat="45.9631" lon="7.54518">
        <ele>3147.49</ele>
        <time>2010-04-16T08:18:07Z</time>
      </trkpt>
      <trkpt lat="45.9631" lon="7.54518">
        <ele>3134.52</ele>
        <time>2010-04-16T08:18:08Z</time>
      </trkpt>
      <trkpt lat="45.9631" lon="7.54518">
        <ele>3157.59</ele>
        <time>2010-04-16T08:18:09Z</time>
      </trkpt>
      <trkpt lat="45.9631" lon="7.54518">
        <ele>3153.74</ele>
        <time>2010-04-16T08:18:10Z</time>
      </trkpt>
      <trkpt lat="45.9631" lon="7.54518">
        <ele>3175.85</ele>
        <time>2010-04-16T08:18:11Z</time>
      </trkpt>
      <trkpt lat="45.96311" lon="7.54518">
        <ele>3158.07</ele>
        <time>2010-04-16T08:18:12Z</time>
      </trkpt>
      <trkpt lat="45.96311" lon="7.54518">
        <ele>3155.18</ele>
        <time>2010-04-16T08:18:15Z</time>
      </trkpt>
      <trkpt lat="45.96311" lon="7.54518">
        <ele>3143.65</ele>
        <time>2010-04-16T08:18:47Z</time>
      </trkpt>
      <trkpt lat="45.96311" lon="7.54518">
        <ele>3149.42</ele>
        <time>2010-04-16T08:18:48Z</time>
      </trkpt>
      <trkpt lat="45.96311" lon="7.54518">
        <ele>3171.05</ele>
        <time>2010-04-16T08:18:49Z</time>
      </trkpt>
      <trkpt lat="45.96311" lon="7.54518">
        <ele>3158.07</ele>
        <time>2010-04-16T08:18:50Z</time>
      </trkpt>
      <trkpt lat="45.96311" lon="7.54518">
        <ele>3154.7</ele>
        <time>2010-04-16T08:18:52Z</time>
      </trkpt>
      <trkpt lat="45.96311" lon="7.54518">
        <ele>3155.18</ele>
        <time>2010-04-16T08:18:53Z</time>
      </trkpt>
      <trkpt lat="45.96304" lon="7.54525">
        <ele>3158.07</ele>
        <time>2010-04-16T08:19:27Z</time>
      </trkpt>
      <trkpt lat="45.963" lon="7.54533">
        <ele>3161.43</ele>
        <time>2010-04-16T08:19:54Z</time>
      </trkpt>
      <trkpt lat="45.96296" lon="7.54545">
        <ele>3165.28</ele>
        <time>2010-04-16T08:21:22Z</time>
      </trkpt>
      <trkpt lat="45.96305" lon="7.54546">
        <ele>3168.64</ele>
        <time>2010-04-16T08:22:35Z</time>
      </trkpt>
      <trkpt lat="45.96304" lon="7.54549">
        <ele>3169.6</ele>
        <time>2010-04-16T08:22:40Z</time>
      </trkpt>
      <trkpt lat="45.96299" lon="7.54557">
        <ele>3172.01</ele>
        <time>2010-04-16T08:23:03Z</time>
      </trkpt>
      <trkpt lat="45.96294" lon="7.54567">
        <ele>3171.53</ele>
        <time>2010-04-16T08:23:34Z</time>
      </trkpt>
      <trkpt lat="45.96292" lon="7.54567">
        <ele>3172.97</ele>
        <time>2010-04-16T08:23:42Z</time>
      </trkpt>
      <trkpt lat="45.96293" lon="7.5457">
        <ele>3173.45</ele>
        <time>2010-04-16T08:23:51Z</time>
      </trkpt>
      <trkpt lat="45.96298" lon="7.5456">
        <ele>3176.33</ele>
        <time>2010-04-16T08:24:18Z</time>
      </trkpt>
      <trkpt lat="45.96302" lon="7.54555">
        <ele>3179.7</ele>
        <time>2010-04-16T08:24:43Z</time>
      </trkpt>
      <trkpt lat="45.96316" lon="7.54552">
        <ele>3182.58</ele>
        <time>2010-04-16T08:25:46Z</time>
      </trkpt>
      <trkpt lat="45.96314" lon="7.54559">
        <ele>3185.47</ele>
        <time>2010-04-16T08:26:05Z</time>
      </trkpt>
      <trkpt lat="45.9631" lon="7.54573">
        <ele>3189.31</ele>
        <time>2010-04-16T08:26:36Z</time>
      </trkpt>
      <trkpt lat="45.96298" lon="7.54588">
        <ele>3192.2</ele>
        <time>2010-04-16T08:27:33Z</time>
      </trkpt>
      <trkpt lat="45.96296" lon="7.5459">
        <ele>3193.16</ele>
        <time>2010-04-16T08:27:43Z</time>
      </trkpt>
      <trkpt lat="45.96306" lon="7.54591">
        <ele>3196.04</ele>
        <time>2010-04-16T08:28:43Z</time>
      </trkpt>
      <trkpt lat="45.96309" lon="7.54591">
        <ele>3197.48</ele>
        <time>2010-04-16T08:29:08Z</time>
      </trkpt>
      <trkpt lat="45.96311" lon="7.54593">
        <ele>3198.44</ele>
        <time>2010-04-16T08:29:31Z</time>
      </trkpt>
      <trkpt lat="45.9631" lon="7.54595">
        <ele>3201.81</ele>
        <time>2010-04-16T08:29:51Z</time>
      </trkpt>
      <trkpt lat="45.96305" lon="7.54607">
        <ele>3202.77</ele>
        <time>2010-04-16T08:30:30Z</time>
      </trkpt>
      <trkpt lat="45.96313" lon="7.54607">
        <ele>3205.17</ele>
        <time>2010-04-16T08:31:10Z</time>
      </trkpt>
      <trkpt lat="45.96314" lon="7.54617">
        <ele>3208.54</ele>
        <time>2010-04-16T08:31:43Z</time>
      </trkpt>
      <trkpt lat="45.96309" lon="7.54629">
        <ele>3210.94</ele>
        <time>2010-04-16T08:32:09Z</time>
      </trkpt>
      <trkpt lat="45.9631" lon="7.54632">
        <ele>3214.79</ele>
        <time>2010-04-16T08:32:54Z</time>
      </trkpt>
      <trkpt lat="45.96318" lon="7.54632">
        <ele>3217.19</ele>
        <time>2010-04-16T08:33:19Z</time>
      </trkpt>
      <trkpt lat="45.96317" lon="7.54644">
        <ele>3221.03</ele>
        <time>2010-04-16T08:33:32Z</time>
      </trkpt>
      <trkpt lat="45.96317" lon="7.54645">
        <ele>3220.07</ele>
        <time>2010-04-16T08:33:33Z</time>
      </trkpt>
      <trkpt lat="45.96315" lon="7.54659">
        <ele>3223.44</ele>
        <time>2010-04-16T08:33:47Z</time>
      </trkpt>
      <trkpt lat="45.96313" lon="7.54666">
        <ele>3224.4</ele>
        <time>2010-04-16T08:33:59Z</time>
      </trkpt>
      <trkpt lat="45.96313" lon="7.54666">
        <ele>3224.88</ele>
        <time>2010-04-16T08:34:32Z</time>
      </trkpt>
      <trkpt lat="45.96313" lon="7.5467">
        <ele>3224.88</ele>
        <time>2010-04-16T08:34:45Z</time>
      </trkpt>
      <trkpt lat="45.96313" lon="7.5467">
        <ele>3226.8</ele>
        <time>2010-04-16T08:34:47Z</time>
      </trkpt>
      <trkpt lat="45.96313" lon="7.54667">
        <ele>3224.4</ele>
        <time>2010-04-16T08:35:52Z</time>
      </trkpt>
      <trkpt lat="45.96312" lon="7.54667">
        <ele>3219.11</ele>
        <time>2010-04-16T08:36:31Z</time>
      </trkpt>
      <trkpt lat="45.96312" lon="7.54667">
        <ele>3225.36</ele>
        <time>2010-04-16T08:36:32Z</time>
      </trkpt>
      <trkpt lat="45.96312" lon="7.54667">
        <ele>3221.52</ele>
        <time>2010-04-16T08:36:37Z</time>
      </trkpt>
      <trkpt lat="45.96312" lon="7.54667">
        <ele>3225.36</ele>
        <time>2010-04-16T08:36:39Z</time>
      </trkpt>
      <trkpt lat="45.96308" lon="7.54663">
        <ele>3225.36</ele>
        <time>2010-04-16T08:37:13Z</time>
      </trkpt>
      <trkpt lat="45.96306" lon="7.54662">
        <ele>3226.32</ele>
        <time>2010-04-16T08:37:20Z</time>
      </trkpt>
      <trkpt lat="45.96306" lon="7.54663">
        <ele>3226.32</ele>
        <time>2010-04-16T08:38:21Z</time>
      </trkpt>
      <trkpt lat="45.96306" lon="7.54663">
        <ele>3230.17</ele>
        <time>2010-04-16T08:38:27Z</time>
      </trkpt>
      <trkpt lat="45.96306" lon="7.54663">
        <ele>3228.24</ele>
        <time>2010-04-16T08:38:28Z</time>
      </trkpt>
      <trkpt lat="45.96306" lon="7.54663">
        <ele>3225.84</ele>
        <time>2010-04-16T08:38:30Z</time>
      </trkpt>
      <trkpt lat="45.9631" lon="7.54664">
        <ele>3221.52</ele>
        <time>2010-04-16T08:38:44Z</time>
      </trkpt>
      <trkpt lat="45.9631" lon="7.54664">
        <ele>3226.32</ele>
        <time>2010-04-16T08:38:45Z</time>
      </trkpt>
      <trkpt lat="45.9631" lon="7.54664">
        <ele>3226.32</ele>
        <time>2010-04-16T08:39:04Z</time>
      </trkpt>
      <trkpt lat="45.96311" lon="7.54665">
        <ele>3224.4</ele>
        <time>2010-04-16T08:39:26Z</time>
      </trkpt>
      <trkpt lat="45.96311" lon="7.54665">
        <ele>3226.8</ele>
        <time>2010-04-16T08:39:28Z</time>
      </trkpt>
      <trkpt lat="45.96311" lon="7.54665">
        <ele>3231.61</ele>
        <time>2010-04-16T08:39:34Z</time>
      </trkpt>
      <trkpt lat="45.96311" lon="7.54665">
        <ele>3225.84</ele>
        <time>2010-04-16T08:39:35Z</time>
      </trkpt>
      <trkpt lat="45.96311" lon="7.54665">
        <ele>3211.42</ele>
        <time>2010-04-16T08:39:36Z</time>
      </trkpt>
      <trkpt lat="45.96311" lon="7.54665">
        <ele>3218.15</ele>
        <time>2010-04-16T08:39:37Z</time>
      </trkpt>
      <trkpt lat="45.96312" lon="7.54665">
        <ele>3225.84</ele>
        <time>2010-04-16T08:39:38Z</time>
      </trkpt>
      <trkpt lat="45.96312" lon="7.54665">
        <ele>3224.4</ele>
        <time>2010-04-16T08:39:39Z</time>
      </trkpt>
      <trkpt lat="45.96314" lon="7.54661">
        <ele>3225.36</ele>
        <time>2010-04-16T08:39:43Z</time>
      </trkpt>
      <trkpt lat="45.96313" lon="7.5466">
        <ele>3234.97</ele>
        <time>2010-04-16T08:39:44Z</time>
      </trkpt>
      <trkpt lat="45.96313" lon="7.54661">
        <ele>3227.76</ele>
        <time>2010-04-16T08:39:45Z</time>
      </trkpt>
      <trkpt lat="45.96313" lon="7.54661">
        <ele>3222.96</ele>
        <time>2010-04-16T08:39:53Z</time>
      </trkpt>
      <trkpt lat="45.96313" lon="7.54661">
        <ele>3229.21</ele>
        <time>2010-04-16T08:39:54Z</time>
      </trkpt>
      <trkpt lat="45.96312" lon="7.54662">
        <ele>3225.36</ele>
        <time>2010-04-16T08:39:56Z</time>
      </trkpt>
      <trkpt lat="45.96312" lon="7.54662">
        <ele>3225.36</ele>
        <time>2010-04-16T08:39:57Z</time>
      </trkpt>
      <trkpt lat="45.96312" lon="7.54664">
        <ele>3225.84</ele>
        <time>2010-04-16T08:40:28Z</time>
      </trkpt>
      <trkpt lat="45.96312" lon="7.54664">
        <ele>3234.97</ele>
        <time>2010-04-16T08:40:33Z</time>
      </trkpt>
      <trkpt lat="45.96312" lon="7.54664">
        <ele>3228.24</ele>
        <time>2010-04-16T08:40:34Z</time>
      </trkpt>
      <trkpt lat="45.96312" lon="7.54664">
        <ele>3225.84</ele>
        <time>2010-04-16T08:40:36Z</time>
      </trkpt>
      <trkpt lat="45.96312" lon="7.54664">
        <ele>3220.55</ele>
        <time>2010-04-16T08:41:26Z</time>
      </trkpt>
      <trkpt lat="45.96312" lon="7.54664">
        <ele>3226.8</ele>
        <time>2010-04-16T08:41:27Z</time>
      </trkpt>
      <trkpt lat="45.96312" lon="7.54665">
        <ele>3211.9</ele>
        <time>2010-04-16T08:41:48Z</time>
      </trkpt>
      <trkpt lat="45.96312" lon="7.54665">
        <ele>3229.21</ele>
        <time>2010-04-16T08:41:49Z</time>
      </trkpt>
      <trkpt lat="45.96312" lon="7.54665">
        <ele>3227.28</ele>
        <time>2010-04-16T08:41:52Z</time>
      </trkpt>
      <trkpt lat="45.96312" lon="7.54665">
        <ele>3226.8</ele>
        <time>2010-04-16T08:42:19Z</time>
      </trkpt>
      <trkpt lat="45.96312" lon="7.54665">
        <ele>3219.11</ele>
        <time>2010-04-16T08:42:25Z</time>
      </trkpt>
      <trkpt lat="45.96312" lon="7.54665">
        <ele>3221.52</ele>
        <time>2010-04-16T08:42:26Z</time>
      </trkpt>
      <trkpt lat="45.96312" lon="7.54665">
        <ele>3233.53</ele>
        <time>2010-04-16T08:42:27Z</time>
      </trkpt>
      <trkpt lat="45.96312" lon="7.54665">
        <ele>3228.24</ele>
        <time>2010-04-16T08:42:28Z</time>
      </trkpt>
      <trkpt lat="45.96312" lon="7.54665">
        <ele>3226.8</ele>
        <time>2010-04-16T08:42:30Z</time>
      </trkpt>
      <trkpt lat="45.96312" lon="7.54664">
        <ele>3220.55</ele>
        <time>2010-04-16T08:43:16Z</time>
      </trkpt>
      <trkpt lat="45.96312" lon="7.54664">
        <ele>3228.73</ele>
        <time>2010-04-16T08:43:17Z</time>
      </trkpt>
      <trkpt lat="45.96312" lon="7.54664">
        <ele>3224.88</ele>
        <time>2010-04-16T08:43:43Z</time>
      </trkpt>
      <trkpt lat="45.96312" lon="7.54664">
        <ele>3228.24</ele>
        <time>2010-04-16T08:43:45Z</time>
      </trkpt>
      <trkpt lat="45.96312" lon="7.54664">
        <ele>3227.28</ele>
        <time>2010-04-16T08:43:46Z</time>
      </trkpt>
      <trkpt lat="45.96312" lon="7.54664">
        <ele>3227.76</ele>
        <time>2010-04-16T08:44:14Z</time>
      </trkpt>
      <trkpt lat="45.96311" lon="7.54664">
        <ele>3226.8</ele>
        <time>2010-04-16T08:44:38Z</time>
      </trkpt>
      <trkpt lat="45.96311" lon="7.54667">
        <ele>3227.76</ele>
        <time>2010-04-16T08:44:47Z</time>
      </trkpt>
      <trkpt lat="45.96311" lon="7.5467">
        <ele>3229.69</ele>
        <time>2010-04-16T08:45:00Z</time>
      </trkpt>
      <trkpt lat="45.9631" lon="7.54669">
        <ele>3229.21</ele>
        <time>2010-04-16T08:45:23Z</time>
      </trkpt>
      <trkpt lat="45.96311" lon="7.54666">
        <ele>3224.4</ele>
        <time>2010-04-16T08:45:42Z</time>
      </trkpt>
      <trkpt lat="45.96311" lon="7.54666">
        <ele>3225.36</ele>
        <time>2010-04-16T08:45:43Z</time>
      </trkpt>
      <trkpt lat="45.96311" lon="7.54666">
        <ele>3229.21</ele>
        <time>2010-04-16T08:45:45Z</time>
      </trkpt>
      <trkpt lat="45.9631" lon="7.54665">
        <ele>3219.59</ele>
        <time>2010-04-16T08:46:07Z</time>
      </trkpt>
      <trkpt lat="45.9631" lon="7.54664">
        <ele>3228.73</ele>
        <time>2010-04-16T08:46:08Z</time>
      </trkpt>
      <trkpt lat="45.9631" lon="7.54664">
        <ele>3234.49</ele>
        <time>2010-04-16T08:46:09Z</time>
      </trkpt>
      <trkpt lat="45.9631" lon="7.54664">
        <ele>3230.17</ele>
        <time>2010-04-16T08:46:10Z</time>
      </trkpt>
      <trkpt lat="45.9631" lon="7.54664">
        <ele>3227.76</ele>
        <time>2010-04-16T08:46:12Z</time>
      </trkpt>
      <trkpt lat="45.9631" lon="7.54665">
        <ele>3227.28</ele>
        <time>2010-04-16T08:46:32Z</time>
      </trkpt>
      <trkpt lat="45.9631" lon="7.54665">
        <ele>3230.17</ele>
        <time>2010-04-16T08:47:20Z</time>
      </trkpt>
      <trkpt lat="45.9631" lon="7.54665">
        <ele>3221.03</ele>
        <time>2010-04-16T08:47:21Z</time>
      </trkpt>
      <trkpt lat="45.9631" lon="7.54665">
        <ele>3222.48</ele>
        <time>2010-04-16T08:47:22Z</time>
      </trkpt>
      <trkpt lat="45.9631" lon="7.54665">
        <ele>3225.84</ele>
        <time>2010-04-16T08:47:23Z</time>
      </trkpt>
      <trkpt lat="45.9631" lon="7.54666">
        <ele>3226.8</ele>
        <time>2010-04-16T08:47:25Z</time>
      </trkpt>
      <trkpt lat="45.96311" lon="7.5467">
        <ele>3240.26</ele>
        <time>2010-04-16T08:47:31Z</time>
      </trkpt>
      <trkpt lat="45.96311" lon="7.5467">
        <ele>3234.01</ele>
        <time>2010-04-16T08:47:32Z</time>
      </trkpt>
      <trkpt lat="45.96311" lon="7.5467">
        <ele>3228.73</ele>
        <time>2010-04-16T08:47:33Z</time>
      </trkpt>
      <trkpt lat="45.96311" lon="7.5467">
        <ele>3228.73</ele>
        <time>2010-04-16T08:47:34Z</time>
      </trkpt>
      <trkpt lat="45.96313" lon="7.54671">
        <ele>3228.73</ele>
        <time>2010-04-16T08:47:53Z</time>
      </trkpt>
      <trkpt lat="45.96313" lon="7.54668">
        <ele>3227.76</ele>
        <time>2010-04-16T08:48:05Z</time>
      </trkpt>
      <trkpt lat="45.96313" lon="7.5467">
        <ele>3227.76</ele>
        <time>2010-04-16T08:49:49Z</time>
      </trkpt>
      <trkpt lat="45.96312" lon="7.54664">
        <ele>3227.76</ele>
        <time>2010-04-16T08:50:15Z</time>
      </trkpt>
      <trkpt lat="45.96313" lon="7.54662">
        <ele>3231.13</ele>
        <time>2010-04-16T08:50:17Z</time>
      </trkpt>
      <trkpt lat="45.96313" lon="7.54662">
        <ele>3227.76</ele>
        <time>2010-04-16T08:50:19Z</time>
      </trkpt>
      <trkpt lat="45.96312" lon="7.54661">
        <ele>3228.24</ele>
        <time>2010-04-16T08:50:52Z</time>
      </trkpt>
      <trkpt lat="45.96313" lon="7.54661">
        <ele>3228.73</ele>
        <time>2010-04-16T08:53:57Z</time>
      </trkpt>
      <trkpt lat="45.96313" lon="7.54665">
        <ele>3229.69</ele>
        <time>2010-04-16T08:54:55Z</time>
      </trkpt>
      <trkpt lat="45.96314" lon="7.54666">
        <ele>3228.73</ele>
        <time>2010-04-16T08:55:33Z</time>
      </trkpt>
      <trkpt lat="45.96314" lon="7.54666">
        <ele>3227.76</ele>
        <time>2010-04-16T08:55:51Z</time>
      </trkpt>
      <trkpt lat="45.96314" lon="7.54666">
        <ele>3231.13</ele>
        <time>2010-04-16T08:55:52Z</time>
      </trkpt>
      <trkpt lat="45.96314" lon="7.54666">
        <ele>3230.65</ele>
        <time>2010-04-16T08:55:53Z</time>
      </trkpt>
      <trkpt lat="45.96314" lon="7.54666">
        <ele>3229.69</ele>
        <time>2010-04-16T08:55:55Z</time>
      </trkpt>
      <trkpt lat="45.96314" lon="7.54666">
        <ele>3230.65</ele>
        <time>2010-04-16T08:56:07Z</time>
      </trkpt>
      <trkpt lat="45.96313" lon="7.54666">
        <ele>3227.28</ele>
        <time>2010-04-16T08:56:14Z</time>
      </trkpt>
      <trkpt lat="45.96313" lon="7.54666">
        <ele>3231.61</ele>
        <time>2010-04-16T08:56:15Z</time>
      </trkpt>
      <trkpt lat="45.96313" lon="7.54665">
        <ele>3227.76</ele>
        <time>2010-04-16T08:56:30Z</time>
      </trkpt>
      <trkpt lat="45.96313" lon="7.54665">
        <ele>3231.13</ele>
        <time>2010-04-16T08:56:31Z</time>
      </trkpt>
      <trkpt lat="45.96313" lon="7.54666">
        <ele>3227.76</ele>
        <time>2010-04-16T08:56:39Z</time>
      </trkpt>
      <trkpt lat="45.96312" lon="7.54666">
        <ele>3230.65</ele>
        <time>2010-04-16T08:56:41Z</time>
      </trkpt>
      <trkpt lat="45.96312" lon="7.54666">
        <ele>3230.65</ele>
        <time>2010-04-16T08:56:42Z</time>
      </trkpt>
      <trkpt lat="45.96312" lon="7.54666">
        <ele>3225.84</ele>
        <time>2010-04-16T08:56:59Z</time>
      </trkpt>
      <trkpt lat="45.96312" lon="7.54666">
        <ele>3229.69</ele>
        <time>2010-04-16T08:57:01Z</time>
      </trkpt>
      <trkpt lat="45.96312" lon="7.54666">
        <ele>3229.69</ele>
        <time>2010-04-16T08:57:02Z</time>
      </trkpt>
      <trkpt lat="45.96312" lon="7.54666">
        <ele>3223.44</ele>
        <time>2010-04-16T08:57:05Z</time>
      </trkpt>
      <trkpt lat="45.96312" lon="7.54666">
        <ele>3231.61</ele>
        <time>2010-04-16T08:57:06Z</time>
      </trkpt>
      <trkpt lat="45.96312" lon="7.54666">
        <ele>3231.13</ele>
        <time>2010-04-16T08:57:07Z</time>
      </trkpt>
      <trkpt lat="45.96312" lon="7.54666">
        <ele>3229.69</ele>
        <time>2010-04-16T08:57:11Z</time>
      </trkpt>
      <trkpt lat="45.96312" lon="7.54666">
        <ele>3220.07</ele>
        <time>2010-04-16T08:57:12Z</time>
      </trkpt>
      <trkpt lat="45.96312" lon="7.54666">
        <ele>3224.88</ele>
        <time>2010-04-16T08:57:13Z</time>
      </trkpt>
      <trkpt lat="45.96312" lon="7.54666">
        <ele>3232.57</ele>
        <time>2010-04-16T08:57:14Z</time>
      </trkpt>
      <trkpt lat="45.96312" lon="7.54666">
        <ele>3232.57</ele>
        <time>2010-04-16T08:57:15Z</time>
      </trkpt>
      <trkpt lat="45.96312" lon="7.54666">
        <ele>3227.28</ele>
        <time>2010-04-16T08:57:18Z</time>
      </trkpt>
      <trkpt lat="45.96312" lon="7.54666">
        <ele>3223.92</ele>
        <time>2010-04-16T08:57:19Z</time>
      </trkpt>
      <trkpt lat="45.96312" lon="7.54666">
        <ele>3227.76</ele>
        <time>2010-04-16T08:57:20Z</time>
      </trkpt>
      <trkpt lat="45.96312" lon="7.54666">
        <ele>3230.17</ele>
        <time>2010-04-16T08:57:22Z</time>
      </trkpt>
      <trkpt lat="45.96312" lon="7.54666">
        <ele>3226.8</ele>
        <time>2010-04-16T08:57:30Z</time>
      </trkpt>
      <trkpt lat="45.96312" lon="7.54666">
        <ele>3231.13</ele>
        <time>2010-04-16T08:57:32Z</time>
      </trkpt>
      <trkpt lat="45.96312" lon="7.54666">
        <ele>3230.17</ele>
        <time>2010-04-16T08:57:33Z</time>
      </trkpt>
      <trkpt lat="45.96312" lon="7.54666">
        <ele>3230.17</ele>
        <time>2010-04-16T08:57:42Z</time>
      </trkpt>
      <trkpt lat="45.96312" lon="7.54667">
        <ele>3230.17</ele>
        <time>2010-04-16T08:58:01Z</time>
      </trkpt>
      <trkpt lat="45.96311" lon="7.54666">
        <ele>3232.09</ele>
        <time>2010-04-16T09:01:12Z</time>
      </trkpt>
      <trkpt lat="45.96311" lon="7.54665">
        <ele>3233.05</ele>
        <time>2010-04-16T09:01:27Z</time>
      </trkpt>
      <trkpt lat="45.96311" lon="7.54664">
        <ele>3232.09</ele>
        <time>2010-04-16T09:01:47Z</time>
      </trkpt>
      <trkpt lat="45.96337" lon="7.54649">
        <ele>3228.24</ele>
        <time>2010-04-16T09:01:53Z</time>
      </trkpt>
      <trkpt lat="45.96358" lon="7.54639">
        <ele>3224.88</ele>
        <time>2010-04-16T09:01:56Z</time>
      </trkpt>
      <trkpt lat="45.96363" lon="7.54636">
        <ele>3224.4</ele>
        <time>2010-04-16T09:01:57Z</time>
      </trkpt>
      <trkpt lat="45.96397" lon="7.54637">
        <ele>3223.92</ele>
        <time>2010-04-16T09:02:08Z</time>
      </trkpt>
      <trkpt lat="45.96404" lon="7.54654">
        <ele>3220.55</ele>
        <time>2010-04-16T09:02:13Z</time>
      </trkpt>
      <trkpt lat="45.96405" lon="7.54656">
        <ele>3220.07</ele>
        <time>2010-04-16T09:02:14Z</time>
      </trkpt>
      <trkpt lat="45.96404" lon="7.54658">
        <ele>3219.11</ele>
        <time>2010-04-16T09:02:28Z</time>
      </trkpt>
      <trkpt lat="45.96403" lon="7.54658">
        <ele>3218.15</ele>
        <time>2010-04-16T09:02:33Z</time>
      </trkpt>
      <trkpt lat="45.96403" lon="7.54658">
        <ele>3219.59</ele>
        <time>2010-04-16T09:02:41Z</time>
      </trkpt>
      <trkpt lat="45.96403" lon="7.54658">
        <ele>3219.11</ele>
        <time>2010-04-16T09:04:17Z</time>
      </trkpt>
      <trkpt lat="45.96404" lon="7.54658">
        <ele>3220.07</ele>
        <time>2010-04-16T09:04:31Z</time>
      </trkpt>
      <trkpt lat="45.96404" lon="7.54658">
        <ele>3220.07</ele>
        <time>2010-04-16T09:04:56Z</time>
      </trkpt>
      <trkpt lat="45.96403" lon="7.54665">
        <ele>3221.03</ele>
        <time>2010-04-16T09:05:10Z</time>
      </trkpt>
      <trkpt lat="45.96403" lon="7.5467">
        <ele>3220.07</ele>
        <time>2010-04-16T09:05:11Z</time>
      </trkpt>
      <trkpt lat="45.96401" lon="7.54676">
        <ele>3216.71</ele>
        <time>2010-04-16T09:05:14Z</time>
      </trkpt>
      <trkpt lat="45.96401" lon="7.54676">
        <ele>3217.19</ele>
        <time>2010-04-16T09:05:16Z</time>
      </trkpt>
      <trkpt lat="45.96401" lon="7.54676">
        <ele>3217.19</ele>
        <time>2010-04-16T09:05:19Z</time>
      </trkpt>
      <trkpt lat="45.96401" lon="7.54681">
        <ele>3217.19</ele>
        <time>2010-04-16T09:05:21Z</time>
      </trkpt>
      <trkpt lat="45.96405" lon="7.54696">
        <ele>3212.86</ele>
        <time>2010-04-16T09:05:24Z</time>
      </trkpt>
      <trkpt lat="45.96407" lon="7.54701">
        <ele>3210.94</ele>
        <time>2010-04-16T09:05:25Z</time>
      </trkpt>
      <trkpt lat="45.96413" lon="7.5471">
        <ele>3206.61</ele>
        <time>2010-04-16T09:05:27Z</time>
      </trkpt>
      <trkpt lat="45.96427" lon="7.54723">
        <ele>3201.33</ele>
        <time>2010-04-16T09:05:30Z</time>
      </trkpt>
      <trkpt lat="45.96445" lon="7.54732">
        <ele>3193.64</ele>
        <time>2010-04-16T09:05:33Z</time>
      </trkpt>
      <trkpt lat="45.96466" lon="7.54742">
        <ele>3187.39</ele>
        <time>2010-04-16T09:05:36Z</time>
      </trkpt>
      <trkpt lat="45.96478" lon="7.54747">
        <ele>3183.06</ele>
        <time>2010-04-16T09:05:38Z</time>
      </trkpt>
      <trkpt lat="45.96489" lon="7.54752">
        <ele>3178.74</ele>
        <time>2010-04-16T09:05:40Z</time>
      </trkpt>
      <trkpt lat="45.96503" lon="7.54762">
        <ele>3175.37</ele>
        <time>2010-04-16T09:05:43Z</time>
      </trkpt>
      <trkpt lat="45.96516" lon="7.54758">
        <ele>3170.08</ele>
        <time>2010-04-16T09:05:45Z</time>
      </trkpt>
      <trkpt lat="45.96541" lon="7.5475">
        <ele>3164.8</ele>
        <time>2010-04-16T09:05:49Z</time>
      </trkpt>
      <trkpt lat="45.96546" lon="7.54748">
        <ele>3162.88</ele>
        <time>2010-04-16T09:05:50Z</time>
      </trkpt>
      <trkpt lat="45.96564" lon="7.54741">
        <ele>3158.55</ele>
        <time>2010-04-16T09:05:53Z</time>
      </trkpt>
      <trkpt lat="45.96576" lon="7.54734">
        <ele>3156.63</ele>
        <time>2010-04-16T09:05:55Z</time>
      </trkpt>
      <trkpt lat="45.96596" lon="7.54726">
        <ele>3150.38</ele>
        <time>2010-04-16T09:05:58Z</time>
      </trkpt>
      <trkpt lat="45.96624" lon="7.54717">
        <ele>3145.57</ele>
        <time>2010-04-16T09:06:02Z</time>
      </trkpt>
      <trkpt lat="45.96639" lon="7.54715">
        <ele>3140.28</ele>
        <time>2010-04-16T09:06:04Z</time>
      </trkpt>
      <trkpt lat="45.96645" lon="7.54713">
        <ele>3139.32</ele>
        <time>2010-04-16T09:06:05Z</time>
      </trkpt>
      <trkpt lat="45.96666" lon="7.54713">
        <ele>3135</ele>
        <time>2010-04-16T09:06:08Z</time>
      </trkpt>
      <trkpt lat="45.96681" lon="7.54713">
        <ele>3131.63</ele>
        <time>2010-04-16T09:06:10Z</time>
      </trkpt>
      <trkpt lat="45.96702" lon="7.54716">
        <ele>3128.27</ele>
        <time>2010-04-16T09:06:13Z</time>
      </trkpt>
      <trkpt lat="45.9672" lon="7.54719">
        <ele>3126.34</ele>
        <time>2010-04-16T09:06:16Z</time>
      </trkpt>
      <trkpt lat="45.96743" lon="7.54729">
        <ele>3122.98</ele>
        <time>2010-04-16T09:06:20Z</time>
      </trkpt>
      <trkpt lat="45.96762" lon="7.54743">
        <ele>3120.1</ele>
        <time>2010-04-16T09:06:23Z</time>
      </trkpt>
      <trkpt lat="45.96785" lon="7.54765">
        <ele>3116.73</ele>
        <time>2010-04-16T09:06:27Z</time>
      </trkpt>
      <trkpt lat="45.96789" lon="7.5477">
        <ele>3116.25</ele>
        <time>2010-04-16T09:06:28Z</time>
      </trkpt>
      <trkpt lat="45.96792" lon="7.54774">
        <ele>3117.69</ele>
        <time>2010-04-16T09:06:29Z</time>
      </trkpt>
      <trkpt lat="45.9681" lon="7.54794">
        <ele>3113.37</ele>
        <time>2010-04-16T09:06:34Z</time>
      </trkpt>
      <trkpt lat="45.96821" lon="7.54809">
        <ele>3111.44</ele>
        <time>2010-04-16T09:06:37Z</time>
      </trkpt>
      <trkpt lat="45.96842" lon="7.5483">
        <ele>3109.52</ele>
        <time>2010-04-16T09:06:45Z</time>
      </trkpt>
      <trkpt lat="45.96857" lon="7.54842">
        <ele>3107.12</ele>
        <time>2010-04-16T09:06:49Z</time>
      </trkpt>
      <trkpt lat="45.96872" lon="7.54849">
        <ele>3105.68</ele>
        <time>2010-04-16T09:06:53Z</time>
      </trkpt>
      <trkpt lat="45.9688" lon="7.54848">
        <ele>3104.71</ele>
        <time>2010-04-16T09:06:55Z</time>
      </trkpt>
      <trkpt lat="45.96916" lon="7.54844">
        <ele>3100.87</ele>
        <time>2010-04-16T09:07:03Z</time>
      </trkpt>
      <trkpt lat="45.96926" lon="7.54843">
        <ele>3100.39</ele>
        <time>2010-04-16T09:07:05Z</time>
      </trkpt>
      <trkpt lat="45.96954" lon="7.54837">
        <ele>3098.95</ele>
        <time>2010-04-16T09:07:15Z</time>
      </trkpt>
      <trkpt lat="45.96971" lon="7.54841">
        <ele>3097.02</ele>
        <time>2010-04-16T09:07:21Z</time>
      </trkpt>
      <trkpt lat="45.97012" lon="7.54842">
        <ele>3095.1</ele>
        <time>2010-04-16T09:07:37Z</time>
      </trkpt>
      <trkpt lat="45.97019" lon="7.54842">
        <ele>3093.66</ele>
        <time>2010-04-16T09:07:40Z</time>
      </trkpt>
      <trkpt lat="45.9703" lon="7.54844">
        <ele>3092.22</ele>
        <time>2010-04-16T09:07:54Z</time>
      </trkpt>
      <trkpt lat="45.97031" lon="7.54844">
        <ele>3092.7</ele>
        <time>2010-04-16T09:08:12Z</time>
      </trkpt>
      <trkpt lat="45.97042" lon="7.54846">
        <ele>3092.22</ele>
        <time>2010-04-16T09:08:21Z</time>
      </trkpt>
      <trkpt lat="45.97093" lon="7.54856">
        <ele>3089.33</ele>
        <time>2010-04-16T09:08:34Z</time>
      </trkpt>
      <trkpt lat="45.97101" lon="7.54858">
        <ele>3088.37</ele>
        <time>2010-04-16T09:08:36Z</time>
      </trkpt>
      <trkpt lat="45.97139" lon="7.54868">
        <ele>3085.01</ele>
        <time>2010-04-16T09:08:45Z</time>
      </trkpt>
      <trkpt lat="45.97157" lon="7.54873">
        <ele>3085.01</ele>
        <time>2010-04-16T09:08:50Z</time>
      </trkpt>
      <trkpt lat="45.97196" lon="7.54882">
        <ele>3084.05</ele>
        <time>2010-04-16T09:09:02Z</time>
      </trkpt>
      <trkpt lat="45.97225" lon="7.54887">
        <ele>3083.09</ele>
        <time>2010-04-16T09:09:13Z</time>
      </trkpt>
      <trkpt lat="45.97254" lon="7.54891">
        <ele>3083.09</ele>
        <time>2010-04-16T09:09:25Z</time>
      </trkpt>
      <trkpt lat="45.97281" lon="7.54899">
        <ele>3082.6</ele>
        <time>2010-04-16T09:09:35Z</time>
      </trkpt>
      <trkpt lat="45.97291" lon="7.54904">
        <ele>3083.09</ele>
        <time>2010-04-16T09:09:39Z</time>
      </trkpt>
      <trkpt lat="45.97312" lon="7.54911">
        <ele>3081.64</ele>
        <time>2010-04-16T09:09:49Z</time>
      </trkpt>
      <trkpt lat="45.97317" lon="7.54912">
        <ele>3081.64</ele>
        <time>2010-04-16T09:09:53Z</time>
      </trkpt>
      <trkpt lat="45.97327" lon="7.54915">
        <ele>3081.64</ele>
        <time>2010-04-16T09:10:05Z</time>
      </trkpt>
      <trkpt lat="45.9735" lon="7.54925">
        <ele>3080.68</ele>
        <time>2010-04-16T09:10:19Z</time>
      </trkpt>
      <trkpt lat="45.97361" lon="7.54928">
        <ele>3080.68</ele>
        <time>2010-04-16T09:10:23Z</time>
      </trkpt>
      <trkpt lat="45.97373" lon="7.54935">
        <ele>3080.68</ele>
        <time>2010-04-16T09:10:30Z</time>
      </trkpt>
      <trkpt lat="45.97377" lon="7.54935">
        <ele>3079.72</ele>
        <time>2010-04-16T09:10:32Z</time>
      </trkpt>
      <trkpt lat="45.97391" lon="7.54939">
        <ele>3080.2</ele>
        <time>2010-04-16T09:10:42Z</time>
      </trkpt>
      <trkpt lat="45.97397" lon="7.54941">
        <ele>3080.68</ele>
        <time>2010-04-16T09:10:51Z</time>
      </trkpt>
      <trkpt lat="45.97398" lon="7.54941">
        <ele>3080.2</ele>
        <time>2010-04-16T09:11:08Z</time>
      </trkpt>
      <trkpt lat="45.97398" lon="7.54941">
        <ele>3080.2</ele>
        <time>2010-04-16T09:11:21Z</time>
      </trkpt>
      <trkpt lat="45.97398" lon="7.54941">
        <ele>3078.76</ele>
        <time>2010-04-16T09:11:43Z</time>
      </trkpt>
      <trkpt lat="45.97398" lon="7.54941">
        <ele>3078.28</ele>
        <time>2010-04-16T09:12:23Z</time>
      </trkpt>
      <trkpt lat="45.97398" lon="7.5494">
        <ele>3082.12</ele>
        <time>2010-04-16T09:13:12Z</time>
      </trkpt>
      <trkpt lat="45.97398" lon="7.5494">
        <ele>3081.64</ele>
        <time>2010-04-16T09:13:13Z</time>
      </trkpt>
      <trkpt lat="45.97398" lon="7.5494">
        <ele>3078.28</ele>
        <time>2010-04-16T09:13:22Z</time>
      </trkpt>
      <trkpt lat="45.97398" lon="7.5494">
        <ele>3079.72</ele>
        <time>2010-04-16T09:13:26Z</time>
      </trkpt>
      <trkpt lat="45.97398" lon="7.5494">
        <ele>3076.36</ele>
        <time>2010-04-16T09:13:27Z</time>
      </trkpt>
      <trkpt lat="45.97398" lon="7.5494">
        <ele>3081.16</ele>
        <time>2010-04-16T09:13:29Z</time>
      </trkpt>
      <trkpt lat="45.97398" lon="7.5494">
        <ele>3080.2</ele>
        <time>2010-04-16T09:13:30Z</time>
      </trkpt>
      <trkpt lat="45.97398" lon="7.5494">
        <ele>3078.76</ele>
        <time>2010-04-16T09:13:56Z</time>
      </trkpt>
      <trkpt lat="45.97398" lon="7.5494">
        <ele>3083.57</ele>
        <time>2010-04-16T09:14:03Z</time>
      </trkpt>
      <trkpt lat="45.97398" lon="7.5494">
        <ele>3080.68</ele>
        <time>2010-04-16T09:14:04Z</time>
      </trkpt>
      <trkpt lat="45.97397" lon="7.5494">
        <ele>3079.72</ele>
        <time>2010-04-16T09:18:13Z</time>
      </trkpt>
      <trkpt lat="45.97397" lon="7.5494">
        <ele>3074.43</ele>
        <time>2010-04-16T09:18:32Z</time>
      </trkpt>
      <trkpt lat="45.97397" lon="7.5494">
        <ele>3077.8</ele>
        <time>2010-04-16T09:18:33Z</time>
      </trkpt>
      <trkpt lat="45.97397" lon="7.5494">
        <ele>3079.24</ele>
        <time>2010-04-16T09:18:35Z</time>
      </trkpt>
      <trkpt lat="45.97397" lon="7.54941">
        <ele>3080.68</ele>
        <time>2010-04-16T09:19:08Z</time>
      </trkpt>
      <trkpt lat="45.97398" lon="7.54941">
        <ele>3080.2</ele>
        <time>2010-04-16T09:19:34Z</time>
      </trkpt>
      <trkpt lat="45.97398" lon="7.54941">
        <ele>3079.24</ele>
        <time>2010-04-16T09:20:16Z</time>
      </trkpt>
      <trkpt lat="45.97398" lon="7.5494">
        <ele>3077.8</ele>
        <time>2010-04-16T09:22:08Z</time>
      </trkpt>
      <trkpt lat="45.97398" lon="7.54941">
        <ele>3080.2</ele>
        <time>2010-04-16T09:22:17Z</time>
      </trkpt>
      <trkpt lat="45.97398" lon="7.54941">
        <ele>3078.76</ele>
        <time>2010-04-16T09:22:36Z</time>
      </trkpt>
      <trkpt lat="45.97399" lon="7.54941">
        <ele>3067.7</ele>
        <time>2010-04-16T09:23:21Z</time>
      </trkpt>
      <trkpt lat="45.97399" lon="7.54942">
        <ele>3070.59</ele>
        <time>2010-04-16T09:23:22Z</time>
      </trkpt>
      <trkpt lat="45.97399" lon="7.54942">
        <ele>3076.84</ele>
        <time>2010-04-16T09:23:24Z</time>
      </trkpt>
      <trkpt lat="45.97399" lon="7.54942">
        <ele>3079.24</ele>
        <time>2010-04-16T09:23:26Z</time>
      </trkpt>
      <trkpt lat="45.97399" lon="7.54941">
        <ele>3079.24</ele>
        <time>2010-04-16T09:23:53Z</time>
      </trkpt>
      <trkpt lat="45.97399" lon="7.54941">
        <ele>3078.76</ele>
        <time>2010-04-16T09:24:23Z</time>
      </trkpt>
      <trkpt lat="45.97399" lon="7.54941">
        <ele>3079.72</ele>
        <time>2010-04-16T09:24:25Z</time>
      </trkpt>
      <trkpt lat="45.97399" lon="7.54941">
        <ele>3075.4</ele>
        <time>2010-04-16T09:24:28Z</time>
      </trkpt>
      <trkpt lat="45.97399" lon="7.54941">
        <ele>3080.68</ele>
        <time>2010-04-16T09:24:29Z</time>
      </trkpt>
      <trkpt lat="45.97398" lon="7.54941">
        <ele>3080.68</ele>
        <time>2010-04-16T09:24:37Z</time>
      </trkpt>
      <trkpt lat="45.97397" lon="7.5494">
        <ele>3082.12</ele>
        <time>2010-04-16T09:24:46Z</time>
      </trkpt>
      <trkpt lat="45.97397" lon="7.5494">
        <ele>3078.28</ele>
        <time>2010-04-16T09:24:48Z</time>
      </trkpt>
      <trkpt lat="45.97397" lon="7.5494">
        <ele>3081.16</ele>
        <time>2010-04-16T09:24:50Z</time>
      </trkpt>
      <trkpt lat="45.97397" lon="7.5494">
        <ele>3081.16</ele>
        <time>2010-04-16T09:24:56Z</time>
      </trkpt>
      <trkpt lat="45.97397" lon="7.5494">
        <ele>3081.16</ele>
        <time>2010-04-16T09:25:08Z</time>
      </trkpt>
      <trkpt lat="45.97397" lon="7.54941">
        <ele>3082.12</ele>
        <time>2010-04-16T09:25:18Z</time>
      </trkpt>
      <trkpt lat="45.97401" lon="7.54942">
        <ele>3081.64</ele>
        <time>2010-04-16T09:25:23Z</time>
      </trkpt>
      <trkpt lat="45.97411" lon="7.54944">
        <ele>3082.12</ele>
        <time>2010-04-16T09:25:32Z</time>
      </trkpt>
      <trkpt lat="45.97418" lon="7.54948">
        <ele>3082.12</ele>
        <time>2010-04-16T09:25:39Z</time>
      </trkpt>
      <trkpt lat="45.9742" lon="7.54948">
        <ele>3082.12</ele>
        <time>2010-04-16T09:25:41Z</time>
      </trkpt>
      <trkpt lat="45.97424" lon="7.54949">
        <ele>3082.6</ele>
        <time>2010-04-16T09:25:44Z</time>
      </trkpt>
      <trkpt lat="45.97432" lon="7.54951">
        <ele>3083.09</ele>
        <time>2010-04-16T09:25:52Z</time>
      </trkpt>
      <trkpt lat="45.97443" lon="7.54957">
        <ele>3082.6</ele>
        <time>2010-04-16T09:26:03Z</time>
      </trkpt>
      <trkpt lat="45.97452" lon="7.54962">
        <ele>3083.57</ele>
        <time>2010-04-16T09:26:12Z</time>
      </trkpt>
      <trkpt lat="45.97457" lon="7.54964">
        <ele>3084.05</ele>
        <time>2010-04-16T09:26:17Z</time>
      </trkpt>
      <trkpt lat="45.9746" lon="7.54965">
        <ele>3083.57</ele>
        <time>2010-04-16T09:26:20Z</time>
      </trkpt>
      <trkpt lat="45.97467" lon="7.54968">
        <ele>3085.49</ele>
        <time>2010-04-16T09:26:27Z</time>
      </trkpt>
      <trkpt lat="45.97473" lon="7.54972">
        <ele>3085.01</ele>
        <time>2010-04-16T09:26:34Z</time>
      </trkpt>
      <trkpt lat="45.97478" lon="7.54974">
        <ele>3085.01</ele>
        <time>2010-04-16T09:26:39Z</time>
      </trkpt>
      <trkpt lat="45.97482" lon="7.54977">
        <ele>3085.49</ele>
        <time>2010-04-16T09:26:43Z</time>
      </trkpt>
      <trkpt lat="45.97494" lon="7.54983">
        <ele>3087.41</ele>
        <time>2010-04-16T09:26:57Z</time>
      </trkpt>
      <trkpt lat="45.97501" lon="7.54988">
        <ele>3086.93</ele>
        <time>2010-04-16T09:27:08Z</time>
      </trkpt>
      <trkpt lat="45.97509" lon="7.54992">
        <ele>3088.85</ele>
        <time>2010-04-16T09:27:22Z</time>
      </trkpt>
      <trkpt lat="45.9751" lon="7.54993">
        <ele>3089.81</ele>
        <time>2010-04-16T09:27:27Z</time>
      </trkpt>
      <trkpt lat="45.97517" lon="7.54998">
        <ele>3090.78</ele>
        <time>2010-04-16T09:27:38Z</time>
      </trkpt>
      <trkpt lat="45.97522" lon="7.55">
        <ele>3090.29</ele>
        <time>2010-04-16T09:27:44Z</time>
      </trkpt>
      <trkpt lat="45.97527" lon="7.55003">
        <ele>3091.74</ele>
        <time>2010-04-16T09:28:02Z</time>
      </trkpt>
      <trkpt lat="45.97538" lon="7.55012">
        <ele>3094.14</ele>
        <time>2010-04-16T09:28:16Z</time>
      </trkpt>
      <trkpt lat="45.97545" lon="7.55019">
        <ele>3095.58</ele>
        <time>2010-04-16T09:28:26Z</time>
      </trkpt>
      <trkpt lat="45.97554" lon="7.5503">
        <ele>3097.51</ele>
        <time>2010-04-16T09:28:40Z</time>
      </trkpt>
      <trkpt lat="45.97555" lon="7.55032">
        <ele>3097.99</ele>
        <time>2010-04-16T09:28:42Z</time>
      </trkpt>
      <trkpt lat="45.9756" lon="7.55041">
        <ele>3099.91</ele>
        <time>2010-04-16T09:28:53Z</time>
      </trkpt>
      <trkpt lat="45.97566" lon="7.55049">
        <ele>3100.87</ele>
        <time>2010-04-16T09:29:05Z</time>
      </trkpt>
      <trkpt lat="45.9757" lon="7.55056">
        <ele>3101.83</ele>
        <time>2010-04-16T09:29:16Z</time>
      </trkpt>
      <trkpt lat="45.97574" lon="7.55064">
        <ele>3104.23</ele>
        <time>2010-04-16T09:29:31Z</time>
      </trkpt>
      <trkpt lat="45.9758" lon="7.55074">
        <ele>3105.2</ele>
        <time>2010-04-16T09:29:45Z</time>
      </trkpt>
      <trkpt lat="45.97581" lon="7.55075">
        <ele>3105.2</ele>
        <time>2010-04-16T09:29:46Z</time>
      </trkpt>
      <trkpt lat="45.97587" lon="7.55087">
        <ele>3106.64</ele>
        <time>2010-04-16T09:29:59Z</time>
      </trkpt>
      <trkpt lat="45.97594" lon="7.55096">
        <ele>3107.6</ele>
        <time>2010-04-16T09:30:11Z</time>
      </trkpt>
      <trkpt lat="45.97604" lon="7.55108">
        <ele>3110</ele>
        <time>2010-04-16T09:30:26Z</time>
      </trkpt>
      <trkpt lat="45.97606" lon="7.5511">
        <ele>3110.48</ele>
        <time>2010-04-16T09:30:30Z</time>
      </trkpt>
      <trkpt lat="45.97614" lon="7.55119">
        <ele>3111.92</ele>
        <time>2010-04-16T09:30:43Z</time>
      </trkpt>
      <trkpt lat="45.97622" lon="7.5513">
        <ele>3112.89</ele>
        <time>2010-04-16T09:30:58Z</time>
      </trkpt>
      <trkpt lat="45.97624" lon="7.55132">
        <ele>3113.85</ele>
        <time>2010-04-16T09:31:01Z</time>
      </trkpt>
      <trkpt lat="45.97631" lon="7.55141">
        <ele>3115.29</ele>
        <time>2010-04-16T09:31:13Z</time>
      </trkpt>
      <trkpt lat="45.97639" lon="7.55152">
        <ele>3117.21</ele>
        <time>2010-04-16T09:31:28Z</time>
      </trkpt>
      <trkpt lat="45.97642" lon="7.55156">
        <ele>3118.65</ele>
        <time>2010-04-16T09:31:34Z</time>
      </trkpt>
      <trkpt lat="45.9765" lon="7.55164">
        <ele>3120.1</ele>
        <time>2010-04-16T09:31:46Z</time>
      </trkpt>
      <trkpt lat="45.97653" lon="7.55166">
        <ele>3120.1</ele>
        <time>2010-04-16T09:31:50Z</time>
      </trkpt>
      <trkpt lat="45.97657" lon="7.55174">
        <ele>3122.02</ele>
        <time>2010-04-16T09:31:59Z</time>
      </trkpt>
      <trkpt lat="45.9766" lon="7.55178">
        <ele>3122.98</ele>
        <time>2010-04-16T09:32:04Z</time>
      </trkpt>
      <trkpt lat="45.97669" lon="7.55191">
        <ele>3123.94</ele>
        <time>2010-04-16T09:32:19Z</time>
      </trkpt>
      <trkpt lat="45.97673" lon="7.55197">
        <ele>3124.9</ele>
        <time>2010-04-16T09:32:26Z</time>
      </trkpt>
      <trkpt lat="45.97682" lon="7.55208">
        <ele>3126.83</ele>
        <time>2010-04-16T09:32:40Z</time>
      </trkpt>
      <trkpt lat="45.97689" lon="7.55218">
        <ele>3128.27</ele>
        <time>2010-04-16T09:32:53Z</time>
      </trkpt>
      <trkpt lat="45.97692" lon="7.55221">
        <ele>3129.23</ele>
        <time>2010-04-16T09:32:58Z</time>
      </trkpt>
      <trkpt lat="45.97695" lon="7.55225">
        <ele>3129.23</ele>
        <time>2010-04-16T09:33:03Z</time>
      </trkpt>
      <trkpt lat="45.97705" lon="7.5524">
        <ele>3131.15</ele>
        <time>2010-04-16T09:33:20Z</time>
      </trkpt>
      <trkpt lat="45.97714" lon="7.5525">
        <ele>3133.07</ele>
        <time>2010-04-16T09:33:33Z</time>
      </trkpt>
      <trkpt lat="45.97723" lon="7.55261">
        <ele>3135.48</ele>
        <time>2010-04-16T09:33:47Z</time>
      </trkpt>
      <trkpt lat="45.97726" lon="7.55265">
        <ele>3135.48</ele>
        <time>2010-04-16T09:33:52Z</time>
      </trkpt>
      <trkpt lat="45.97736" lon="7.55276">
        <ele>3136.92</ele>
        <time>2010-04-16T09:34:07Z</time>
      </trkpt>
      <trkpt lat="45.97747" lon="7.55288">
        <ele>3138.84</ele>
        <time>2010-04-16T09:34:21Z</time>
      </trkpt>
      <trkpt lat="45.97751" lon="7.55292">
        <ele>3139.32</ele>
        <time>2010-04-16T09:34:26Z</time>
      </trkpt>
      <trkpt lat="45.97757" lon="7.55299">
        <ele>3138.84</ele>
        <time>2010-04-16T09:34:34Z</time>
      </trkpt>
      <trkpt lat="45.97768" lon="7.55312">
        <ele>3140.76</ele>
        <time>2010-04-16T09:34:48Z</time>
      </trkpt>
      <trkpt lat="45.97776" lon="7.55326">
        <ele>3142.21</ele>
        <time>2010-04-16T09:35:01Z</time>
      </trkpt>
      <trkpt lat="45.97785" lon="7.55339">
        <ele>3144.13</ele>
        <time>2010-04-16T09:35:15Z</time>
      </trkpt>
      <trkpt lat="45.9779" lon="7.55344">
        <ele>3145.09</ele>
        <time>2010-04-16T09:35:20Z</time>
      </trkpt>
      <trkpt lat="45.97799" lon="7.55359">
        <ele>3145.57</ele>
        <time>2010-04-16T09:35:35Z</time>
      </trkpt>
      <trkpt lat="45.97802" lon="7.55361">
        <ele>3147.01</ele>
        <time>2010-04-16T09:35:38Z</time>
      </trkpt>
      <trkpt lat="45.97808" lon="7.5537">
        <ele>3146.53</ele>
        <time>2010-04-16T09:35:46Z</time>
      </trkpt>
      <trkpt lat="45.9781" lon="7.55371">
        <ele>3147.97</ele>
        <time>2010-04-16T09:35:49Z</time>
      </trkpt>
      <trkpt lat="45.97814" lon="7.55381">
        <ele>3148.94</ele>
        <time>2010-04-16T09:36:00Z</time>
      </trkpt>
      <trkpt lat="45.97817" lon="7.55385">
        <ele>3148.46</ele>
        <time>2010-04-16T09:36:04Z</time>
      </trkpt>
      <trkpt lat="45.97819" lon="7.55389">
        <ele>3149.9</ele>
        <time>2010-04-16T09:36:08Z</time>
      </trkpt>
      <trkpt lat="45.9782" lon="7.5539">
        <ele>3149.9</ele>
        <time>2010-04-16T09:36:09Z</time>
      </trkpt>
      <trkpt lat="45.97826" lon="7.554">
        <ele>3151.82</ele>
        <time>2010-04-16T09:36:21Z</time>
      </trkpt>
      <trkpt lat="45.97832" lon="7.55411">
        <ele>3152.78</ele>
        <time>2010-04-16T09:36:34Z</time>
      </trkpt>
      <trkpt lat="45.97838" lon="7.55423">
        <ele>3154.22</ele>
        <time>2010-04-16T09:36:48Z</time>
      </trkpt>
      <trkpt lat="45.97845" lon="7.55432">
        <ele>3156.15</ele>
        <time>2010-04-16T09:37:02Z</time>
      </trkpt>
      <trkpt lat="45.97848" lon="7.5544">
        <ele>3157.59</ele>
        <time>2010-04-16T09:37:17Z</time>
      </trkpt>
      <trkpt lat="45.97852" lon="7.55449">
        <ele>3159.03</ele>
        <time>2010-04-16T09:37:30Z</time>
      </trkpt>
      <trkpt lat="45.97857" lon="7.55457">
        <ele>3160.47</ele>
        <time>2010-04-16T09:37:45Z</time>
      </trkpt>
      <trkpt lat="45.97862" lon="7.55465">
        <ele>3162.39</ele>
        <time>2010-04-16T09:37:53Z</time>
      </trkpt>
      <trkpt lat="45.97867" lon="7.55476">
        <ele>3164.8</ele>
        <time>2010-04-16T09:38:03Z</time>
      </trkpt>
      <trkpt lat="45.97869" lon="7.55479">
        <ele>3164.8</ele>
        <time>2010-04-16T09:38:06Z</time>
      </trkpt>
      <trkpt lat="45.97874" lon="7.55489">
        <ele>3166.24</ele>
        <time>2010-04-16T09:38:15Z</time>
      </trkpt>
      <trkpt lat="45.97876" lon="7.55496">
        <ele>3168.16</ele>
        <time>2010-04-16T09:38:20Z</time>
      </trkpt>
      <trkpt lat="45.97877" lon="7.55498">
        <ele>3168.64</ele>
        <time>2010-04-16T09:38:22Z</time>
      </trkpt>
      <trkpt lat="45.97881" lon="7.55511">
        <ele>3172.01</ele>
        <time>2010-04-16T09:38:34Z</time>
      </trkpt>
      <trkpt lat="45.97881" lon="7.55513">
        <ele>3172.01</ele>
        <time>2010-04-16T09:38:50Z</time>
      </trkpt>
      <trkpt lat="45.97882" lon="7.55515">
        <ele>3172.01</ele>
        <time>2010-04-16T09:39:55Z</time>
      </trkpt>
      <trkpt lat="45.97883" lon="7.55515">
        <ele>3172.49</ele>
        <time>2010-04-16T09:39:57Z</time>
      </trkpt>
      <trkpt lat="45.97887" lon="7.55519">
        <ele>3172.97</ele>
        <time>2010-04-16T09:40:01Z</time>
      </trkpt>
      <trkpt lat="45.97889" lon="7.55523">
        <ele>3173.45</ele>
        <time>2010-04-16T09:40:05Z</time>
      </trkpt>
      <trkpt lat="45.9789" lon="7.55524">
        <ele>3173.93</ele>
        <time>2010-04-16T09:40:07Z</time>
      </trkpt>
      <trkpt lat="45.97899" lon="7.55539">
        <ele>3177.78</ele>
        <time>2010-04-16T09:40:21Z</time>
      </trkpt>
      <trkpt lat="45.97905" lon="7.55552">
        <ele>3180.18</ele>
        <time>2010-04-16T09:40:33Z</time>
      </trkpt>
      <trkpt lat="45.97909" lon="7.55559">
        <ele>3181.14</ele>
        <time>2010-04-16T09:40:43Z</time>
      </trkpt>
      <trkpt lat="45.97914" lon="7.55568">
        <ele>3182.58</ele>
        <time>2010-04-16T09:40:55Z</time>
      </trkpt>
      <trkpt lat="45.97919" lon="7.55579">
        <ele>3185.47</ele>
        <time>2010-04-16T09:41:09Z</time>
      </trkpt>
      <trkpt lat="45.97919" lon="7.5558">
        <ele>3185.47</ele>
        <time>2010-04-16T09:41:10Z</time>
      </trkpt>
      <trkpt lat="45.97923" lon="7.55588">
        <ele>3186.43</ele>
        <time>2010-04-16T09:41:21Z</time>
      </trkpt>
      <trkpt lat="45.97927" lon="7.55597">
        <ele>3188.35</ele>
        <time>2010-04-16T09:41:36Z</time>
      </trkpt>
      <trkpt lat="45.97931" lon="7.55606">
        <ele>3189.31</ele>
        <time>2010-04-16T09:41:48Z</time>
      </trkpt>
      <trkpt lat="45.97935" lon="7.55614">
        <ele>3191.23</ele>
        <time>2010-04-16T09:41:59Z</time>
      </trkpt>
      <trkpt lat="45.97939" lon="7.55623">
        <ele>3192.2</ele>
        <time>2010-04-16T09:42:12Z</time>
      </trkpt>
      <trkpt lat="45.97942" lon="7.55628">
        <ele>3193.64</ele>
        <time>2010-04-16T09:42:24Z</time>
      </trkpt>
      <trkpt lat="45.97943" lon="7.55631">
        <ele>3195.08</ele>
        <time>2010-04-16T09:42:28Z</time>
      </trkpt>
      <trkpt lat="45.97948" lon="7.55642">
        <ele>3197.48</ele>
        <time>2010-04-16T09:42:42Z</time>
      </trkpt>
      <trkpt lat="45.97953" lon="7.55654">
        <ele>3197.48</ele>
        <time>2010-04-16T09:43:00Z</time>
      </trkpt>
      <trkpt lat="45.97956" lon="7.55662">
        <ele>3199.89</ele>
        <time>2010-04-16T09:43:11Z</time>
      </trkpt>
      <trkpt lat="45.97957" lon="7.55663">
        <ele>3199.4</ele>
        <time>2010-04-16T09:43:23Z</time>
      </trkpt>
      <trkpt lat="45.97962" lon="7.55672">
        <ele>3200.85</ele>
        <time>2010-04-16T09:43:37Z</time>
      </trkpt>
      <trkpt lat="45.97967" lon="7.55682">
        <ele>3202.29</ele>
        <time>2010-04-16T09:43:49Z</time>
      </trkpt>
      <trkpt lat="45.97971" lon="7.55693">
        <ele>3204.69</ele>
        <time>2010-04-16T09:44:01Z</time>
      </trkpt>
      <trkpt lat="45.97972" lon="7.55697">
        <ele>3205.17</ele>
        <time>2010-04-16T09:44:06Z</time>
      </trkpt>
      <trkpt lat="45.97976" lon="7.55706">
        <ele>3206.61</ele>
        <time>2010-04-16T09:44:18Z</time>
      </trkpt>
      <trkpt lat="45.97979" lon="7.55715">
        <ele>3208.54</ele>
        <time>2010-04-16T09:44:31Z</time>
      </trkpt>
      <trkpt lat="45.97983" lon="7.55724">
        <ele>3208.54</ele>
        <time>2010-04-16T09:44:43Z</time>
      </trkpt>
      <trkpt lat="45.97985" lon="7.55733">
        <ele>3209.98</ele>
        <time>2010-04-16T09:44:53Z</time>
      </trkpt>
      <trkpt lat="45.97988" lon="7.5574">
        <ele>3211.42</ele>
        <time>2010-04-16T09:45:04Z</time>
      </trkpt>
      <trkpt lat="45.97992" lon="7.55751">
        <ele>3214.31</ele>
        <time>2010-04-16T09:45:19Z</time>
      </trkpt>
      <trkpt lat="45.97993" lon="7.55761">
        <ele>3214.79</ele>
        <time>2010-04-16T09:45:31Z</time>
      </trkpt>
      <trkpt lat="45.97995" lon="7.55768">
        <ele>3215.75</ele>
        <time>2010-04-16T09:45:44Z</time>
      </trkpt>
      <trkpt lat="45.97997" lon="7.55775">
        <ele>3217.67</ele>
        <time>2010-04-16T09:46:03Z</time>
      </trkpt>
      <trkpt lat="45.98" lon="7.55788">
        <ele>3218.15</ele>
        <time>2010-04-16T09:46:15Z</time>
      </trkpt>
      <trkpt lat="45.98003" lon="7.55799">
        <ele>3220.07</ele>
        <time>2010-04-16T09:46:28Z</time>
      </trkpt>
      <trkpt lat="45.98007" lon="7.55813">
        <ele>3222</ele>
        <time>2010-04-16T09:46:44Z</time>
      </trkpt>
      <trkpt lat="45.98012" lon="7.55824">
        <ele>3224.4</ele>
        <time>2010-04-16T09:46:57Z</time>
      </trkpt>
      <trkpt lat="45.98015" lon="7.55836">
        <ele>3224.88</ele>
        <time>2010-04-16T09:47:12Z</time>
      </trkpt>
      <trkpt lat="45.98019" lon="7.55847">
        <ele>3226.8</ele>
        <time>2010-04-16T09:47:26Z</time>
      </trkpt>
      <trkpt lat="45.9802" lon="7.55851">
        <ele>3227.28</ele>
        <time>2010-04-16T09:47:30Z</time>
      </trkpt>
      <trkpt lat="45.98025" lon="7.55864">
        <ele>3228.73</ele>
        <time>2010-04-16T09:47:46Z</time>
      </trkpt>
      <trkpt lat="45.98027" lon="7.55869">
        <ele>3229.69</ele>
        <time>2010-04-16T09:47:53Z</time>
      </trkpt>
      <trkpt lat="45.9803" lon="7.55877">
        <ele>3231.13</ele>
        <time>2010-04-16T09:48:04Z</time>
      </trkpt>
      <trkpt lat="45.98034" lon="7.55889">
        <ele>3232.09</ele>
        <time>2010-04-16T09:48:19Z</time>
      </trkpt>
      <trkpt lat="45.98039" lon="7.55901">
        <ele>3234.49</ele>
        <time>2010-04-16T09:48:35Z</time>
      </trkpt>
      <trkpt lat="45.98045" lon="7.5591">
        <ele>3235.45</ele>
        <time>2010-04-16T09:48:49Z</time>
      </trkpt>
      <trkpt lat="45.98049" lon="7.55919">
        <ele>3237.38</ele>
        <time>2010-04-16T09:49:00Z</time>
      </trkpt>
      <trkpt lat="45.98055" lon="7.55931">
        <ele>3237.86</ele>
        <time>2010-04-16T09:49:14Z</time>
      </trkpt>
      <trkpt lat="45.98059" lon="7.55941">
        <ele>3239.78</ele>
        <time>2010-04-16T09:49:27Z</time>
      </trkpt>
      <trkpt lat="45.98063" lon="7.55948">
        <ele>3241.22</ele>
        <time>2010-04-16T09:49:36Z</time>
      </trkpt>
      <trkpt lat="45.98069" lon="7.5596">
        <ele>3242.18</ele>
        <time>2010-04-16T09:49:51Z</time>
      </trkpt>
      <trkpt lat="45.98075" lon="7.5597">
        <ele>3243.14</ele>
        <time>2010-04-16T09:50:04Z</time>
      </trkpt>
      <trkpt lat="45.98081" lon="7.55978">
        <ele>3244.11</ele>
        <time>2010-04-16T09:50:16Z</time>
      </trkpt>
      <trkpt lat="45.98081" lon="7.55979">
        <ele>3243.63</ele>
        <time>2010-04-16T09:50:27Z</time>
      </trkpt>
      <trkpt lat="45.98082" lon="7.5598">
        <ele>3242.66</ele>
        <time>2010-04-16T09:50:36Z</time>
      </trkpt>
      <trkpt lat="45.98082" lon="7.5598">
        <ele>3244.11</ele>
        <time>2010-04-16T09:50:42Z</time>
      </trkpt>
      <trkpt lat="45.98082" lon="7.55979">
        <ele>3243.63</ele>
        <time>2010-04-16T09:50:52Z</time>
      </trkpt>
      <trkpt lat="45.98082" lon="7.55979">
        <ele>3242.18</ele>
        <time>2010-04-16T09:51:07Z</time>
      </trkpt>
      <trkpt lat="45.98082" lon="7.55979">
        <ele>3243.14</ele>
        <time>2010-04-16T09:51:09Z</time>
      </trkpt>
      <trkpt lat="45.98081" lon="7.55979">
        <ele>3244.59</ele>
        <time>2010-04-16T09:51:12Z</time>
      </trkpt>
      <trkpt lat="45.98081" lon="7.55979">
        <ele>3244.11</ele>
        <time>2010-04-16T09:51:30Z</time>
      </trkpt>
      <trkpt lat="45.98081" lon="7.55981">
        <ele>3242.18</ele>
        <time>2010-04-16T09:51:41Z</time>
      </trkpt>
      <trkpt lat="45.98081" lon="7.55981">
        <ele>3241.7</ele>
        <time>2010-04-16T09:52:09Z</time>
      </trkpt>
      <trkpt lat="45.98081" lon="7.55981">
        <ele>3236.9</ele>
        <time>2010-04-16T09:52:23Z</time>
      </trkpt>
      <trkpt lat="45.98081" lon="7.55981">
        <ele>3238.82</ele>
        <time>2010-04-16T09:52:24Z</time>
      </trkpt>
      <trkpt lat="45.98081" lon="7.55981">
        <ele>3241.7</ele>
        <time>2010-04-16T09:52:25Z</time>
      </trkpt>
      <trkpt lat="45.98081" lon="7.55981">
        <ele>3245.07</ele>
        <time>2010-04-16T09:52:29Z</time>
      </trkpt>
      <trkpt lat="45.9808" lon="7.55981">
        <ele>3242.66</ele>
        <time>2010-04-16T09:52:30Z</time>
      </trkpt>
      <trkpt lat="45.98082" lon="7.55979">
        <ele>3246.03</ele>
        <time>2010-04-16T09:52:35Z</time>
      </trkpt>
      <trkpt lat="45.98081" lon="7.5598">
        <ele>3244.11</ele>
        <time>2010-04-16T09:52:38Z</time>
      </trkpt>
      <trkpt lat="45.98082" lon="7.5598">
        <ele>3242.66</ele>
        <time>2010-04-16T09:53:01Z</time>
      </trkpt>
      <trkpt lat="45.98081" lon="7.5598">
        <ele>3243.63</ele>
        <time>2010-04-16T09:53:03Z</time>
      </trkpt>
      <trkpt lat="45.98088" lon="7.5599">
        <ele>3244.59</ele>
        <time>2010-04-16T09:53:15Z</time>
      </trkpt>
      <trkpt lat="45.98091" lon="7.55994">
        <ele>3245.55</ele>
        <time>2010-04-16T09:53:21Z</time>
      </trkpt>
      <trkpt lat="45.98094" lon="7.56">
        <ele>3247.47</ele>
        <time>2010-04-16T09:53:26Z</time>
      </trkpt>
      <trkpt lat="45.98102" lon="7.56012">
        <ele>3248.43</ele>
        <time>2010-04-16T09:53:39Z</time>
      </trkpt>
      <trkpt lat="45.98108" lon="7.56027">
        <ele>3248.43</ele>
        <time>2010-04-16T09:53:53Z</time>
      </trkpt>
      <trkpt lat="45.98115" lon="7.56037">
        <ele>3249.39</ele>
        <time>2010-04-16T09:54:03Z</time>
      </trkpt>
      <trkpt lat="45.98117" lon="7.56042">
        <ele>3250.35</ele>
        <time>2010-04-16T09:54:09Z</time>
      </trkpt>
      <trkpt lat="45.98125" lon="7.56053">
        <ele>3251.32</ele>
        <time>2010-04-16T09:54:21Z</time>
      </trkpt>
      <trkpt lat="45.98131" lon="7.56063">
        <ele>3251.8</ele>
        <time>2010-04-16T09:54:31Z</time>
      </trkpt>
      <trkpt lat="45.98133" lon="7.56065">
        <ele>3251.8</ele>
        <time>2010-04-16T09:54:35Z</time>
      </trkpt>
      <trkpt lat="45.98142" lon="7.56079">
        <ele>3252.76</ele>
        <time>2010-04-16T09:54:50Z</time>
      </trkpt>
      <trkpt lat="45.9815" lon="7.56092">
        <ele>3254.2</ele>
        <time>2010-04-16T09:55:03Z</time>
      </trkpt>
      <trkpt lat="45.98158" lon="7.56107">
        <ele>3255.64</ele>
        <time>2010-04-16T09:55:19Z</time>
      </trkpt>
      <trkpt lat="45.98161" lon="7.56112">
        <ele>3255.64</ele>
        <time>2010-04-16T09:55:23Z</time>
      </trkpt>
      <trkpt lat="45.98168" lon="7.56125">
        <ele>3256.6</ele>
        <time>2010-04-16T09:55:36Z</time>
      </trkpt>
      <trkpt lat="45.98176" lon="7.56138">
        <ele>3257.56</ele>
        <time>2010-04-16T09:55:49Z</time>
      </trkpt>
      <trkpt lat="45.98178" lon="7.56143">
        <ele>3258.05</ele>
        <time>2010-04-16T09:55:53Z</time>
      </trkpt>
      <trkpt lat="45.98186" lon="7.56156">
        <ele>3259.49</ele>
        <time>2010-04-16T09:56:07Z</time>
      </trkpt>
      <trkpt lat="45.98188" lon="7.56159">
        <ele>3259.97</ele>
        <time>2010-04-16T09:56:10Z</time>
      </trkpt>
      <trkpt lat="45.98195" lon="7.56173">
        <ele>3260.93</ele>
        <time>2010-04-16T09:56:24Z</time>
      </trkpt>
      <trkpt lat="45.98199" lon="7.56179">
        <ele>3261.41</ele>
        <time>2010-04-16T09:56:30Z</time>
      </trkpt>
      <trkpt lat="45.98208" lon="7.56189">
        <ele>3262.37</ele>
        <time>2010-04-16T09:56:43Z</time>
      </trkpt>
      <trkpt lat="45.98218" lon="7.56201">
        <ele>3263.81</ele>
        <time>2010-04-16T09:56:58Z</time>
      </trkpt>
      <trkpt lat="45.98227" lon="7.56213">
        <ele>3265.74</ele>
        <time>2010-04-16T09:57:11Z</time>
      </trkpt>
      <trkpt lat="45.98234" lon="7.56224">
        <ele>3267.66</ele>
        <time>2010-04-16T09:57:24Z</time>
      </trkpt>
      <trkpt lat="45.98241" lon="7.56235">
        <ele>3269.1</ele>
        <time>2010-04-16T09:57:36Z</time>
      </trkpt>
      <trkpt lat="45.98242" lon="7.56238">
        <ele>3269.1</ele>
        <time>2010-04-16T09:57:39Z</time>
      </trkpt>
      <trkpt lat="45.98244" lon="7.56244">
        <ele>3270.06</ele>
        <time>2010-04-16T09:57:44Z</time>
      </trkpt>
      <trkpt lat="45.9825" lon="7.56257">
        <ele>3271.5</ele>
        <time>2010-04-16T09:57:57Z</time>
      </trkpt>
      <trkpt lat="45.98252" lon="7.56263">
        <ele>3271.98</ele>
        <time>2010-04-16T09:58:03Z</time>
      </trkpt>
      <trkpt lat="45.98256" lon="7.56271">
        <ele>3273.43</ele>
        <time>2010-04-16T09:58:10Z</time>
      </trkpt>
      <trkpt lat="45.98256" lon="7.56271">
        <ele>3273.43</ele>
        <time>2010-04-16T09:58:11Z</time>
      </trkpt>
      <trkpt lat="45.98263" lon="7.56284">
        <ele>3274.39</ele>
        <time>2010-04-16T09:58:23Z</time>
      </trkpt>
      <trkpt lat="45.98267" lon="7.56297">
        <ele>3275.35</ele>
        <time>2010-04-16T09:58:36Z</time>
      </trkpt>
      <trkpt lat="45.98272" lon="7.56309">
        <ele>3277.27</ele>
        <time>2010-04-16T09:58:49Z</time>
      </trkpt>
      <trkpt lat="45.98275" lon="7.56322">
        <ele>3278.23</ele>
        <time>2010-04-16T09:59:02Z</time>
      </trkpt>
      <trkpt lat="45.98276" lon="7.56335">
        <ele>3280.16</ele>
        <time>2010-04-16T09:59:16Z</time>
      </trkpt>
      <trkpt lat="45.98279" lon="7.56349">
        <ele>3282.56</ele>
        <time>2010-04-16T09:59:31Z</time>
      </trkpt>
      <trkpt lat="45.98282" lon="7.56363">
        <ele>3284</ele>
        <time>2010-04-16T09:59:47Z</time>
      </trkpt>
      <trkpt lat="45.98285" lon="7.56375">
        <ele>3285.44</ele>
        <time>2010-04-16T10:00:00Z</time>
      </trkpt>
      <trkpt lat="45.98285" lon="7.56378">
        <ele>3284.96</ele>
        <time>2010-04-16T10:00:03Z</time>
      </trkpt>
      <trkpt lat="45.98285" lon="7.56381">
        <ele>3285.92</ele>
        <time>2010-04-16T10:00:05Z</time>
      </trkpt>
      <trkpt lat="45.98286" lon="7.56393">
        <ele>3287.37</ele>
        <time>2010-04-16T10:00:15Z</time>
      </trkpt>
      <trkpt lat="45.98286" lon="7.564">
        <ele>3287.85</ele>
        <time>2010-04-16T10:00:20Z</time>
      </trkpt>
      <trkpt lat="45.98287" lon="7.56411">
        <ele>3288.81</ele>
        <time>2010-04-16T10:00:28Z</time>
      </trkpt>
      <trkpt lat="45.98288" lon="7.56416">
        <ele>3289.77</ele>
        <time>2010-04-16T10:00:32Z</time>
      </trkpt>
      <trkpt lat="45.98291" lon="7.5643">
        <ele>3291.69</ele>
        <time>2010-04-16T10:00:46Z</time>
      </trkpt>
      <trkpt lat="45.98293" lon="7.56442">
        <ele>3293.13</ele>
        <time>2010-04-16T10:00:59Z</time>
      </trkpt>
      <trkpt lat="45.98294" lon="7.5645">
        <ele>3295.06</ele>
        <time>2010-04-16T10:01:11Z</time>
      </trkpt>
      <trkpt lat="45.98301" lon="7.56457">
        <ele>3296.5</ele>
        <time>2010-04-16T10:01:25Z</time>
      </trkpt>
      <trkpt lat="45.98307" lon="7.56467">
        <ele>3299.38</ele>
        <time>2010-04-16T10:01:42Z</time>
      </trkpt>
      <trkpt lat="45.98313" lon="7.56477">
        <ele>3301.3</ele>
        <time>2010-04-16T10:01:55Z</time>
      </trkpt>
      <trkpt lat="45.98318" lon="7.56488">
        <ele>3302.75</ele>
        <time>2010-04-16T10:02:13Z</time>
      </trkpt>
      <trkpt lat="45.98318" lon="7.565">
        <ele>3304.19</ele>
        <time>2010-04-16T10:02:28Z</time>
      </trkpt>
      <trkpt lat="45.98317" lon="7.56508">
        <ele>3304.67</ele>
        <time>2010-04-16T10:02:42Z</time>
      </trkpt>
      <trkpt lat="45.98316" lon="7.56515">
        <ele>3306.59</ele>
        <time>2010-04-16T10:02:52Z</time>
      </trkpt>
      <trkpt lat="45.98314" lon="7.56526">
        <ele>3307.07</ele>
        <time>2010-04-16T10:03:05Z</time>
      </trkpt>
      <trkpt lat="45.98311" lon="7.56539">
        <ele>3309.96</ele>
        <time>2010-04-16T10:03:19Z</time>
      </trkpt>
      <trkpt lat="45.98313" lon="7.5655">
        <ele>3311.88</ele>
        <time>2010-04-16T10:03:34Z</time>
      </trkpt>
      <trkpt lat="45.98318" lon="7.56559">
        <ele>3313.8</ele>
        <time>2010-04-16T10:03:52Z</time>
      </trkpt>
      <trkpt lat="45.98323" lon="7.56567">
        <ele>3316.21</ele>
        <time>2010-04-16T10:04:09Z</time>
      </trkpt>
      <trkpt lat="45.98325" lon="7.56578">
        <ele>3318.13</ele>
        <time>2010-04-16T10:04:24Z</time>
      </trkpt>
      <trkpt lat="45.98325" lon="7.56583">
        <ele>3319.09</ele>
        <time>2010-04-16T10:04:28Z</time>
      </trkpt>
      <trkpt lat="45.98323" lon="7.56593">
        <ele>3320.53</ele>
        <time>2010-04-16T10:04:41Z</time>
      </trkpt>
      <trkpt lat="45.9832" lon="7.56605">
        <ele>3321.97</ele>
        <time>2010-04-16T10:04:54Z</time>
      </trkpt>
      <trkpt lat="45.9832" lon="7.56617">
        <ele>3323.42</ele>
        <time>2010-04-16T10:05:09Z</time>
      </trkpt>
      <trkpt lat="45.98319" lon="7.56627">
        <ele>3325.34</ele>
        <time>2010-04-16T10:05:23Z</time>
      </trkpt>
      <trkpt lat="45.98318" lon="7.56636">
        <ele>3326.78</ele>
        <time>2010-04-16T10:05:37Z</time>
      </trkpt>
      <trkpt lat="45.98318" lon="7.56651">
        <ele>3328.22</ele>
        <time>2010-04-16T10:05:52Z</time>
      </trkpt>
      <trkpt lat="45.98319" lon="7.56663">
        <ele>3330.14</ele>
        <time>2010-04-16T10:06:05Z</time>
      </trkpt>
      <trkpt lat="45.98318" lon="7.5667">
        <ele>3331.59</ele>
        <time>2010-04-16T10:06:17Z</time>
      </trkpt>
      <trkpt lat="45.98318" lon="7.56681">
        <ele>3332.55</ele>
        <time>2010-04-16T10:06:31Z</time>
      </trkpt>
      <trkpt lat="45.98321" lon="7.5669">
        <ele>3334.47</ele>
        <time>2010-04-16T10:06:47Z</time>
      </trkpt>
      <trkpt lat="45.98324" lon="7.56706">
        <ele>3337.35</ele>
        <time>2010-04-16T10:07:04Z</time>
      </trkpt>
      <trkpt lat="45.98327" lon="7.56715">
        <ele>3338.32</ele>
        <time>2010-04-16T10:07:18Z</time>
      </trkpt>
      <trkpt lat="45.98327" lon="7.56728">
        <ele>3339.76</ele>
        <time>2010-04-16T10:07:33Z</time>
      </trkpt>
      <trkpt lat="45.98328" lon="7.56738">
        <ele>3341.68</ele>
        <time>2010-04-16T10:07:46Z</time>
      </trkpt>
      <trkpt lat="45.98328" lon="7.56749">
        <ele>3342.64</ele>
        <time>2010-04-16T10:08:01Z</time>
      </trkpt>
      <trkpt lat="45.9833" lon="7.56759">
        <ele>3344.08</ele>
        <time>2010-04-16T10:08:16Z</time>
      </trkpt>
      <trkpt lat="45.98331" lon="7.56767">
        <ele>3346.49</ele>
        <time>2010-04-16T10:08:29Z</time>
      </trkpt>
      <trkpt lat="45.98331" lon="7.56779">
        <ele>3349.37</ele>
        <time>2010-04-16T10:08:44Z</time>
      </trkpt>
      <trkpt lat="45.98331" lon="7.56781">
        <ele>3349.85</ele>
        <time>2010-04-16T10:08:45Z</time>
      </trkpt>
      <trkpt lat="45.9833" lon="7.56788">
        <ele>3349.85</ele>
        <time>2010-04-16T10:08:52Z</time>
      </trkpt>
      <trkpt lat="45.98326" lon="7.56802">
        <ele>3350.33</ele>
        <time>2010-04-16T10:09:07Z</time>
      </trkpt>
      <trkpt lat="45.98325" lon="7.56806">
        <ele>3349.37</ele>
        <time>2010-04-16T10:09:19Z</time>
      </trkpt>
      <trkpt lat="45.98325" lon="7.56807">
        <ele>3350.33</ele>
        <time>2010-04-16T10:09:25Z</time>
      </trkpt>
      <trkpt lat="45.98327" lon="7.56812">
        <ele>3350.33</ele>
        <time>2010-04-16T10:09:31Z</time>
      </trkpt>
      <trkpt lat="45.98328" lon="7.56826">
        <ele>3352.25</ele>
        <time>2010-04-16T10:09:45Z</time>
      </trkpt>
      <trkpt lat="45.98329" lon="7.56841">
        <ele>3354.18</ele>
        <time>2010-04-16T10:10:02Z</time>
      </trkpt>
      <trkpt lat="45.98331" lon="7.56852">
        <ele>3355.62</ele>
        <time>2010-04-16T10:10:13Z</time>
      </trkpt>
      <trkpt lat="45.98331" lon="7.56853">
        <ele>3355.14</ele>
        <time>2010-04-16T10:10:14Z</time>
      </trkpt>
      <trkpt lat="45.98334" lon="7.56861">
        <ele>3356.58</ele>
        <time>2010-04-16T10:10:29Z</time>
      </trkpt>
      <trkpt lat="45.98334" lon="7.56862">
        <ele>3356.58</ele>
        <time>2010-04-16T10:10:30Z</time>
      </trkpt>
      <trkpt lat="45.98337" lon="7.56876">
        <ele>3357.54</ele>
        <time>2010-04-16T10:10:45Z</time>
      </trkpt>
      <trkpt lat="45.98339" lon="7.56879">
        <ele>3358.98</ele>
        <time>2010-04-16T10:10:48Z</time>
      </trkpt>
      <trkpt lat="45.98341" lon="7.56888">
        <ele>3359.95</ele>
        <time>2010-04-16T10:11:01Z</time>
      </trkpt>
      <trkpt lat="45.98345" lon="7.56899">
        <ele>3361.87</ele>
        <time>2010-04-16T10:11:14Z</time>
      </trkpt>
      <trkpt lat="45.9835" lon="7.56913">
        <ele>3363.31</ele>
        <time>2010-04-16T10:11:32Z</time>
      </trkpt>
      <trkpt lat="45.98358" lon="7.56925">
        <ele>3365.71</ele>
        <time>2010-04-16T10:11:47Z</time>
      </trkpt>
      <trkpt lat="45.98359" lon="7.56931">
        <ele>3365.71</ele>
        <time>2010-04-16T10:11:59Z</time>
      </trkpt>
      <trkpt lat="45.98363" lon="7.56939">
        <ele>3366.67</ele>
        <time>2010-04-16T10:12:13Z</time>
      </trkpt>
      <trkpt lat="45.98366" lon="7.56948">
        <ele>3368.12</ele>
        <time>2010-04-16T10:12:25Z</time>
      </trkpt>
      <trkpt lat="45.98369" lon="7.56955">
        <ele>3368.6</ele>
        <time>2010-04-16T10:12:38Z</time>
      </trkpt>
      <trkpt lat="45.98376" lon="7.56968">
        <ele>3369.56</ele>
        <time>2010-04-16T10:12:55Z</time>
      </trkpt>
      <trkpt lat="45.9838" lon="7.56976">
        <ele>3371</ele>
        <time>2010-04-16T10:13:07Z</time>
      </trkpt>
      <trkpt lat="45.98387" lon="7.56986">
        <ele>3372.44</ele>
        <time>2010-04-16T10:13:22Z</time>
      </trkpt>
      <trkpt lat="45.98393" lon="7.56994">
        <ele>3372.92</ele>
        <time>2010-04-16T10:13:33Z</time>
      </trkpt>
      <trkpt lat="45.98399" lon="7.57003">
        <ele>3374.85</ele>
        <time>2010-04-16T10:13:47Z</time>
      </trkpt>
      <trkpt lat="45.98405" lon="7.57017">
        <ele>3376.29</ele>
        <time>2010-04-16T10:14:03Z</time>
      </trkpt>
      <trkpt lat="45.98409" lon="7.57027">
        <ele>3377.25</ele>
        <time>2010-04-16T10:14:16Z</time>
      </trkpt>
      <trkpt lat="45.98409" lon="7.57027">
        <ele>3377.25</ele>
        <time>2010-04-16T10:14:17Z</time>
      </trkpt>
      <trkpt lat="45.98415" lon="7.57038">
        <ele>3378.69</ele>
        <time>2010-04-16T10:14:31Z</time>
      </trkpt>
      <trkpt lat="45.98417" lon="7.57047">
        <ele>3380.13</ele>
        <time>2010-04-16T10:14:42Z</time>
      </trkpt>
      <trkpt lat="45.9842" lon="7.57057">
        <ele>3381.09</ele>
        <time>2010-04-16T10:14:57Z</time>
      </trkpt>
      <trkpt lat="45.98423" lon="7.57066">
        <ele>3382.54</ele>
        <time>2010-04-16T10:15:09Z</time>
      </trkpt>
      <trkpt lat="45.98424" lon="7.57069">
        <ele>3383.5</ele>
        <time>2010-04-16T10:15:22Z</time>
      </trkpt>
      <trkpt lat="45.98427" lon="7.57079">
        <ele>3384.94</ele>
        <time>2010-04-16T10:15:35Z</time>
      </trkpt>
      <trkpt lat="45.98429" lon="7.57092">
        <ele>3386.38</ele>
        <time>2010-04-16T10:15:49Z</time>
      </trkpt>
      <trkpt lat="45.98433" lon="7.57099">
        <ele>3386.86</ele>
        <time>2010-04-16T10:15:59Z</time>
      </trkpt>
      <trkpt lat="45.98436" lon="7.57107">
        <ele>3389.27</ele>
        <time>2010-04-16T10:16:12Z</time>
      </trkpt>
      <trkpt lat="45.98438" lon="7.57113">
        <ele>3390.23</ele>
        <time>2010-04-16T10:16:25Z</time>
      </trkpt>
      <trkpt lat="45.98442" lon="7.57119">
        <ele>3392.63</ele>
        <time>2010-04-16T10:16:40Z</time>
      </trkpt>
      <trkpt lat="45.98441" lon="7.57121">
        <ele>3392.63</ele>
        <time>2010-04-16T10:16:41Z</time>
      </trkpt>
      <trkpt lat="45.98447" lon="7.57129">
        <ele>3393.59</ele>
        <time>2010-04-16T10:16:56Z</time>
      </trkpt>
      <trkpt lat="45.98452" lon="7.57138">
        <ele>3395.03</ele>
        <time>2010-04-16T10:17:09Z</time>
      </trkpt>
      <trkpt lat="45.98455" lon="7.57147">
        <ele>3397.44</ele>
        <time>2010-04-16T10:17:22Z</time>
      </trkpt>
      <trkpt lat="45.98457" lon="7.57154">
        <ele>3398.4</ele>
        <time>2010-04-16T10:17:31Z</time>
      </trkpt>
      <trkpt lat="45.98461" lon="7.57161">
        <ele>3399.36</ele>
        <time>2010-04-16T10:17:44Z</time>
      </trkpt>
      <trkpt lat="45.98462" lon="7.57166">
        <ele>3400.32</ele>
        <time>2010-04-16T10:17:56Z</time>
      </trkpt>
      <trkpt lat="45.98464" lon="7.57171">
        <ele>3401.76</ele>
        <time>2010-04-16T10:18:08Z</time>
      </trkpt>
      <trkpt lat="45.98462" lon="7.57181">
        <ele>3403.2</ele>
        <time>2010-04-16T10:18:27Z</time>
      </trkpt>
      <trkpt lat="45.98461" lon="7.57192">
        <ele>3405.13</ele>
        <time>2010-04-16T10:18:41Z</time>
      </trkpt>
      <trkpt lat="45.9846" lon="7.57197">
        <ele>3406.09</ele>
        <time>2010-04-16T10:18:46Z</time>
      </trkpt>
      <trkpt lat="45.98461" lon="7.57203">
        <ele>3407.53</ele>
        <time>2010-04-16T10:18:58Z</time>
      </trkpt>
      <trkpt lat="45.9846" lon="7.57203">
        <ele>3405.61</ele>
        <time>2010-04-16T10:19:25Z</time>
      </trkpt>
      <trkpt lat="45.9846" lon="7.57203">
        <ele>3407.05</ele>
        <time>2010-04-16T10:19:29Z</time>
      </trkpt>
      <trkpt lat="45.9846" lon="7.57203">
        <ele>3406.09</ele>
        <time>2010-04-16T10:19:33Z</time>
      </trkpt>
      <trkpt lat="45.9846" lon="7.57203">
        <ele>3405.13</ele>
        <time>2010-04-16T10:20:14Z</time>
      </trkpt>
      <trkpt lat="45.9846" lon="7.57203">
        <ele>3406.09</ele>
        <time>2010-04-16T10:20:16Z</time>
      </trkpt>
      <trkpt lat="45.98461" lon="7.57204">
        <ele>3403.2</ele>
        <time>2010-04-16T10:21:43Z</time>
      </trkpt>
      <trkpt lat="45.98461" lon="7.57204">
        <ele>3406.57</ele>
        <time>2010-04-16T10:21:44Z</time>
      </trkpt>
      <trkpt lat="45.98461" lon="7.57204">
        <ele>3405.61</ele>
        <time>2010-04-16T10:21:45Z</time>
      </trkpt>
      <trkpt lat="45.9846" lon="7.57204">
        <ele>3407.05</ele>
        <time>2010-04-16T10:22:03Z</time>
      </trkpt>
      <trkpt lat="45.9846" lon="7.57205">
        <ele>3407.05</ele>
        <time>2010-04-16T10:22:40Z</time>
      </trkpt>
      <trkpt lat="45.9846" lon="7.57206">
        <ele>3408.01</ele>
        <time>2010-04-16T10:22:53Z</time>
      </trkpt>
      <trkpt lat="45.9846" lon="7.57206">
        <ele>3406.57</ele>
        <time>2010-04-16T10:23:39Z</time>
      </trkpt>
      <trkpt lat="45.98465" lon="7.57211">
        <ele>3408.49</ele>
        <time>2010-04-16T10:24:01Z</time>
      </trkpt>
      <trkpt lat="45.98471" lon="7.57221">
        <ele>3409.45</ele>
        <time>2010-04-16T10:24:14Z</time>
      </trkpt>
      <trkpt lat="45.98475" lon="7.57231">
        <ele>3411.38</ele>
        <time>2010-04-16T10:24:28Z</time>
      </trkpt>
      <trkpt lat="45.98478" lon="7.57238">
        <ele>3413.3</ele>
        <time>2010-04-16T10:24:36Z</time>
      </trkpt>
      <trkpt lat="45.98478" lon="7.57242">
        <ele>3412.82</ele>
        <time>2010-04-16T10:24:41Z</time>
      </trkpt>
      <trkpt lat="45.98483" lon="7.57253">
        <ele>3416.18</ele>
        <time>2010-04-16T10:25:00Z</time>
      </trkpt>
      <trkpt lat="45.98489" lon="7.57264">
        <ele>3418.59</ele>
        <time>2010-04-16T10:25:16Z</time>
      </trkpt>
      <trkpt lat="45.98488" lon="7.57274">
        <ele>3419.55</ele>
        <time>2010-04-16T10:25:27Z</time>
      </trkpt>
      <trkpt lat="45.98487" lon="7.5728">
        <ele>3422.91</ele>
        <time>2010-04-16T10:25:41Z</time>
      </trkpt>
      <trkpt lat="45.98487" lon="7.57281">
        <ele>3422.91</ele>
        <time>2010-04-16T10:25:42Z</time>
      </trkpt>
      <trkpt lat="45.98491" lon="7.57289">
        <ele>3424.35</ele>
        <time>2010-04-16T10:25:56Z</time>
      </trkpt>
      <trkpt lat="45.98491" lon="7.57289">
        <ele>3424.35</ele>
        <time>2010-04-16T10:25:57Z</time>
      </trkpt>
      <trkpt lat="45.98498" lon="7.57295">
        <ele>3425.8</ele>
        <time>2010-04-16T10:26:11Z</time>
      </trkpt>
      <trkpt lat="45.98506" lon="7.57302">
        <ele>3427.24</ele>
        <time>2010-04-16T10:26:25Z</time>
      </trkpt>
      <trkpt lat="45.98507" lon="7.57303">
        <ele>3427.24</ele>
        <time>2010-04-16T10:26:27Z</time>
      </trkpt>
      <trkpt lat="45.98517" lon="7.57306">
        <ele>3429.64</ele>
        <time>2010-04-16T10:26:42Z</time>
      </trkpt>
      <trkpt lat="45.98524" lon="7.57307">
        <ele>3431.08</ele>
        <time>2010-04-16T10:26:55Z</time>
      </trkpt>
      <trkpt lat="45.98534" lon="7.57309">
        <ele>3433.01</ele>
        <time>2010-04-16T10:27:12Z</time>
      </trkpt>
      <trkpt lat="45.98547" lon="7.57307">
        <ele>3435.41</ele>
        <time>2010-04-16T10:27:28Z</time>
      </trkpt>
      <trkpt lat="45.98554" lon="7.57305">
        <ele>3436.85</ele>
        <time>2010-04-16T10:27:40Z</time>
      </trkpt>
      <trkpt lat="45.98561" lon="7.57303">
        <ele>3439.73</ele>
        <time>2010-04-16T10:27:55Z</time>
      </trkpt>
      <trkpt lat="45.98565" lon="7.573">
        <ele>3439.73</ele>
        <time>2010-04-16T10:28:10Z</time>
      </trkpt>
      <trkpt lat="45.98572" lon="7.57296">
        <ele>3442.14</ele>
        <time>2010-04-16T10:28:37Z</time>
      </trkpt>
      <trkpt lat="45.98577" lon="7.57294">
        <ele>3443.58</ele>
        <time>2010-04-16T10:28:43Z</time>
      </trkpt>
      <trkpt lat="45.98585" lon="7.57291">
        <ele>3445.5</ele>
        <time>2010-04-16T10:28:56Z</time>
      </trkpt>
      <trkpt lat="45.98584" lon="7.57292">
        <ele>3446.46</ele>
        <time>2010-04-16T10:29:04Z</time>
      </trkpt>
      <trkpt lat="45.98583" lon="7.57303">
        <ele>3447.91</ele>
        <time>2010-04-16T10:29:16Z</time>
      </trkpt>
      <trkpt lat="45.98583" lon="7.57309">
        <ele>3449.35</ele>
        <time>2010-04-16T10:29:26Z</time>
      </trkpt>
      <trkpt lat="45.98582" lon="7.5731">
        <ele>3451.27</ele>
        <time>2010-04-16T10:29:30Z</time>
      </trkpt>
      <trkpt lat="45.9858" lon="7.57317">
        <ele>3452.23</ele>
        <time>2010-04-16T10:29:41Z</time>
      </trkpt>
      <trkpt lat="45.98581" lon="7.57323">
        <ele>3455.12</ele>
        <time>2010-04-16T10:29:52Z</time>
      </trkpt>
      <trkpt lat="45.98581" lon="7.57328">
        <ele>3456.08</ele>
        <time>2010-04-16T10:30:00Z</time>
      </trkpt>
      <trkpt lat="45.98581" lon="7.57339">
        <ele>3458</ele>
        <time>2010-04-16T10:30:13Z</time>
      </trkpt>
      <trkpt lat="45.98579" lon="7.57344">
        <ele>3459.92</ele>
        <time>2010-04-16T10:30:27Z</time>
      </trkpt>
      <trkpt lat="45.98578" lon="7.57354">
        <ele>3461.36</ele>
        <time>2010-04-16T10:30:43Z</time>
      </trkpt>
      <trkpt lat="45.98575" lon="7.57366">
        <ele>3463.77</ele>
        <time>2010-04-16T10:30:53Z</time>
      </trkpt>
      <trkpt lat="45.98569" lon="7.57376">
        <ele>3464.73</ele>
        <time>2010-04-16T10:31:06Z</time>
      </trkpt>
      <trkpt lat="45.98566" lon="7.57382">
        <ele>3466.17</ele>
        <time>2010-04-16T10:31:18Z</time>
      </trkpt>
      <trkpt lat="45.98563" lon="7.57388">
        <ele>3467.61</ele>
        <time>2010-04-16T10:31:30Z</time>
      </trkpt>
      <trkpt lat="45.98559" lon="7.57393">
        <ele>3468.57</ele>
        <time>2010-04-16T10:31:42Z</time>
      </trkpt>
      <trkpt lat="45.98557" lon="7.574">
        <ele>3469.54</ele>
        <time>2010-04-16T10:31:56Z</time>
      </trkpt>
      <trkpt lat="45.98554" lon="7.57404">
        <ele>3471.46</ele>
        <time>2010-04-16T10:32:07Z</time>
      </trkpt>
      <trkpt lat="45.98549" lon="7.57411">
        <ele>3472.42</ele>
        <time>2010-04-16T10:32:19Z</time>
      </trkpt>
      <trkpt lat="45.98546" lon="7.57416">
        <ele>3473.38</ele>
        <time>2010-04-16T10:32:32Z</time>
      </trkpt>
      <trkpt lat="45.98544" lon="7.5742">
        <ele>3474.34</ele>
        <time>2010-04-16T10:32:46Z</time>
      </trkpt>
      <trkpt lat="45.98542" lon="7.57427">
        <ele>3475.78</ele>
        <time>2010-04-16T10:32:59Z</time>
      </trkpt>
      <trkpt lat="45.9854" lon="7.57432">
        <ele>3476.75</ele>
        <time>2010-04-16T10:33:14Z</time>
      </trkpt>
      <trkpt lat="45.98538" lon="7.57437">
        <ele>3478.19</ele>
        <time>2010-04-16T10:33:27Z</time>
      </trkpt>
      <trkpt lat="45.98535" lon="7.57439">
        <ele>3479.63</ele>
        <time>2010-04-16T10:33:39Z</time>
      </trkpt>
      <trkpt lat="45.9853" lon="7.57444">
        <ele>3481.07</ele>
        <time>2010-04-16T10:33:53Z</time>
      </trkpt>
      <trkpt lat="45.98527" lon="7.5745">
        <ele>3483.47</ele>
        <time>2010-04-16T10:34:07Z</time>
      </trkpt>
      <trkpt lat="45.98529" lon="7.57456">
        <ele>3485.4</ele>
        <time>2010-04-16T10:34:19Z</time>
      </trkpt>
      <trkpt lat="45.98535" lon="7.57465">
        <ele>3487.32</ele>
        <time>2010-04-16T10:34:36Z</time>
      </trkpt>
      <trkpt lat="45.98539" lon="7.5747">
        <ele>3488.28</ele>
        <time>2010-04-16T10:34:49Z</time>
      </trkpt>
      <trkpt lat="45.98543" lon="7.57477">
        <ele>3490.2</ele>
        <time>2010-04-16T10:35:03Z</time>
      </trkpt>
      <trkpt lat="45.98543" lon="7.57483">
        <ele>3491.65</ele>
        <time>2010-04-16T10:35:14Z</time>
      </trkpt>
      <trkpt lat="45.98539" lon="7.57488">
        <ele>3493.09</ele>
        <time>2010-04-16T10:35:31Z</time>
      </trkpt>
      <trkpt lat="45.98535" lon="7.57492">
        <ele>3495.01</ele>
        <time>2010-04-16T10:35:46Z</time>
      </trkpt>
      <trkpt lat="45.98531" lon="7.57499">
        <ele>3496.93</ele>
        <time>2010-04-16T10:36:00Z</time>
      </trkpt>
      <trkpt lat="45.98531" lon="7.57505">
        <ele>3497.89</ele>
        <time>2010-04-16T10:36:15Z</time>
      </trkpt>
      <trkpt lat="45.98532" lon="7.57513">
        <ele>3498.38</ele>
        <time>2010-04-16T10:36:26Z</time>
      </trkpt>
      <trkpt lat="45.98533" lon="7.5752">
        <ele>3500.3</ele>
        <time>2010-04-16T10:36:37Z</time>
      </trkpt>
      <trkpt lat="45.98532" lon="7.57529">
        <ele>3501.74</ele>
        <time>2010-04-16T10:36:49Z</time>
      </trkpt>
      <trkpt lat="45.9853" lon="7.57536">
        <ele>3504.14</ele>
        <time>2010-04-16T10:37:02Z</time>
      </trkpt>
      <trkpt lat="45.9853" lon="7.57543">
        <ele>3504.62</ele>
        <time>2010-04-16T10:37:14Z</time>
      </trkpt>
      <trkpt lat="45.98527" lon="7.5755">
        <ele>3505.58</ele>
        <time>2010-04-16T10:37:25Z</time>
      </trkpt>
      <trkpt lat="45.98526" lon="7.57555">
        <ele>3506.55</ele>
        <time>2010-04-16T10:37:36Z</time>
      </trkpt>
      <trkpt lat="45.98526" lon="7.57558">
        <ele>3507.51</ele>
        <time>2010-04-16T10:37:53Z</time>
      </trkpt>
      <trkpt lat="45.98526" lon="7.57558">
        <ele>3509.91</ele>
        <time>2010-04-16T10:38:11Z</time>
      </trkpt>
      <trkpt lat="45.98525" lon="7.57564">
        <ele>3510.39</ele>
        <time>2010-04-16T10:38:23Z</time>
      </trkpt>
      <trkpt lat="45.98524" lon="7.57573">
        <ele>3510.87</ele>
        <time>2010-04-16T10:38:35Z</time>
      </trkpt>
      <trkpt lat="45.98524" lon="7.57575">
        <ele>3512.31</ele>
        <time>2010-04-16T10:38:38Z</time>
      </trkpt>
      <trkpt lat="45.98523" lon="7.5758">
        <ele>3512.79</ele>
        <time>2010-04-16T10:38:51Z</time>
      </trkpt>
      <trkpt lat="45.98524" lon="7.57586">
        <ele>3514.24</ele>
        <time>2010-04-16T10:39:06Z</time>
      </trkpt>
      <trkpt lat="45.98523" lon="7.57593">
        <ele>3517.12</ele>
        <time>2010-04-16T10:39:32Z</time>
      </trkpt>
      <trkpt lat="45.98523" lon="7.57593">
        <ele>3519.52</ele>
        <time>2010-04-16T10:39:44Z</time>
      </trkpt>
      <trkpt lat="45.98518" lon="7.57607">
        <ele>3520.97</ele>
        <time>2010-04-16T10:39:58Z</time>
      </trkpt>
      <trkpt lat="45.98516" lon="7.5761">
        <ele>3523.37</ele>
        <time>2010-04-16T10:40:16Z</time>
      </trkpt>
      <trkpt lat="45.98517" lon="7.57627">
        <ele>3526.73</ele>
        <time>2010-04-16T10:40:35Z</time>
      </trkpt>
      <trkpt lat="45.9852" lon="7.57642">
        <ele>3528.18</ele>
        <time>2010-04-16T10:40:49Z</time>
      </trkpt>
      <trkpt lat="45.9852" lon="7.57644">
        <ele>3528.18</ele>
        <time>2010-04-16T10:41:08Z</time>
      </trkpt>
      <trkpt lat="45.98519" lon="7.57653">
        <ele>3530.58</ele>
        <time>2010-04-16T10:41:28Z</time>
      </trkpt>
      <trkpt lat="45.9852" lon="7.5766">
        <ele>3532.02</ele>
        <time>2010-04-16T10:41:39Z</time>
      </trkpt>
      <trkpt lat="45.98523" lon="7.57666">
        <ele>3533.94</ele>
        <time>2010-04-16T10:41:52Z</time>
      </trkpt>
      <trkpt lat="45.9853" lon="7.5767">
        <ele>3535.39</ele>
        <time>2010-04-16T10:42:08Z</time>
      </trkpt>
      <trkpt lat="45.98535" lon="7.57681">
        <ele>3538.75</ele>
        <time>2010-04-16T10:42:24Z</time>
      </trkpt>
      <trkpt lat="45.98541" lon="7.57692">
        <ele>3541.63</ele>
        <time>2010-04-16T10:42:38Z</time>
      </trkpt>
      <trkpt lat="45.98543" lon="7.57699">
        <ele>3543.08</ele>
        <time>2010-04-16T10:42:52Z</time>
      </trkpt>
      <trkpt lat="45.98546" lon="7.57708">
        <ele>3545.96</ele>
        <time>2010-04-16T10:43:09Z</time>
      </trkpt>
      <trkpt lat="45.9855" lon="7.57716">
        <ele>3547.88</ele>
        <time>2010-04-16T10:43:20Z</time>
      </trkpt>
      <trkpt lat="45.98556" lon="7.57723">
        <ele>3550.77</ele>
        <time>2010-04-16T10:43:33Z</time>
      </trkpt>
      <trkpt lat="45.98555" lon="7.5773">
        <ele>3551.25</ele>
        <time>2010-04-16T10:43:48Z</time>
      </trkpt>
      <trkpt lat="45.98559" lon="7.57743">
        <ele>3553.17</ele>
        <time>2010-04-16T10:44:05Z</time>
      </trkpt>
      <trkpt lat="45.98566" lon="7.57754">
        <ele>3555.09</ele>
        <time>2010-04-16T10:44:22Z</time>
      </trkpt>
      <trkpt lat="45.98568" lon="7.57757">
        <ele>3557.5</ele>
        <time>2010-04-16T10:44:35Z</time>
      </trkpt>
      <trkpt lat="45.98572" lon="7.57766">
        <ele>3557.5</ele>
        <time>2010-04-16T10:44:49Z</time>
      </trkpt>
      <trkpt lat="45.98577" lon="7.5778">
        <ele>3558.94</ele>
        <time>2010-04-16T10:45:05Z</time>
      </trkpt>
      <trkpt lat="45.98578" lon="7.57784">
        <ele>3558.94</ele>
        <time>2010-04-16T10:45:10Z</time>
      </trkpt>
      <trkpt lat="45.98588" lon="7.57793">
        <ele>3559.9</ele>
        <time>2010-04-16T10:45:25Z</time>
      </trkpt>
      <trkpt lat="45.98596" lon="7.57802">
        <ele>3560.38</ele>
        <time>2010-04-16T10:45:40Z</time>
      </trkpt>
      <trkpt lat="45.98597" lon="7.57815">
        <ele>3561.34</ele>
        <time>2010-04-16T10:45:53Z</time>
      </trkpt>
      <trkpt lat="45.98596" lon="7.5783">
        <ele>3561.82</ele>
        <time>2010-04-16T10:46:07Z</time>
      </trkpt>
      <trkpt lat="45.98597" lon="7.57833">
        <ele>3562.3</ele>
        <time>2010-04-16T10:46:11Z</time>
      </trkpt>
      <trkpt lat="45.98604" lon="7.57846">
        <ele>3563.26</ele>
        <time>2010-04-16T10:46:26Z</time>
      </trkpt>
      <trkpt lat="45.98601" lon="7.57857">
        <ele>3562.78</ele>
        <time>2010-04-16T10:46:40Z</time>
      </trkpt>
      <trkpt lat="45.98596" lon="7.5787">
        <ele>3563.74</ele>
        <time>2010-04-16T10:46:54Z</time>
      </trkpt>
      <trkpt lat="45.98593" lon="7.57874">
        <ele>3564.71</ele>
        <time>2010-04-16T10:47:01Z</time>
      </trkpt>
      <trkpt lat="45.98594" lon="7.57878">
        <ele>3564.23</ele>
        <time>2010-04-16T10:47:15Z</time>
      </trkpt>
      <trkpt lat="45.98592" lon="7.5788">
        <ele>3566.15</ele>
        <time>2010-04-16T10:47:48Z</time>
      </trkpt>
      <trkpt lat="45.98592" lon="7.5788">
        <ele>3563.26</ele>
        <time>2010-04-16T10:47:53Z</time>
      </trkpt>
      <trkpt lat="45.98592" lon="7.5788">
        <ele>3562.3</ele>
        <time>2010-04-16T10:48:53Z</time>
      </trkpt>
      <trkpt lat="45.98592" lon="7.5788">
        <ele>3562.3</ele>
        <time>2010-04-16T10:49:02Z</time>
      </trkpt>
      <trkpt lat="45.98594" lon="7.57879">
        <ele>3561.82</ele>
        <time>2010-04-16T10:54:49Z</time>
      </trkpt>
      <trkpt lat="45.98593" lon="7.5788">
        <ele>3558.46</ele>
        <time>2010-04-16T10:58:42Z</time>
      </trkpt>
      <trkpt lat="45.98593" lon="7.5788">
        <ele>3558.46</ele>
        <time>2010-04-16T10:59:30Z</time>
      </trkpt>
      <trkpt lat="45.98593" lon="7.57881">
        <ele>3558.46</ele>
        <time>2010-04-16T11:00:26Z</time>
      </trkpt>
      <trkpt lat="45.98593" lon="7.5788">
        <ele>3559.42</ele>
        <time>2010-04-16T11:01:48Z</time>
      </trkpt>
      <trkpt lat="45.98592" lon="7.57881">
        <ele>3557.98</ele>
        <time>2010-04-16T11:04:48Z</time>
      </trkpt>
      <trkpt lat="45.98593" lon="7.57881">
        <ele>3557.02</ele>
        <time>2010-04-16T11:05:51Z</time>
      </trkpt>
      <trkpt lat="45.98593" lon="7.57881">
        <ele>3557.98</ele>
        <time>2010-04-16T11:06:15Z</time>
      </trkpt>
      <trkpt lat="45.98593" lon="7.5788">
        <ele>3557.02</ele>
        <time>2010-04-16T11:07:20Z</time>
      </trkpt>
      <trkpt lat="45.98593" lon="7.5788">
        <ele>3558.46</ele>
        <time>2010-04-16T11:08:29Z</time>
      </trkpt>
      <trkpt lat="45.98595" lon="7.5788">
        <ele>3557.5</ele>
        <time>2010-04-16T11:13:13Z</time>
      </trkpt>
      <trkpt lat="45.98595" lon="7.5788">
        <ele>3558.94</ele>
        <time>2010-04-16T11:13:22Z</time>
      </trkpt>
      <trkpt lat="45.98595" lon="7.5788">
        <ele>3555.57</ele>
        <time>2010-04-16T11:13:28Z</time>
      </trkpt>
      <trkpt lat="45.98595" lon="7.5788">
        <ele>3558.94</ele>
        <time>2010-04-16T11:13:29Z</time>
      </trkpt>
      <trkpt lat="45.98594" lon="7.57882">
        <ele>3555.09</ele>
        <time>2010-04-16T11:13:31Z</time>
      </trkpt>
      <trkpt lat="45.98594" lon="7.57882">
        <ele>3554.13</ele>
        <time>2010-04-16T11:13:41Z</time>
      </trkpt>
      <trkpt lat="45.98594" lon="7.57882">
        <ele>3555.57</ele>
        <time>2010-04-16T11:13:43Z</time>
      </trkpt>
      <trkpt lat="45.98593" lon="7.57883">
        <ele>3557.5</ele>
        <time>2010-04-16T11:16:24Z</time>
      </trkpt>
      <trkpt lat="45.98593" lon="7.57884">
        <ele>3554.13</ele>
        <time>2010-04-16T11:17:42Z</time>
      </trkpt>
      <trkpt lat="45.98593" lon="7.57884">
        <ele>3554.61</ele>
        <time>2010-04-16T11:17:43Z</time>
      </trkpt>
      <trkpt lat="45.98593" lon="7.57884">
        <ele>3557.5</ele>
        <time>2010-04-16T11:17:44Z</time>
      </trkpt>
      <trkpt lat="45.98593" lon="7.57884">
        <ele>3560.86</ele>
        <time>2010-04-16T11:17:45Z</time>
      </trkpt>
      <trkpt lat="45.98593" lon="7.57884">
        <ele>3547.4</ele>
        <time>2010-04-16T11:17:46Z</time>
      </trkpt>
      <trkpt lat="45.98593" lon="7.57884">
        <ele>3556.53</ele>
        <time>2010-04-16T11:17:47Z</time>
      </trkpt>
      <trkpt lat="45.98593" lon="7.57884">
        <ele>3553.17</ele>
        <time>2010-04-16T11:17:48Z</time>
      </trkpt>
      <trkpt lat="45.98593" lon="7.57884">
        <ele>3556.53</ele>
        <time>2010-04-16T11:17:49Z</time>
      </trkpt>
      <trkpt lat="45.98593" lon="7.57884">
        <ele>3557.5</ele>
        <time>2010-04-16T11:17:51Z</time>
      </trkpt>
      <trkpt lat="45.98593" lon="7.57884">
        <ele>3558.46</ele>
        <time>2010-04-16T11:17:53Z</time>
      </trkpt>
      <trkpt lat="45.98593" lon="7.57884">
        <ele>3557.02</ele>
        <time>2010-04-16T11:17:55Z</time>
      </trkpt>
      <trkpt lat="45.98593" lon="7.57884">
        <ele>3555.09</ele>
        <time>2010-04-16T11:17:58Z</time>
      </trkpt>
      <trkpt lat="45.98593" lon="7.57885">
        <ele>3557.5</ele>
        <time>2010-04-16T11:18:02Z</time>
      </trkpt>
      <trkpt lat="45.98593" lon="7.57885">
        <ele>3553.17</ele>
        <time>2010-04-16T11:18:06Z</time>
      </trkpt>
      <trkpt lat="45.98593" lon="7.57885">
        <ele>3556.53</ele>
        <time>2010-04-16T11:18:07Z</time>
      </trkpt>
      <trkpt lat="45.98593" lon="7.57885">
        <ele>3548.84</ele>
        <time>2010-04-16T11:18:08Z</time>
      </trkpt>
      <trkpt lat="45.98593" lon="7.57884">
        <ele>3542.12</ele>
        <time>2010-04-16T11:18:09Z</time>
      </trkpt>
      <trkpt lat="45.98593" lon="7.57884">
        <ele>3556.05</ele>
        <time>2010-04-16T11:18:10Z</time>
      </trkpt>
      <trkpt lat="45.98593" lon="7.57884">
        <ele>3555.57</ele>
        <time>2010-04-16T11:18:11Z</time>
      </trkpt>
      <trkpt lat="45.98593" lon="7.57884">
        <ele>3561.82</ele>
        <time>2010-04-16T11:18:12Z</time>
      </trkpt>
      <trkpt lat="45.98593" lon="7.57884">
        <ele>3559.42</ele>
        <time>2010-04-16T11:18:15Z</time>
      </trkpt>
      <trkpt lat="45.98593" lon="7.57883">
        <ele>3557.02</ele>
        <time>2010-04-16T11:18:17Z</time>
      </trkpt>
      <trkpt lat="45.98593" lon="7.57883">
        <ele>3557.02</ele>
        <time>2010-04-16T11:18:41Z</time>
      </trkpt>
      <trkpt lat="45.98594" lon="7.57884">
        <ele>3555.57</ele>
        <time>2010-04-16T11:19:19Z</time>
      </trkpt>
      <trkpt lat="45.98593" lon="7.57883">
        <ele>3557.02</ele>
        <time>2010-04-16T11:21:00Z</time>
      </trkpt>
      <trkpt lat="45.98593" lon="7.57883">
        <ele>3556.53</ele>
        <time>2010-04-16T11:21:13Z</time>
      </trkpt>
      <trkpt lat="45.98593" lon="7.57883">
        <ele>3557.02</ele>
        <time>2010-04-16T11:21:51Z</time>
      </trkpt>
      <trkpt lat="45.98593" lon="7.57884">
        <ele>3557.5</ele>
        <time>2010-04-16T11:22:21Z</time>
      </trkpt>
      <trkpt lat="45.98594" lon="7.57884">
        <ele>3557.98</ele>
        <time>2010-04-16T11:22:31Z</time>
      </trkpt>
      <trkpt lat="45.98594" lon="7.57884">
        <ele>3557.5</ele>
        <time>2010-04-16T11:22:41Z</time>
      </trkpt>
      <trkpt lat="45.98594" lon="7.57883">
        <ele>3557.98</ele>
        <time>2010-04-16T11:22:55Z</time>
      </trkpt>
      <trkpt lat="45.98594" lon="7.57883">
        <ele>3558.46</ele>
        <time>2010-04-16T11:22:56Z</time>
      </trkpt>
      <trkpt lat="45.98594" lon="7.57883">
        <ele>3557.98</ele>
        <time>2010-04-16T11:23:17Z</time>
      </trkpt>
      <trkpt lat="45.98594" lon="7.57883">
        <ele>3558.94</ele>
        <time>2010-04-16T11:23:49Z</time>
      </trkpt>
      <trkpt lat="45.98593" lon="7.57882">
        <ele>3558.46</ele>
        <time>2010-04-16T11:24:18Z</time>
      </trkpt>
      <trkpt lat="45.98593" lon="7.57882">
        <ele>3557.5</ele>
        <time>2010-04-16T11:24:31Z</time>
      </trkpt>
      <trkpt lat="45.98593" lon="7.57882">
        <ele>3557.5</ele>
        <time>2010-04-16T11:24:34Z</time>
      </trkpt>
      <trkpt lat="45.98591" lon="7.57885">
        <ele>3558.46</ele>
        <time>2010-04-16T11:24:45Z</time>
      </trkpt>
      <trkpt lat="45.98591" lon="7.57885">
        <ele>3558.46</ele>
        <time>2010-04-16T11:25:14Z</time>
      </trkpt>
      <trkpt lat="45.98591" lon="7.57885">
        <ele>3558.46</ele>
        <time>2010-04-16T11:25:24Z</time>
      </trkpt>
      <trkpt lat="45.98591" lon="7.57885">
        <ele>3558.46</ele>
        <time>2010-04-16T11:25:52Z</time>
      </trkpt>
      <trkpt lat="45.98591" lon="7.57885">
        <ele>3557.98</ele>
        <time>2010-04-16T11:26:18Z</time>
      </trkpt>
      <trkpt lat="45.98602" lon="7.5791">
        <ele>3557.5</ele>
        <time>2010-04-16T11:26:29Z</time>
      </trkpt>
      <trkpt lat="45.98604" lon="7.57914">
        <ele>3556.53</ele>
        <time>2010-04-16T11:26:31Z</time>
      </trkpt>
      <trkpt lat="45.98619" lon="7.5795">
        <ele>3553.17</ele>
        <time>2010-04-16T11:26:41Z</time>
      </trkpt>
      <trkpt lat="45.98622" lon="7.57955">
        <ele>3553.65</ele>
        <time>2010-04-16T11:26:42Z</time>
      </trkpt>
      <trkpt lat="45.98639" lon="7.57997">
        <ele>3549.81</ele>
        <time>2010-04-16T11:26:49Z</time>
      </trkpt>
      <trkpt lat="45.98641" lon="7.58003">
        <ele>3549.81</ele>
        <time>2010-04-16T11:26:50Z</time>
      </trkpt>
      <trkpt lat="45.98658" lon="7.58047">
        <ele>3545.96</ele>
        <time>2010-04-16T11:26:57Z</time>
      </trkpt>
      <trkpt lat="45.98667" lon="7.58067">
        <ele>3545</ele>
        <time>2010-04-16T11:27:00Z</time>
      </trkpt>
      <trkpt lat="45.98677" lon="7.58089">
        <ele>3541.15</ele>
        <time>2010-04-16T11:27:04Z</time>
      </trkpt>
      <trkpt lat="45.98693" lon="7.58123">
        <ele>3537.79</ele>
        <time>2010-04-16T11:27:12Z</time>
      </trkpt>
      <trkpt lat="45.98708" lon="7.58151">
        <ele>3535.39</ele>
        <time>2010-04-16T11:27:19Z</time>
      </trkpt>
      <trkpt lat="45.98716" lon="7.58174">
        <ele>3533.46</ele>
        <time>2010-04-16T11:27:23Z</time>
      </trkpt>
      <trkpt lat="45.98726" lon="7.58198">
        <ele>3530.1</ele>
        <time>2010-04-16T11:27:27Z</time>
      </trkpt>
      <trkpt lat="45.98733" lon="7.58219">
        <ele>3527.21</ele>
        <time>2010-04-16T11:27:30Z</time>
      </trkpt>
      <trkpt lat="45.98739" lon="7.5823">
        <ele>3524.33</ele>
        <time>2010-04-16T11:27:32Z</time>
      </trkpt>
      <trkpt lat="45.98754" lon="7.58251">
        <ele>3520</ele>
        <time>2010-04-16T11:27:36Z</time>
      </trkpt>
      <trkpt lat="45.98762" lon="7.58263">
        <ele>3518.56</ele>
        <time>2010-04-16T11:27:38Z</time>
      </trkpt>
      <trkpt lat="45.9877" lon="7.58275">
        <ele>3517.12</ele>
        <time>2010-04-16T11:27:40Z</time>
      </trkpt>
      <trkpt lat="45.98782" lon="7.58295">
        <ele>3513.76</ele>
        <time>2010-04-16T11:27:43Z</time>
      </trkpt>
      <trkpt lat="45.98786" lon="7.58302">
        <ele>3513.28</ele>
        <time>2010-04-16T11:27:44Z</time>
      </trkpt>
      <trkpt lat="45.98807" lon="7.58327">
        <ele>3509.43</ele>
        <time>2010-04-16T11:27:48Z</time>
      </trkpt>
      <trkpt lat="45.98821" lon="7.58346">
        <ele>3506.07</ele>
        <time>2010-04-16T11:27:51Z</time>
      </trkpt>
      <trkpt lat="45.98834" lon="7.58368">
        <ele>3503.18</ele>
        <time>2010-04-16T11:27:54Z</time>
      </trkpt>
      <trkpt lat="45.9884" lon="7.58385">
        <ele>3500.3</ele>
        <time>2010-04-16T11:27:56Z</time>
      </trkpt>
      <trkpt lat="45.98846" lon="7.58399">
        <ele>3498.86</ele>
        <time>2010-04-16T11:27:58Z</time>
      </trkpt>
      <trkpt lat="45.98855" lon="7.58423">
        <ele>3495.49</ele>
        <time>2010-04-16T11:28:01Z</time>
      </trkpt>
      <trkpt lat="45.98859" lon="7.58439">
        <ele>3491.65</ele>
        <time>2010-04-16T11:28:04Z</time>
      </trkpt>
      <trkpt lat="45.98859" lon="7.58439">
        <ele>3490.68</ele>
        <time>2010-04-16T11:28:06Z</time>
      </trkpt>
      <trkpt lat="45.98859" lon="7.58439">
        <ele>3490.68</ele>
        <time>2010-04-16T11:28:24Z</time>
      </trkpt>
      <trkpt lat="45.98859" lon="7.58441">
        <ele>3490.68</ele>
        <time>2010-04-16T11:28:36Z</time>
      </trkpt>
      <trkpt lat="45.98858" lon="7.58441">
        <ele>3491.17</ele>
        <time>2010-04-16T11:28:47Z</time>
      </trkpt>
      <trkpt lat="45.98858" lon="7.58441">
        <ele>3490.68</ele>
        <time>2010-04-16T11:29:22Z</time>
      </trkpt>
      <trkpt lat="45.98858" lon="7.58442">
        <ele>3490.2</ele>
        <time>2010-04-16T11:29:42Z</time>
      </trkpt>
      <trkpt lat="45.98858" lon="7.58443">
        <ele>3491.17</ele>
        <time>2010-04-16T11:29:53Z</time>
      </trkpt>
      <trkpt lat="45.98862" lon="7.5845">
        <ele>3489.72</ele>
        <time>2010-04-16T11:29:56Z</time>
      </trkpt>
      <trkpt lat="45.98866" lon="7.58473">
        <ele>3487.8</ele>
        <time>2010-04-16T11:30:00Z</time>
      </trkpt>
      <trkpt lat="45.9887" lon="7.58482">
        <ele>3485.88</ele>
        <time>2010-04-16T11:30:02Z</time>
      </trkpt>
      <trkpt lat="45.98873" lon="7.58498">
        <ele>3481.55</ele>
        <time>2010-04-16T11:30:05Z</time>
      </trkpt>
      <trkpt lat="45.98875" lon="7.58502">
        <ele>3482.51</ele>
        <time>2010-04-16T11:30:06Z</time>
      </trkpt>
      <trkpt lat="45.98881" lon="7.58508">
        <ele>3478.67</ele>
        <time>2010-04-16T11:30:08Z</time>
      </trkpt>
      <trkpt lat="45.98888" lon="7.58513">
        <ele>3475.78</ele>
        <time>2010-04-16T11:30:10Z</time>
      </trkpt>
      <trkpt lat="45.98895" lon="7.58517">
        <ele>3474.82</ele>
        <time>2010-04-16T11:30:12Z</time>
      </trkpt>
      <trkpt lat="45.98901" lon="7.58521">
        <ele>3473.38</ele>
        <time>2010-04-16T11:30:14Z</time>
      </trkpt>
      <trkpt lat="45.98906" lon="7.58537">
        <ele>3471.46</ele>
        <time>2010-04-16T11:30:17Z</time>
      </trkpt>
      <trkpt lat="45.98904" lon="7.58548">
        <ele>3470.02</ele>
        <time>2010-04-16T11:30:19Z</time>
      </trkpt>
      <trkpt lat="45.98903" lon="7.58574">
        <ele>3465.69</ele>
        <time>2010-04-16T11:30:24Z</time>
      </trkpt>
      <trkpt lat="45.98915" lon="7.58585">
        <ele>3461.36</ele>
        <time>2010-04-16T11:30:28Z</time>
      </trkpt>
      <trkpt lat="45.98916" lon="7.58589">
        <ele>3461.84</ele>
        <time>2010-04-16T11:30:29Z</time>
      </trkpt>
      <trkpt lat="45.9892" lon="7.58594">
        <ele>3458.48</ele>
        <time>2010-04-16T11:30:31Z</time>
      </trkpt>
      <trkpt lat="45.98922" lon="7.58594">
        <ele>3458</ele>
        <time>2010-04-16T11:30:33Z</time>
      </trkpt>
      <trkpt lat="45.98922" lon="7.58595">
        <ele>3458</ele>
        <time>2010-04-16T11:30:49Z</time>
      </trkpt>
      <trkpt lat="45.98922" lon="7.58595">
        <ele>3458</ele>
        <time>2010-04-16T11:31:06Z</time>
      </trkpt>
      <trkpt lat="45.98922" lon="7.58595">
        <ele>3458</ele>
        <time>2010-04-16T11:31:24Z</time>
      </trkpt>
      <trkpt lat="45.98922" lon="7.58594">
        <ele>3458</ele>
        <time>2010-04-16T11:31:43Z</time>
      </trkpt>
      <trkpt lat="45.98924" lon="7.58595">
        <ele>3458</ele>
        <time>2010-04-16T11:31:59Z</time>
      </trkpt>
      <trkpt lat="45.98934" lon="7.58617">
        <ele>3453.67</ele>
        <time>2010-04-16T11:32:04Z</time>
      </trkpt>
      <trkpt lat="45.98938" lon="7.58615">
        <ele>3453.19</ele>
        <time>2010-04-16T11:32:05Z</time>
      </trkpt>
      <trkpt lat="45.98956" lon="7.58636">
        <ele>3445.98</ele>
        <time>2010-04-16T11:32:12Z</time>
      </trkpt>
      <trkpt lat="45.9897" lon="7.58656">
        <ele>3440.21</ele>
        <time>2010-04-16T11:32:17Z</time>
      </trkpt>
      <trkpt lat="45.98978" lon="7.58668">
        <ele>3436.37</ele>
        <time>2010-04-16T11:32:20Z</time>
      </trkpt>
      <trkpt lat="45.98985" lon="7.58674">
        <ele>3433.49</ele>
        <time>2010-04-16T11:32:22Z</time>
      </trkpt>
      <trkpt lat="45.98999" lon="7.58665">
        <ele>3429.64</ele>
        <time>2010-04-16T11:32:25Z</time>
      </trkpt>
      <trkpt lat="45.99004" lon="7.5866">
        <ele>3428.2</ele>
        <time>2010-04-16T11:32:26Z</time>
      </trkpt>
      <trkpt lat="45.99017" lon="7.58643">
        <ele>3426.28</ele>
        <time>2010-04-16T11:32:29Z</time>
      </trkpt>
      <trkpt lat="45.99027" lon="7.58633">
        <ele>3422.91</ele>
        <time>2010-04-16T11:32:31Z</time>
      </trkpt>
      <trkpt lat="45.99042" lon="7.58615">
        <ele>3419.07</ele>
        <time>2010-04-16T11:32:35Z</time>
      </trkpt>
      <trkpt lat="45.99046" lon="7.58611">
        <ele>3418.59</ele>
        <time>2010-04-16T11:32:37Z</time>
      </trkpt>
      <trkpt lat="45.99047" lon="7.5861">
        <ele>3418.1</ele>
        <time>2010-04-16T11:32:45Z</time>
      </trkpt>
      <trkpt lat="45.99058" lon="7.58623">
        <ele>3413.3</ele>
        <time>2010-04-16T11:32:51Z</time>
      </trkpt>
      <trkpt lat="45.99064" lon="7.58631">
        <ele>3408.01</ele>
        <time>2010-04-16T11:32:53Z</time>
      </trkpt>
      <trkpt lat="45.99069" lon="7.58642">
        <ele>3404.17</ele>
        <time>2010-04-16T11:32:55Z</time>
      </trkpt>
      <trkpt lat="45.99072" lon="7.58648">
        <ele>3400.8</ele>
        <time>2010-04-16T11:32:56Z</time>
      </trkpt>
      <trkpt lat="45.99083" lon="7.58672">
        <ele>3393.11</ele>
        <time>2010-04-16T11:33:00Z</time>
      </trkpt>
      <trkpt lat="45.99091" lon="7.58681">
        <ele>3389.27</ele>
        <time>2010-04-16T11:33:02Z</time>
      </trkpt>
      <trkpt lat="45.99094" lon="7.58686">
        <ele>3384.94</ele>
        <time>2010-04-16T11:33:03Z</time>
      </trkpt>
      <trkpt lat="45.99097" lon="7.58691">
        <ele>3383.5</ele>
        <time>2010-04-16T11:33:04Z</time>
      </trkpt>
      <trkpt lat="45.99113" lon="7.58717">
        <ele>3374.36</ele>
        <time>2010-04-16T11:33:08Z</time>
      </trkpt>
      <trkpt lat="45.99123" lon="7.58732">
        <ele>3370.52</ele>
        <time>2010-04-16T11:33:10Z</time>
      </trkpt>
      <trkpt lat="45.99127" lon="7.58739">
        <ele>3368.6</ele>
        <time>2010-04-16T11:33:11Z</time>
      </trkpt>
      <trkpt lat="45.99136" lon="7.58754">
        <ele>3364.27</ele>
        <time>2010-04-16T11:33:13Z</time>
      </trkpt>
      <trkpt lat="45.99146" lon="7.58776">
        <ele>3359.46</ele>
        <time>2010-04-16T11:33:16Z</time>
      </trkpt>
      <trkpt lat="45.99161" lon="7.58806">
        <ele>3354.66</ele>
        <time>2010-04-16T11:33:21Z</time>
      </trkpt>
      <trkpt lat="45.99174" lon="7.58831">
        <ele>3351.77</ele>
        <time>2010-04-16T11:33:26Z</time>
      </trkpt>
      <trkpt lat="45.99181" lon="7.58848">
        <ele>3350.33</ele>
        <time>2010-04-16T11:33:29Z</time>
      </trkpt>
      <trkpt lat="45.99188" lon="7.58866">
        <ele>3348.41</ele>
        <time>2010-04-16T11:33:32Z</time>
      </trkpt>
      <trkpt lat="45.99193" lon="7.58876">
        <ele>3347.45</ele>
        <time>2010-04-16T11:33:34Z</time>
      </trkpt>
      <trkpt lat="45.99197" lon="7.58888">
        <ele>3346.97</ele>
        <time>2010-04-16T11:33:36Z</time>
      </trkpt>
      <trkpt lat="45.99199" lon="7.58897">
        <ele>3344.08</ele>
        <time>2010-04-16T11:33:40Z</time>
      </trkpt>
      <trkpt lat="45.99199" lon="7.58897">
        <ele>3344.08</ele>
        <time>2010-04-16T11:33:52Z</time>
      </trkpt>
      <trkpt lat="45.99199" lon="7.58897">
        <ele>3344.08</ele>
        <time>2010-04-16T11:34:14Z</time>
      </trkpt>
      <trkpt lat="45.992" lon="7.58898">
        <ele>3344.08</ele>
        <time>2010-04-16T11:34:16Z</time>
      </trkpt>
      <trkpt lat="45.99204" lon="7.58931">
        <ele>3341.68</ele>
        <time>2010-04-16T11:34:28Z</time>
      </trkpt>
      <trkpt lat="45.99208" lon="7.58952">
        <ele>3339.76</ele>
        <time>2010-04-16T11:34:32Z</time>
      </trkpt>
      <trkpt lat="45.99211" lon="7.58967">
        <ele>3338.8</ele>
        <time>2010-04-16T11:34:34Z</time>
      </trkpt>
      <trkpt lat="45.99224" lon="7.58996">
        <ele>3334.47</ele>
        <time>2010-04-16T11:34:39Z</time>
      </trkpt>
      <trkpt lat="45.99232" lon="7.59016">
        <ele>3330.14</ele>
        <time>2010-04-16T11:34:42Z</time>
      </trkpt>
      <trkpt lat="45.99242" lon="7.59019">
        <ele>3327.26</ele>
        <time>2010-04-16T11:34:44Z</time>
      </trkpt>
      <trkpt lat="45.99252" lon="7.5902">
        <ele>3325.34</ele>
        <time>2010-04-16T11:34:46Z</time>
      </trkpt>
      <trkpt lat="45.9927" lon="7.59026">
        <ele>3320.53</ele>
        <time>2010-04-16T11:34:50Z</time>
      </trkpt>
      <trkpt lat="45.99275" lon="7.59039">
        <ele>3316.69</ele>
        <time>2010-04-16T11:34:52Z</time>
      </trkpt>
      <trkpt lat="45.99281" lon="7.59055">
        <ele>3311.88</ele>
        <time>2010-04-16T11:34:55Z</time>
      </trkpt>
      <trkpt lat="45.99288" lon="7.59066">
        <ele>3308.51</ele>
        <time>2010-04-16T11:34:57Z</time>
      </trkpt>
      <trkpt lat="45.99299" lon="7.59083">
        <ele>3304.19</ele>
        <time>2010-04-16T11:35:00Z</time>
      </trkpt>
      <trkpt lat="45.99307" lon="7.59091">
        <ele>3299.86</ele>
        <time>2010-04-16T11:35:02Z</time>
      </trkpt>
      <trkpt lat="45.9932" lon="7.59107">
        <ele>3294.58</ele>
        <time>2010-04-16T11:35:05Z</time>
      </trkpt>
      <trkpt lat="45.99337" lon="7.59129">
        <ele>3286.4</ele>
        <time>2010-04-16T11:35:09Z</time>
      </trkpt>
      <trkpt lat="45.99349" lon="7.59151">
        <ele>3281.12</ele>
        <time>2010-04-16T11:35:12Z</time>
      </trkpt>
      <trkpt lat="45.99359" lon="7.59164">
        <ele>3275.35</ele>
        <time>2010-04-16T11:35:14Z</time>
      </trkpt>
      <trkpt lat="45.9937" lon="7.59175">
        <ele>3269.1</ele>
        <time>2010-04-16T11:35:16Z</time>
      </trkpt>
      <trkpt lat="45.99386" lon="7.59194">
        <ele>3262.85</ele>
        <time>2010-04-16T11:35:19Z</time>
      </trkpt>
      <trkpt lat="45.99393" lon="7.59201">
        <ele>3261.41</ele>
        <time>2010-04-16T11:35:20Z</time>
      </trkpt>
      <trkpt lat="45.99411" lon="7.59221">
        <ele>3253.72</ele>
        <time>2010-04-16T11:35:23Z</time>
      </trkpt>
      <trkpt lat="45.99417" lon="7.59226">
        <ele>3251.32</ele>
        <time>2010-04-16T11:35:24Z</time>
      </trkpt>
      <trkpt lat="45.99441" lon="7.59241">
        <ele>3245.55</ele>
        <time>2010-04-16T11:35:28Z</time>
      </trkpt>
      <trkpt lat="45.99452" lon="7.5925">
        <ele>3239.78</ele>
        <time>2010-04-16T11:35:30Z</time>
      </trkpt>
      <trkpt lat="45.99456" lon="7.59256">
        <ele>3239.78</ele>
        <time>2010-04-16T11:35:31Z</time>
      </trkpt>
      <trkpt lat="45.99463" lon="7.59267">
        <ele>3235.45</ele>
        <time>2010-04-16T11:35:33Z</time>
      </trkpt>
      <trkpt lat="45.99466" lon="7.59272">
        <ele>3233.05</ele>
        <time>2010-04-16T11:35:34Z</time>
      </trkpt>
      <trkpt lat="45.99472" lon="7.59294">
        <ele>3229.69</ele>
        <time>2010-04-16T11:35:38Z</time>
      </trkpt>
      <trkpt lat="45.9947" lon="7.59297">
        <ele>3227.76</ele>
        <time>2010-04-16T11:35:46Z</time>
      </trkpt>
      <trkpt lat="45.99471" lon="7.59298">
        <ele>3227.76</ele>
        <time>2010-04-16T11:36:04Z</time>
      </trkpt>
      <trkpt lat="45.99471" lon="7.593">
        <ele>3228.24</ele>
        <time>2010-04-16T11:36:35Z</time>
      </trkpt>
      <trkpt lat="45.99468" lon="7.59316">
        <ele>3226.32</ele>
        <time>2010-04-16T11:36:41Z</time>
      </trkpt>
      <trkpt lat="45.99466" lon="7.59324">
        <ele>3226.32</ele>
        <time>2010-04-16T11:36:43Z</time>
      </trkpt>
      <trkpt lat="45.9946" lon="7.59335">
        <ele>3224.4</ele>
        <time>2010-04-16T11:36:48Z</time>
      </trkpt>
      <trkpt lat="45.99464" lon="7.59344">
        <ele>3222.96</ele>
        <time>2010-04-16T11:36:51Z</time>
      </trkpt>
      <trkpt lat="45.99479" lon="7.59359">
        <ele>3218.63</ele>
        <time>2010-04-16T11:36:55Z</time>
      </trkpt>
      <trkpt lat="45.99485" lon="7.59381">
        <ele>3214.79</ele>
        <time>2010-04-16T11:36:58Z</time>
      </trkpt>
      <trkpt lat="45.99485" lon="7.59397">
        <ele>3210.94</ele>
        <time>2010-04-16T11:37:00Z</time>
      </trkpt>
      <trkpt lat="45.99471" lon="7.59419">
        <ele>3205.65</ele>
        <time>2010-04-16T11:37:04Z</time>
      </trkpt>
      <trkpt lat="45.99466" lon="7.59421">
        <ele>3203.73</ele>
        <time>2010-04-16T11:37:05Z</time>
      </trkpt>
      <trkpt lat="45.99429" lon="7.59422">
        <ele>3199.4</ele>
        <time>2010-04-16T11:37:12Z</time>
      </trkpt>
      <trkpt lat="45.99391" lon="7.59428">
        <ele>3195.56</ele>
        <time>2010-04-16T11:37:19Z</time>
      </trkpt>
      <trkpt lat="45.99355" lon="7.5945">
        <ele>3191.71</ele>
        <time>2010-04-16T11:37:24Z</time>
      </trkpt>
      <trkpt lat="45.99346" lon="7.59472">
        <ele>3188.83</ele>
        <time>2010-04-16T11:37:26Z</time>
      </trkpt>
      <trkpt lat="45.99333" lon="7.59505">
        <ele>3184.5</ele>
        <time>2010-04-16T11:37:29Z</time>
      </trkpt>
      <trkpt lat="45.99326" lon="7.59525">
        <ele>3181.62</ele>
        <time>2010-04-16T11:37:31Z</time>
      </trkpt>
      <trkpt lat="45.99312" lon="7.59562">
        <ele>3177.29</ele>
        <time>2010-04-16T11:37:35Z</time>
      </trkpt>
      <trkpt lat="45.99304" lon="7.59577">
        <ele>3173.93</ele>
        <time>2010-04-16T11:37:37Z</time>
      </trkpt>
      <trkpt lat="45.993" lon="7.59584">
        <ele>3173.93</ele>
        <time>2010-04-16T11:37:38Z</time>
      </trkpt>
      <trkpt lat="45.99288" lon="7.59604">
        <ele>3171.05</ele>
        <time>2010-04-16T11:37:41Z</time>
      </trkpt>
      <trkpt lat="45.99272" lon="7.59621">
        <ele>3167.68</ele>
        <time>2010-04-16T11:37:49Z</time>
      </trkpt>
      <trkpt lat="45.99272" lon="7.59621">
        <ele>3167.2</ele>
        <time>2010-04-16T11:37:53Z</time>
      </trkpt>
      <trkpt lat="45.99261" lon="7.59641">
        <ele>3165.28</ele>
        <time>2010-04-16T11:37:59Z</time>
      </trkpt>
      <trkpt lat="45.99249" lon="7.59653">
        <ele>3160.95</ele>
        <time>2010-04-16T11:38:06Z</time>
      </trkpt>
      <trkpt lat="45.99237" lon="7.59674">
        <ele>3157.11</ele>
        <time>2010-04-16T11:38:12Z</time>
      </trkpt>
      <trkpt lat="45.9923" lon="7.59681">
        <ele>3153.74</ele>
        <time>2010-04-16T11:38:14Z</time>
      </trkpt>
      <trkpt lat="45.99231" lon="7.59684">
        <ele>3151.82</ele>
        <time>2010-04-16T11:38:17Z</time>
      </trkpt>
      <trkpt lat="45.9923" lon="7.59685">
        <ele>3152.3</ele>
        <time>2010-04-16T11:38:22Z</time>
      </trkpt>
      <trkpt lat="45.99209" lon="7.59711">
        <ele>3148.94</ele>
        <time>2010-04-16T11:38:28Z</time>
      </trkpt>
      <trkpt lat="45.99204" lon="7.59718">
        <ele>3148.46</ele>
        <time>2010-04-16T11:38:29Z</time>
      </trkpt>
      <trkpt lat="45.99187" lon="7.59743">
        <ele>3145.09</ele>
        <time>2010-04-16T11:38:32Z</time>
      </trkpt>
      <trkpt lat="45.99164" lon="7.59767">
        <ele>3140.76</ele>
        <time>2010-04-16T11:38:36Z</time>
      </trkpt>
      <trkpt lat="45.99159" lon="7.59771">
        <ele>3140.28</ele>
        <time>2010-04-16T11:38:37Z</time>
      </trkpt>
      <trkpt lat="45.99138" lon="7.59785">
        <ele>3135.96</ele>
        <time>2010-04-16T11:38:41Z</time>
      </trkpt>
      <trkpt lat="45.99134" lon="7.59786">
        <ele>3135</ele>
        <time>2010-04-16T11:38:42Z</time>
      </trkpt>
      <trkpt lat="45.99129" lon="7.59787">
        <ele>3131.63</ele>
        <time>2010-04-16T11:38:53Z</time>
      </trkpt>
      <trkpt lat="45.99129" lon="7.59787">
        <ele>3132.59</ele>
        <time>2010-04-16T11:38:55Z</time>
      </trkpt>
      <trkpt lat="45.99129" lon="7.59787">
        <ele>3132.11</ele>
        <time>2010-04-16T11:39:21Z</time>
      </trkpt>
      <trkpt lat="45.99129" lon="7.59787">
        <ele>3132.11</ele>
        <time>2010-04-16T11:39:40Z</time>
      </trkpt>
      <trkpt lat="45.99129" lon="7.59787">
        <ele>3132.11</ele>
        <time>2010-04-16T11:40:04Z</time>
      </trkpt>
      <trkpt lat="45.99123" lon="7.59789">
        <ele>3132.11</ele>
        <time>2010-04-16T11:40:11Z</time>
      </trkpt>
      <trkpt lat="45.99102" lon="7.59795">
        <ele>3127.31</ele>
        <time>2010-04-16T11:40:16Z</time>
      </trkpt>
      <trkpt lat="45.99094" lon="7.59793">
        <ele>3125.86</ele>
        <time>2010-04-16T11:40:18Z</time>
      </trkpt>
      <trkpt lat="45.99087" lon="7.59799">
        <ele>3122.5</ele>
        <time>2010-04-16T11:40:20Z</time>
      </trkpt>
      <trkpt lat="45.99075" lon="7.59801">
        <ele>3118.65</ele>
        <time>2010-04-16T11:40:23Z</time>
      </trkpt>
      <trkpt lat="45.99062" lon="7.59804">
        <ele>3114.81</ele>
        <time>2010-04-16T11:40:26Z</time>
      </trkpt>
      <trkpt lat="45.99052" lon="7.59806">
        <ele>3111.44</ele>
        <time>2010-04-16T11:40:28Z</time>
      </trkpt>
      <trkpt lat="45.99047" lon="7.59807">
        <ele>3109.52</ele>
        <time>2010-04-16T11:40:29Z</time>
      </trkpt>
      <trkpt lat="45.99041" lon="7.59809">
        <ele>3104.23</ele>
        <time>2010-04-16T11:40:32Z</time>
      </trkpt>
      <trkpt lat="45.99041" lon="7.59808">
        <ele>3103.75</ele>
        <time>2010-04-16T11:40:42Z</time>
      </trkpt>
      <trkpt lat="45.99041" lon="7.59809">
        <ele>3105.2</ele>
        <time>2010-04-16T11:40:45Z</time>
      </trkpt>
      <trkpt lat="45.99042" lon="7.59808">
        <ele>3104.71</ele>
        <time>2010-04-16T11:40:56Z</time>
      </trkpt>
      <trkpt lat="45.99041" lon="7.59808">
        <ele>3104.71</ele>
        <time>2010-04-16T11:41:10Z</time>
      </trkpt>
      <trkpt lat="45.99041" lon="7.59809">
        <ele>3104.23</ele>
        <time>2010-04-16T11:41:22Z</time>
      </trkpt>
      <trkpt lat="45.99041" lon="7.59809">
        <ele>3105.2</ele>
        <time>2010-04-16T11:41:41Z</time>
      </trkpt>
      <trkpt lat="45.99041" lon="7.59809">
        <ele>3104.71</ele>
        <time>2010-04-16T11:41:54Z</time>
      </trkpt>
      <trkpt lat="45.99041" lon="7.59809">
        <ele>3105.68</ele>
        <time>2010-04-16T11:42:12Z</time>
      </trkpt>
      <trkpt lat="45.99041" lon="7.5981">
        <ele>3105.2</ele>
        <time>2010-04-16T11:42:19Z</time>
      </trkpt>
      <trkpt lat="45.99041" lon="7.59809">
        <ele>3105.68</ele>
        <time>2010-04-16T11:42:33Z</time>
      </trkpt>
      <trkpt lat="45.99041" lon="7.59809">
        <ele>3104.71</ele>
        <time>2010-04-16T11:42:35Z</time>
      </trkpt>
      <trkpt lat="45.99041" lon="7.59809">
        <ele>3105.2</ele>
        <time>2010-04-16T11:42:52Z</time>
      </trkpt>
      <trkpt lat="45.99041" lon="7.59809">
        <ele>3103.75</ele>
        <time>2010-04-16T11:42:55Z</time>
      </trkpt>
      <trkpt lat="45.99041" lon="7.59809">
        <ele>3100.39</ele>
        <time>2010-04-16T11:43:14Z</time>
      </trkpt>
      <trkpt lat="45.99041" lon="7.59809">
        <ele>3096.54</ele>
        <time>2010-04-16T11:43:15Z</time>
      </trkpt>
      <trkpt lat="45.99041" lon="7.59809">
        <ele>3106.16</ele>
        <time>2010-04-16T11:43:16Z</time>
      </trkpt>
      <trkpt lat="45.99041" lon="7.59809">
        <ele>3105.2</ele>
        <time>2010-04-16T11:43:20Z</time>
      </trkpt>
      <trkpt lat="45.99042" lon="7.59809">
        <ele>3103.75</ele>
        <time>2010-04-16T11:43:47Z</time>
      </trkpt>
      <trkpt lat="45.99042" lon="7.59809">
        <ele>3104.71</ele>
        <time>2010-04-16T11:44:28Z</time>
      </trkpt>
      <trkpt lat="45.99041" lon="7.5981">
        <ele>3106.64</ele>
        <time>2010-04-16T11:44:58Z</time>
      </trkpt>
      <trkpt lat="45.99041" lon="7.5981">
        <ele>3106.16</ele>
        <time>2010-04-16T11:44:59Z</time>
      </trkpt>
      <trkpt lat="45.9904" lon="7.59809">
        <ele>3106.16</ele>
        <time>2010-04-16T11:45:04Z</time>
      </trkpt>
      <trkpt lat="45.99041" lon="7.5981">
        <ele>3106.16</ele>
        <time>2010-04-16T11:45:24Z</time>
      </trkpt>
      <trkpt lat="45.99041" lon="7.59809">
        <ele>3106.64</ele>
        <time>2010-04-16T11:45:30Z</time>
      </trkpt>
      <trkpt lat="45.9904" lon="7.59809">
        <ele>3106.16</ele>
        <time>2010-04-16T11:45:33Z</time>
      </trkpt>
      <trkpt lat="45.99039" lon="7.59809">
        <ele>3104.23</ele>
        <time>2010-04-16T11:45:44Z</time>
      </trkpt>
      <trkpt lat="45.99039" lon="7.59809">
        <ele>3106.64</ele>
        <time>2010-04-16T11:45:52Z</time>
      </trkpt>
      <trkpt lat="45.99038" lon="7.59809">
        <ele>3105.68</ele>
        <time>2010-04-16T11:46:13Z</time>
      </trkpt>
      <trkpt lat="45.99038" lon="7.59809">
        <ele>3106.16</ele>
        <time>2010-04-16T11:46:17Z</time>
      </trkpt>
      <trkpt lat="45.99038" lon="7.59809">
        <ele>3105.68</ele>
        <time>2010-04-16T11:46:26Z</time>
      </trkpt>
      <trkpt lat="45.99037" lon="7.59811">
        <ele>3105.68</ele>
        <time>2010-04-16T11:46:35Z</time>
      </trkpt>
      <trkpt lat="45.99037" lon="7.59811">
        <ele>3104.71</ele>
        <time>2010-04-16T11:46:40Z</time>
      </trkpt>
      <trkpt lat="45.99037" lon="7.59811">
        <ele>3107.12</ele>
        <time>2010-04-16T11:46:56Z</time>
      </trkpt>
      <trkpt lat="45.99037" lon="7.59811">
        <ele>3104.71</ele>
        <time>2010-04-16T11:46:59Z</time>
      </trkpt>
      <trkpt lat="45.99037" lon="7.59812">
        <ele>3100.87</ele>
        <time>2010-04-16T11:47:22Z</time>
      </trkpt>
      <trkpt lat="45.99037" lon="7.59812">
        <ele>3104.23</ele>
        <time>2010-04-16T11:47:23Z</time>
      </trkpt>
      <trkpt lat="45.99037" lon="7.59812">
        <ele>3103.75</ele>
        <time>2010-04-16T11:47:41Z</time>
      </trkpt>
      <trkpt lat="45.99037" lon="7.59812">
        <ele>3104.71</ele>
        <time>2010-04-16T11:47:43Z</time>
      </trkpt>
      <trkpt lat="45.99038" lon="7.59811">
        <ele>3104.71</ele>
        <time>2010-04-16T11:48:08Z</time>
      </trkpt>
      <trkpt lat="45.99039" lon="7.59811">
        <ele>3104.23</ele>
        <time>2010-04-16T11:48:24Z</time>
      </trkpt>
      <trkpt lat="45.99039" lon="7.59811">
        <ele>3103.75</ele>
        <time>2010-04-16T11:48:28Z</time>
      </trkpt>
      <trkpt lat="45.99039" lon="7.59811">
        <ele>3105.2</ele>
        <time>2010-04-16T11:48:48Z</time>
      </trkpt>
      <trkpt lat="45.99039" lon="7.5981">
        <ele>3105.68</ele>
        <time>2010-04-16T11:49:05Z</time>
      </trkpt>
      <trkpt lat="45.99037" lon="7.59811">
        <ele>3110</ele>
        <time>2010-04-16T11:49:53Z</time>
      </trkpt>
      <trkpt lat="45.99037" lon="7.59811">
        <ele>3107.12</ele>
        <time>2010-04-16T11:49:54Z</time>
      </trkpt>
      <trkpt lat="45.99038" lon="7.59811">
        <ele>3105.68</ele>
        <time>2010-04-16T11:49:57Z</time>
      </trkpt>
      <trkpt lat="45.99037" lon="7.59812">
        <ele>3107.6</ele>
        <time>2010-04-16T11:50:00Z</time>
      </trkpt>
      <trkpt lat="45.99036" lon="7.59812">
        <ele>3106.64</ele>
        <time>2010-04-16T11:50:09Z</time>
      </trkpt>
      <trkpt lat="45.99036" lon="7.59814">
        <ele>3108.08</ele>
        <time>2010-04-16T11:50:20Z</time>
      </trkpt>
      <trkpt lat="45.99036" lon="7.59813">
        <ele>3107.12</ele>
        <time>2010-04-16T11:50:26Z</time>
      </trkpt>
      <trkpt lat="45.99012" lon="7.59814">
        <ele>3102.31</ele>
        <time>2010-04-16T11:50:33Z</time>
      </trkpt>
      <trkpt lat="45.99002" lon="7.59817">
        <ele>3098.95</ele>
        <time>2010-04-16T11:50:35Z</time>
      </trkpt>
      <trkpt lat="45.98997" lon="7.59816">
        <ele>3098.95</ele>
        <time>2010-04-16T11:50:36Z</time>
      </trkpt>
      <trkpt lat="45.98987" lon="7.59817">
        <ele>3096.06</ele>
        <time>2010-04-16T11:50:38Z</time>
      </trkpt>
      <trkpt lat="45.98982" lon="7.59818">
        <ele>3092.7</ele>
        <time>2010-04-16T11:50:39Z</time>
      </trkpt>
      <trkpt lat="45.98977" lon="7.59819">
        <ele>3092.22</ele>
        <time>2010-04-16T11:50:40Z</time>
      </trkpt>
      <trkpt lat="45.98968" lon="7.59822">
        <ele>3090.29</ele>
        <time>2010-04-16T11:50:42Z</time>
      </trkpt>
      <trkpt lat="45.98958" lon="7.59822">
        <ele>3085.49</ele>
        <time>2010-04-16T11:50:44Z</time>
      </trkpt>
      <trkpt lat="45.98954" lon="7.59825">
        <ele>3085.97</ele>
        <time>2010-04-16T11:50:45Z</time>
      </trkpt>
      <trkpt lat="45.98945" lon="7.59822">
        <ele>3082.12</ele>
        <time>2010-04-16T11:50:47Z</time>
      </trkpt>
      <trkpt lat="45.98932" lon="7.59812">
        <ele>3074.43</ele>
        <time>2010-04-16T11:50:51Z</time>
      </trkpt>
      <trkpt lat="45.98932" lon="7.59808">
        <ele>3072.99</ele>
        <time>2010-04-16T11:50:53Z</time>
      </trkpt>
      <trkpt lat="45.98928" lon="7.59806">
        <ele>3070.59</ele>
        <time>2010-04-16T11:50:58Z</time>
      </trkpt>
      <trkpt lat="45.98928" lon="7.59806">
        <ele>3070.59</ele>
        <time>2010-04-16T11:51:20Z</time>
      </trkpt>
      <trkpt lat="45.98928" lon="7.59806">
        <ele>3070.59</ele>
        <time>2010-04-16T11:51:45Z</time>
      </trkpt>
      <trkpt lat="45.98925" lon="7.59809">
        <ele>3070.11</ele>
        <time>2010-04-16T11:52:00Z</time>
      </trkpt>
      <trkpt lat="45.98911" lon="7.59805">
        <ele>3065.3</ele>
        <time>2010-04-16T11:52:05Z</time>
      </trkpt>
      <trkpt lat="45.98903" lon="7.59796">
        <ele>3062.42</ele>
        <time>2010-04-16T11:52:08Z</time>
      </trkpt>
      <trkpt lat="45.98898" lon="7.59801">
        <ele>3059.05</ele>
        <time>2010-04-16T11:52:10Z</time>
      </trkpt>
      <trkpt lat="45.98893" lon="7.59798">
        <ele>3057.13</ele>
        <time>2010-04-16T11:52:12Z</time>
      </trkpt>
      <trkpt lat="45.98886" lon="7.59802">
        <ele>3052.32</ele>
        <time>2010-04-16T11:52:15Z</time>
      </trkpt>
      <trkpt lat="45.98884" lon="7.59805">
        <ele>3052.8</ele>
        <time>2010-04-16T11:52:16Z</time>
      </trkpt>
      <trkpt lat="45.98882" lon="7.59804">
        <ele>3048.96</ele>
        <time>2010-04-16T11:52:19Z</time>
      </trkpt>
      <trkpt lat="45.98881" lon="7.59803">
        <ele>3048.48</ele>
        <time>2010-04-16T11:52:21Z</time>
      </trkpt>
      <trkpt lat="45.98873" lon="7.59818">
        <ele>3045.59</ele>
        <time>2010-04-16T11:52:25Z</time>
      </trkpt>
      <trkpt lat="45.98865" lon="7.59827">
        <ele>3041.27</ele>
        <time>2010-04-16T11:52:28Z</time>
      </trkpt>
      <trkpt lat="45.98864" lon="7.59839">
        <ele>3036.94</ele>
        <time>2010-04-16T11:52:30Z</time>
      </trkpt>
      <trkpt lat="45.98864" lon="7.59842">
        <ele>3036.94</ele>
        <time>2010-04-16T11:52:31Z</time>
      </trkpt>
      <trkpt lat="45.9886" lon="7.59852">
        <ele>3032.62</ele>
        <time>2010-04-16T11:52:34Z</time>
      </trkpt>
      <trkpt lat="45.9886" lon="7.59858">
        <ele>3030.69</ele>
        <time>2010-04-16T11:52:37Z</time>
      </trkpt>
      <trkpt lat="45.98859" lon="7.59864">
        <ele>3029.25</ele>
        <time>2010-04-16T11:52:40Z</time>
      </trkpt>
      <trkpt lat="45.98858" lon="7.59874">
        <ele>3026.85</ele>
        <time>2010-04-16T11:52:46Z</time>
      </trkpt>
      <trkpt lat="45.98858" lon="7.59886">
        <ele>3023</ele>
        <time>2010-04-16T11:52:52Z</time>
      </trkpt>
      <trkpt lat="45.98858" lon="7.59891">
        <ele>3022.04</ele>
        <time>2010-04-16T11:52:54Z</time>
      </trkpt>
      <trkpt lat="45.98858" lon="7.59895">
        <ele>3020.12</ele>
        <time>2010-04-16T11:52:58Z</time>
      </trkpt>
      <trkpt lat="45.98858" lon="7.599">
        <ele>3017.72</ele>
        <time>2010-04-16T11:53:10Z</time>
      </trkpt>
      <trkpt lat="45.98858" lon="7.59907">
        <ele>3014.83</ele>
        <time>2010-04-16T11:53:21Z</time>
      </trkpt>
      <trkpt lat="45.98858" lon="7.59911">
        <ele>3013.39</ele>
        <time>2010-04-16T11:53:31Z</time>
      </trkpt>
      <trkpt lat="45.98857" lon="7.59911">
        <ele>3012.91</ele>
        <time>2010-04-16T11:53:34Z</time>
      </trkpt>
      <trkpt lat="45.98855" lon="7.59918">
        <ele>3009.06</ele>
        <time>2010-04-16T11:53:44Z</time>
      </trkpt>
      <trkpt lat="45.98855" lon="7.59928">
        <ele>3005.7</ele>
        <time>2010-04-16T11:53:50Z</time>
      </trkpt>
      <trkpt lat="45.98855" lon="7.59931">
        <ele>3005.7</ele>
        <time>2010-04-16T11:53:51Z</time>
      </trkpt>
      <trkpt lat="45.98855" lon="7.59934">
        <ele>3004.74</ele>
        <time>2010-04-16T11:53:52Z</time>
      </trkpt>
      <trkpt lat="45.98856" lon="7.5994">
        <ele>3003.78</ele>
        <time>2010-04-16T11:53:54Z</time>
      </trkpt>
      <trkpt lat="45.98857" lon="7.59949">
        <ele>3000.89</ele>
        <time>2010-04-16T11:53:58Z</time>
      </trkpt>
      <trkpt lat="45.98858" lon="7.59954">
        <ele>2999.93</ele>
        <time>2010-04-16T11:54:00Z</time>
      </trkpt>
      <trkpt lat="45.98859" lon="7.59962">
        <ele>2996.57</ele>
        <time>2010-04-16T11:54:04Z</time>
      </trkpt>
      <trkpt lat="45.9886" lon="7.59975">
        <ele>2992.24</ele>
        <time>2010-04-16T11:54:09Z</time>
      </trkpt>
      <trkpt lat="45.98861" lon="7.5998">
        <ele>2990.8</ele>
        <time>2010-04-16T11:54:11Z</time>
      </trkpt>
      <trkpt lat="45.98862" lon="7.59985">
        <ele>2989.36</ele>
        <time>2010-04-16T11:54:14Z</time>
      </trkpt>
      <trkpt lat="45.98864" lon="7.59994">
        <ele>2987.43</ele>
        <time>2010-04-16T11:54:17Z</time>
      </trkpt>
      <trkpt lat="45.98864" lon="7.59997">
        <ele>2986.47</ele>
        <time>2010-04-16T11:54:18Z</time>
      </trkpt>
      <trkpt lat="45.98866" lon="7.60006">
        <ele>2984.55</ele>
        <time>2010-04-16T11:54:21Z</time>
      </trkpt>
      <trkpt lat="45.98869" lon="7.60022">
        <ele>2981.67</ele>
        <time>2010-04-16T11:54:24Z</time>
      </trkpt>
      <trkpt lat="45.98873" lon="7.60041">
        <ele>2977.82</ele>
        <time>2010-04-16T11:54:29Z</time>
      </trkpt>
      <trkpt lat="45.98876" lon="7.60058">
        <ele>2973.5</ele>
        <time>2010-04-16T11:54:33Z</time>
      </trkpt>
      <trkpt lat="45.98877" lon="7.6006">
        <ele>2973.5</ele>
        <time>2010-04-16T11:54:34Z</time>
      </trkpt>
      <trkpt lat="45.98876" lon="7.60075">
        <ele>2970.13</ele>
        <time>2010-04-16T11:54:37Z</time>
      </trkpt>
      <trkpt lat="45.98873" lon="7.60097">
        <ele>2965.32</ele>
        <time>2010-04-16T11:54:41Z</time>
      </trkpt>
      <trkpt lat="45.98874" lon="7.60108">
        <ele>2963.88</ele>
        <time>2010-04-16T11:54:43Z</time>
      </trkpt>
      <trkpt lat="45.98871" lon="7.60127">
        <ele>2959.56</ele>
        <time>2010-04-16T11:54:46Z</time>
      </trkpt>
      <trkpt lat="45.98877" lon="7.60157">
        <ele>2954.75</ele>
        <time>2010-04-16T11:54:50Z</time>
      </trkpt>
      <trkpt lat="45.98877" lon="7.60184">
        <ele>2949.94</ele>
        <time>2010-04-16T11:54:53Z</time>
      </trkpt>
      <trkpt lat="45.98883" lon="7.60224">
        <ele>2946.58</ele>
        <time>2010-04-16T11:54:57Z</time>
      </trkpt>
      <trkpt lat="45.98888" lon="7.60252">
        <ele>2943.69</ele>
        <time>2010-04-16T11:55:00Z</time>
      </trkpt>
      <trkpt lat="45.98892" lon="7.60289">
        <ele>2939.37</ele>
        <time>2010-04-16T11:55:04Z</time>
      </trkpt>
      <trkpt lat="45.98895" lon="7.60309">
        <ele>2936</ele>
        <time>2010-04-16T11:55:07Z</time>
      </trkpt>
      <trkpt lat="45.98897" lon="7.60311">
        <ele>2934.08</ele>
        <time>2010-04-16T11:55:14Z</time>
      </trkpt>
      <trkpt lat="45.98897" lon="7.60311">
        <ele>2935.04</ele>
        <time>2010-04-16T11:55:32Z</time>
      </trkpt>
      <trkpt lat="45.98897" lon="7.60311">
        <ele>2934.56</ele>
        <time>2010-04-16T11:55:59Z</time>
      </trkpt>
      <trkpt lat="45.98896" lon="7.60309">
        <ele>2934.56</ele>
        <time>2010-04-16T11:56:19Z</time>
      </trkpt>
      <trkpt lat="45.98908" lon="7.60325">
        <ele>2931.68</ele>
        <time>2010-04-16T11:56:27Z</time>
      </trkpt>
      <trkpt lat="45.9891" lon="7.60344">
        <ele>2928.31</ele>
        <time>2010-04-16T11:56:32Z</time>
      </trkpt>
      <trkpt lat="45.98922" lon="7.60344">
        <ele>2924.95</ele>
        <time>2010-04-16T11:56:36Z</time>
      </trkpt>
      <trkpt lat="45.98933" lon="7.60342">
        <ele>2921.58</ele>
        <time>2010-04-16T11:56:40Z</time>
      </trkpt>
      <trkpt lat="45.98937" lon="7.60343">
        <ele>2919.66</ele>
        <time>2010-04-16T11:56:42Z</time>
      </trkpt>
      <trkpt lat="45.98946" lon="7.60351">
        <ele>2915.82</ele>
        <time>2010-04-16T11:56:47Z</time>
      </trkpt>
      <trkpt lat="45.98947" lon="7.60354">
        <ele>2914.85</ele>
        <time>2010-04-16T11:56:49Z</time>
      </trkpt>
      <trkpt lat="45.9895" lon="7.60362">
        <ele>2911.01</ele>
        <time>2010-04-16T11:56:52Z</time>
      </trkpt>
      <trkpt lat="45.98949" lon="7.60369">
        <ele>2909.57</ele>
        <time>2010-04-16T11:56:54Z</time>
      </trkpt>
      <trkpt lat="45.9894" lon="7.6039">
        <ele>2904.76</ele>
        <time>2010-04-16T11:56:57Z</time>
      </trkpt>
      <trkpt lat="45.98938" lon="7.60401">
        <ele>2903.8</ele>
        <time>2010-04-16T11:56:59Z</time>
      </trkpt>
      <trkpt lat="45.98939" lon="7.60397">
        <ele>2903.32</ele>
        <time>2010-04-16T11:57:06Z</time>
      </trkpt>
      <trkpt lat="45.98948" lon="7.60407">
        <ele>2899.95</ele>
        <time>2010-04-16T11:57:11Z</time>
      </trkpt>
      <trkpt lat="45.98948" lon="7.60413">
        <ele>2899.47</ele>
        <time>2010-04-16T11:57:12Z</time>
      </trkpt>
      <trkpt lat="45.98946" lon="7.60422">
        <ele>2898.03</ele>
        <time>2010-04-16T11:57:14Z</time>
      </trkpt>
      <trkpt lat="45.98955" lon="7.60422">
        <ele>2895.15</ele>
        <time>2010-04-16T11:57:18Z</time>
      </trkpt>
      <trkpt lat="45.98962" lon="7.6042">
        <ele>2891.3</ele>
        <time>2010-04-16T11:57:20Z</time>
      </trkpt>
      <trkpt lat="45.98972" lon="7.60435">
        <ele>2887.94</ele>
        <time>2010-04-16T11:57:24Z</time>
      </trkpt>
      <trkpt lat="45.98974" lon="7.60441">
        <ele>2886.98</ele>
        <time>2010-04-16T11:57:25Z</time>
      </trkpt>
      <trkpt lat="45.98976" lon="7.60446">
        <ele>2885.05</ele>
        <time>2010-04-16T11:57:26Z</time>
      </trkpt>
      <trkpt lat="45.98979" lon="7.60454">
        <ele>2882.17</ele>
        <time>2010-04-16T11:57:29Z</time>
      </trkpt>
      <trkpt lat="45.98984" lon="7.60466">
        <ele>2877.84</ele>
        <time>2010-04-16T11:57:34Z</time>
      </trkpt>
      <trkpt lat="45.98984" lon="7.60464">
        <ele>2878.32</ele>
        <time>2010-04-16T11:58:41Z</time>
      </trkpt>
      <trkpt lat="45.98998" lon="7.60482">
        <ele>2874</ele>
        <time>2010-04-16T11:58:47Z</time>
      </trkpt>
      <trkpt lat="45.99001" lon="7.60487">
        <ele>2874</ele>
        <time>2010-04-16T11:58:48Z</time>
      </trkpt>
      <trkpt lat="45.99006" lon="7.60495">
        <ele>2871.11</ele>
        <time>2010-04-16T11:58:50Z</time>
      </trkpt>
      <trkpt lat="45.9901" lon="7.60497">
        <ele>2871.11</ele>
        <time>2010-04-16T11:58:51Z</time>
      </trkpt>
      <trkpt lat="45.99016" lon="7.60507">
        <ele>2867.27</ele>
        <time>2010-04-16T11:58:53Z</time>
      </trkpt>
      <trkpt lat="45.99026" lon="7.60517">
        <ele>2863.9</ele>
        <time>2010-04-16T11:58:56Z</time>
      </trkpt>
      <trkpt lat="45.9903" lon="7.6052">
        <ele>2863.42</ele>
        <time>2010-04-16T11:58:57Z</time>
      </trkpt>
      <trkpt lat="45.99036" lon="7.60531">
        <ele>2860.06</ele>
        <time>2010-04-16T11:59:00Z</time>
      </trkpt>
      <trkpt lat="45.99043" lon="7.60533">
        <ele>2859.1</ele>
        <time>2010-04-16T11:59:02Z</time>
      </trkpt>
      <trkpt lat="45.99051" lon="7.60547">
        <ele>2854.77</ele>
        <time>2010-04-16T11:59:05Z</time>
      </trkpt>
      <trkpt lat="45.99056" lon="7.6057">
        <ele>2850.45</ele>
        <time>2010-04-16T11:59:09Z</time>
      </trkpt>
      <trkpt lat="45.9906" lon="7.6058">
        <ele>2848.52</ele>
        <time>2010-04-16T11:59:11Z</time>
      </trkpt>
      <trkpt lat="45.99064" lon="7.6059">
        <ele>2844.68</ele>
        <time>2010-04-16T11:59:13Z</time>
      </trkpt>
      <trkpt lat="45.99069" lon="7.60597">
        <ele>2842.28</ele>
        <time>2010-04-16T11:59:15Z</time>
      </trkpt>
      <trkpt lat="45.99073" lon="7.60605">
        <ele>2841.31</ele>
        <time>2010-04-16T11:59:18Z</time>
      </trkpt>
      <trkpt lat="45.99073" lon="7.6061">
        <ele>2840.35</ele>
        <time>2010-04-16T11:59:19Z</time>
      </trkpt>
      <trkpt lat="45.99075" lon="7.60628">
        <ele>2837.47</ele>
        <time>2010-04-16T11:59:22Z</time>
      </trkpt>
      <trkpt lat="45.99079" lon="7.60634">
        <ele>2836.03</ele>
        <time>2010-04-16T11:59:23Z</time>
      </trkpt>
      <trkpt lat="45.99087" lon="7.60663">
        <ele>2833.14</ele>
        <time>2010-04-16T11:59:27Z</time>
      </trkpt>
      <trkpt lat="45.99091" lon="7.60689">
        <ele>2829.3</ele>
        <time>2010-04-16T11:59:32Z</time>
      </trkpt>
      <trkpt lat="45.99092" lon="7.60693">
        <ele>2829.78</ele>
        <time>2010-04-16T11:59:33Z</time>
      </trkpt>
      <trkpt lat="45.99093" lon="7.60707">
        <ele>2826.41</ele>
        <time>2010-04-16T11:59:36Z</time>
      </trkpt>
      <trkpt lat="45.99095" lon="7.60718">
        <ele>2824.01</ele>
        <time>2010-04-16T11:59:40Z</time>
      </trkpt>
      <trkpt lat="45.99097" lon="7.60723">
        <ele>2824.49</ele>
        <time>2010-04-16T11:59:50Z</time>
      </trkpt>
      <trkpt lat="45.99091" lon="7.60722">
        <ele>2819.2</ele>
        <time>2010-04-16T11:59:54Z</time>
      </trkpt>
      <trkpt lat="45.99082" lon="7.60701">
        <ele>2816.8</ele>
        <time>2010-04-16T11:59:59Z</time>
      </trkpt>
      <trkpt lat="45.99078" lon="7.60713">
        <ele>2812.96</ele>
        <time>2010-04-16T12:00:03Z</time>
      </trkpt>
      <trkpt lat="45.99076" lon="7.60731">
        <ele>2811.51</ele>
        <time>2010-04-16T12:00:05Z</time>
      </trkpt>
      <trkpt lat="45.99068" lon="7.60752">
        <ele>2807.67</ele>
        <time>2010-04-16T12:00:07Z</time>
      </trkpt>
      <trkpt lat="45.99063" lon="7.60759">
        <ele>2808.15</ele>
        <time>2010-04-16T12:00:08Z</time>
      </trkpt>
      <trkpt lat="45.99051" lon="7.6077">
        <ele>2806.71</ele>
        <time>2010-04-16T12:00:10Z</time>
      </trkpt>
      <trkpt lat="45.99025" lon="7.60786">
        <ele>2802.86</ele>
        <time>2010-04-16T12:00:14Z</time>
      </trkpt>
      <trkpt lat="45.99018" lon="7.60789">
        <ele>2802.86</ele>
        <time>2010-04-16T12:00:15Z</time>
      </trkpt>
      <trkpt lat="45.99005" lon="7.60795">
        <ele>2801.42</ele>
        <time>2010-04-16T12:00:17Z</time>
      </trkpt>
      <trkpt lat="45.98988" lon="7.608">
        <ele>2799.5</ele>
        <time>2010-04-16T12:00:20Z</time>
      </trkpt>
      <trkpt lat="45.98971" lon="7.608">
        <ele>2797.09</ele>
        <time>2010-04-16T12:00:24Z</time>
      </trkpt>
      <trkpt lat="45.98967" lon="7.608">
        <ele>2795.65</ele>
        <time>2010-04-16T12:00:32Z</time>
      </trkpt>
      <trkpt lat="45.98967" lon="7.608">
        <ele>2796.61</ele>
        <time>2010-04-16T12:00:53Z</time>
      </trkpt>
      <trkpt lat="45.98967" lon="7.608">
        <ele>2795.17</ele>
        <time>2010-04-16T12:00:57Z</time>
      </trkpt>
      <trkpt lat="45.98968" lon="7.60799">
        <ele>2800.94</ele>
        <time>2010-04-16T12:00:59Z</time>
      </trkpt>
      <trkpt lat="45.98968" lon="7.60799">
        <ele>2796.13</ele>
        <time>2010-04-16T12:01:00Z</time>
      </trkpt>
      <trkpt lat="45.98968" lon="7.608">
        <ele>2797.57</ele>
        <time>2010-04-16T12:01:34Z</time>
      </trkpt>
      <trkpt lat="45.98968" lon="7.608">
        <ele>2795.65</ele>
        <time>2010-04-16T12:01:36Z</time>
      </trkpt>
      <trkpt lat="45.98968" lon="7.608">
        <ele>2791.81</ele>
        <time>2010-04-16T12:01:40Z</time>
      </trkpt>
      <trkpt lat="45.98968" lon="7.608">
        <ele>2795.65</ele>
        <time>2010-04-16T12:01:41Z</time>
      </trkpt>
      <trkpt lat="45.98967" lon="7.60799">
        <ele>2799.5</ele>
        <time>2010-04-16T12:02:55Z</time>
      </trkpt>
      <trkpt lat="45.98967" lon="7.60799">
        <ele>2795.17</ele>
        <time>2010-04-16T12:02:56Z</time>
      </trkpt>
      <trkpt lat="45.98967" lon="7.60799">
        <ele>2798.05</ele>
        <time>2010-04-16T12:03:00Z</time>
      </trkpt>
      <trkpt lat="45.98967" lon="7.60799">
        <ele>2797.57</ele>
        <time>2010-04-16T12:03:01Z</time>
      </trkpt>
      <trkpt lat="45.98967" lon="7.60798">
        <ele>2798.05</ele>
        <time>2010-04-16T12:03:30Z</time>
      </trkpt>
      <trkpt lat="45.98967" lon="7.60797">
        <ele>2797.57</ele>
        <time>2010-04-16T12:03:33Z</time>
      </trkpt>
      <trkpt lat="45.98968" lon="7.60799">
        <ele>2798.05</ele>
        <time>2010-04-16T12:03:43Z</time>
      </trkpt>
      <trkpt lat="45.98967" lon="7.60798">
        <ele>2798.54</ele>
        <time>2010-04-16T12:04:10Z</time>
      </trkpt>
      <trkpt lat="45.98967" lon="7.60798">
        <ele>2799.02</ele>
        <time>2010-04-16T12:04:27Z</time>
      </trkpt>
      <trkpt lat="45.98934" lon="7.60803">
        <ele>2795.65</ele>
        <time>2010-04-16T12:04:36Z</time>
      </trkpt>
      <trkpt lat="45.98912" lon="7.60807">
        <ele>2792.29</ele>
        <time>2010-04-16T12:04:40Z</time>
      </trkpt>
      <trkpt lat="45.98892" lon="7.60809">
        <ele>2789.4</ele>
        <time>2010-04-16T12:04:47Z</time>
      </trkpt>
      <trkpt lat="45.98887" lon="7.60809">
        <ele>2787</ele>
        <time>2010-04-16T12:04:49Z</time>
      </trkpt>
      <trkpt lat="45.98877" lon="7.60825">
        <ele>2784.6</ele>
        <time>2010-04-16T12:04:55Z</time>
      </trkpt>
      <trkpt lat="45.9887" lon="7.60836">
        <ele>2783.63</ele>
        <time>2010-04-16T12:04:57Z</time>
      </trkpt>
      <trkpt lat="45.98858" lon="7.60853">
        <ele>2781.23</ele>
        <time>2010-04-16T12:05:00Z</time>
      </trkpt>
      <trkpt lat="45.98835" lon="7.60894">
        <ele>2775.46</ele>
        <time>2010-04-16T12:05:05Z</time>
      </trkpt>
      <trkpt lat="45.9883" lon="7.60903">
        <ele>2774.5</ele>
        <time>2010-04-16T12:05:06Z</time>
      </trkpt>
      <trkpt lat="45.98804" lon="7.60926">
        <ele>2771.62</ele>
        <time>2010-04-16T12:05:11Z</time>
      </trkpt>
      <trkpt lat="45.98788" lon="7.60942">
        <ele>2769.7</ele>
        <time>2010-04-16T12:05:14Z</time>
      </trkpt>
      <trkpt lat="45.98788" lon="7.60963">
        <ele>2766.33</ele>
        <time>2010-04-16T12:05:16Z</time>
      </trkpt>
      <trkpt lat="45.98794" lon="7.60994">
        <ele>2763.93</ele>
        <time>2010-04-16T12:05:19Z</time>
      </trkpt>
      <trkpt lat="45.98789" lon="7.61028">
        <ele>2762.97</ele>
        <time>2010-04-16T12:05:26Z</time>
      </trkpt>
      <trkpt lat="45.98785" lon="7.6106">
        <ele>2761.04</ele>
        <time>2010-04-16T12:05:31Z</time>
      </trkpt>
      <trkpt lat="45.98784" lon="7.61075">
        <ele>2760.08</ele>
        <time>2010-04-16T12:05:33Z</time>
      </trkpt>
      <trkpt lat="45.98784" lon="7.61082">
        <ele>2759.6</ele>
        <time>2010-04-16T12:05:34Z</time>
      </trkpt>
      <trkpt lat="45.98784" lon="7.61094">
        <ele>2758.64</ele>
        <time>2010-04-16T12:05:36Z</time>
      </trkpt>
      <trkpt lat="45.98777" lon="7.6112">
        <ele>2757.2</ele>
        <time>2010-04-16T12:05:41Z</time>
      </trkpt>
      <trkpt lat="45.9876" lon="7.61125">
        <ele>2755.76</ele>
        <time>2010-04-16T12:05:49Z</time>
      </trkpt>
      <trkpt lat="45.98748" lon="7.6112">
        <ele>2753.83</ele>
        <time>2010-04-16T12:05:53Z</time>
      </trkpt>
      <trkpt lat="45.98738" lon="7.61117">
        <ele>2753.35</ele>
        <time>2010-04-16T12:05:55Z</time>
      </trkpt>
      <trkpt lat="45.98717" lon="7.61117">
        <ele>2749.51</ele>
        <time>2010-04-16T12:05:58Z</time>
      </trkpt>
      <trkpt lat="45.98711" lon="7.61117">
        <ele>2749.51</ele>
        <time>2010-04-16T12:05:59Z</time>
      </trkpt>
      <trkpt lat="45.98693" lon="7.61117">
        <ele>2748.55</ele>
        <time>2010-04-16T12:06:06Z</time>
      </trkpt>
      <trkpt lat="45.98688" lon="7.61116">
        <ele>2747.1</ele>
        <time>2010-04-16T12:06:08Z</time>
      </trkpt>
      <trkpt lat="45.9868" lon="7.61113">
        <ele>2747.1</ele>
        <time>2010-04-16T12:06:17Z</time>
      </trkpt>
      <trkpt lat="45.9868" lon="7.61112">
        <ele>2747.59</ele>
        <time>2010-04-16T12:06:36Z</time>
      </trkpt>
      <trkpt lat="45.9868" lon="7.61112">
        <ele>2747.59</ele>
        <time>2010-04-16T12:07:05Z</time>
      </trkpt>
      <trkpt lat="45.98659" lon="7.61117">
        <ele>2745.18</ele>
        <time>2010-04-16T12:07:12Z</time>
      </trkpt>
      <trkpt lat="45.98625" lon="7.61123">
        <ele>2742.3</ele>
        <time>2010-04-16T12:07:22Z</time>
      </trkpt>
      <trkpt lat="45.98614" lon="7.61126">
        <ele>2740.86</ele>
        <time>2010-04-16T12:07:25Z</time>
      </trkpt>
      <trkpt lat="45.98609" lon="7.61128">
        <ele>2739.89</ele>
        <time>2010-04-16T12:07:26Z</time>
      </trkpt>
      <trkpt lat="45.98593" lon="7.61136">
        <ele>2737.97</ele>
        <time>2010-04-16T12:07:29Z</time>
      </trkpt>
      <trkpt lat="45.98579" lon="7.61156">
        <ele>2735.57</ele>
        <time>2010-04-16T12:07:32Z</time>
      </trkpt>
      <trkpt lat="45.98575" lon="7.61165">
        <ele>2735.09</ele>
        <time>2010-04-16T12:07:33Z</time>
      </trkpt>
      <trkpt lat="45.9857" lon="7.61184">
        <ele>2734.13</ele>
        <time>2010-04-16T12:07:35Z</time>
      </trkpt>
      <trkpt lat="45.98566" lon="7.61233">
        <ele>2729.8</ele>
        <time>2010-04-16T12:07:40Z</time>
      </trkpt>
      <trkpt lat="45.98565" lon="7.61243">
        <ele>2729.8</ele>
        <time>2010-04-16T12:07:41Z</time>
      </trkpt>
      <trkpt lat="45.98563" lon="7.61264">
        <ele>2726.92</ele>
        <time>2010-04-16T12:07:43Z</time>
      </trkpt>
      <trkpt lat="45.98556" lon="7.61291">
        <ele>2724.03</ele>
        <time>2010-04-16T12:07:46Z</time>
      </trkpt>
      <trkpt lat="45.98549" lon="7.61307">
        <ele>2721.15</ele>
        <time>2010-04-16T12:07:48Z</time>
      </trkpt>
      <trkpt lat="45.98531" lon="7.61338">
        <ele>2716.82</ele>
        <time>2010-04-16T12:07:54Z</time>
      </trkpt>
      <trkpt lat="45.98523" lon="7.61357">
        <ele>2713.46</ele>
        <time>2010-04-16T12:07:57Z</time>
      </trkpt>
      <trkpt lat="45.98522" lon="7.61363">
        <ele>2712.02</ele>
        <time>2010-04-16T12:07:58Z</time>
      </trkpt>
      <trkpt lat="45.98522" lon="7.61389">
        <ele>2702.88</ele>
        <time>2010-04-16T12:08:02Z</time>
      </trkpt>
      <trkpt lat="45.98521" lon="7.61413">
        <ele>2697.6</ele>
        <time>2010-04-16T12:08:05Z</time>
      </trkpt>
      <trkpt lat="45.9852" lon="7.6142">
        <ele>2694.71</ele>
        <time>2010-04-16T12:08:06Z</time>
      </trkpt>
      <trkpt lat="45.98521" lon="7.6144">
        <ele>2689.43</ele>
        <time>2010-04-16T12:08:09Z</time>
      </trkpt>
      <trkpt lat="45.98521" lon="7.61456">
        <ele>2683.66</ele>
        <time>2010-04-16T12:08:11Z</time>
      </trkpt>
      <trkpt lat="45.98519" lon="7.61478">
        <ele>2679.33</ele>
        <time>2010-04-16T12:08:13Z</time>
      </trkpt>
      <trkpt lat="45.98512" lon="7.61512">
        <ele>2673.08</ele>
        <time>2010-04-16T12:08:16Z</time>
      </trkpt>
      <trkpt lat="45.9851" lon="7.61523">
        <ele>2672.6</ele>
        <time>2010-04-16T12:08:17Z</time>
      </trkpt>
      <trkpt lat="45.98515" lon="7.61569">
        <ele>2666.35</ele>
        <time>2010-04-16T12:08:21Z</time>
      </trkpt>
      <trkpt lat="45.98521" lon="7.61592">
        <ele>2664.91</ele>
        <time>2010-04-16T12:08:23Z</time>
      </trkpt>
      <trkpt lat="45.98525" lon="7.61617">
        <ele>2662.99</ele>
        <time>2010-04-16T12:08:25Z</time>
      </trkpt>
      <trkpt lat="45.98521" lon="7.61681">
        <ele>2657.7</ele>
        <time>2010-04-16T12:08:30Z</time>
      </trkpt>
      <trkpt lat="45.98519" lon="7.61694">
        <ele>2657.7</ele>
        <time>2010-04-16T12:08:31Z</time>
      </trkpt>
      <trkpt lat="45.98526" lon="7.61742">
        <ele>2652.9</ele>
        <time>2010-04-16T12:08:35Z</time>
      </trkpt>
      <trkpt lat="45.98537" lon="7.61758">
        <ele>2652.42</ele>
        <time>2010-04-16T12:08:37Z</time>
      </trkpt>
      <trkpt lat="45.98559" lon="7.61789">
        <ele>2648.09</ele>
        <time>2010-04-16T12:08:41Z</time>
      </trkpt>
      <trkpt lat="45.98564" lon="7.61796">
        <ele>2648.09</ele>
        <time>2010-04-16T12:08:42Z</time>
      </trkpt>
      <trkpt lat="45.98569" lon="7.61803">
        <ele>2647.61</ele>
        <time>2010-04-16T12:08:43Z</time>
      </trkpt>
      <trkpt lat="45.98599" lon="7.61844">
        <ele>2644.24</ele>
        <time>2010-04-16T12:08:50Z</time>
      </trkpt>
      <trkpt lat="45.98606" lon="7.61858">
        <ele>2643.28</ele>
        <time>2010-04-16T12:08:52Z</time>
      </trkpt>
      <trkpt lat="45.98616" lon="7.61884">
        <ele>2640.4</ele>
        <time>2010-04-16T12:08:55Z</time>
      </trkpt>
      <trkpt lat="45.98628" lon="7.61908">
        <ele>2639.44</ele>
        <time>2010-04-16T12:08:58Z</time>
      </trkpt>
      <trkpt lat="45.98638" lon="7.61927">
        <ele>2637.03</ele>
        <time>2010-04-16T12:09:02Z</time>
      </trkpt>
      <trkpt lat="45.98639" lon="7.61927">
        <ele>2636.55</ele>
        <time>2010-04-16T12:09:22Z</time>
      </trkpt>
      <trkpt lat="45.98638" lon="7.61926">
        <ele>2636.07</ele>
        <time>2010-04-16T12:09:33Z</time>
      </trkpt>
      <trkpt lat="45.98638" lon="7.61925">
        <ele>2636.55</ele>
        <time>2010-04-16T12:10:05Z</time>
      </trkpt>
      <trkpt lat="45.98638" lon="7.61927">
        <ele>2636.55</ele>
        <time>2010-04-16T12:10:28Z</time>
      </trkpt>
      <trkpt lat="45.9864" lon="7.61932">
        <ele>2636.55</ele>
        <time>2010-04-16T12:10:35Z</time>
      </trkpt>
      <trkpt lat="45.98641" lon="7.61938">
        <ele>2636.55</ele>
        <time>2010-04-16T12:10:46Z</time>
      </trkpt>
      <trkpt lat="45.98641" lon="7.61938">
        <ele>2636.07</ele>
        <time>2010-04-16T12:10:58Z</time>
      </trkpt>
      <trkpt lat="45.98641" lon="7.61938">
        <ele>2636.55</ele>
        <time>2010-04-16T12:11:14Z</time>
      </trkpt>
      <trkpt lat="45.9864" lon="7.61934">
        <ele>2636.55</ele>
        <time>2010-04-16T12:11:31Z</time>
      </trkpt>
      <trkpt lat="45.9864" lon="7.61934">
        <ele>2636.07</ele>
        <time>2010-04-16T12:11:42Z</time>
      </trkpt>
      <trkpt lat="45.9864" lon="7.61937">
        <ele>2636.07</ele>
        <time>2010-04-16T12:11:53Z</time>
      </trkpt>
      <trkpt lat="45.9864" lon="7.61937">
        <ele>2636.07</ele>
        <time>2010-04-16T12:12:19Z</time>
      </trkpt>
      <trkpt lat="45.9864" lon="7.61937">
        <ele>2635.59</ele>
        <time>2010-04-16T12:13:00Z</time>
      </trkpt>
      <trkpt lat="45.9864" lon="7.61937">
        <ele>2635.59</ele>
        <time>2010-04-16T12:13:08Z</time>
      </trkpt>
      <trkpt lat="45.9864" lon="7.61932">
        <ele>2636.07</ele>
        <time>2010-04-16T12:13:19Z</time>
      </trkpt>
      <trkpt lat="45.9864" lon="7.61932">
        <ele>2635.11</ele>
        <time>2010-04-16T12:13:26Z</time>
      </trkpt>
      <trkpt lat="45.98644" lon="7.6194">
        <ele>2636.07</ele>
        <time>2010-04-16T12:13:34Z</time>
      </trkpt>
      <trkpt lat="45.98645" lon="7.61954">
        <ele>2635.59</ele>
        <time>2010-04-16T12:13:38Z</time>
      </trkpt>
      <trkpt lat="45.98645" lon="7.61965">
        <ele>2635.11</ele>
        <time>2010-04-16T12:13:40Z</time>
      </trkpt>
      <trkpt lat="45.98647" lon="7.61983">
        <ele>2633.67</ele>
        <time>2010-04-16T12:13:43Z</time>
      </trkpt>
      <trkpt lat="45.98649" lon="7.61988">
        <ele>2633.19</ele>
        <time>2010-04-16T12:13:44Z</time>
      </trkpt>
      <trkpt lat="45.98653" lon="7.61998">
        <ele>2632.71</ele>
        <time>2010-04-16T12:13:46Z</time>
      </trkpt>
      <trkpt lat="45.9866" lon="7.62036">
        <ele>2630.79</ele>
        <time>2010-04-16T12:13:52Z</time>
      </trkpt>
      <trkpt lat="45.98667" lon="7.62065">
        <ele>2627.42</ele>
        <time>2010-04-16T12:13:55Z</time>
      </trkpt>
      <trkpt lat="45.98673" lon="7.62084">
        <ele>2626.46</ele>
        <time>2010-04-16T12:13:57Z</time>
      </trkpt>
      <trkpt lat="45.98699" lon="7.62143">
        <ele>2625.02</ele>
        <time>2010-04-16T12:14:07Z</time>
      </trkpt>
      <trkpt lat="45.98714" lon="7.6219">
        <ele>2621.17</ele>
        <time>2010-04-16T12:14:16Z</time>
      </trkpt>
      <trkpt lat="45.98716" lon="7.62196">
        <ele>2621.65</ele>
        <time>2010-04-16T12:14:17Z</time>
      </trkpt>
      <trkpt lat="45.98732" lon="7.62236">
        <ele>2618.29</ele>
        <time>2010-04-16T12:14:24Z</time>
      </trkpt>
      <trkpt lat="45.98733" lon="7.62241">
        <ele>2618.29</ele>
        <time>2010-04-16T12:14:25Z</time>
      </trkpt>
      <trkpt lat="45.98739" lon="7.62258">
        <ele>2617.81</ele>
        <time>2010-04-16T12:14:29Z</time>
      </trkpt>
      <trkpt lat="45.98741" lon="7.62263">
        <ele>2617.33</ele>
        <time>2010-04-16T12:14:30Z</time>
      </trkpt>
      <trkpt lat="45.98757" lon="7.62285">
        <ele>2614.44</ele>
        <time>2010-04-16T12:14:35Z</time>
      </trkpt>
      <trkpt lat="45.9877" lon="7.62296">
        <ele>2611.08</ele>
        <time>2010-04-16T12:14:42Z</time>
      </trkpt>
      <trkpt lat="45.9877" lon="7.62297">
        <ele>2611.56</ele>
        <time>2010-04-16T12:14:44Z</time>
      </trkpt>
      <trkpt lat="45.9877" lon="7.62297">
        <ele>2611.56</ele>
        <time>2010-04-16T12:14:55Z</time>
      </trkpt>
      <trkpt lat="45.9877" lon="7.62297">
        <ele>2611.08</ele>
        <time>2010-04-16T12:15:15Z</time>
      </trkpt>
      <trkpt lat="45.9877" lon="7.62298">
        <ele>2611.08</ele>
        <time>2010-04-16T12:15:18Z</time>
      </trkpt>
      <trkpt lat="45.98785" lon="7.62336">
        <ele>2606.75</ele>
        <time>2010-04-16T12:15:24Z</time>
      </trkpt>
      <trkpt lat="45.98798" lon="7.62358">
        <ele>2601.95</ele>
        <time>2010-04-16T12:15:28Z</time>
      </trkpt>
      <trkpt lat="45.98801" lon="7.62362">
        <ele>2601.95</ele>
        <time>2010-04-16T12:15:29Z</time>
      </trkpt>
      <trkpt lat="45.98817" lon="7.62387">
        <ele>2598.58</ele>
        <time>2010-04-16T12:15:35Z</time>
      </trkpt>
      <trkpt lat="45.98835" lon="7.62416">
        <ele>2594.74</ele>
        <time>2010-04-16T12:15:41Z</time>
      </trkpt>
      <trkpt lat="45.98852" lon="7.62446">
        <ele>2591.37</ele>
        <time>2010-04-16T12:15:47Z</time>
      </trkpt>
      <trkpt lat="45.9887" lon="7.62475">
        <ele>2588.49</ele>
        <time>2010-04-16T12:15:53Z</time>
      </trkpt>
      <trkpt lat="45.98884" lon="7.62495">
        <ele>2586.08</ele>
        <time>2010-04-16T12:15:57Z</time>
      </trkpt>
      <trkpt lat="45.98898" lon="7.62517">
        <ele>2582.72</ele>
        <time>2010-04-16T12:16:01Z</time>
      </trkpt>
      <trkpt lat="45.98902" lon="7.62523">
        <ele>2582.72</ele>
        <time>2010-04-16T12:16:02Z</time>
      </trkpt>
      <trkpt lat="45.98907" lon="7.62528">
        <ele>2582.72</ele>
        <time>2010-04-16T12:16:03Z</time>
      </trkpt>
      <trkpt lat="45.98916" lon="7.62565">
        <ele>2579.84</ele>
        <time>2010-04-16T12:16:07Z</time>
      </trkpt>
      <trkpt lat="45.98919" lon="7.62589">
        <ele>2576.47</ele>
        <time>2010-04-16T12:16:09Z</time>
      </trkpt>
      <trkpt lat="45.98926" lon="7.62624">
        <ele>2573.11</ele>
        <time>2010-04-16T12:16:12Z</time>
      </trkpt>
      <trkpt lat="45.98934" lon="7.62645">
        <ele>2571.18</ele>
        <time>2010-04-16T12:16:14Z</time>
      </trkpt>
      <trkpt lat="45.98949" lon="7.62678">
        <ele>2566.38</ele>
        <time>2010-04-16T12:16:17Z</time>
      </trkpt>
      <trkpt lat="45.98958" lon="7.62702">
        <ele>2564.93</ele>
        <time>2010-04-16T12:16:19Z</time>
      </trkpt>
      <trkpt lat="45.98973" lon="7.6274">
        <ele>2559.65</ele>
        <time>2010-04-16T12:16:23Z</time>
      </trkpt>
      <trkpt lat="45.98986" lon="7.62768">
        <ele>2555.32</ele>
        <time>2010-04-16T12:16:26Z</time>
      </trkpt>
      <trkpt lat="45.98998" lon="7.62791">
        <ele>2552.44</ele>
        <time>2010-04-16T12:16:29Z</time>
      </trkpt>
      <trkpt lat="45.99002" lon="7.62797">
        <ele>2552.44</ele>
        <time>2010-04-16T12:16:30Z</time>
      </trkpt>
      <trkpt lat="45.99019" lon="7.62826">
        <ele>2549.55</ele>
        <time>2010-04-16T12:16:35Z</time>
      </trkpt>
      <trkpt lat="45.99026" lon="7.62838">
        <ele>2548.59</ele>
        <time>2010-04-16T12:16:37Z</time>
      </trkpt>
      <trkpt lat="45.99029" lon="7.6285">
        <ele>2547.15</ele>
        <time>2010-04-16T12:16:39Z</time>
      </trkpt>
      <trkpt lat="45.99033" lon="7.62869">
        <ele>2546.67</ele>
        <time>2010-04-16T12:16:43Z</time>
      </trkpt>
      <trkpt lat="45.99033" lon="7.62874">
        <ele>2545.71</ele>
        <time>2010-04-16T12:16:55Z</time>
      </trkpt>
      <trkpt lat="45.99033" lon="7.62874">
        <ele>2545.23</ele>
        <time>2010-04-16T12:17:17Z</time>
      </trkpt>
      <trkpt lat="45.99047" lon="7.6289">
        <ele>2542.34</ele>
        <time>2010-04-16T12:17:22Z</time>
      </trkpt>
      <trkpt lat="45.99059" lon="7.62905">
        <ele>2538.98</ele>
        <time>2010-04-16T12:17:24Z</time>
      </trkpt>
      <trkpt lat="45.99073" lon="7.62923">
        <ele>2536.58</ele>
        <time>2010-04-16T12:17:26Z</time>
      </trkpt>
      <trkpt lat="45.99086" lon="7.62959">
        <ele>2532.73</ele>
        <time>2010-04-16T12:17:29Z</time>
      </trkpt>
      <trkpt lat="45.99093" lon="7.62989">
        <ele>2527.92</ele>
        <time>2010-04-16T12:17:32Z</time>
      </trkpt>
      <trkpt lat="45.99095" lon="7.62996">
        <ele>2528.89</ele>
        <time>2010-04-16T12:17:33Z</time>
      </trkpt>
      <trkpt lat="45.991" lon="7.63014">
        <ele>2526.96</ele>
        <time>2010-04-16T12:17:36Z</time>
      </trkpt>
      <trkpt lat="45.99112" lon="7.63043">
        <ele>2525.04</ele>
        <time>2010-04-16T12:17:40Z</time>
      </trkpt>
      <trkpt lat="45.99127" lon="7.63099">
        <ele>2519.27</ele>
        <time>2010-04-16T12:17:45Z</time>
      </trkpt>
      <trkpt lat="45.99135" lon="7.63121">
        <ele>2518.79</ele>
        <time>2010-04-16T12:17:47Z</time>
      </trkpt>
      <trkpt lat="45.99154" lon="7.63174">
        <ele>2515.43</ele>
        <time>2010-04-16T12:17:52Z</time>
      </trkpt>
      <trkpt lat="45.99167" lon="7.63204">
        <ele>2512.54</ele>
        <time>2010-04-16T12:17:55Z</time>
      </trkpt>
      <trkpt lat="45.99183" lon="7.63244">
        <ele>2509.18</ele>
        <time>2010-04-16T12:17:59Z</time>
      </trkpt>
      <trkpt lat="45.99191" lon="7.63261">
        <ele>2508.22</ele>
        <time>2010-04-16T12:18:01Z</time>
      </trkpt>
      <trkpt lat="45.99209" lon="7.633">
        <ele>2507.26</ele>
        <time>2010-04-16T12:18:07Z</time>
      </trkpt>
      <trkpt lat="45.99229" lon="7.63344">
        <ele>2502.93</ele>
        <time>2010-04-16T12:18:13Z</time>
      </trkpt>
      <trkpt lat="45.99242" lon="7.63378">
        <ele>2499.57</ele>
        <time>2010-04-16T12:18:17Z</time>
      </trkpt>
      <trkpt lat="45.99245" lon="7.63387">
        <ele>2500.05</ele>
        <time>2010-04-16T12:18:18Z</time>
      </trkpt>
      <trkpt lat="45.9926" lon="7.63423">
        <ele>2496.2</ele>
        <time>2010-04-16T12:18:22Z</time>
      </trkpt>
      <trkpt lat="45.99265" lon="7.63434">
        <ele>2495.72</ele>
        <time>2010-04-16T12:18:23Z</time>
      </trkpt>
      <trkpt lat="45.9928" lon="7.63465">
        <ele>2492.36</ele>
        <time>2010-04-16T12:18:26Z</time>
      </trkpt>
      <trkpt lat="45.99298" lon="7.63496">
        <ele>2489.47</ele>
        <time>2010-04-16T12:18:29Z</time>
      </trkpt>
      <trkpt lat="45.99313" lon="7.63524">
        <ele>2488.03</ele>
        <time>2010-04-16T12:18:32Z</time>
      </trkpt>
      <trkpt lat="45.99335" lon="7.63565">
        <ele>2484.66</ele>
        <time>2010-04-16T12:18:37Z</time>
      </trkpt>
      <trkpt lat="45.99349" lon="7.63599">
        <ele>2481.3</ele>
        <time>2010-04-16T12:18:41Z</time>
      </trkpt>
      <trkpt lat="45.99352" lon="7.63607">
        <ele>2481.3</ele>
        <time>2010-04-16T12:18:42Z</time>
      </trkpt>
      <trkpt lat="45.99361" lon="7.63629">
        <ele>2478.9</ele>
        <time>2010-04-16T12:18:45Z</time>
      </trkpt>
      <trkpt lat="45.99371" lon="7.63658">
        <ele>2475.53</ele>
        <time>2010-04-16T12:18:50Z</time>
      </trkpt>
      <trkpt lat="45.99371" lon="7.6366">
        <ele>2475.05</ele>
        <time>2010-04-16T12:18:51Z</time>
      </trkpt>
      <trkpt lat="45.99372" lon="7.63664">
        <ele>2475.53</ele>
        <time>2010-04-16T12:19:02Z</time>
      </trkpt>
      <trkpt lat="45.99372" lon="7.63664">
        <ele>2475.05</ele>
        <time>2010-04-16T12:19:21Z</time>
      </trkpt>
      <trkpt lat="45.99376" lon="7.6368">
        <ele>2474.09</ele>
        <time>2010-04-16T12:19:35Z</time>
      </trkpt>
      <trkpt lat="45.99377" lon="7.63686">
        <ele>2474.57</ele>
        <time>2010-04-16T12:19:36Z</time>
      </trkpt>
      <trkpt lat="45.99388" lon="7.63729">
        <ele>2470.73</ele>
        <time>2010-04-16T12:19:42Z</time>
      </trkpt>
      <trkpt lat="45.9939" lon="7.63739">
        <ele>2470.24</ele>
        <time>2010-04-16T12:19:43Z</time>
      </trkpt>
      <trkpt lat="45.99397" lon="7.63766">
        <ele>2466.88</ele>
        <time>2010-04-16T12:19:46Z</time>
      </trkpt>
      <trkpt lat="45.99399" lon="7.63774">
        <ele>2466.88</ele>
        <time>2010-04-16T12:19:47Z</time>
      </trkpt>
      <trkpt lat="45.99406" lon="7.63805">
        <ele>2463.04</ele>
        <time>2010-04-16T12:19:50Z</time>
      </trkpt>
      <trkpt lat="45.99414" lon="7.63837">
        <ele>2459.19</ele>
        <time>2010-04-16T12:19:53Z</time>
      </trkpt>
      <trkpt lat="45.99415" lon="7.63847">
        <ele>2458.23</ele>
        <time>2010-04-16T12:19:54Z</time>
      </trkpt>
      <trkpt lat="45.99423" lon="7.63878">
        <ele>2454.86</ele>
        <time>2010-04-16T12:19:58Z</time>
      </trkpt>
      <trkpt lat="45.99427" lon="7.63902">
        <ele>2451.98</ele>
        <time>2010-04-16T12:20:01Z</time>
      </trkpt>
      <trkpt lat="45.99431" lon="7.63926">
        <ele>2450.06</ele>
        <time>2010-04-16T12:20:04Z</time>
      </trkpt>
      <trkpt lat="45.99435" lon="7.6396">
        <ele>2446.21</ele>
        <time>2010-04-16T12:20:09Z</time>
      </trkpt>
      <trkpt lat="45.99445" lon="7.63955">
        <ele>2440.92</ele>
        <time>2010-04-16T12:20:13Z</time>
      </trkpt>
      <trkpt lat="45.99452" lon="7.63949">
        <ele>2436.12</ele>
        <time>2010-04-16T12:20:17Z</time>
      </trkpt>
      <trkpt lat="45.99458" lon="7.63956">
        <ele>2432.75</ele>
        <time>2010-04-16T12:20:19Z</time>
      </trkpt>
      <trkpt lat="45.99467" lon="7.63952">
        <ele>2429.39</ele>
        <time>2010-04-16T12:20:21Z</time>
      </trkpt>
      <trkpt lat="45.99476" lon="7.63963">
        <ele>2424.1</ele>
        <time>2010-04-16T12:20:23Z</time>
      </trkpt>
      <trkpt lat="45.9949" lon="7.63985">
        <ele>2417.85</ele>
        <time>2010-04-16T12:20:26Z</time>
      </trkpt>
      <trkpt lat="45.995" lon="7.64012">
        <ele>2414.49</ele>
        <time>2010-04-16T12:20:29Z</time>
      </trkpt>
      <trkpt lat="45.99504" lon="7.64022">
        <ele>2412.09</ele>
        <time>2010-04-16T12:20:30Z</time>
      </trkpt>
      <trkpt lat="45.99526" lon="7.64101">
        <ele>2407.76</ele>
        <time>2010-04-16T12:20:37Z</time>
      </trkpt>
      <trkpt lat="45.99527" lon="7.64134">
        <ele>2406.32</ele>
        <time>2010-04-16T12:20:40Z</time>
      </trkpt>
      <trkpt lat="45.99523" lon="7.64174">
        <ele>2406.32</ele>
        <time>2010-04-16T12:20:47Z</time>
      </trkpt>
      <trkpt lat="45.99519" lon="7.64206">
        <ele>2406.8</ele>
        <time>2010-04-16T12:20:58Z</time>
      </trkpt>
      <trkpt lat="45.99519" lon="7.64244">
        <ele>2405.84</ele>
        <time>2010-04-16T12:21:09Z</time>
      </trkpt>
      <trkpt lat="45.99518" lon="7.64255">
        <ele>2405.36</ele>
        <time>2010-04-16T12:21:11Z</time>
      </trkpt>
      <trkpt lat="45.99519" lon="7.64285">
        <ele>2402.95</ele>
        <time>2010-04-16T12:21:15Z</time>
      </trkpt>
      <trkpt lat="45.9952" lon="7.64309">
        <ele>2399.59</ele>
        <time>2010-04-16T12:21:18Z</time>
      </trkpt>
      <trkpt lat="45.99524" lon="7.64332">
        <ele>2396.7</ele>
        <time>2010-04-16T12:21:21Z</time>
      </trkpt>
      <trkpt lat="45.99524" lon="7.64381">
        <ele>2392.86</ele>
        <time>2010-04-16T12:21:26Z</time>
      </trkpt>
      <trkpt lat="45.99529" lon="7.64432">
        <ele>2390.46</ele>
        <time>2010-04-16T12:21:31Z</time>
      </trkpt>
      <trkpt lat="45.99528" lon="7.64491">
        <ele>2386.61</ele>
        <time>2010-04-16T12:21:37Z</time>
      </trkpt>
      <trkpt lat="45.99523" lon="7.6452">
        <ele>2384.69</ele>
        <time>2010-04-16T12:21:41Z</time>
      </trkpt>
      <trkpt lat="45.99519" lon="7.64537">
        <ele>2384.21</ele>
        <time>2010-04-16T12:21:43Z</time>
      </trkpt>
      <trkpt lat="45.99519" lon="7.64564">
        <ele>2380.36</ele>
        <time>2010-04-16T12:21:45Z</time>
      </trkpt>
      <trkpt lat="45.99524" lon="7.6462">
        <ele>2376.52</ele>
        <time>2010-04-16T12:21:49Z</time>
      </trkpt>
      <trkpt lat="45.99533" lon="7.64703">
        <ele>2371.23</ele>
        <time>2010-04-16T12:21:58Z</time>
      </trkpt>
      <trkpt lat="45.99533" lon="7.64747">
        <ele>2367.38</ele>
        <time>2010-04-16T12:22:02Z</time>
      </trkpt>
      <trkpt lat="45.99533" lon="7.64758">
        <ele>2367.38</ele>
        <time>2010-04-16T12:22:03Z</time>
      </trkpt>
      <trkpt lat="45.99533" lon="7.64798">
        <ele>2364.5</ele>
        <time>2010-04-16T12:22:07Z</time>
      </trkpt>
      <trkpt lat="45.99534" lon="7.64807">
        <ele>2364.5</ele>
        <time>2010-04-16T12:22:08Z</time>
      </trkpt>
      <trkpt lat="45.99535" lon="7.64827">
        <ele>2363.54</ele>
        <time>2010-04-16T12:22:10Z</time>
      </trkpt>
      <trkpt lat="45.99545" lon="7.6486">
        <ele>2360.65</ele>
        <time>2010-04-16T12:22:14Z</time>
      </trkpt>
      <trkpt lat="45.99568" lon="7.64914">
        <ele>2358.73</ele>
        <time>2010-04-16T12:22:23Z</time>
      </trkpt>
      <trkpt lat="45.99585" lon="7.64962">
        <ele>2356.33</ele>
        <time>2010-04-16T12:22:29Z</time>
      </trkpt>
      <trkpt lat="45.99594" lon="7.65003">
        <ele>2354.41</ele>
        <time>2010-04-16T12:22:34Z</time>
      </trkpt>
      <trkpt lat="45.99595" lon="7.65056">
        <ele>2350.56</ele>
        <time>2010-04-16T12:22:40Z</time>
      </trkpt>
      <trkpt lat="45.99596" lon="7.65075">
        <ele>2349.6</ele>
        <time>2010-04-16T12:22:42Z</time>
      </trkpt>
      <trkpt lat="45.99596" lon="7.65095">
        <ele>2347.68</ele>
        <time>2010-04-16T12:22:44Z</time>
      </trkpt>
      <trkpt lat="45.99605" lon="7.65137">
        <ele>2343.83</ele>
        <time>2010-04-16T12:22:48Z</time>
      </trkpt>
      <trkpt lat="45.99618" lon="7.65169">
        <ele>2341.91</ele>
        <time>2010-04-16T12:22:52Z</time>
      </trkpt>
      <trkpt lat="45.99624" lon="7.65185">
        <ele>2341.91</ele>
        <time>2010-04-16T12:22:55Z</time>
      </trkpt>
      <trkpt lat="45.99626" lon="7.65247">
        <ele>2337.58</ele>
        <time>2010-04-16T12:23:04Z</time>
      </trkpt>
      <trkpt lat="45.99626" lon="7.65271">
        <ele>2335.66</ele>
        <time>2010-04-16T12:23:06Z</time>
      </trkpt>
      <trkpt lat="45.99643" lon="7.65337">
        <ele>2331.33</ele>
        <time>2010-04-16T12:23:13Z</time>
      </trkpt>
      <trkpt lat="45.9966" lon="7.65364">
        <ele>2329.89</ele>
        <time>2010-04-16T12:23:17Z</time>
      </trkpt>
      <trkpt lat="45.99676" lon="7.65404">
        <ele>2327.01</ele>
        <time>2010-04-16T12:23:22Z</time>
      </trkpt>
      <trkpt lat="45.99684" lon="7.65426">
        <ele>2325.57</ele>
        <time>2010-04-16T12:23:25Z</time>
      </trkpt>
      <trkpt lat="45.99704" lon="7.65479">
        <ele>2322.68</ele>
        <time>2010-04-16T12:23:36Z</time>
      </trkpt>
      <trkpt lat="45.99711" lon="7.65503">
        <ele>2320.76</ele>
        <time>2010-04-16T12:23:45Z</time>
      </trkpt>
      <trkpt lat="45.99711" lon="7.65503">
        <ele>2321.24</ele>
        <time>2010-04-16T12:24:11Z</time>
      </trkpt>
      <trkpt lat="45.99712" lon="7.65503">
        <ele>2321.72</ele>
        <time>2010-04-16T12:24:30Z</time>
      </trkpt>
      <trkpt lat="45.99712" lon="7.65503">
        <ele>2321.72</ele>
        <time>2010-04-16T12:24:45Z</time>
      </trkpt>
      <trkpt lat="45.99721" lon="7.65518">
        <ele>2319.8</ele>
        <time>2010-04-16T12:24:50Z</time>
      </trkpt>
      <trkpt lat="45.9974" lon="7.65573">
        <ele>2315.95</ele>
        <time>2010-04-16T12:24:57Z</time>
      </trkpt>
      <trkpt lat="45.99743" lon="7.65582">
        <ele>2315.95</ele>
        <time>2010-04-16T12:24:58Z</time>
      </trkpt>
      <trkpt lat="45.99761" lon="7.65635">
        <ele>2312.59</ele>
        <time>2010-04-16T12:25:04Z</time>
      </trkpt>
      <trkpt lat="45.99773" lon="7.6567">
        <ele>2309.22</ele>
        <time>2010-04-16T12:25:08Z</time>
      </trkpt>
      <trkpt lat="45.99776" lon="7.65679">
        <ele>2309.22</ele>
        <time>2010-04-16T12:25:09Z</time>
      </trkpt>
      <trkpt lat="45.99795" lon="7.65734">
        <ele>2304.42</ele>
        <time>2010-04-16T12:25:15Z</time>
      </trkpt>
      <trkpt lat="45.99798" lon="7.65743">
        <ele>2304.42</ele>
        <time>2010-04-16T12:25:16Z</time>
      </trkpt>
      <trkpt lat="45.99815" lon="7.65795">
        <ele>2300.09</ele>
        <time>2010-04-16T12:25:22Z</time>
      </trkpt>
      <trkpt lat="45.99832" lon="7.65845">
        <ele>2296.73</ele>
        <time>2010-04-16T12:25:28Z</time>
      </trkpt>
      <trkpt lat="45.99837" lon="7.65863">
        <ele>2295.28</ele>
        <time>2010-04-16T12:25:30Z</time>
      </trkpt>
      <trkpt lat="45.99848" lon="7.65904">
        <ele>2291.44</ele>
        <time>2010-04-16T12:25:34Z</time>
      </trkpt>
      <trkpt lat="45.99862" lon="7.6595">
        <ele>2288.08</ele>
        <time>2010-04-16T12:25:39Z</time>
      </trkpt>
      <trkpt lat="45.99875" lon="7.65992">
        <ele>2286.15</ele>
        <time>2010-04-16T12:25:45Z</time>
      </trkpt>
      <trkpt lat="45.99876" lon="7.65998">
        <ele>2286.63</ele>
        <time>2010-04-16T12:25:46Z</time>
      </trkpt>
      <trkpt lat="45.99882" lon="7.66029">
        <ele>2284.71</ele>
        <time>2010-04-16T12:25:51Z</time>
      </trkpt>
      <trkpt lat="45.99901" lon="7.66104">
        <ele>2280.87</ele>
        <time>2010-04-16T12:26:03Z</time>
      </trkpt>
      <trkpt lat="45.99915" lon="7.66172">
        <ele>2278.46</ele>
        <time>2010-04-16T12:26:15Z</time>
      </trkpt>
      <trkpt lat="45.99927" lon="7.66237">
        <ele>2277.02</ele>
        <time>2010-04-16T12:26:28Z</time>
      </trkpt>
      <trkpt lat="45.99936" lon="7.66275">
        <ele>2274.14</ele>
        <time>2010-04-16T12:26:34Z</time>
      </trkpt>
      <trkpt lat="45.99948" lon="7.66314">
        <ele>2270.77</ele>
        <time>2010-04-16T12:26:38Z</time>
      </trkpt>
      <trkpt lat="45.99963" lon="7.66356">
        <ele>2267.89</ele>
        <time>2010-04-16T12:26:42Z</time>
      </trkpt>
      <trkpt lat="45.9998" lon="7.66409">
        <ele>2264.52</ele>
        <time>2010-04-16T12:26:47Z</time>
      </trkpt>
      <trkpt lat="46.00009" lon="7.66483">
        <ele>2261.16</ele>
        <time>2010-04-16T12:26:57Z</time>
      </trkpt>
      <trkpt lat="46.00029" lon="7.66525">
        <ele>2258.75</ele>
        <time>2010-04-16T12:27:04Z</time>
      </trkpt>
      <trkpt lat="46.00061" lon="7.66597">
        <ele>2255.87</ele>
        <time>2010-04-16T12:27:17Z</time>
      </trkpt>
      <trkpt lat="46.00096" lon="7.66674">
        <ele>2252.51</ele>
        <time>2010-04-16T12:27:32Z</time>
      </trkpt>
      <trkpt lat="46.00128" lon="7.66731">
        <ele>2251.06</ele>
        <time>2010-04-16T12:27:46Z</time>
      </trkpt>
      <trkpt lat="46.00138" lon="7.66757">
        <ele>2250.1</ele>
        <time>2010-04-16T12:27:54Z</time>
      </trkpt>
      <trkpt lat="46.00139" lon="7.66762">
        <ele>2250.1</ele>
        <time>2010-04-16T12:28:08Z</time>
      </trkpt>
      <trkpt lat="46.00139" lon="7.66762">
        <ele>2249.62</ele>
        <time>2010-04-16T12:28:28Z</time>
      </trkpt>
      <trkpt lat="46.0014" lon="7.66762">
        <ele>2250.1</ele>
        <time>2010-04-16T12:28:51Z</time>
      </trkpt>
      <trkpt lat="46.0014" lon="7.66762">
        <ele>2250.58</ele>
        <time>2010-04-16T12:29:13Z</time>
      </trkpt>
      <trkpt lat="46.00139" lon="7.66762">
        <ele>2250.1</ele>
        <time>2010-04-16T12:29:33Z</time>
      </trkpt>
      <trkpt lat="46.00139" lon="7.66762">
        <ele>2249.62</ele>
        <time>2010-04-16T12:29:54Z</time>
      </trkpt>
      <trkpt lat="46.00139" lon="7.66762">
        <ele>2250.1</ele>
        <time>2010-04-16T12:30:20Z</time>
      </trkpt>
      <trkpt lat="46.0014" lon="7.66763">
        <ele>2250.1</ele>
        <time>2010-04-16T12:30:30Z</time>
      </trkpt>
      <trkpt lat="46.00152" lon="7.66813">
        <ele>2248.18</ele>
        <time>2010-04-16T12:30:44Z</time>
      </trkpt>
      <trkpt lat="46.00164" lon="7.66868">
        <ele>2245.78</ele>
        <time>2010-04-16T12:30:51Z</time>
      </trkpt>
      <trkpt lat="46.00173" lon="7.66902">
        <ele>2243.37</ele>
        <time>2010-04-16T12:30:55Z</time>
      </trkpt>
      <trkpt lat="46.00194" lon="7.6695">
        <ele>2239.53</ele>
        <time>2010-04-16T12:31:01Z</time>
      </trkpt>
      <trkpt lat="46.00226" lon="7.67007">
        <ele>2238.57</ele>
        <time>2010-04-16T12:31:10Z</time>
      </trkpt>
      <trkpt lat="46.00235" lon="7.67031">
        <ele>2237.61</ele>
        <time>2010-04-16T12:31:14Z</time>
      </trkpt>
      <trkpt lat="46.00239" lon="7.67058">
        <ele>2235.68</ele>
        <time>2010-04-16T12:31:18Z</time>
      </trkpt>
      <trkpt lat="46.00238" lon="7.67071">
        <ele>2235.2</ele>
        <time>2010-04-16T12:31:20Z</time>
      </trkpt>
      <trkpt lat="46.00242" lon="7.67099">
        <ele>2234.72</ele>
        <time>2010-04-16T12:31:24Z</time>
      </trkpt>
      <trkpt lat="46.00246" lon="7.67111">
        <ele>2233.28</ele>
        <time>2010-04-16T12:31:26Z</time>
      </trkpt>
      <trkpt lat="46.00261" lon="7.67165">
        <ele>2233.28</ele>
        <time>2010-04-16T12:31:37Z</time>
      </trkpt>
      <trkpt lat="46.00268" lon="7.6718">
        <ele>2232.32</ele>
        <time>2010-04-16T12:31:41Z</time>
      </trkpt>
      <trkpt lat="46.003" lon="7.67192">
        <ele>2230.88</ele>
        <time>2010-04-16T12:31:53Z</time>
      </trkpt>
      <trkpt lat="46.00305" lon="7.67196">
        <ele>2229.92</ele>
        <time>2010-04-16T12:31:57Z</time>
      </trkpt>
      <trkpt lat="46.00327" lon="7.67212">
        <ele>2228.47</ele>
        <time>2010-04-16T12:32:08Z</time>
      </trkpt>
      <trkpt lat="46.00328" lon="7.67212">
        <ele>2228.47</ele>
        <time>2010-04-16T12:32:10Z</time>
      </trkpt>
      <trkpt lat="46.00336" lon="7.67215">
        <ele>2227.99</ele>
        <time>2010-04-16T12:32:13Z</time>
      </trkpt>
      <trkpt lat="46.00352" lon="7.67231">
        <ele>2225.59</ele>
        <time>2010-04-16T12:32:16Z</time>
      </trkpt>
      <trkpt lat="46.00357" lon="7.67238">
        <ele>2224.15</ele>
        <time>2010-04-16T12:32:17Z</time>
      </trkpt>
      <trkpt lat="46.00368" lon="7.67252">
        <ele>2223.19</ele>
        <time>2010-04-16T12:32:19Z</time>
      </trkpt>
      <trkpt lat="46.00372" lon="7.67259">
        <ele>2221.26</ele>
        <time>2010-04-16T12:32:20Z</time>
      </trkpt>
      <trkpt lat="46.00384" lon="7.67292">
        <ele>2220.3</ele>
        <time>2010-04-16T12:32:24Z</time>
      </trkpt>
      <trkpt lat="46.00385" lon="7.673">
        <ele>2219.82</ele>
        <time>2010-04-16T12:32:25Z</time>
      </trkpt>
      <trkpt lat="46.00381" lon="7.67353">
        <ele>2218.86</ele>
        <time>2010-04-16T12:32:36Z</time>
      </trkpt>
      <trkpt lat="46.00371" lon="7.67379">
        <ele>2217.9</ele>
        <time>2010-04-16T12:32:41Z</time>
      </trkpt>
      <trkpt lat="46.00367" lon="7.67391">
        <ele>2217.42</ele>
        <time>2010-04-16T12:32:43Z</time>
      </trkpt>
      <trkpt lat="46.00347" lon="7.67448">
        <ele>2215.98</ele>
        <time>2010-04-16T12:32:54Z</time>
      </trkpt>
      <trkpt lat="46.00343" lon="7.67482">
        <ele>2214.53</ele>
        <time>2010-04-16T12:32:59Z</time>
      </trkpt>
      <trkpt lat="46.00337" lon="7.67524">
        <ele>2211.65</ele>
        <time>2010-04-16T12:33:04Z</time>
      </trkpt>
      <trkpt lat="46.0034" lon="7.67587">
        <ele>2208.29</ele>
        <time>2010-04-16T12:33:11Z</time>
      </trkpt>
      <trkpt lat="46.00336" lon="7.67657">
        <ele>2204.92</ele>
        <time>2010-04-16T12:33:19Z</time>
      </trkpt>
      <trkpt lat="46.00335" lon="7.67666">
        <ele>2204.44</ele>
        <time>2010-04-16T12:33:20Z</time>
      </trkpt>
      <trkpt lat="46.00333" lon="7.67675">
        <ele>2203.96</ele>
        <time>2010-04-16T12:33:21Z</time>
      </trkpt>
      <trkpt lat="46.00323" lon="7.67703">
        <ele>2202.52</ele>
        <time>2010-04-16T12:33:25Z</time>
      </trkpt>
      <trkpt lat="46.00314" lon="7.67728">
        <ele>2201.56</ele>
        <time>2010-04-16T12:33:29Z</time>
      </trkpt>
      <trkpt lat="46.00313" lon="7.67744">
        <ele>2201.08</ele>
        <time>2010-04-16T12:33:31Z</time>
      </trkpt>
      <trkpt lat="46.00309" lon="7.67778">
        <ele>2198.19</ele>
        <time>2010-04-16T12:33:35Z</time>
      </trkpt>
      <trkpt lat="46.00299" lon="7.67806">
        <ele>2197.71</ele>
        <time>2010-04-16T12:33:39Z</time>
      </trkpt>
      <trkpt lat="46.00283" lon="7.67834">
        <ele>2196.27</ele>
        <time>2010-04-16T12:33:43Z</time>
      </trkpt>
      <trkpt lat="46.00274" lon="7.67868">
        <ele>2192.42</ele>
        <time>2010-04-16T12:33:47Z</time>
      </trkpt>
      <trkpt lat="46.00271" lon="7.67883">
        <ele>2191.46</ele>
        <time>2010-04-16T12:33:49Z</time>
      </trkpt>
      <trkpt lat="46.00273" lon="7.67896">
        <ele>2190.98</ele>
        <time>2010-04-16T12:33:51Z</time>
      </trkpt>
      <trkpt lat="46.00277" lon="7.67937">
        <ele>2190.02</ele>
        <time>2010-04-16T12:33:57Z</time>
      </trkpt>
      <trkpt lat="46.00274" lon="7.68007">
        <ele>2188.1</ele>
        <time>2010-04-16T12:34:10Z</time>
      </trkpt>
      <trkpt lat="46.00279" lon="7.68049">
        <ele>2186.66</ele>
        <time>2010-04-16T12:34:20Z</time>
      </trkpt>
      <trkpt lat="46.00281" lon="7.68053">
        <ele>2187.62</ele>
        <time>2010-04-16T12:34:29Z</time>
      </trkpt>
      <trkpt lat="46.00282" lon="7.68054">
        <ele>2188.1</ele>
        <time>2010-04-16T12:34:30Z</time>
      </trkpt>
      <trkpt lat="46.00284" lon="7.68062">
        <ele>2189.06</ele>
        <time>2010-04-16T12:34:44Z</time>
      </trkpt>
      <trkpt lat="46.00286" lon="7.68073">
        <ele>2191.46</ele>
        <time>2010-04-16T12:34:58Z</time>
      </trkpt>
      <trkpt lat="46.00286" lon="7.68084">
        <ele>2191.46</ele>
        <time>2010-04-16T12:35:08Z</time>
      </trkpt>
      <trkpt lat="46.00299" lon="7.68094">
        <ele>2192.42</ele>
        <time>2010-04-16T12:35:21Z</time>
      </trkpt>
      <trkpt lat="46.00304" lon="7.68098">
        <ele>2191.46</ele>
        <time>2010-04-16T12:35:39Z</time>
      </trkpt>
      <trkpt lat="46.00321" lon="7.68117">
        <ele>2191.46</ele>
        <time>2010-04-16T12:35:52Z</time>
      </trkpt>
      <trkpt lat="46.00326" lon="7.68122">
        <ele>2190.98</ele>
        <time>2010-04-16T12:35:59Z</time>
      </trkpt>
      <trkpt lat="46.00335" lon="7.68132">
        <ele>2191.46</ele>
        <time>2010-04-16T12:36:11Z</time>
      </trkpt>
      <trkpt lat="46.00338" lon="7.68135">
        <ele>2191.94</ele>
        <time>2010-04-16T12:36:14Z</time>
      </trkpt>
      <trkpt lat="46.00345" lon="7.68144">
        <ele>2192.42</ele>
        <time>2010-04-16T12:36:24Z</time>
      </trkpt>
      <trkpt lat="46.00349" lon="7.68149">
        <ele>2193.87</ele>
        <time>2010-04-16T12:36:34Z</time>
      </trkpt>
      <trkpt lat="46.00364" lon="7.68161">
        <ele>2194.35</ele>
        <time>2010-04-16T12:36:48Z</time>
      </trkpt>
      <trkpt lat="46.00366" lon="7.68163">
        <ele>2193.39</ele>
        <time>2010-04-16T12:36:50Z</time>
      </trkpt>
      <trkpt lat="46.00367" lon="7.68165">
        <ele>2192.42</ele>
        <time>2010-04-16T12:37:06Z</time>
      </trkpt>
      <trkpt lat="46.00367" lon="7.68164">
        <ele>2192.42</ele>
        <time>2010-04-16T12:37:27Z</time>
      </trkpt>
      <trkpt lat="46.00367" lon="7.68164">
        <ele>2192.42</ele>
        <time>2010-04-16T12:37:53Z</time>
      </trkpt>
      <trkpt lat="46.00367" lon="7.68166">
        <ele>2192.42</ele>
        <time>2010-04-16T12:38:23Z</time>
      </trkpt>
      <trkpt lat="46.00371" lon="7.6817">
        <ele>2193.39</ele>
        <time>2010-04-16T12:38:28Z</time>
      </trkpt>
      <trkpt lat="46.00378" lon="7.68182">
        <ele>2192.42</ele>
        <time>2010-04-16T12:38:37Z</time>
      </trkpt>
      <trkpt lat="46.00388" lon="7.68201">
        <ele>2193.39</ele>
        <time>2010-04-16T12:38:51Z</time>
      </trkpt>
      <trkpt lat="46.00389" lon="7.68203">
        <ele>2193.87</ele>
        <time>2010-04-16T12:38:52Z</time>
      </trkpt>
      <trkpt lat="46.00392" lon="7.68211">
        <ele>2195.31</ele>
        <time>2010-04-16T12:38:57Z</time>
      </trkpt>
      <trkpt lat="46.00394" lon="7.68217">
        <ele>2194.83</ele>
        <time>2010-04-16T12:39:02Z</time>
      </trkpt>
      <trkpt lat="46.00402" lon="7.68237">
        <ele>2195.79</ele>
        <time>2010-04-16T12:39:16Z</time>
      </trkpt>
      <trkpt lat="46.00411" lon="7.68261">
        <ele>2196.27</ele>
        <time>2010-04-16T12:39:31Z</time>
      </trkpt>
      <trkpt lat="46.00414" lon="7.68269">
        <ele>2195.79</ele>
        <time>2010-04-16T12:39:37Z</time>
      </trkpt>
      <trkpt lat="46.00415" lon="7.68278">
        <ele>2196.75</ele>
        <time>2010-04-16T12:39:42Z</time>
      </trkpt>
      <trkpt lat="46.00417" lon="7.68292">
        <ele>2196.75</ele>
        <time>2010-04-16T12:39:51Z</time>
      </trkpt>
      <trkpt lat="46.00419" lon="7.68297">
        <ele>2195.31</ele>
        <time>2010-04-16T12:39:54Z</time>
      </trkpt>
      <trkpt lat="46.00421" lon="7.68306">
        <ele>2195.79</ele>
        <time>2010-04-16T12:39:59Z</time>
      </trkpt>
      <trkpt lat="46.00425" lon="7.68325">
        <ele>2195.79</ele>
        <time>2010-04-16T12:40:11Z</time>
      </trkpt>
      <trkpt lat="46.00426" lon="7.68328">
        <ele>2195.31</ele>
        <time>2010-04-16T12:40:13Z</time>
      </trkpt>
      <trkpt lat="46.00426" lon="7.68337">
        <ele>2195.79</ele>
        <time>2010-04-16T12:40:19Z</time>
      </trkpt>
      <trkpt lat="46.00422" lon="7.68349">
        <ele>2195.31</ele>
        <time>2010-04-16T12:40:27Z</time>
      </trkpt>
      <trkpt lat="46.00416" lon="7.68358">
        <ele>2193.87</ele>
        <time>2010-04-16T12:40:35Z</time>
      </trkpt>
      <trkpt lat="46.00413" lon="7.68363">
        <ele>2193.87</ele>
        <time>2010-04-16T12:40:39Z</time>
      </trkpt>
      <trkpt lat="46.00403" lon="7.68372">
        <ele>2194.83</ele>
        <time>2010-04-16T12:40:53Z</time>
      </trkpt>
      <trkpt lat="46.004" lon="7.68374">
        <ele>2194.35</ele>
        <time>2010-04-16T12:40:56Z</time>
      </trkpt>
      <trkpt lat="46.0039" lon="7.68375">
        <ele>2193.39</ele>
        <time>2010-04-16T12:41:05Z</time>
      </trkpt>
      <trkpt lat="46.00383" lon="7.68376">
        <ele>2193.87</ele>
        <time>2010-04-16T12:41:11Z</time>
      </trkpt>
      <trkpt lat="46.00368" lon="7.68382">
        <ele>2192.9</ele>
        <time>2010-04-16T12:41:22Z</time>
      </trkpt>
      <trkpt lat="46.00358" lon="7.68393">
        <ele>2193.87</ele>
        <time>2010-04-16T12:41:34Z</time>
      </trkpt>
      <trkpt lat="46.00357" lon="7.68394">
        <ele>2193.39</ele>
        <time>2010-04-16T12:41:35Z</time>
      </trkpt>
      <trkpt lat="46.00357" lon="7.68397">
        <ele>2192.9</ele>
        <time>2010-04-16T12:41:37Z</time>
      </trkpt>
      <trkpt lat="46.00356" lon="7.68402">
        <ele>2193.87</ele>
        <time>2010-04-16T12:41:41Z</time>
      </trkpt>
      <trkpt lat="46.00358" lon="7.68414">
        <ele>2194.35</ele>
        <time>2010-04-16T12:41:51Z</time>
      </trkpt>
      <trkpt lat="46.00357" lon="7.6842">
        <ele>2196.27</ele>
        <time>2010-04-16T12:41:55Z</time>
      </trkpt>
      <trkpt lat="46.00358" lon="7.68431">
        <ele>2196.75</ele>
        <time>2010-04-16T12:42:03Z</time>
      </trkpt>
      <trkpt lat="46.00356" lon="7.68437">
        <ele>2196.75</ele>
        <time>2010-04-16T12:42:07Z</time>
      </trkpt>
      <trkpt lat="46.00358" lon="7.68455">
        <ele>2198.67</ele>
        <time>2010-04-16T12:42:22Z</time>
      </trkpt>
      <trkpt lat="46.0036" lon="7.68461">
        <ele>2198.67</ele>
        <time>2010-04-16T12:42:27Z</time>
      </trkpt>
      <trkpt lat="46.00367" lon="7.68481">
        <ele>2198.67</ele>
        <time>2010-04-16T12:42:42Z</time>
      </trkpt>
      <trkpt lat="46.00373" lon="7.68498">
        <ele>2200.11</ele>
        <time>2010-04-16T12:42:55Z</time>
      </trkpt>
      <trkpt lat="46.00378" lon="7.68512">
        <ele>2200.59</ele>
        <time>2010-04-16T12:43:05Z</time>
      </trkpt>
      <trkpt lat="46.00382" lon="7.68522">
        <ele>2200.59</ele>
        <time>2010-04-16T12:43:12Z</time>
      </trkpt>
      <trkpt lat="46.00382" lon="7.68525">
        <ele>2200.59</ele>
        <time>2010-04-16T12:43:14Z</time>
      </trkpt>
      <trkpt lat="46.00384" lon="7.68529">
        <ele>2200.59</ele>
        <time>2010-04-16T12:43:17Z</time>
      </trkpt>
      <trkpt lat="46.00385" lon="7.68533">
        <ele>2200.59</ele>
        <time>2010-04-16T12:43:20Z</time>
      </trkpt>
      <trkpt lat="46.00388" lon="7.68539">
        <ele>2200.59</ele>
        <time>2010-04-16T12:43:24Z</time>
      </trkpt>
      <trkpt lat="46.00396" lon="7.68551">
        <ele>2200.59</ele>
        <time>2010-04-16T12:43:34Z</time>
      </trkpt>
      <trkpt lat="46.00401" lon="7.68559">
        <ele>2200.11</ele>
        <time>2010-04-16T12:43:40Z</time>
      </trkpt>
      <trkpt lat="46.00403" lon="7.68567">
        <ele>2200.59</ele>
        <time>2010-04-16T12:43:45Z</time>
      </trkpt>
      <trkpt lat="46.00404" lon="7.68581">
        <ele>2201.08</ele>
        <time>2010-04-16T12:43:53Z</time>
      </trkpt>
      <trkpt lat="46.00408" lon="7.68605">
        <ele>2199.15</ele>
        <time>2010-04-16T12:44:06Z</time>
      </trkpt>
      <trkpt lat="46.00408" lon="7.6861">
        <ele>2199.63</ele>
        <time>2010-04-16T12:44:09Z</time>
      </trkpt>
      <trkpt lat="46.00409" lon="7.68617">
        <ele>2199.15</ele>
        <time>2010-04-16T12:44:13Z</time>
      </trkpt>
      <trkpt lat="46.00408" lon="7.68634">
        <ele>2200.11</ele>
        <time>2010-04-16T12:44:23Z</time>
      </trkpt>
      <trkpt lat="46.00408" lon="7.68638">
        <ele>2200.11</ele>
        <time>2010-04-16T12:44:25Z</time>
      </trkpt>
      <trkpt lat="46.00407" lon="7.68648">
        <ele>2200.59</ele>
        <time>2010-04-16T12:44:31Z</time>
      </trkpt>
      <trkpt lat="46.00407" lon="7.68652">
        <ele>2202.04</ele>
        <time>2010-04-16T12:44:34Z</time>
      </trkpt>
      <trkpt lat="46.00413" lon="7.68668">
        <ele>2203.96</ele>
        <time>2010-04-16T12:44:45Z</time>
      </trkpt>
      <trkpt lat="46.00424" lon="7.68689">
        <ele>2203.96</ele>
        <time>2010-04-16T12:45:00Z</time>
      </trkpt>
      <trkpt lat="46.0043" lon="7.68701">
        <ele>2204.92</ele>
        <time>2010-04-16T12:45:08Z</time>
      </trkpt>
      <trkpt lat="46.0043" lon="7.68707">
        <ele>2204.92</ele>
        <time>2010-04-16T12:45:19Z</time>
      </trkpt>
      <trkpt lat="46.0043" lon="7.68707">
        <ele>2204.92</ele>
        <time>2010-04-16T12:45:33Z</time>
      </trkpt>
      <trkpt lat="46.00431" lon="7.68708">
        <ele>2204.44</ele>
        <time>2010-04-16T12:45:47Z</time>
      </trkpt>
      <trkpt lat="46.00431" lon="7.68709">
        <ele>2205.4</ele>
        <time>2010-04-16T12:45:59Z</time>
      </trkpt>
      <trkpt lat="46.00431" lon="7.6871">
        <ele>2204.92</ele>
        <time>2010-04-16T12:46:15Z</time>
      </trkpt>
      <trkpt lat="46.00431" lon="7.68713">
        <ele>2204.44</ele>
        <time>2010-04-16T12:46:26Z</time>
      </trkpt>
      <trkpt lat="46.00431" lon="7.68713">
        <ele>2204.44</ele>
        <time>2010-04-16T12:46:47Z</time>
      </trkpt>
      <trkpt lat="46.0043" lon="7.68713">
        <ele>2204.92</ele>
        <time>2010-04-16T12:47:17Z</time>
      </trkpt>
      <trkpt lat="46.00432" lon="7.68712">
        <ele>2204.44</ele>
        <time>2010-04-16T12:47:32Z</time>
      </trkpt>
      <trkpt lat="46.00432" lon="7.68712">
        <ele>2204.44</ele>
        <time>2010-04-16T12:47:35Z</time>
      </trkpt>
      <trkpt lat="46.0043" lon="7.6871">
        <ele>2204.44</ele>
        <time>2010-04-16T12:47:48Z</time>
      </trkpt>
      <trkpt lat="46.00429" lon="7.68709">
        <ele>2204.92</ele>
        <time>2010-04-16T12:48:03Z</time>
      </trkpt>
      <trkpt lat="46.00429" lon="7.68709">
        <ele>2205.88</ele>
        <time>2010-04-16T12:48:09Z</time>
      </trkpt>
      <trkpt lat="46.00429" lon="7.68709">
        <ele>2203.96</ele>
        <time>2010-04-16T12:48:38Z</time>
      </trkpt>
      <trkpt lat="46.00428" lon="7.68711">
        <ele>2205.4</ele>
        <time>2010-04-16T12:48:51Z</time>
      </trkpt>
      <trkpt lat="46.00427" lon="7.6871">
        <ele>2205.4</ele>
        <time>2010-04-16T12:48:56Z</time>
      </trkpt>
      <trkpt lat="46.00421" lon="7.68707">
        <ele>2207.81</ele>
        <time>2010-04-16T12:49:09Z</time>
      </trkpt>
      <trkpt lat="46.00418" lon="7.68716">
        <ele>2207.81</ele>
        <time>2010-04-16T12:49:20Z</time>
      </trkpt>
      <trkpt lat="46.00418" lon="7.68715">
        <ele>2208.29</ele>
        <time>2010-04-16T12:49:31Z</time>
      </trkpt>
      <trkpt lat="46.00418" lon="7.68721">
        <ele>2206.84</ele>
        <time>2010-04-16T12:49:39Z</time>
      </trkpt>
      <trkpt lat="46.00421" lon="7.68731">
        <ele>2207.81</ele>
        <time>2010-04-16T12:49:51Z</time>
      </trkpt>
      <trkpt lat="46.00422" lon="7.68735">
        <ele>2208.29</ele>
        <time>2010-04-16T12:49:54Z</time>
      </trkpt>
      <trkpt lat="46.00422" lon="7.68741">
        <ele>2208.29</ele>
        <time>2010-04-16T12:50:01Z</time>
      </trkpt>
      <trkpt lat="46.00422" lon="7.68755">
        <ele>2208.77</ele>
        <time>2010-04-16T12:50:14Z</time>
      </trkpt>
      <trkpt lat="46.0042" lon="7.68756">
        <ele>2207.81</ele>
        <time>2010-04-16T12:50:23Z</time>
      </trkpt>
      <trkpt lat="46.0042" lon="7.68756">
        <ele>2207.81</ele>
        <time>2010-04-16T12:51:06Z</time>
      </trkpt>
      <trkpt lat="46.0042" lon="7.68756">
        <ele>2208.29</ele>
        <time>2010-04-16T12:51:19Z</time>
      </trkpt>
      <trkpt lat="46.0042" lon="7.68755">
        <ele>2207.81</ele>
        <time>2010-04-16T12:51:37Z</time>
      </trkpt>
      <trkpt lat="46.0042" lon="7.68755">
        <ele>2208.29</ele>
        <time>2010-04-16T12:51:52Z</time>
      </trkpt>
      <trkpt lat="46.0042" lon="7.68755">
        <ele>2208.77</ele>
        <time>2010-04-16T12:52:00Z</time>
      </trkpt>
      <trkpt lat="46.00421" lon="7.68758">
        <ele>2208.29</ele>
        <time>2010-04-16T12:52:28Z</time>
      </trkpt>
      <trkpt lat="46.00422" lon="7.68764">
        <ele>2207.81</ele>
        <time>2010-04-16T12:52:40Z</time>
      </trkpt>
      <trkpt lat="46.00425" lon="7.68768">
        <ele>2206.84</ele>
        <time>2010-04-16T12:52:42Z</time>
      </trkpt>
      <trkpt lat="46.00432" lon="7.68779">
        <ele>2206.84</ele>
        <time>2010-04-16T12:52:47Z</time>
      </trkpt>
      <trkpt lat="46.00453" lon="7.68808">
        <ele>2202.04</ele>
        <time>2010-04-16T12:52:54Z</time>
      </trkpt>
      <trkpt lat="46.00459" lon="7.68824">
        <ele>2198.19</ele>
        <time>2010-04-16T12:52:57Z</time>
      </trkpt>
      <trkpt lat="46.0046" lon="7.68829">
        <ele>2196.27</ele>
        <time>2010-04-16T12:52:58Z</time>
      </trkpt>
      <trkpt lat="46.00469" lon="7.68863">
        <ele>2190.5</ele>
        <time>2010-04-16T12:53:02Z</time>
      </trkpt>
      <trkpt lat="46.00473" lon="7.68891">
        <ele>2185.69</ele>
        <time>2010-04-16T12:53:04Z</time>
      </trkpt>
      <trkpt lat="46.00477" lon="7.68905">
        <ele>2184.73</ele>
        <time>2010-04-16T12:53:05Z</time>
      </trkpt>
      <trkpt lat="46.00491" lon="7.68946">
        <ele>2179.45</ele>
        <time>2010-04-16T12:53:08Z</time>
      </trkpt>
      <trkpt lat="46.00496" lon="7.68958">
        <ele>2179.93</ele>
        <time>2010-04-16T12:53:09Z</time>
      </trkpt>
      <trkpt lat="46.00507" lon="7.69015">
        <ele>2176.56</ele>
        <time>2010-04-16T12:53:14Z</time>
      </trkpt>
      <trkpt lat="46.0051" lon="7.69088">
        <ele>2173.2</ele>
        <time>2010-04-16T12:53:21Z</time>
      </trkpt>
      <trkpt lat="46.00514" lon="7.69141">
        <ele>2169.83</ele>
        <time>2010-04-16T12:53:26Z</time>
      </trkpt>
      <trkpt lat="46.00518" lon="7.6917">
        <ele>2167.43</ele>
        <time>2010-04-16T12:53:29Z</time>
      </trkpt>
      <trkpt lat="46.00523" lon="7.692">
        <ele>2163.58</ele>
        <time>2010-04-16T12:53:32Z</time>
      </trkpt>
      <trkpt lat="46.00538" lon="7.69229">
        <ele>2158.3</ele>
        <time>2010-04-16T12:53:35Z</time>
      </trkpt>
      <trkpt lat="46.00544" lon="7.69238">
        <ele>2158.3</ele>
        <time>2010-04-16T12:53:36Z</time>
      </trkpt>
      <trkpt lat="46.00564" lon="7.69265">
        <ele>2153.01</ele>
        <time>2010-04-16T12:53:40Z</time>
      </trkpt>
      <trkpt lat="46.00576" lon="7.69283">
        <ele>2148.68</ele>
        <time>2010-04-16T12:53:43Z</time>
      </trkpt>
      <trkpt lat="46.0058" lon="7.69305">
        <ele>2142.92</ele>
        <time>2010-04-16T12:53:46Z</time>
      </trkpt>
      <trkpt lat="46.00581" lon="7.69327">
        <ele>2138.59</ele>
        <time>2010-04-16T12:53:49Z</time>
      </trkpt>
      <trkpt lat="46.00583" lon="7.69345">
        <ele>2135.71</ele>
        <time>2010-04-16T12:53:51Z</time>
      </trkpt>
      <trkpt lat="46.00585" lon="7.69368">
        <ele>2131.86</ele>
        <time>2010-04-16T12:53:54Z</time>
      </trkpt>
      <trkpt lat="46.00587" lon="7.69393">
        <ele>2127.53</ele>
        <time>2010-04-16T12:53:57Z</time>
      </trkpt>
      <trkpt lat="46.00593" lon="7.69418">
        <ele>2123.69</ele>
        <time>2010-04-16T12:54:00Z</time>
      </trkpt>
      <trkpt lat="46.00597" lon="7.69434">
        <ele>2119.84</ele>
        <time>2010-04-16T12:54:02Z</time>
      </trkpt>
      <trkpt lat="46.00598" lon="7.69452">
        <ele>2114.56</ele>
        <time>2010-04-16T12:54:04Z</time>
      </trkpt>
      <trkpt lat="46.00597" lon="7.69477">
        <ele>2113.6</ele>
        <time>2010-04-16T12:54:06Z</time>
      </trkpt>
      <trkpt lat="46.00605" lon="7.69521">
        <ele>2106.39</ele>
        <time>2010-04-16T12:54:09Z</time>
      </trkpt>
      <trkpt lat="46.00606" lon="7.69559">
        <ele>2103.98</ele>
        <time>2010-04-16T12:54:12Z</time>
      </trkpt>
      <trkpt lat="46.00609" lon="7.69581">
        <ele>2100.62</ele>
        <time>2010-04-16T12:54:14Z</time>
      </trkpt>
      <trkpt lat="46.00628" lon="7.6962">
        <ele>2096.29</ele>
        <time>2010-04-16T12:54:18Z</time>
      </trkpt>
      <trkpt lat="46.00645" lon="7.69646">
        <ele>2091.97</ele>
        <time>2010-04-16T12:54:21Z</time>
      </trkpt>
      <trkpt lat="46.00654" lon="7.69659">
        <ele>2090.52</ele>
        <time>2010-04-16T12:54:23Z</time>
      </trkpt>
      <trkpt lat="46.00665" lon="7.69689">
        <ele>2087.16</ele>
        <time>2010-04-16T12:54:27Z</time>
      </trkpt>
      <trkpt lat="46.00671" lon="7.69722">
        <ele>2084.28</ele>
        <time>2010-04-16T12:54:30Z</time>
      </trkpt>
      <trkpt lat="46.00673" lon="7.69756">
        <ele>2081.39</ele>
        <time>2010-04-16T12:54:33Z</time>
      </trkpt>
      <trkpt lat="46.00676" lon="7.69823">
        <ele>2079.95</ele>
        <time>2010-04-16T12:54:41Z</time>
      </trkpt>
      <trkpt lat="46.00682" lon="7.69851">
        <ele>2079.95</ele>
        <time>2010-04-16T12:54:46Z</time>
      </trkpt>
      <trkpt lat="46.00692" lon="7.6987">
        <ele>2078.51</ele>
        <time>2010-04-16T12:54:50Z</time>
      </trkpt>
      <trkpt lat="46.00716" lon="7.69915">
        <ele>2076.59</ele>
        <time>2010-04-16T12:55:02Z</time>
      </trkpt>
      <trkpt lat="46.00724" lon="7.6996">
        <ele>2075.62</ele>
        <time>2010-04-16T12:55:15Z</time>
      </trkpt>
      <trkpt lat="46.00729" lon="7.69992">
        <ele>2074.66</ele>
        <time>2010-04-16T12:55:25Z</time>
      </trkpt>
      <trkpt lat="46.00728" lon="7.69995">
        <ele>2075.62</ele>
        <time>2010-04-16T12:55:26Z</time>
      </trkpt>
      <trkpt lat="46.00725" lon="7.70025">
        <ele>2072.26</ele>
        <time>2010-04-16T12:55:30Z</time>
      </trkpt>
      <trkpt lat="46.00724" lon="7.70035">
        <ele>2070.82</ele>
        <time>2010-04-16T12:55:31Z</time>
      </trkpt>
      <trkpt lat="46.00718" lon="7.70064">
        <ele>2069.38</ele>
        <time>2010-04-16T12:55:34Z</time>
      </trkpt>
      <trkpt lat="46.00717" lon="7.70078">
        <ele>2069.38</ele>
        <time>2010-04-16T12:55:36Z</time>
      </trkpt>
      <trkpt lat="46.00712" lon="7.70099">
        <ele>2070.34</ele>
        <time>2010-04-16T12:55:40Z</time>
      </trkpt>
      <trkpt lat="46.0071" lon="7.70106">
        <ele>2070.82</ele>
        <time>2010-04-16T12:55:42Z</time>
      </trkpt>
      <trkpt lat="46.007" lon="7.70136">
        <ele>2071.78</ele>
        <time>2010-04-16T12:55:52Z</time>
      </trkpt>
      <trkpt lat="46.00699" lon="7.70138">
        <ele>2072.26</ele>
        <time>2010-04-16T12:55:53Z</time>
      </trkpt>
      <trkpt lat="46.0069" lon="7.70176">
        <ele>2074.18</ele>
        <time>2010-04-16T12:56:05Z</time>
      </trkpt>
      <trkpt lat="46.0069" lon="7.70187">
        <ele>2074.66</ele>
        <time>2010-04-16T12:56:11Z</time>
      </trkpt>
      <trkpt lat="46.00689" lon="7.70189">
        <ele>2074.66</ele>
        <time>2010-04-16T12:56:13Z</time>
      </trkpt>
      <trkpt lat="46.00687" lon="7.70194">
        <ele>2075.14</ele>
        <time>2010-04-16T12:56:18Z</time>
      </trkpt>
      <trkpt lat="46.00681" lon="7.70204">
        <ele>2076.1</ele>
        <time>2010-04-16T12:56:27Z</time>
      </trkpt>
      <trkpt lat="46.00681" lon="7.70207">
        <ele>2076.1</ele>
        <time>2010-04-16T12:56:35Z</time>
      </trkpt>
      <trkpt lat="46.00677" lon="7.70213">
        <ele>2076.59</ele>
        <time>2010-04-16T12:56:43Z</time>
      </trkpt>
      <trkpt lat="46.00673" lon="7.70221">
        <ele>2075.62</ele>
        <time>2010-04-16T12:56:54Z</time>
      </trkpt>
      <trkpt lat="46.00673" lon="7.70221">
        <ele>2076.1</ele>
        <time>2010-04-16T12:57:26Z</time>
      </trkpt>
      <trkpt lat="46.00673" lon="7.70222">
        <ele>2076.1</ele>
        <time>2010-04-16T12:57:44Z</time>
      </trkpt>
      <trkpt lat="46.00673" lon="7.70224">
        <ele>2076.1</ele>
        <time>2010-04-16T12:58:04Z</time>
      </trkpt>
      <trkpt lat="46.0066" lon="7.70237">
        <ele>2075.14</ele>
        <time>2010-04-16T12:58:09Z</time>
      </trkpt>
      <trkpt lat="46.00644" lon="7.70278">
        <ele>2072.26</ele>
        <time>2010-04-16T12:58:17Z</time>
      </trkpt>
      <trkpt lat="46.00648" lon="7.70312">
        <ele>2071.3</ele>
        <time>2010-04-16T12:58:25Z</time>
      </trkpt>
      <trkpt lat="46.00648" lon="7.70318">
        <ele>2070.82</ele>
        <time>2010-04-16T12:58:26Z</time>
      </trkpt>
      <trkpt lat="46.00643" lon="7.70361">
        <ele>2069.38</ele>
        <time>2010-04-16T12:58:33Z</time>
      </trkpt>
      <trkpt lat="46.00638" lon="7.70392">
        <ele>2068.89</ele>
        <time>2010-04-16T12:58:39Z</time>
      </trkpt>
      <trkpt lat="46.00636" lon="7.70418">
        <ele>2068.41</ele>
        <time>2010-04-16T12:58:43Z</time>
      </trkpt>
      <trkpt lat="46.00635" lon="7.70435">
        <ele>2067.45</ele>
        <time>2010-04-16T12:58:45Z</time>
      </trkpt>
      <trkpt lat="46.00622" lon="7.70472">
        <ele>2066.01</ele>
        <time>2010-04-16T12:58:53Z</time>
      </trkpt>
      <trkpt lat="46.00615" lon="7.70516">
        <ele>2064.57</ele>
        <time>2010-04-16T12:59:01Z</time>
      </trkpt>
      <trkpt lat="46.00613" lon="7.70533">
        <ele>2063.13</ele>
        <time>2010-04-16T12:59:04Z</time>
      </trkpt>
      <trkpt lat="46.00611" lon="7.70539">
        <ele>2062.65</ele>
        <time>2010-04-16T12:59:05Z</time>
      </trkpt>
      <trkpt lat="46.00601" lon="7.70575">
        <ele>2062.17</ele>
        <time>2010-04-16T12:59:11Z</time>
      </trkpt>
      <trkpt lat="46.00599" lon="7.70588">
        <ele>2061.2</ele>
        <time>2010-04-16T12:59:15Z</time>
      </trkpt>
      <trkpt lat="46.00598" lon="7.70617">
        <ele>2061.2</ele>
        <time>2010-04-16T12:59:20Z</time>
      </trkpt>
      <trkpt lat="46.00597" lon="7.7063">
        <ele>2060.24</ele>
        <time>2010-04-16T12:59:23Z</time>
      </trkpt>
      <trkpt lat="46.00595" lon="7.7064">
        <ele>2059.28</ele>
        <time>2010-04-16T12:59:25Z</time>
      </trkpt>
      <trkpt lat="46.00591" lon="7.70664">
        <ele>2057.36</ele>
        <time>2010-04-16T12:59:29Z</time>
      </trkpt>
      <trkpt lat="46.0059" lon="7.70687">
        <ele>2057.84</ele>
        <time>2010-04-16T12:59:32Z</time>
      </trkpt>
      <trkpt lat="46.00587" lon="7.70725">
        <ele>2056.4</ele>
        <time>2010-04-16T12:59:37Z</time>
      </trkpt>
      <trkpt lat="46.00582" lon="7.7076">
        <ele>2056.4</ele>
        <time>2010-04-16T12:59:43Z</time>
      </trkpt>
      <trkpt lat="46.00582" lon="7.70765">
        <ele>2055.92</ele>
        <time>2010-04-16T12:59:44Z</time>
      </trkpt>
      <trkpt lat="46.00583" lon="7.70778">
        <ele>2054.96</ele>
        <time>2010-04-16T12:59:46Z</time>
      </trkpt>
      <trkpt lat="46.00587" lon="7.70798">
        <ele>2053.51</ele>
        <time>2010-04-16T12:59:49Z</time>
      </trkpt>
      <trkpt lat="46.00588" lon="7.70806">
        <ele>2053.51</ele>
        <time>2010-04-16T12:59:50Z</time>
      </trkpt>
      <trkpt lat="46.00587" lon="7.70826">
        <ele>2051.11</ele>
        <time>2010-04-16T12:59:53Z</time>
      </trkpt>
      <trkpt lat="46.00586" lon="7.70847">
        <ele>2048.71</ele>
        <time>2010-04-16T12:59:56Z</time>
      </trkpt>
      <trkpt lat="46.00585" lon="7.7087">
        <ele>2045.82</ele>
        <time>2010-04-16T13:00:00Z</time>
      </trkpt>
      <trkpt lat="46.00585" lon="7.70877">
        <ele>2045.34</ele>
        <time>2010-04-16T13:00:11Z</time>
      </trkpt>
      <trkpt lat="46.00585" lon="7.70878">
        <ele>2044.86</ele>
        <time>2010-04-16T13:00:30Z</time>
      </trkpt>
      <trkpt lat="46.00585" lon="7.70878">
        <ele>2044.86</ele>
        <time>2010-04-16T13:00:36Z</time>
      </trkpt>
      <trkpt lat="46.00585" lon="7.70882">
        <ele>2044.38</ele>
        <time>2010-04-16T13:00:41Z</time>
      </trkpt>
      <trkpt lat="46.00576" lon="7.70903">
        <ele>2042.94</ele>
        <time>2010-04-16T13:00:47Z</time>
      </trkpt>
      <trkpt lat="46.00574" lon="7.70927">
        <ele>2041.02</ele>
        <time>2010-04-16T13:00:50Z</time>
      </trkpt>
      <trkpt lat="46.00573" lon="7.70945">
        <ele>2037.65</ele>
        <time>2010-04-16T13:00:52Z</time>
      </trkpt>
      <trkpt lat="46.00572" lon="7.70961">
        <ele>2037.17</ele>
        <time>2010-04-16T13:00:54Z</time>
      </trkpt>
      <trkpt lat="46.00578" lon="7.70982">
        <ele>2032.84</ele>
        <time>2010-04-16T13:00:57Z</time>
      </trkpt>
      <trkpt lat="46.0058" lon="7.70998">
        <ele>2029.48</ele>
        <time>2010-04-16T13:00:59Z</time>
      </trkpt>
      <trkpt lat="46.00581" lon="7.71007">
        <ele>2028.04</ele>
        <time>2010-04-16T13:01:00Z</time>
      </trkpt>
      <trkpt lat="46.00579" lon="7.71061">
        <ele>2019.87</ele>
        <time>2010-04-16T13:01:05Z</time>
      </trkpt>
      <trkpt lat="46.00576" lon="7.71094">
        <ele>2015.54</ele>
        <time>2010-04-16T13:01:08Z</time>
      </trkpt>
      <trkpt lat="46.00572" lon="7.71116">
        <ele>2011.22</ele>
        <time>2010-04-16T13:01:10Z</time>
      </trkpt>
      <trkpt lat="46.00566" lon="7.71134">
        <ele>2010.25</ele>
        <time>2010-04-16T13:01:12Z</time>
      </trkpt>
      <trkpt lat="46.0056" lon="7.71143">
        <ele>2009.29</ele>
        <time>2010-04-16T13:01:14Z</time>
      </trkpt>
      <trkpt lat="46.00543" lon="7.71168">
        <ele>2004.97</ele>
        <time>2010-04-16T13:01:18Z</time>
      </trkpt>
      <trkpt lat="46.00526" lon="7.71209">
        <ele>1997.76</ele>
        <time>2010-04-16T13:01:21Z</time>
      </trkpt>
      <trkpt lat="46.00518" lon="7.71254">
        <ele>1992.95</ele>
        <time>2010-04-16T13:01:24Z</time>
      </trkpt>
      <trkpt lat="46.00516" lon="7.71268">
        <ele>1993.43</ele>
        <time>2010-04-16T13:01:25Z</time>
      </trkpt>
      <trkpt lat="46.00506" lon="7.71293">
        <ele>1990.55</ele>
        <time>2010-04-16T13:01:27Z</time>
      </trkpt>
      <trkpt lat="46.0049" lon="7.71341">
        <ele>1986.22</ele>
        <time>2010-04-16T13:01:31Z</time>
      </trkpt>
      <trkpt lat="46.00487" lon="7.71375">
        <ele>1984.3</ele>
        <time>2010-04-16T13:01:34Z</time>
      </trkpt>
      <trkpt lat="46.00481" lon="7.71411">
        <ele>1980.93</ele>
        <time>2010-04-16T13:01:37Z</time>
      </trkpt>
      <trkpt lat="46.0049" lon="7.71471">
        <ele>1976.61</ele>
        <time>2010-04-16T13:01:43Z</time>
      </trkpt>
      <trkpt lat="46.00491" lon="7.7148">
        <ele>1976.13</ele>
        <time>2010-04-16T13:01:44Z</time>
      </trkpt>
      <trkpt lat="46.00487" lon="7.71532">
        <ele>1971.8</ele>
        <time>2010-04-16T13:01:50Z</time>
      </trkpt>
      <trkpt lat="46.00483" lon="7.7154">
        <ele>1971.32</ele>
        <time>2010-04-16T13:01:51Z</time>
      </trkpt>
      <trkpt lat="46.00474" lon="7.71554">
        <ele>1970.36</ele>
        <time>2010-04-16T13:01:53Z</time>
      </trkpt>
      <trkpt lat="46.00464" lon="7.71573">
        <ele>1968.44</ele>
        <time>2010-04-16T13:01:56Z</time>
      </trkpt>
      <trkpt lat="46.00446" lon="7.71607">
        <ele>1967.48</ele>
        <time>2010-04-16T13:02:03Z</time>
      </trkpt>
      <trkpt lat="46.00442" lon="7.71618">
        <ele>1965.55</ele>
        <time>2010-04-16T13:02:05Z</time>
      </trkpt>
      <trkpt lat="46.00437" lon="7.71635">
        <ele>1964.11</ele>
        <time>2010-04-16T13:02:11Z</time>
      </trkpt>
      <trkpt lat="46.00437" lon="7.71636">
        <ele>1963.63</ele>
        <time>2010-04-16T13:02:30Z</time>
      </trkpt>
      <trkpt lat="46.00437" lon="7.71637">
        <ele>1964.11</ele>
        <time>2010-04-16T13:02:31Z</time>
      </trkpt>
      <trkpt lat="46.00425" lon="7.71662">
        <ele>1963.15</ele>
        <time>2010-04-16T13:02:39Z</time>
      </trkpt>
      <trkpt lat="46.00417" lon="7.71668">
        <ele>1962.67</ele>
        <time>2010-04-16T13:02:41Z</time>
      </trkpt>
      <trkpt lat="46.00401" lon="7.71677">
        <ele>1961.71</ele>
        <time>2010-04-16T13:02:44Z</time>
      </trkpt>
      <trkpt lat="46.00386" lon="7.71719">
        <ele>1959.78</ele>
        <time>2010-04-16T13:02:50Z</time>
      </trkpt>
      <trkpt lat="46.00398" lon="7.71743">
        <ele>1959.3</ele>
        <time>2010-04-16T13:02:55Z</time>
      </trkpt>
      <trkpt lat="46.00399" lon="7.71782">
        <ele>1957.38</ele>
        <time>2010-04-16T13:03:02Z</time>
      </trkpt>
      <trkpt lat="46.00378" lon="7.71798">
        <ele>1954.02</ele>
        <time>2010-04-16T13:03:06Z</time>
      </trkpt>
      <trkpt lat="46.00363" lon="7.71836">
        <ele>1951.61</ele>
        <time>2010-04-16T13:03:11Z</time>
      </trkpt>
      <trkpt lat="46.00357" lon="7.71871">
        <ele>1947.77</ele>
        <time>2010-04-16T13:03:15Z</time>
      </trkpt>
      <trkpt lat="46.00342" lon="7.71907">
        <ele>1944.88</ele>
        <time>2010-04-16T13:03:19Z</time>
      </trkpt>
      <trkpt lat="46.00338" lon="7.71937">
        <ele>1943.44</ele>
        <time>2010-04-16T13:03:22Z</time>
      </trkpt>
      <trkpt lat="46.00337" lon="7.71991">
        <ele>1938.64</ele>
        <time>2010-04-16T13:03:27Z</time>
      </trkpt>
      <trkpt lat="46.00337" lon="7.72001">
        <ele>1938.64</ele>
        <time>2010-04-16T13:03:28Z</time>
      </trkpt>
      <trkpt lat="46.00337" lon="7.72011">
        <ele>1938.16</ele>
        <time>2010-04-16T13:03:29Z</time>
      </trkpt>
      <trkpt lat="46.00338" lon="7.72027">
        <ele>1937.67</ele>
        <time>2010-04-16T13:03:31Z</time>
      </trkpt>
      <trkpt lat="46.00333" lon="7.7205">
        <ele>1935.75</ele>
        <time>2010-04-16T13:03:34Z</time>
      </trkpt>
      <trkpt lat="46.00319" lon="7.72092">
        <ele>1932.87</ele>
        <time>2010-04-16T13:03:39Z</time>
      </trkpt>
      <trkpt lat="46.00324" lon="7.72119">
        <ele>1931.43</ele>
        <time>2010-04-16T13:03:42Z</time>
      </trkpt>
      <trkpt lat="46.00328" lon="7.72132">
        <ele>1930.46</ele>
        <time>2010-04-16T13:03:44Z</time>
      </trkpt>
      <trkpt lat="46.0033" lon="7.72139">
        <ele>1929.98</ele>
        <time>2010-04-16T13:03:45Z</time>
      </trkpt>
      <trkpt lat="46.00331" lon="7.72155">
        <ele>1929.98</ele>
        <time>2010-04-16T13:03:47Z</time>
      </trkpt>
      <trkpt lat="46.00329" lon="7.72178">
        <ele>1928.06</ele>
        <time>2010-04-16T13:03:50Z</time>
      </trkpt>
      <trkpt lat="46.00328" lon="7.72191">
        <ele>1927.58</ele>
        <time>2010-04-16T13:03:52Z</time>
      </trkpt>
      <trkpt lat="46.00326" lon="7.72204">
        <ele>1926.14</ele>
        <time>2010-04-16T13:03:54Z</time>
      </trkpt>
      <trkpt lat="46.00322" lon="7.72223">
        <ele>1926.14</ele>
        <time>2010-04-16T13:03:57Z</time>
      </trkpt>
      <trkpt lat="46.00317" lon="7.72262">
        <ele>1925.18</ele>
        <time>2010-04-16T13:04:03Z</time>
      </trkpt>
      <trkpt lat="46.0032" lon="7.72341">
        <ele>1921.81</ele>
        <time>2010-04-16T13:04:16Z</time>
      </trkpt>
      <trkpt lat="46.00325" lon="7.72357">
        <ele>1920.85</ele>
        <time>2010-04-16T13:04:19Z</time>
      </trkpt>
      <trkpt lat="46.00328" lon="7.72374">
        <ele>1920.37</ele>
        <time>2010-04-16T13:04:27Z</time>
      </trkpt>
      <trkpt lat="46.00328" lon="7.72376">
        <ele>1920.37</ele>
        <time>2010-04-16T13:04:28Z</time>
      </trkpt>
      <trkpt lat="46.00325" lon="7.72401">
        <ele>1920.85</ele>
        <time>2010-04-16T13:04:34Z</time>
      </trkpt>
      <trkpt lat="46.00325" lon="7.72421">
        <ele>1919.89</ele>
        <time>2010-04-16T13:04:37Z</time>
      </trkpt>
      <trkpt lat="46.00332" lon="7.72454">
        <ele>1917.97</ele>
        <time>2010-04-16T13:04:42Z</time>
      </trkpt>
      <trkpt lat="46.00351" lon="7.725">
        <ele>1916.04</ele>
        <time>2010-04-16T13:04:51Z</time>
      </trkpt>
      <trkpt lat="46.00363" lon="7.72531">
        <ele>1914.12</ele>
        <time>2010-04-16T13:05:02Z</time>
      </trkpt>
      <trkpt lat="46.00363" lon="7.72531">
        <ele>1913.64</ele>
        <time>2010-04-16T13:05:03Z</time>
      </trkpt>
      <trkpt lat="46.00363" lon="7.72531">
        <ele>1914.12</ele>
        <time>2010-04-16T13:05:13Z</time>
      </trkpt>
      <trkpt lat="46.00368" lon="7.72565">
        <ele>1913.64</ele>
        <time>2010-04-16T13:05:22Z</time>
      </trkpt>
      <trkpt lat="46.00369" lon="7.7258">
        <ele>1913.16</ele>
        <time>2010-04-16T13:05:25Z</time>
      </trkpt>
      <trkpt lat="46.00371" lon="7.72602">
        <ele>1911.24</ele>
        <time>2010-04-16T13:05:29Z</time>
      </trkpt>
      <trkpt lat="46.00373" lon="7.72666">
        <ele>1908.35</ele>
        <time>2010-04-16T13:05:39Z</time>
      </trkpt>
      <trkpt lat="46.00373" lon="7.72673">
        <ele>1907.87</ele>
        <time>2010-04-16T13:05:40Z</time>
      </trkpt>
      <trkpt lat="46.00373" lon="7.72693">
        <ele>1907.39</ele>
        <time>2010-04-16T13:05:43Z</time>
      </trkpt>
      <trkpt lat="46.00364" lon="7.72715">
        <ele>1904.51</ele>
        <time>2010-04-16T13:05:47Z</time>
      </trkpt>
      <trkpt lat="46.00338" lon="7.7277">
        <ele>1903.55</ele>
        <time>2010-04-16T13:06:00Z</time>
      </trkpt>
      <trkpt lat="46.00334" lon="7.72776">
        <ele>1903.55</ele>
        <time>2010-04-16T13:06:02Z</time>
      </trkpt>
      <trkpt lat="46.00319" lon="7.72795">
        <ele>1902.11</ele>
        <time>2010-04-16T13:06:10Z</time>
      </trkpt>
      <trkpt lat="46.00314" lon="7.72805">
        <ele>1901.14</ele>
        <time>2010-04-16T13:06:12Z</time>
      </trkpt>
      <trkpt lat="46.00312" lon="7.72824">
        <ele>1899.22</ele>
        <time>2010-04-16T13:06:15Z</time>
      </trkpt>
      <trkpt lat="46.00308" lon="7.72842">
        <ele>1898.74</ele>
        <time>2010-04-16T13:06:22Z</time>
      </trkpt>
      <trkpt lat="46.00307" lon="7.72845">
        <ele>1900.18</ele>
        <time>2010-04-16T13:06:28Z</time>
      </trkpt>
      <trkpt lat="46.00306" lon="7.72847">
        <ele>1899.7</ele>
        <time>2010-04-16T13:06:30Z</time>
      </trkpt>
      <trkpt lat="46.00302" lon="7.72853">
        <ele>1900.66</ele>
        <time>2010-04-16T13:06:38Z</time>
      </trkpt>
      <trkpt lat="46.00301" lon="7.72859">
        <ele>1901.63</ele>
        <time>2010-04-16T13:06:45Z</time>
      </trkpt>
      <trkpt lat="46.0029" lon="7.72869">
        <ele>1902.11</ele>
        <time>2010-04-16T13:06:52Z</time>
      </trkpt>
      <trkpt lat="46.0028" lon="7.72873">
        <ele>1900.66</ele>
        <time>2010-04-16T13:06:55Z</time>
      </trkpt>
      <trkpt lat="46.00262" lon="7.72876">
        <ele>1898.26</ele>
        <time>2010-04-16T13:06:59Z</time>
      </trkpt>
      <trkpt lat="46.00249" lon="7.72884">
        <ele>1898.74</ele>
        <time>2010-04-16T13:07:02Z</time>
      </trkpt>
      <trkpt lat="46.00239" lon="7.72887">
        <ele>1895.38</ele>
        <time>2010-04-16T13:07:04Z</time>
      </trkpt>
      <trkpt lat="46.00231" lon="7.72885">
        <ele>1894.9</ele>
        <time>2010-04-16T13:07:06Z</time>
      </trkpt>
      <trkpt lat="46.00218" lon="7.72882">
        <ele>1893.45</ele>
        <time>2010-04-16T13:07:10Z</time>
      </trkpt>
      <trkpt lat="46.00199" lon="7.72883">
        <ele>1890.09</ele>
        <time>2010-04-16T13:07:14Z</time>
      </trkpt>
      <trkpt lat="46.0018" lon="7.72907">
        <ele>1885.76</ele>
        <time>2010-04-16T13:07:18Z</time>
      </trkpt>
      <trkpt lat="46.00177" lon="7.72916">
        <ele>1885.76</ele>
        <time>2010-04-16T13:07:19Z</time>
      </trkpt>
      <trkpt lat="46.00174" lon="7.72925">
        <ele>1885.28</ele>
        <time>2010-04-16T13:07:20Z</time>
      </trkpt>
      <trkpt lat="46.00165" lon="7.72965">
        <ele>1881.44</ele>
        <time>2010-04-16T13:07:24Z</time>
      </trkpt>
      <trkpt lat="46.00157" lon="7.72989">
        <ele>1879.03</ele>
        <time>2010-04-16T13:07:27Z</time>
      </trkpt>
      <trkpt lat="46.00142" lon="7.73026">
        <ele>1875.67</ele>
        <time>2010-04-16T13:07:32Z</time>
      </trkpt>
      <trkpt lat="46.00139" lon="7.73036">
        <ele>1874.23</ele>
        <time>2010-04-16T13:07:33Z</time>
      </trkpt>
      <trkpt lat="46.00135" lon="7.7306">
        <ele>1869.9</ele>
        <time>2010-04-16T13:07:37Z</time>
      </trkpt>
      <trkpt lat="46.00136" lon="7.7306">
        <ele>1870.86</ele>
        <time>2010-04-16T13:07:50Z</time>
      </trkpt>
      <trkpt lat="46.00136" lon="7.7306">
        <ele>1870.38</ele>
        <time>2010-04-16T13:08:12Z</time>
      </trkpt>
      <trkpt lat="46.00136" lon="7.73059">
        <ele>1869.9</ele>
        <time>2010-04-16T13:08:31Z</time>
      </trkpt>
      <trkpt lat="46.00138" lon="7.73063">
        <ele>1870.38</ele>
        <time>2010-04-16T13:08:41Z</time>
      </trkpt>
      <trkpt lat="46.00137" lon="7.73065">
        <ele>1870.38</ele>
        <time>2010-04-16T13:08:46Z</time>
      </trkpt>
      <trkpt lat="46.00138" lon="7.73063">
        <ele>1870.38</ele>
        <time>2010-04-16T13:08:58Z</time>
      </trkpt>
      <trkpt lat="46.00138" lon="7.73064">
        <ele>1870.38</ele>
        <time>2010-04-16T13:09:09Z</time>
      </trkpt>
      <trkpt lat="46.00138" lon="7.73065">
        <ele>1871.34</ele>
        <time>2010-04-16T13:09:14Z</time>
      </trkpt>
      <trkpt lat="46.00137" lon="7.73067">
        <ele>1867.02</ele>
        <time>2010-04-16T13:09:36Z</time>
      </trkpt>
      <trkpt lat="46.00137" lon="7.73067">
        <ele>1870.86</ele>
        <time>2010-04-16T13:09:37Z</time>
      </trkpt>
      <trkpt lat="46.00137" lon="7.73066">
        <ele>1870.38</ele>
        <time>2010-04-16T13:10:38Z</time>
      </trkpt>
      <trkpt lat="46.00137" lon="7.73067">
        <ele>1867.5</ele>
        <time>2010-04-16T13:14:30Z</time>
      </trkpt>
      <trkpt lat="46.00137" lon="7.73067">
        <ele>1874.23</ele>
        <time>2010-04-16T13:14:33Z</time>
      </trkpt>
      <trkpt lat="46.00137" lon="7.73067">
        <ele>1871.34</ele>
        <time>2010-04-16T13:14:34Z</time>
      </trkpt>
      <trkpt lat="46.00137" lon="7.73068">
        <ele>1874.23</ele>
        <time>2010-04-16T13:14:35Z</time>
      </trkpt>
      <trkpt lat="46.00137" lon="7.73068">
        <ele>1868.46</ele>
        <time>2010-04-16T13:14:36Z</time>
      </trkpt>
      <trkpt lat="46.00137" lon="7.73068">
        <ele>1873.75</ele>
        <time>2010-04-16T13:14:37Z</time>
      </trkpt>
      <trkpt lat="46.00137" lon="7.73068">
        <ele>1869.42</ele>
        <time>2010-04-16T13:14:38Z</time>
      </trkpt>
      <trkpt lat="46.00137" lon="7.73068">
        <ele>1874.23</ele>
        <time>2010-04-16T13:14:39Z</time>
      </trkpt>
      <trkpt lat="46.00137" lon="7.73068">
        <ele>1869.9</ele>
        <time>2010-04-16T13:14:40Z</time>
      </trkpt>
      <trkpt lat="46.00139" lon="7.73066">
        <ele>1865.09</ele>
        <time>2010-04-16T13:14:52Z</time>
      </trkpt>
      <trkpt lat="46.00139" lon="7.73066">
        <ele>1870.38</ele>
        <time>2010-04-16T13:14:53Z</time>
      </trkpt>
      <trkpt lat="46.00139" lon="7.73066">
        <ele>1870.86</ele>
        <time>2010-04-16T13:14:55Z</time>
      </trkpt>
      <trkpt lat="46.00139" lon="7.73066">
        <ele>1869.9</ele>
        <time>2010-04-16T13:14:58Z</time>
      </trkpt>
      <trkpt lat="46.00139" lon="7.73066">
        <ele>1870.86</ele>
        <time>2010-04-16T13:15:00Z</time>
      </trkpt>
    </trkseg>
  </trk>
</gpx>